
Distance (Route):
Temperature : 1.8°C
Humidity : 20.8%
Pressure : -1.0hPa| Receiver | Frames | First received | Last received |
|---|---|---|---|
| IW2NTF | 533 | 2026-08-31 11:23:56 | 2026-08-31 13:37:31 |
| DO3MHA-11 | 463 | 2026-08-31 11:32:26 | 2026-08-31 13:49:19 |
| HASLITAL | 256 | 2026-08-31 11:24:24 | 2026-08-31 13:14:46 |
| DO3MHA-12 | 248 | 2026-08-31 11:33:21 | 2026-08-31 13:46:48 |
| DN1GJH-1 | 187 | 2026-08-31 12:10:14 | 2026-08-31 13:34:10 |
| DF1GD-15 | 103 | 2026-08-31 12:49:49 | 2026-08-31 13:45:47 |
| DF7PN | 98 | 2026-08-31 11:42:55 | 2026-08-31 13:25:58 |
| OE5DXL-15 | 79 | 2026-08-31 12:03:11 | 2026-08-31 13:12:20 |
| DB0UT-7 | 77 | 2026-08-31 11:14:33 | 2026-08-31 13:33:06 |
| DK5PH-5 | 76 | 2026-08-31 11:39:28 | 2026-08-31 13:34:48 |
| DL1ZP-14 | 67 | 2026-08-31 11:40:38 | 2026-08-31 13:17:59 |
| DH7VM-15 | 48 | 2026-08-31 11:34:40 | 2026-08-31 13:24:10 |
| LOEBOVI | 43 | 2026-08-31 11:52:18 | 2026-08-31 13:20:30 |
| DL9SK-14 | 34 | 2026-08-31 13:23:36 | 2026-08-31 13:51:33 |
| OE9MKV-15 | 31 | 2026-08-31 11:53:35 | 2026-08-31 13:29:56 |
| DB0ND-19 | 19 | 2026-08-31 11:16:51 | 2026-08-31 11:28:13 |
| DL6DJ-15 | 16 | 2026-08-31 12:14:31 | 2026-08-31 13:09:55 |
| DF3TZ-5 | 1 | 2026-08-31 13:24:50 | 2026-08-31 13:24:50 |
| Receiver | Date | Latitude | Longitude | Direction | Speed | Altitude | Climb | Temperature | Humidity | Pressure | Voltage | Killtimer | Uptime | BKT | XDATA |
|---|---|---|---|---|---|---|---|---|---|---|---|---|---|---|---|
| DL9SK-14 | 2026-08-31 13:51:33 | 47.43186 | 9.05261 | 55° | 66km/h | 3402m | -3.8m/s | 1.8°C | 20.8% | -1.0hPa | 2.6V | 00:00:00 | 00:00:00 | 00:00:00 | |
| DL9SK-14 | 2026-08-31 13:51:02 | 47.43124 | 9.05129 | 57° | 73km/h | 3425m | -3.9m/s | 1.7°C | 15.6% | -1.0hPa | 2.6V | 00:00:00 | 00:00:00 | 00:00:00 | |
| DL9SK-14 | 2026-08-31 13:50:31 | 47.42796 | 9.04410 | 57° | 75km/h | 3542m | -4.0m/s | 0.8°C | 14.9% | -1.0hPa | 2.6V | 00:00:00 | 00:00:00 | 00:00:00 | |
| DL9SK-14 | 2026-08-31 13:50:00 | 47.42449 | 9.03684 | 53° | 78km/h | 3663m | -3.5m/s | -0.4°C | 21.6% | -1.0hPa | 2.6V | 00:00:00 | 00:00:00 | 00:00:00 | |
| DL9SK-14 | 2026-08-31 13:49:29 | 47.42102 | 9.02949 | 55° | 75km/h | 3770m | -3.7m/s | -1.4°C | 22.6% | -1.0hPa | 2.6V | 00:00:00 | 00:00:00 | 00:00:00 | |
| DO3MHA-11 | 2026-08-31 13:49:19 | 47.42003 | 9.02738 | 54° | 75km/h | 3807m | -4.1m/s | -1.8°C | 21.9% | 0hPa | 2.6V | 00:00:00 | 03:23:14 | 00:00:00 | |
| DO3MHA-11 | 2026-08-31 13:49:14 | 47.41950 | 9.02623 | 56° | 77km/h | 3826m | -4.1m/s | -1.8°C | 16.1% | 0hPa | 2.6V | 00:00:00 | 03:23:09 | 00:00:00 | |
| DO3MHA-11 | 2026-08-31 13:49:09 | 47.41896 | 9.02504 | 58° | 75km/h | 3846m | -4.1m/s | -2.0°C | 15.9% | 0hPa | 2.6V | 00:00:00 | 03:23:04 | 00:00:00 | |
| DO3MHA-11 | 2026-08-31 13:49:04 | 47.41843 | 9.02389 | 58° | 75km/h | 3867m | -4.2m/s | -2.1°C | 17.3% | 0hPa | 2.6V | 00:00:00 | 03:22:59 | 00:00:00 | |
| DL9SK-14 | 2026-08-31 13:48:58 | 47.41771 | 9.02220 | 62° | 77km/h | 3897m | -4.3m/s | -2.4°C | 8.7% | -1.0hPa | 2.6V | 00:00:00 | 00:00:00 | 00:00:00 | |
| DO3MHA-11 | 2026-08-31 13:48:54 | 47.41744 | 9.02144 | 61° | 77km/h | 3909m | -4.1m/s | -2.4°C | 8.3% | 0hPa | 2.6V | 00:00:00 | 03:22:49 | 00:00:00 | |
| DO3MHA-11 | 2026-08-31 13:48:49 | 47.41696 | 9.02018 | 62° | 73km/h | 3930m | -4.0m/s | -2.5°C | 8.2% | 0hPa | 2.6V | 00:00:00 | 03:22:44 | 00:00:00 | |
| DO3MHA-11 | 2026-08-31 13:48:44 | 47.41650 | 9.01899 | 63° | 73km/h | 3951m | -3.9m/s | -1.8°C | 6.6% | 0hPa | 2.6V | 00:00:00 | 03:22:39 | 00:00:00 | |
| DO3MHA-11 | 2026-08-31 13:48:39 | 47.41608 | 9.01776 | 64° | 75km/h | 3972m | -4.1m/s | -1.6°C | 5.2% | 0hPa | 2.7V | 00:00:00 | 03:22:34 | 00:00:00 | |
| DO3MHA-11 | 2026-08-31 13:48:34 | 47.41566 | 9.01651 | 62° | 75km/h | 3993m | -4.3m/s | -1.8°C | 5.3% | 0hPa | 2.7V | 00:00:00 | 03:22:29 | 00:00:00 | |
| DO3MHA-11 | 2026-08-31 13:48:29 | 47.41523 | 9.01526 | 64° | 77km/h | 4015m | -4.1m/s | -1.8°C | 5.4% | 0hPa | 2.7V | 00:00:00 | 03:22:24 | 00:00:00 | |
| DL9SK-14 | 2026-08-31 13:48:26 | 47.41497 | 9.01449 | 63° | 78km/h | 4028m | -4.5m/s | -2.0°C | 5.3% | -1.0hPa | 2.6V | 00:00:00 | 00:00:00 | 00:00:00 | |
| DO3MHA-11 | 2026-08-31 13:48:24 | 47.41480 | 9.01395 | 68° | 77km/h | 4037m | -4.3m/s | -2.0°C | 5.5% | 0hPa | 2.6V | 00:00:00 | 03:22:19 | 00:00:00 | |
| DO3MHA-11 | 2026-08-31 13:48:19 | 47.41441 | 9.01265 | 66° | 77km/h | 4059m | -4.3m/s | -2.0°C | 5.5% | 0hPa | 2.6V | 07:46:00 | 03:22:14 | 00:00:00 | |
| DO3MHA-11 | 2026-08-31 13:48:14 | 47.41395 | 9.01136 | 60° | 88km/h | 4081m | -4.3m/s | -2.1°C | 5.5% | 0hPa | 2.6V | 00:00:00 | 03:22:09 | 00:00:00 | |
| DO3MHA-11 | 2026-08-31 13:48:09 | 47.41349 | 9.00987 | 72° | 78km/h | 4103m | -4.3m/s | -2.2°C | 5.4% | 0hPa | 2.5V | 00:00:00 | 03:22:04 | 00:00:00 | |
| DO3MHA-11 | 2026-08-31 13:48:04 | 47.41320 | 9.00849 | 71° | 71km/h | 4125m | -4.3m/s | -2.4°C | 5.4% | 0hPa | 2.5V | 00:00:00 | 03:21:59 | 00:00:00 | |
| DL9SK-14 | 2026-08-31 13:47:55 | 47.41228 | 9.00589 | 68° | 86km/h | 4169m | -4.5m/s | -2.6°C | 5.3% | -1.0hPa | 2.5V | 00:00:00 | 00:00:00 | 00:00:00 | |
| DO3MHA-11 | 2026-08-31 13:47:50 | 47.41203 | 9.00477 | 74° | 71km/h | 4187m | -4.6m/s | -2.8°C | 5.4% | 0hPa | 2.5V | 00:00:00 | 03:21:45 | 00:00:00 | |
| DO3MHA-11 | 2026-08-31 13:47:45 | 47.41172 | 9.00355 | 63° | 84km/h | 4211m | -4.6m/s | -2.8°C | 5.6% | 0hPa | 2.5V | 00:00:00 | 03:21:40 | 00:00:00 | |
| DO3MHA-11 | 2026-08-31 13:47:32 | 47.41042 | 8.99992 | 69° | 86km/h | 4269m | -4.6m/s | -3.2°C | 6.7% | 0hPa | 2.5V | 00:00:00 | 03:21:27 | 00:00:00 | |
| DO3MHA-11 | 2026-08-31 13:47:27 | 47.41010 | 8.99841 | 76° | 73km/h | 4291m | -4.3m/s | -3.5°C | 7.5% | 0hPa | 2.5V | 07:47:00 | 03:21:22 | 00:00:00 | |
| DL9SK-14 | 2026-08-31 13:47:24 | 47.40995 | 8.99761 | 73° | 69km/h | 4304m | -4.3m/s | -3.7°C | 8.7% | -1.0hPa | 2.5V | 00:00:00 | 00:00:00 | 00:00:00 | |
| DO3MHA-11 | 2026-08-31 13:47:22 | 47.40984 | 8.99713 | 71° | 69km/h | 4313m | -4.4m/s | -3.7°C | 9.5% | 0hPa | 2.5V | 00:00:00 | 03:21:17 | 00:00:00 | |
| DO3MHA-11 | 2026-08-31 13:47:17 | 47.40949 | 8.99591 | 65° | 80km/h | 4336m | -4.1m/s | -3.7°C | 10.2% | 0hPa | 2.5V | 00:00:00 | 03:21:12 | 00:00:00 | |
| DO3MHA-11 | 2026-08-31 13:47:07 | 47.40859 | 8.99320 | 65° | 78km/h | 4379m | -4.5m/s | -3.9°C | 15.8% | 0hPa | 2.6V | 00:00:00 | 03:21:02 | 00:00:00 | |
| DL9SK-14 | 2026-08-31 13:46:53 | 47.40741 | 8.98962 | 64° | 75km/h | 4442m | -4.7m/s | -4.5°C | 19.5% | -1.0hPa | 2.6V | 00:00:00 | 00:00:00 | 00:00:00 | |
| DO3MHA-11 | 2026-08-31 13:46:51 | 47.40723 | 8.98908 | 66° | 88km/h | 4451m | -4.3m/s | -4.5°C | 20.2% | 0hPa | 2.6V | 00:00:00 | 03:20:46 | 00:00:00 | |
| DO3MHA-12 | 2026-08-31 13:46:48 | 47.40698 | 8.98819 | 68° | 89km/h | 4464m | -4.5m/s | -4.6°C | 20.3% | 0hPa | 2.6V | 00:00:00 | 03:20:43 | 00:00:00 | |
| DO3MHA-11 | 2026-08-31 13:46:46 | 47.40680 | 8.98758 | 68° | 89km/h | 4473m | -4.2m/s | -4.7°C | 20.4% | 0hPa | 2.6V | 07:47:00 | 03:20:41 | 00:00:00 | |
| DO3MHA-12 | 2026-08-31 13:46:43 | 47.40655 | 8.98665 | 69° | 89km/h | 4487m | -4.6m/s | -4.8°C | 20.6% | 0hPa | 2.5V | 00:00:00 | 03:20:38 | 00:00:00 | |
| DO3MHA-11 | 2026-08-31 13:46:41 | 47.40638 | 8.98603 | 69° | 89km/h | 4496m | -4.5m/s | -4.9°C | 20.7% | 0hPa | 2.5V | 00:00:00 | 03:20:36 | 00:00:00 | |
| DO3MHA-12 | 2026-08-31 13:46:38 | 47.40612 | 8.98510 | 68° | 86km/h | 4510m | -4.6m/s | -5.0°C | 20.3% | 0hPa | 2.5V | 00:00:00 | 03:20:33 | 00:00:00 | |
| DO3MHA-11 | 2026-08-31 13:46:36 | 47.40595 | 8.98450 | 66° | 82km/h | 4519m | -4.4m/s | -5.0°C | 20.1% | 0hPa | 2.5V | 00:00:00 | 03:20:31 | 00:00:00 | |
| DO3MHA-12 | 2026-08-31 13:46:33 | 47.40568 | 8.98366 | 65° | 78km/h | 4532m | -4.3m/s | -5.1°C | 20.2% | 0hPa | 2.5V | 07:48:00 | 03:20:28 | 00:00:00 | |
| DO3MHA-11 | 2026-08-31 13:46:31 | 47.40551 | 8.98312 | 65° | 75km/h | 4541m | -4.5m/s | -5.2°C | 20.3% | 0hPa | 2.5V | 00:00:00 | 03:20:26 | 00:00:00 | |
| DO3MHA-12 | 2026-08-31 13:46:28 | 47.40526 | 8.98235 | 65° | 71km/h | 4555m | -4.5m/s | -5.4°C | 20.5% | 0hPa | 2.6V | 00:00:00 | 03:20:23 | 00:00:00 | |
| DO3MHA-11 | 2026-08-31 13:46:26 | 47.40510 | 8.98186 | 66° | 69km/h | 4563m | -4.5m/s | -5.4°C | 20.7% | 0hPa | 2.6V | 00:00:00 | 03:20:21 | 00:00:00 | |
| DO3MHA-12 | 2026-08-31 13:46:23 | 47.40489 | 8.98114 | 69° | 69km/h | 4577m | -4.6m/s | -5.5°C | 20.6% | 0hPa | 2.6V | 00:00:00 | 03:20:18 | 00:00:00 | |
| DL9SK-14 | 2026-08-31 13:46:22 | 47.40484 | 8.98090 | 71° | 68km/h | 4582m | -4.7m/s | -5.7°C | 20.0% | -1.0hPa | 2.6V | 00:00:00 | 00:00:00 | 00:00:00 | |
| DO3MHA-11 | 2026-08-31 13:46:21 | 47.40478 | 8.98065 | 75° | 73km/h | 4587m | -4.8m/s | -5.7°C | 20.9% | 0hPa | 2.6V | 00:00:00 | 03:20:16 | 00:00:00 | |
| DO3MHA-12 | 2026-08-31 13:46:18 | 47.40467 | 8.97987 | 81° | 82km/h | 4601m | -4.7m/s | -5.8°C | 21.9% | 0hPa | 2.6V | 00:00:00 | 03:20:13 | 00:00:00 | |
| DO3MHA-11 | 2026-08-31 13:46:16 | 47.40461 | 8.97930 | 81° | 88km/h | 4610m | -4.6m/s | -5.8°C | 22.4% | 0hPa | 2.6V | 00:00:00 | 03:20:11 | 00:00:00 | |
| DO3MHA-12 | 2026-08-31 13:46:13 | 47.40448 | 8.97834 | 77° | 93km/h | 4624m | -4.5m/s | -5.9°C | 22.8% | 0hPa | 2.6V | 00:00:00 | 03:20:08 | 00:00:00 | |
| DO3MHA-11 | 2026-08-31 13:46:11 | 47.40436 | 8.97768 | 75° | 93km/h | 4633m | -4.5m/s | -5.9°C | 22.8% | 0hPa | 2.6V | 00:00:00 | 03:20:06 | 00:00:00 | |
| DO3MHA-12 | 2026-08-31 13:46:08 | 47.40415 | 8.97668 | 71° | 89km/h | 4647m | -4.7m/s | -6.0°C | 22.7% | 0hPa | 2.6V | 00:00:00 | 03:20:03 | 00:00:00 | |
| DO3MHA-11 | 2026-08-31 13:46:06 | 47.40398 | 8.97604 | 68° | 86km/h | 4656m | -4.4m/s | -6.0°C | 22.9% | 0hPa | 2.6V | 07:48:00 | 03:20:01 | 00:00:00 | |
| DO3MHA-12 | 2026-08-31 13:46:03 | 47.40371 | 8.97515 | 65° | 77km/h | 4669m | -4.4m/s | -6.0°C | 22.6% | 0hPa | 2.6V | 00:00:00 | 03:19:58 | 00:00:00 | |
| DO3MHA-11 | 2026-08-31 13:46:01 | 47.40353 | 8.97461 | 65° | 71km/h | 4678m | -4.5m/s | -6.0°C | 22.5% | 0hPa | 2.6V | 00:00:00 | 03:19:56 | 00:00:00 | |
| DO3MHA-12 | 2026-08-31 13:45:58 | 47.40331 | 8.97387 | 69° | 69km/h | 4692m | -4.6m/s | -6.1°C | 22.6% | 0hPa | 2.6V | 00:00:00 | 03:19:53 | 00:00:00 | |
| DO3MHA-12 | 2026-08-31 13:45:53 | 47.40310 | 8.97258 | 83° | 84km/h | 4715m | -4.1m/s | -6.3°C | 22.1% | 0hPa | 2.6V | 07:48:00 | 03:19:48 | 00:00:00 | |
| DO3MHA-11 | 2026-08-31 13:45:51 | 47.40306 | 8.97199 | 83° | 89km/h | 4724m | -4.4m/s | -6.4°C | 21.5% | 0hPa | 2.6V | 00:00:00 | 03:19:46 | 00:00:00 | |
| DO3MHA-12 | 2026-08-31 13:45:48 | 47.40294 | 8.97101 | 78° | 91km/h | 4738m | -4.4m/s | -6.4°C | 20.5% | 0hPa | 2.6V | 00:00:00 | 03:19:43 | 00:00:00 | |
| DF1GD-15 | 2026-08-31 13:45:47 | 47.40294 | 8.97101 | 79° | 91km/h | 4738m | -4.5m/s | -6.4°C | 19.9% | 0hPa | 2.6V | 00:00:00 | 00:00:00 | 00:00:00 | |
| DO3MHA-11 | 2026-08-31 13:45:46 | 47.40282 | 8.97034 | 73° | 89km/h | 4747m | -4.5m/s | -6.3°C | 20.4% | 0hPa | 2.6V | 00:00:00 | 03:19:41 | 00:00:00 | |
| DO3MHA-12 | 2026-08-31 13:45:43 | 47.40258 | 8.96939 | 67° | 82km/h | 4760m | -4.5m/s | -6.4°C | 20.3% | 0hPa | 2.6V | 00:00:00 | 03:19:38 | 00:00:00 | |
| DO3MHA-11 | 2026-08-31 13:45:41 | 47.40240 | 8.96881 | 66° | 77km/h | 4770m | -4.5m/s | -6.4°C | 20.2% | 0hPa | 2.6V | 00:00:00 | 03:19:36 | 00:00:00 | |
| DO3MHA-12 | 2026-08-31 13:45:38 | 47.40216 | 8.96801 | 68° | 71km/h | 4784m | -4.5m/s | -6.4°C | 20.3% | 0hPa | 2.6V | 00:00:00 | 03:19:33 | 00:00:00 | |
| DO3MHA-11 | 2026-08-31 13:45:36 | 47.40203 | 8.96752 | 72° | 69km/h | 4793m | -4.4m/s | -6.5°C | 20.2% | 0hPa | 2.6V | 00:00:00 | 03:19:31 | 00:00:00 | |
| DO3MHA-11 | 2026-08-31 13:45:31 | 47.40183 | 8.96623 | 82° | 80km/h | 4816m | -4.6m/s | -6.6°C | 19.9% | 0hPa | 2.6V | 00:00:00 | 03:19:26 | 00:00:00 | |
| DO3MHA-11 | 2026-08-31 13:45:26 | 47.40168 | 8.96472 | 80° | 91km/h | 4838m | -4.4m/s | -6.7°C | 20.0% | 0hPa | 2.6V | 07:49:00 | 03:19:21 | 00:00:00 | |
| DF1GD-15 | 2026-08-31 13:45:24 | 47.40163 | 8.96440 | 80° | 89km/h | 4843m | -4.3m/s | -6.8°C | 19.4% | 0hPa | 2.6V | 00:00:00 | 00:00:00 | 00:00:00 | |
| DO3MHA-12 | 2026-08-31 13:45:21 | 47.40143 | 8.96306 | 77° | 95km/h | 4861m | -4.6m/s | -6.9°C | 20.0% | 0hPa | 2.6V | 00:00:00 | 03:19:16 | 00:00:00 | |
| DL9SK-14 | 2026-08-31 13:45:20 | 47.40138 | 8.96272 | 75° | 93km/h | 4865m | -4.6m/s | -7.0°C | 19.4% | -1.0hPa | 2.6V | 00:00:00 | 00:00:00 | 00:00:00 | |
| DO3MHA-12 | 2026-08-31 13:45:16 | 47.40110 | 8.96136 | 71° | 89km/h | 4884m | -5.0m/s | -7.0°C | 20.2% | 0hPa | 2.6V | 00:00:00 | 03:19:11 | 00:00:00 | |
| DO3MHA-12 | 2026-08-31 13:45:11 | 47.40068 | 8.95986 | 67° | 73km/h | 4907m | -4.6m/s | -7.2°C | 19.8% | 0hPa | 2.6V | 07:49:00 | 03:19:06 | 00:00:00 | |
| DO3MHA-11 | 2026-08-31 13:45:06 | 47.40042 | 8.95857 | 82° | 82km/h | 4930m | -4.7m/s | -7.4°C | 20.3% | 0hPa | 2.6V | 00:00:00 | 03:19:01 | 00:00:00 | |
| DF1GD-15 | 2026-08-31 13:45:04 | 47.40040 | 8.95829 | 85° | 78km/h | 4935m | -4.6m/s | -7.5°C | 19.7% | 0hPa | 2.6V | 00:00:00 | 00:00:00 | 00:00:00 | |
| DL9SK-14 | 2026-08-31 13:44:49 | 47.39952 | 8.95328 | 74° | 71km/h | 5008m | -4.6m/s | -7.7°C | 19.2% | -1.0hPa | 2.6V | 00:00:00 | 00:00:00 | 00:00:00 | |
| DO3MHA-12 | 2026-08-31 13:44:44 | 47.39937 | 8.95191 | 86° | 91km/h | 5031m | -4.6m/s | -7.9°C | 20.2% | 0hPa | 2.6V | 00:00:00 | 03:18:39 | 00:00:00 | |
| DF1GD-15 | 2026-08-31 13:44:43 | 47.39937 | 8.95191 | 87° | 80km/h | 5031m | -4.6m/s | -7.9°C | 19.5% | 0hPa | 2.6V | 07:50:00 | 00:00:00 | 00:00:00 | |
| DO3MHA-11 | 2026-08-31 13:44:42 | 47.39934 | 8.95129 | 87° | 95km/h | 5040m | -4.4m/s | -7.9°C | 19.7% | 0hPa | 2.6V | 07:49:00 | 03:18:37 | 00:00:00 | |
| DO3MHA-12 | 2026-08-31 13:44:34 | 47.39902 | 8.94850 | 73° | 82km/h | 5077m | -4.4m/s | -8.1°C | 20.4% | 0hPa | 2.5V | 00:00:00 | 03:18:29 | 00:00:00 | |
| DO3MHA-11 | 2026-08-31 13:44:32 | 47.39886 | 8.94785 | 70° | 78km/h | 5086m | -4.8m/s | -8.2°C | 22.6% | 0hPa | 2.5V | 00:00:00 | 03:18:27 | 00:00:00 | |
| DO3MHA-12 | 2026-08-31 13:44:24 | 47.39846 | 8.94563 | 85° | 88km/h | 5122m | -4.3m/s | -8.6°C | 25.7% | 0hPa | 2.5V | 00:00:00 | 03:18:19 | 00:00:00 | |
| DO3MHA-11 | 2026-08-31 13:44:22 | 47.39843 | 8.94506 | 88° | 93km/h | 5130m | -4.4m/s | -8.7°C | 25.9% | 0hPa | 2.5V | 00:00:00 | 03:18:17 | 00:00:00 | |
| DL9SK-14 | 2026-08-31 13:44:18 | 47.39839 | 8.94375 | 85° | 93km/h | 5148m | -4.7m/s | -8.9°C | 24.9% | -1.0hPa | 2.5V | 00:00:00 | 00:00:00 | 00:00:00 | |
| DO3MHA-12 | 2026-08-31 13:44:14 | 47.39823 | 8.94232 | 76° | 82km/h | 5167m | -4.5m/s | -9.0°C | 26.3% | 0hPa | 2.5V | 07:50:00 | 03:18:09 | 00:00:00 | |
| DO3MHA-11 | 2026-08-31 13:44:12 | 47.39809 | 8.94164 | 72° | 78km/h | 5176m | -4.4m/s | -9.0°C | 26.6% | 0hPa | 2.5V | 00:00:00 | 03:18:07 | 00:00:00 | |
| DO3MHA-12 | 2026-08-31 13:44:04 | 47.39764 | 8.93940 | 84° | 89km/h | 5212m | -4.4m/s | -9.4°C | 27.3% | 0hPa | 2.6V | 00:00:00 | 03:17:59 | 00:00:00 | |
| DF1GD-15 | 2026-08-31 13:44:02 | 47.39763 | 8.93912 | 87° | 77km/h | 5217m | -4.3m/s | -9.6°C | 26.4% | 0hPa | 2.6V | 07:51:00 | 00:00:00 | 00:00:00 | |
| DL9SK-14 | 2026-08-31 13:43:47 | 47.39691 | 8.93392 | 80° | 78km/h | 5289m | -4.1m/s | -10.2°C | 27.1% | -1.0hPa | 2.6V | 00:00:00 | 00:00:00 | 00:00:00 | |
| DO3MHA-12 | 2026-08-31 13:43:44 | 47.39684 | 8.93302 | 86° | 78km/h | 5303m | -4.4m/s | -10.3°C | 28.3% | 0hPa | 2.6V | 00:00:00 | 03:17:39 | 00:00:00 | |
| DO3MHA-11 | 2026-08-31 13:43:42 | 47.39681 | 8.93244 | 85° | 80km/h | 5311m | -4.4m/s | -10.3°C | 28.5% | 0hPa | 2.6V | 00:00:00 | 03:17:37 | 00:00:00 | |
| DO3MHA-12 | 2026-08-31 13:43:34 | 47.39643 | 8.93018 | 72° | 97km/h | 5347m | -4.5m/s | -10.5°C | 28.1% | 0hPa | 2.6V | 00:00:00 | 03:17:29 | 00:00:00 | |
| DO3MHA-11 | 2026-08-31 13:43:32 | 47.39629 | 8.92951 | 75° | 95km/h | 5356m | -4.1m/s | -10.6°C | 28.3% | 0hPa | 2.6V | 00:00:00 | 03:17:27 | 00:00:00 | |
| DO3MHA-12 | 2026-08-31 13:43:24 | 47.39590 | 8.92669 | 83° | 82km/h | 5391m | -4.6m/s | -10.9°C | 27.7% | 0hPa | 2.6V | 00:00:00 | 03:17:19 | 00:00:00 | |
| DO3MHA-11 | 2026-08-31 13:43:22 | 47.39585 | 8.92603 | 85° | 80km/h | 5400m | -4.4m/s | -11.0°C | 27.8% | 0hPa | 2.6V | 07:51:00 | 03:17:17 | 00:00:00 | |
| DF1GD-15 | 2026-08-31 13:43:21 | 47.39585 | 8.92603 | 86° | 88km/h | 5400m | -4.4m/s | -11.0°C | 26.7% | 0hPa | 2.6V | 07:51:00 | 00:00:00 | 00:00:00 | |
| DL9SK-14 | 2026-08-31 13:43:16 | 47.39574 | 8.92421 | 81° | 73km/h | 5429m | -5.0m/s | -11.3°C | 26.9% | -1.0hPa | 2.6V | 00:00:00 | 00:00:00 | 00:00:00 | |
| DO3MHA-12 | 2026-08-31 13:43:14 | 47.39567 | 8.92367 | 76° | 88km/h | 5439m | -4.8m/s | -11.3°C | 27.8% | 0hPa | 2.6V | 00:00:00 | 03:17:09 | 00:00:00 | |
| DO3MHA-11 | 2026-08-31 13:43:12 | 47.39555 | 8.92312 | 71° | 93km/h | 5448m | -4.7m/s | -11.3°C | 27.8% | 0hPa | 2.6V | 00:00:00 | 03:17:07 | 00:00:00 | |
| DO3MHA-12 | 2026-08-31 13:43:04 | 47.39491 | 8.92051 | 76° | 88km/h | 5486m | -5.1m/s | -11.7°C | 28.9% | 0hPa | 2.5V | 00:00:00 | 03:16:59 | 00:00:00 | |
| DL9SK-14 | 2026-08-31 13:42:45 | 47.39399 | 8.91451 | 76° | 100km/h | 5580m | -5.0m/s | -12.6°C | 30.6% | -1.0hPa | 2.5V | 00:00:00 | 00:00:00 | 00:00:00 | |
| DO3MHA-12 | 2026-08-31 13:42:44 | 47.39394 | 8.91414 | 80° | 88km/h | 5585m | -5.2m/s | -12.6°C | 32.1% | 0hPa | 2.5V | 00:00:00 | 03:16:39 | 00:00:00 | |
| DO3MHA-11 | 2026-08-31 13:42:42 | 47.39386 | 8.91340 | 84° | 84km/h | 5596m | -5.0m/s | -12.6°C | 32.5% | 0hPa | 2.5V | 00:00:00 | 03:16:37 | 00:00:00 | |
| DF1GD-15 | 2026-08-31 13:42:41 | 47.39386 | 8.91340 | 85° | 99km/h | 5596m | -5.1m/s | -12.7°C | 31.3% | 0hPa | 2.5V | 07:52:00 | 00:00:00 | 00:00:00 | |
| DO3MHA-12 | 2026-08-31 13:42:34 | 47.39361 | 8.91097 | 70° | 95km/h | 5636m | -5.1m/s | -12.9°C | 32.2% | 0hPa | 2.5V | 00:00:00 | 03:16:29 | 00:00:00 | |
| DO3MHA-11 | 2026-08-31 13:42:32 | 47.39345 | 8.91039 | 69° | 97km/h | 5646m | -5.1m/s | -13.0°C | 32.2% | 0hPa | 2.5V | 00:00:00 | 03:16:27 | 00:00:00 | |
| DO3MHA-12 | 2026-08-31 13:42:24 | 47.39296 | 8.90755 | 85° | 82km/h | 5687m | -5.0m/s | -13.4°C | 32.7% | 0hPa | 2.5V | 00:00:00 | 03:16:19 | 00:00:00 | |
| DO3MHA-11 | 2026-08-31 13:42:22 | 47.39292 | 8.90690 | 84° | 82km/h | 5697m | -5.0m/s | -13.5°C | 32.6% | 0hPa | 2.5V | 00:00:00 | 03:16:17 | 00:00:00 | |
| DF1GD-15 | 2026-08-31 13:42:21 | 47.39292 | 8.90690 | 85° | 82km/h | 5697m | -5.0m/s | -13.6°C | 31.3% | 0hPa | 2.5V | 07:53:00 | 00:00:00 | 00:00:00 | |
| DO3MHA-12 | 2026-08-31 13:42:14 | 47.39245 | 8.90462 | 69° | 100km/h | 5738m | -5.0m/s | -13.8°C | 32.2% | 0hPa | 2.5V | 00:00:00 | 03:16:09 | 00:00:00 | |
| DO3MHA-11 | 2026-08-31 13:42:12 | 47.39227 | 8.90394 | 71° | 99km/h | 5749m | -5.1m/s | -13.9°C | 32.6% | 0hPa | 2.5V | 00:00:00 | 03:16:07 | 00:00:00 | |
| DO3MHA-12 | 2026-08-31 13:42:04 | 47.39189 | 8.90100 | 86° | 84km/h | 5790m | -5.3m/s | -14.3°C | 33.2% | 0hPa | 2.6V | 00:00:00 | 03:15:59 | 00:00:00 | |
| DO3MHA-11 | 2026-08-31 13:42:02 | 47.39185 | 8.90036 | 84° | 86km/h | 5800m | -5.0m/s | -14.4°C | 32.8% | 0hPa | 2.6V | 07:52:00 | 03:15:57 | 00:00:00 | |
| DF1GD-15 | 2026-08-31 13:42:00 | 47.39182 | 8.90006 | 82° | 78km/h | 5805m | -4.8m/s | -14.5°C | 31.5% | 0hPa | 2.6V | 07:53:00 | 00:00:00 | 00:00:00 | |
| DO3MHA-12 | 2026-08-31 13:41:54 | 47.39134 | 8.89798 | 69° | 102km/h | 5840m | -5.1m/s | -14.6°C | 32.2% | 0hPa | 2.6V | 00:00:00 | 03:15:49 | 00:00:00 | |
| DO3MHA-11 | 2026-08-31 13:41:52 | 47.39116 | 8.89727 | 72° | 100km/h | 5851m | -4.8m/s | -14.8°C | 32.4% | 0hPa | 2.6V | 00:00:00 | 03:15:47 | 00:00:00 | |
| DO3MHA-12 | 2026-08-31 13:41:44 | 47.39077 | 8.89430 | 85° | 88km/h | 5892m | -5.4m/s | -15.1°C | 30.6% | 0hPa | 2.6V | 00:00:00 | 03:15:39 | 00:00:00 | |
| DL9SK-14 | 2026-08-31 13:41:43 | 47.39075 | 8.89396 | 84° | 89km/h | 5897m | -5.3m/s | -15.2°C | 29.1% | -1.0hPa | 2.6V | 00:00:00 | 00:00:00 | 00:00:00 | |
| DO3MHA-11 | 2026-08-31 13:41:42 | 47.39073 | 8.89362 | 84° | 89km/h | 5903m | -5.4m/s | -15.2°C | 30.4% | 0hPa | 2.6V | 00:00:00 | 03:15:37 | 00:00:00 | |
| DF1GD-15 | 2026-08-31 13:41:39 | 47.39066 | 8.89300 | 80° | 82km/h | 5913m | -5.2m/s | -15.3°C | 28.9% | 0hPa | 2.5V | 07:53:00 | 00:00:00 | 00:00:00 | |
| DO3MHA-12 | 2026-08-31 13:41:34 | 47.39022 | 8.89116 | 68° | 106km/h | 5944m | -5.2m/s | -15.3°C | 29.3% | 0hPa | 2.5V | 07:53:00 | 03:15:29 | 00:00:00 | |
| DO3MHA-11 | 2026-08-31 13:41:32 | 47.39003 | 8.89047 | 69° | 108km/h | 5955m | -5.3m/s | -15.4°C | 29.5% | 0hPa | 2.5V | 00:00:00 | 03:15:27 | 00:00:00 | |
| DO3MHA-11 | 2026-08-31 13:41:22 | 47.38939 | 8.88661 | 84° | 89km/h | 6007m | -5.2m/s | -15.9°C | 28.6% | 0hPa | 2.5V | 00:00:00 | 03:15:17 | 00:00:00 | |
| DF1GD-15 | 2026-08-31 13:41:19 | 47.38934 | 8.88588 | 85° | 95km/h | 6017m | -5.3m/s | -16.0°C | 26.5% | 0hPa | 2.5V | 07:53:00 | 00:00:00 | 00:00:00 | |
| DO3MHA-12 | 2026-08-31 13:41:14 | 47.38908 | 8.88396 | 72° | 93km/h | 6048m | -5.1m/s | -16.1°C | 27.6% | 0hPa | 2.5V | 00:00:00 | 03:15:09 | 00:00:00 | |
| DO3MHA-11 | 2026-08-31 13:41:12 | 47.38893 | 8.88336 | 68° | 106km/h | 6059m | -5.4m/s | -16.2°C | 27.4% | 0hPa | 2.5V | 00:00:00 | 03:15:07 | 00:00:00 | |
| DO3MHA-11 | 2026-08-31 13:41:02 | 47.38810 | 8.87960 | 81° | 95km/h | 6112m | -5.5m/s | -16.6°C | 26.5% | 0hPa | 2.5V | 00:00:00 | 03:14:57 | 00:00:00 | |
| DF1GD-15 | 2026-08-31 13:40:58 | 47.38799 | 8.87844 | 84° | 97km/h | 6129m | -5.4m/s | -16.8°C | 25.0% | 0hPa | 2.5V | 07:53:00 | 00:00:00 | 00:00:00 | |
| DO3MHA-11 | 2026-08-31 13:40:52 | 47.38757 | 8.87617 | 67° | 106km/h | 6165m | -5.2m/s | -16.9°C | 26.1% | 0hPa | 2.5V | 00:00:00 | 03:14:47 | 00:00:00 | |
| DO3MHA-11 | 2026-08-31 13:40:42 | 47.38673 | 8.87239 | 79° | 93km/h | 6218m | -5.0m/s | -17.5°C | 26.8% | 0hPa | 2.5V | 07:53:00 | 03:14:37 | 00:00:00 | |
| DL9SK-14 | 2026-08-31 13:40:41 | 47.38663 | 8.87169 | 77° | 93km/h | 6228m | -5.1m/s | -17.6°C | 24.7% | -1.0hPa | 2.5V | 00:00:00 | 00:00:00 | 00:00:00 | |
| DF1GD-15 | 2026-08-31 13:40:37 | 47.38652 | 8.87102 | 78° | 93km/h | 6238m | -5.3m/s | -17.7°C | 24.6% | 0hPa | 2.5V | 07:54:00 | 00:00:00 | 00:00:00 | |
| DO3MHA-11 | 2026-08-31 13:40:32 | 47.38623 | 8.86899 | 78° | 88km/h | 6269m | -5.0m/s | -17.9°C | 26.3% | 0hPa | 2.5V | 00:00:00 | 03:14:27 | 00:00:00 | |
| DO3MHA-11 | 2026-08-31 13:40:22 | 47.38560 | 8.86590 | 65° | 104km/h | 6322m | -5.4m/s | -18.3°C | 27.1% | 0hPa | 2.5V | 00:00:00 | 03:14:17 | 00:00:00 | |
| DF1GD-15 | 2026-08-31 13:40:16 | 47.38507 | 8.86422 | 70° | 110km/h | 6350m | -5.1m/s | -18.5°C | 25.1% | 0hPa | 2.5V | 07:54:00 | 00:00:00 | 00:00:00 | |
| DO3MHA-11 | 2026-08-31 13:40:12 | 47.38472 | 8.86223 | 81° | 91km/h | 6376m | -5.4m/s | -18.7°C | 23.8% | 0hPa | 2.5V | 00:00:00 | 03:14:07 | 00:00:00 | |
| DL9SK-14 | 2026-08-31 13:40:10 | 47.38460 | 8.86116 | 79° | 88km/h | 6392m | -5.4m/s | -18.9°C | 21.7% | -1.0hPa | 2.5V | 00:00:00 | 00:00:00 | 00:00:00 | |
| DO3MHA-12 | 2026-08-31 13:40:05 | 47.38435 | 8.85995 | 67° | 95km/h | 6414m | -5.5m/s | -18.9°C | 23.1% | 0hPa | 2.5V | 00:00:00 | 03:14:00 | 00:00:00 | |
| DO3MHA-11 | 2026-08-31 13:40:02 | 47.38404 | 8.85898 | 65° | 108km/h | 6431m | -5.2m/s | -19.0°C | 23.6% | 0hPa | 2.5V | 00:00:00 | 03:13:57 | 00:00:00 | |
| DF1GD-15 | 2026-08-31 13:39:55 | 47.38347 | 8.85665 | 78° | 110km/h | 6463m | -5.3m/s | -19.4°C | 22.1% | 0hPa | 2.5V | 07:54:00 | 00:00:00 | 00:00:00 | |
| DO3MHA-11 | 2026-08-31 13:39:52 | 47.38329 | 8.85516 | 80° | 89km/h | 6484m | -5.2m/s | -19.6°C | 23.5% | 0hPa | 2.5V | 00:00:00 | 03:13:47 | 00:00:00 | |
| DO3MHA-12 | 2026-08-31 13:39:51 | 47.38325 | 8.85483 | 79° | 91km/h | 6489m | -5.0m/s | -19.6°C | 23.8% | 0hPa | 2.5V | 00:00:00 | 03:13:46 | 00:00:00 | |
| DO3MHA-11 | 2026-08-31 13:39:42 | 47.38252 | 8.85203 | 66° | 110km/h | 6536m | -5.1m/s | -19.9°C | 24.8% | 0hPa | 2.5V | 00:00:00 | 03:13:37 | 00:00:00 | |
| DO3MHA-12 | 2026-08-31 13:39:40 | 47.38231 | 8.85130 | 69° | 102km/h | 6547m | -5.1m/s | -20.1°C | 25.2% | 0hPa | 2.5V | 00:00:00 | 03:13:35 | 00:00:00 | |
| DL9SK-14 | 2026-08-31 13:39:39 | 47.38212 | 8.85050 | 73° | 113km/h | 6557m | -5.4m/s | -20.2°C | 24.0% | -1.0hPa | 2.5V | 00:00:00 | 00:00:00 | 00:00:00 | |
| DF1GD-15 | 2026-08-31 13:39:34 | 47.38193 | 8.84927 | 81° | 110km/h | 6574m | -5.4m/s | -20.4°C | 24.0% | 0hPa | 2.5V | 07:55:00 | 00:00:00 | 00:00:00 | |
| DO3MHA-11 | 2026-08-31 13:39:32 | 47.38180 | 8.84816 | 80° | 93km/h | 6590m | -5.3m/s | -20.5°C | 23.9% | 0hPa | 2.5V | 00:00:00 | 03:13:27 | 00:00:00 | |
| DO3MHA-12 | 2026-08-31 13:39:30 | 47.38170 | 8.84751 | 74° | 97km/h | 6600m | -5.2m/s | -20.6°C | 23.7% | 0hPa | 2.5V | 00:00:00 | 03:13:25 | 00:00:00 | |
| DO3MHA-11 | 2026-08-31 13:39:22 | 47.38092 | 8.84494 | 67° | 108km/h | 6644m | -5.6m/s | -20.8°C | 19.6% | 0hPa | 2.5V | 07:55:00 | 03:13:17 | 00:00:00 | |
| DF1GD-15 | 2026-08-31 13:39:14 | 47.38040 | 8.84216 | 82° | 104km/h | 6682m | -5.5m/s | -21.3°C | 18.8% | 0hPa | 2.5V | 07:55:00 | 00:00:00 | 00:00:00 | |
| DO3MHA-11 | 2026-08-31 13:39:12 | 47.38028 | 8.84109 | 78° | 95km/h | 6698m | -5.3m/s | -21.4°C | 19.6% | 0hPa | 2.5V | 00:00:00 | 03:13:07 | 00:00:00 | |
| DO3MHA-12 | 2026-08-31 13:39:09 | 47.38008 | 8.84013 | 69° | 99km/h | 6714m | -5.2m/s | -21.4°C | 18.9% | 0hPa | 2.6V | 00:00:00 | 03:13:04 | 00:00:00 | |
| DL9SK-14 | 2026-08-31 13:39:08 | 47.37990 | 8.83950 | 65° | 93km/h | 6724m | -5.4m/s | 0°C | -1.0% | -1.0hPa | 2.6V | 00:00:00 | 00:00:00 | 00:00:00 | |
| DO3MHA-11 | 2026-08-31 13:39:02 | 47.37935 | 8.83776 | 68° | 106km/h | 6752m | -5.8m/s | -21.7°C | 18.8% | 0hPa | 2.6V | 00:00:00 | 03:12:57 | 00:00:00 | |
| DO3MHA-12 | 2026-08-31 13:38:53 | 47.37878 | 8.83429 | 79° | 89km/h | 6801m | -5.3m/s | -22.2°C | 22.4% | 0hPa | 2.6V | 07:55:00 | 03:12:48 | 00:00:00 | |
| DO3MHA-11 | 2026-08-31 13:38:52 | 47.37873 | 8.83397 | 76° | 102km/h | 6807m | -5.4m/s | -22.3°C | 22.4% | 0hPa | 2.6V | 00:00:00 | 03:12:47 | 00:00:00 | |
| DO3MHA-12 | 2026-08-31 13:38:43 | 47.37788 | 8.83077 | 72° | 102km/h | 6855m | -5.3m/s | -22.5°C | 16.5% | 0hPa | 2.6V | 00:00:00 | 03:12:38 | 00:00:00 | |
| DO3MHA-11 | 2026-08-31 13:38:42 | 47.37779 | 8.83035 | 74° | 102km/h | 6860m | -5.3m/s | -22.5°C | 16.4% | 0hPa | 2.6V | 00:00:00 | 03:12:37 | 00:00:00 | |
| DL9SK-14 | 2026-08-31 13:38:37 | 47.37741 | 8.82764 | 77° | 89km/h | 6898m | -5.3m/s | 0°C | -1.0% | -1.0hPa | 2.6V | 00:00:00 | 00:00:00 | 00:00:00 | |
| DF1GD-15 | 2026-08-31 13:38:33 | 47.37736 | 8.82731 | 76° | 89km/h | 6903m | -5.5m/s | -22.9°C | 19.3% | 0hPa | 2.6V | 07:56:00 | 00:00:00 | 00:00:00 | |
| DO3MHA-11 | 2026-08-31 13:38:32 | 47.37722 | 8.82668 | 70° | 106km/h | 6914m | -5.5m/s | -22.9°C | 20.5% | 0hPa | 2.6V | 00:00:00 | 03:12:27 | 00:00:00 | |
| DO3MHA-11 | 2026-08-31 13:38:22 | 47.37625 | 8.82297 | 79° | 99km/h | 6968m | -5.2m/s | -23.3°C | 20.6% | 0hPa | 2.6V | 00:00:00 | 03:12:17 | 00:00:00 | |
| DO3MHA-11 | 2026-08-31 13:38:12 | 47.37566 | 8.81943 | 66° | 111km/h | 7023m | -5.4m/s | -23.4°C | 10.4% | 0hPa | 2.6V | 00:00:00 | 03:12:07 | 00:00:00 | |
| DO3MHA-12 | 2026-08-31 13:38:11 | 47.37555 | 8.81909 | 66° | 113km/h | 7028m | -5.3m/s | -23.4°C | 9.7% | 0hPa | 2.5V | 00:00:00 | 03:12:06 | 00:00:00 | |
| DL9SK-14 | 2026-08-31 13:38:06 | 47.37493 | 8.81673 | 74° | 117km/h | 7061m | -5.2m/s | 0°C | -1.0% | -1.0hPa | 2.5V | 00:00:00 | 00:00:00 | 00:00:00 | |
| DO3MHA-11 | 2026-08-31 13:38:02 | 47.37474 | 8.81547 | 81° | 97km/h | 7077m | -5.5m/s | -23.8°C | 10.3% | 0hPa | 2.5V | 07:56:00 | 03:11:57 | 00:00:00 | |
| DO3MHA-12 | 2026-08-31 13:38:01 | 47.37470 | 8.81508 | 82° | 95km/h | 7083m | -5.6m/s | -23.9°C | 10.3% | 0hPa | 2.5V | 00:00:00 | 03:11:56 | 00:00:00 | |
| DO3MHA-11 | 2026-08-31 13:37:52 | 47.37408 | 8.81205 | 66° | 113km/h | 7132m | -5.5m/s | -24.1°C | 8.2% | 0hPa | 2.5V | 00:00:00 | 03:11:47 | 00:00:00 | |
| DO3MHA-12 | 2026-08-31 13:37:51 | 47.37397 | 8.81170 | 67° | 115km/h | 7138m | -5.5m/s | -24.1°C | 8.5% | 0hPa | 2.5V | 00:00:00 | 03:11:46 | 00:00:00 | |
| DO3MHA-11 | 2026-08-31 13:37:42 | 47.37323 | 8.80800 | 81° | 99km/h | 7187m | -5.7m/s | -24.5°C | 8.8% | 0hPa | 2.5V | 00:00:00 | 03:11:37 | 00:00:00 | |
| DO3MHA-12 | 2026-08-31 13:37:41 | 47.37319 | 8.80759 | 82° | 99km/h | 7192m | -5.6m/s | -24.5°C | 8.7% | 0hPa | 2.6V | 00:00:00 | 03:11:36 | 00:00:00 | |
| DF1GD-15 | 2026-08-31 13:37:32 | 47.37273 | 8.80480 | 67° | 97km/h | 7237m | -5.6m/s | -24.8°C | 7.9% | 0hPa | 2.6V | 07:57:00 | 00:00:00 | 00:00:00 | |
| IW2NTF | 2026-08-31 13:37:31 | 47.37241 | 8.80373 | 67° | 111km/h | 7254m | -5.7m/s | -24.9°C | 9% | 0hPa | 2.6V | 07:57:10 | 03:11:25 | 00:00:00 | |
| DO3MHA-12 | 2026-08-31 13:37:31 | 47.37252 | 8.80411 | 66° | 111km/h | 7248m | -5.6m/s | -24.9°C | 8.9% | 0hPa | 2.6V | 07:57:00 | 03:11:26 | 00:00:00 | |
| DO3MHA-11 | 2026-08-31 13:37:22 | 47.37188 | 8.80049 | 82° | 99km/h | 7299m | -5.6m/s | -25.4°C | 9.3% | 0hPa | 2.5V | 00:00:00 | 03:11:17 | 00:00:00 | |
| IW2NTF | 2026-08-31 13:37:21 | 47.37157 | 8.79883 | 66° | 97km/h | 7327m | -5.5m/s | -25.4°C | 8.6% | 0hPa | 2.5V | 07:57:23 | 03:11:12 | 00:00:00 | i |
| DO3MHA-12 | 2026-08-31 13:37:21 | 47.37184 | 8.80014 | 80° | 104km/h | 7305m | -5.5m/s | -25.4°C | 9.3% | 0hPa | 2.5V | 00:00:00 | 03:11:16 | 00:00:00 | i |
| DO3MHA-11 | 2026-08-31 13:37:12 | 47.37100 | 8.79701 | 68° | 106km/h | 7356m | -5.7m/s | -25.5°C | 9.2% | 0hPa | 2.5V | 00:00:00 | 03:11:07 | 00:00:00 | |
| IW2NTF | 2026-08-31 13:37:11 | 47.37061 | 8.79498 | 80° | 106km/h | 7383m | -5.4m/s | -25.8°C | 9.9% | 0hPa | 2.5V | 07:57:33 | 03:11:02 | 00:00:00 | i |
| DO3MHA-12 | 2026-08-31 13:37:11 | 47.37089 | 8.79661 | 70° | 102km/h | 7362m | -5.7m/s | -25.5°C | 9.5% | 0hPa | 2.6V | 00:00:00 | 03:11:06 | 00:00:00 | i |
| DO3MHA-11 | 2026-08-31 13:37:02 | 47.37036 | 8.79326 | 72° | 106km/h | 7411m | -5.6m/s | -26.0°C | 10.6% | 0hPa | 2.6V | 00:00:00 | 03:10:57 | 00:00:00 | |
| IW2NTF | 2026-08-31 13:37:01 | 47.36984 | 8.79159 | 64° | 111km/h | 7438m | -5.6m/s | -26.2°C | 10.8% | 0hPa | 2.6V | 07:57:43 | 03:10:52 | 00:00:00 | i |
| DO3MHA-12 | 2026-08-31 13:37:01 | 47.37028 | 8.79295 | 69° | 110km/h | 7417m | -5.3m/s | -26.0°C | 10.8% | 0hPa | 2.5V | 00:00:00 | 03:10:56 | 00:00:00 | i |
| DO3MHA-11 | 2026-08-31 13:36:52 | 47.36931 | 8.78958 | 75° | 100km/h | 7467m | -5.5m/s | -26.3°C | 12.3% | 0hPa | 2.6V | 00:00:00 | 03:10:47 | 00:00:00 | |
| IW2NTF | 2026-08-31 13:36:51 | 47.36903 | 8.78763 | 77° | 95km/h | 7495m | -5.8m/s | -26.7°C | 12% | 0hPa | 2.6V | 07:57:53 | 03:10:42 | 00:00:00 | i |
| DO3MHA-12 | 2026-08-31 13:36:51 | 47.36923 | 8.78916 | 77° | 99km/h | 7472m | -5.7m/s | -26.4°C | 12.5% | 0hPa | 2.6V | 00:00:00 | 03:10:46 | 00:00:00 | i |
| DF1GD-15 | 2026-08-31 13:36:50 | 47.36923 | 8.78916 | 78° | 113km/h | 7472m | -5.7m/s | -26.4°C | 11.4% | 0hPa | 2.6V | 07:58:00 | 00:00:00 | 00:00:00 | |
| DO3MHA-11 | 2026-08-31 13:36:42 | 47.36863 | 8.78601 | 63° | 113km/h | 7523m | -5.5m/s | -26.7°C | 11.9% | 0hPa | 2.6V | 07:57:00 | 03:10:37 | 00:00:00 | |
| IW2NTF | 2026-08-31 13:36:41 | 47.36801 | 8.78417 | 66° | 120km/h | 7552m | -5.8m/s | -26.9°C | 12.2% | 0hPa | 2.5V | 07:58:03 | 03:10:32 | 00:00:00 | i |
| DO3MHA-12 | 2026-08-31 13:36:41 | 47.36852 | 8.78568 | 62° | 115km/h | 7529m | -6.1m/s | -26.8°C | 11.9% | 0hPa | 2.5V | 00:00:00 | 03:10:36 | 00:00:00 | i |
| DO3MHA-11 | 2026-08-31 13:36:32 | 47.36756 | 8.78209 | 78° | 100km/h | 7581m | -5.4m/s | -27.0°C | 10.9% | 0hPa | 2.5V | 00:00:00 | 03:10:27 | 00:00:00 | |
| IW2NTF | 2026-08-31 13:36:31 | 47.36722 | 8.78037 | 66° | 95km/h | 7609m | -5.7m/s | -27.2°C | 10.5% | 0hPa | 2.5V | 07:58:13 | 03:10:22 | 00:00:00 | i |
| DO3MHA-12 | 2026-08-31 13:36:31 | 47.36751 | 8.78171 | 78° | 102km/h | 7586m | -5.5m/s | -27.0°C | 10.7% | 0hPa | 2.5V | 00:00:00 | 03:10:26 | 00:00:00 | i |
| DF1GD-15 | 2026-08-31 13:36:30 | 47.36751 | 8.78171 | 78° | 100km/h | 7586m | -5.6m/s | -27.1°C | 9.6% | 0hPa | 2.6V | 07:58:00 | 00:00:00 | 00:00:00 | |
| DO3MHA-11 | 2026-08-31 13:36:22 | 47.36661 | 8.77859 | 66° | 119km/h | 7638m | -5.8m/s | -27.3°C | 10.8% | 0hPa | 2.6V | 00:00:00 | 03:10:17 | 00:00:00 | |
| IW2NTF | 2026-08-31 13:36:21 | 47.36610 | 8.77640 | 76° | 120km/h | 7668m | -5.9m/s | -27.6°C | 11.2% | 0hPa | 2.6V | 07:58:23 | 03:10:12 | 00:00:00 | i |
| DO3MHA-12 | 2026-08-31 13:36:21 | 47.36648 | 8.77817 | 68° | 115km/h | 7644m | -5.6m/s | -27.4°C | 10.9% | 0hPa | 2.6V | 00:00:00 | 03:10:16 | 00:00:00 | i |
| DO3MHA-11 | 2026-08-31 13:36:12 | 47.36580 | 8.77442 | 74° | 113km/h | 7697m | -5.5m/s | -27.8°C | 11.0% | 0hPa | 2.6V | 00:00:00 | 03:10:07 | 00:00:00 | |
| IW2NTF | 2026-08-31 13:36:11 | 47.36527 | 8.77263 | 63° | 117km/h | 7725m | -5.8m/s | -27.8°C | 11.4% | 0hPa | 2.6V | 07:58:33 | 03:10:02 | 00:00:00 | i |
| DO3MHA-12 | 2026-08-31 13:36:11 | 47.36572 | 8.77407 | 70° | 102km/h | 7702m | -5.6m/s | -27.8°C | 10.9% | 0hPa | 2.6V | 07:58:00 | 03:10:06 | 00:00:00 | i |
| DF1GD-15 | 2026-08-31 13:36:09 | 47.36563 | 8.77372 | 67° | 100km/h | 7708m | -5.8m/s | -27.8°C | 9.7% | 0hPa | 2.6V | 07:59:00 | 00:00:00 | 00:00:00 | |
| DO3MHA-11 | 2026-08-31 13:36:02 | 47.36471 | 8.77046 | 76° | 110km/h | 7755m | -5.7m/s | -28.1°C | 13.0% | 0hPa | 2.6V | 00:00:00 | 03:09:57 | 00:00:00 | |
| IW2NTF | 2026-08-31 13:36:01 | 47.36441 | 8.76835 | 76° | 104km/h | 7785m | -5.8m/s | -28.4°C | 13.4% | 0hPa | 2.6V | 07:58:43 | 03:09:52 | 00:00:00 | i |
| DO3MHA-11 | 2026-08-31 13:35:52 | 47.36395 | 8.76657 | 64° | 122km/h | 7814m | -6.1m/s | -28.5°C | 14.0% | 0hPa | 2.5V | 00:00:00 | 03:09:47 | 00:00:00 | |
| IW2NTF | 2026-08-31 13:35:51 | 47.36335 | 8.76447 | 72° | 130km/h | 7843m | -6m/s | -28.9°C | 14.1% | 0hPa | 2.5V | 07:58:53 | 03:09:42 | 00:00:00 | i |
| DF1GD-15 | 2026-08-31 13:35:49 | 47.36369 | 8.76579 | 66° | 120km/h | 7826m | -5.7m/s | -28.7°C | 12.6% | 0hPa | 2.5V | 07:59:00 | 00:00:00 | 00:00:00 | |
| DO3MHA-11 | 2026-08-31 13:35:42 | 47.36299 | 8.76223 | 80° | 119km/h | 7873m | -5.9m/s | -29.2°C | 14.0% | 0hPa | 2.5V | 00:00:00 | 03:09:37 | 00:00:00 | |
| IW2NTF | 2026-08-31 13:35:41 | 47.36266 | 8.76038 | 68° | 100km/h | 7902m | -6m/s | -29.4°C | 13.8% | 0hPa | 2.5V | 07:59:03 | 03:09:32 | 00:00:00 | i |
| IW2NTF | 2026-08-31 13:35:32 | 47.36152 | 8.75627 | 76° | 126km/h | 7961m | -5.8m/s | -29.9°C | 14.4% | 0hPa | 2.5V | 07:59:13 | 03:09:22 | 00:00:00 | i |
| DF1GD-15 | 2026-08-31 13:35:28 | 47.36169 | 8.75719 | 73° | 131km/h | 7949m | -5.8m/s | -29.8°C | 13.1% | 0hPa | 2.5V | 07:59:00 | 00:00:00 | 00:00:00 | |
| DO3MHA-11 | 2026-08-31 13:35:24 | 47.36132 | 8.75498 | 78° | 111km/h | 7979m | -5.8m/s | -30.0°C | 15.0% | 0hPa | 2.5V | 00:00:00 | 03:09:19 | 00:00:00 | |
| IW2NTF | 2026-08-31 13:35:21 | 47.36061 | 8.75240 | 62° | 119km/h | 8021m | -6.4m/s | -30.3°C | 14.2% | 0hPa | 2.5V | 07:59:23 | 03:09:12 | 00:00:00 | i |
| IW2NTF | 2026-08-31 13:35:11 | 47.35962 | 8.74801 | 76° | 110km/h | 8081m | -6m/s | -30.9°C | 14.8% | 0hPa | 2.5V | 07:59:33 | 03:09:02 | 00:00:00 | i |
| DF1GD-15 | 2026-08-31 13:35:07 | 47.35968 | 8.74842 | 79° | 115km/h | 8075m | -6.2m/s | -30.8°C | 13.4% | 0hPa | 2.6V | 07:59:00 | 00:00:00 | 00:00:00 | |
| IW2NTF | 2026-08-31 13:35:01 | 47.35847 | 8.74401 | 69° | 133km/h | 8141m | -6m/s | -31.3°C | 16.6% | 0hPa | 2.6V | 07:59:43 | 03:08:52 | 00:00:00 | i |
| DO3MHA-11 | 2026-08-31 13:35:01 | 47.35901 | 8.74576 | 63° | 126km/h | 8117m | -6.0m/s | -31.0°C | 15.4% | 0hPa | 2.6V | 07:59:00 | 03:08:56 | 00:00:00 | i |
| IW2NTF | 2026-08-31 13:34:51 | 47.35765 | 8.73977 | 66° | 108km/h | 8201m | -6m/s | -31.9°C | 18.1% | 0hPa | 2.6V | 07:59:53 | 03:08:42 | 00:00:00 | i |
| DO3MHA-12 | 2026-08-31 13:34:51 | 47.35797 | 8.74129 | 77° | 110km/h | 8177m | -6.2m/s | -31.6°C | 19.0% | 0hPa | 2.6V | 00:00:00 | 03:08:46 | 00:00:00 | i |
| DO3MHA-11 | 2026-08-31 13:34:50 | 47.35791 | 8.74089 | 76° | 117km/h | 8183m | -6.0m/s | -31.7°C | 19.0% | 0hPa | 2.5V | 00:00:00 | 03:08:45 | 00:00:00 | |
| DK5PH-5 | 2026-08-31 13:34:48 | 47.35775 | 8.74014 | 70° | 122km/h | 8195m | -6.1m/s | -31.8°C | 18.4% | 0hPa | 2.5V | 00:00:00 | 03:08:43 | 00:00:00 | |
| DF1GD-15 | 2026-08-31 13:34:47 | 47.35775 | 8.74014 | 71° | 106km/h | 8195m | -6.2m/s | -31.9°C | 16.6% | 0hPa | 2.5V | 07:59:00 | 00:00:00 | 00:00:00 | |
| IW2NTF | 2026-08-31 13:34:41 | 47.35644 | 8.73536 | 74° | 133km/h | 8263m | -6.3m/s | -32.3°C | 20.7% | 0hPa | 2.5V | 08:00:03 | 03:08:32 | 00:00:00 | i |
| DO3MHA-11 | 2026-08-31 13:34:40 | 47.35675 | 8.73680 | 70° | 126km/h | 8244m | -6.2m/s | -32.1°C | 19.7% | 0hPa | 2.6V | 00:00:00 | 03:08:35 | 00:00:00 | |
| IW2NTF | 2026-08-31 13:34:31 | 47.35563 | 8.73127 | 63° | 115km/h | 8323m | -5.9m/s | -32.6°C | 23.6% | 0hPa | 2.6V | 08:00:13 | 03:08:22 | 00:00:00 | i |
| DO3MHA-11 | 2026-08-31 13:34:30 | 47.35595 | 8.73238 | 71° | 119km/h | 8305m | -5.9m/s | -32.6°C | 24.7% | 0hPa | 2.5V | 00:00:00 | 03:08:25 | 00:00:00 | |
| DF1GD-15 | 2026-08-31 13:34:26 | 47.35562 | 8.73127 | 65° | 115km/h | 8323m | -5.9m/s | -32.6°C | 21.5% | 0hPa | 2.5V | 08:00:00 | 00:00:00 | 00:00:00 | |
| IW2NTF | 2026-08-31 13:34:21 | 47.35458 | 8.72675 | 78° | 119km/h | 8385m | -6.1m/s | -33.2°C | 20.3% | 0hPa | 2.5V | 08:00:23 | 03:08:12 | 00:00:00 | i |
| DK5PH-5 | 2026-08-31 13:34:17 | 47.35458 | 8.72675 | 79° | 117km/h | 8385m | -6.0m/s | -33.1°C | 20.3% | 0hPa | 2.5V | 00:00:00 | 03:08:12 | 00:00:00 | |
| IW2NTF | 2026-08-31 13:34:11 | 47.35357 | 8.72277 | 66° | 133km/h | 8447m | -6.5m/s | -33.6°C | 19.2% | 0hPa | 2.5V | 08:00:33 | 03:08:02 | 00:00:00 | i |
| DN1GJH-1 | 2026-08-31 13:34:10 | 47.35410 | 8.72443 | 66° | 111km/h | 8422m | -6.3m/s | -33.4°C | 17.3% | 0hPa | 2.5V | 08:00:00 | 00:00:00 | 00:00:00 | |
| DF1GD-15 | 2026-08-31 13:34:05 | 47.35343 | 8.72231 | 69° | 137km/h | 8454m | -6.4m/s | -33.7°C | 17.0% | 0hPa | 2.5V | 08:00:00 | 00:00:00 | 00:00:00 | |
| IW2NTF | 2026-08-31 13:34:01 | 47.35273 | 8.71820 | 75° | 108km/h | 8509m | -6.4m/s | -33.9°C | 18.3% | 0hPa | 2.5V | 08:00:43 | 03:07:52 | 00:00:00 | i |
| IW2NTF | 2026-08-31 13:33:52 | 47.35156 | 8.71397 | 72° | 141km/h | 8571m | -6.2m/s | -34.4°C | 19% | 0hPa | 2.6V | 08:00:53 | 03:07:42 | 00:00:00 | i |
| DO3MHA-11 | 2026-08-31 13:33:48 | 47.35168 | 8.71447 | 71° | 126km/h | 8565m | -6.0m/s | -34.3°C | 18.9% | 0hPa | 2.6V | 00:00:00 | 03:07:43 | 00:00:00 | |
| DN1GJH-1 | 2026-08-31 13:33:44 | 47.35138 | 8.71296 | 78° | 139km/h | 8583m | -6.4m/s | -34.5°C | 16.8% | 0hPa | 2.5V | 08:01:00 | 00:00:00 | 00:00:00 | |
| IW2NTF | 2026-08-31 13:33:42 | 47.35083 | 8.70947 | 69° | 113km/h | 8632m | -6m/s | -34.9°C | 13.6% | 0hPa | 2.5V | 08:01:03 | 03:07:32 | 00:00:00 | i |
| DO3MHA-11 | 2026-08-31 13:33:37 | 47.35083 | 8.70947 | 70° | 131km/h | 8632m | -6.0m/s | -34.9°C | 13.6% | 0hPa | 2.6V | 00:00:00 | 03:07:32 | 00:00:00 | |
| IW2NTF | 2026-08-31 13:33:32 | 47.34975 | 8.70478 | 80° | 135km/h | 8694m | -6.2m/s | -35.2°C | 12.7% | 0hPa | 2.6V | 08:01:13 | 03:07:22 | 00:00:00 | i |
| DO3MHA-12 | 2026-08-31 13:33:31 | 47.35009 | 8.70681 | 72° | 126km/h | 8669m | -6.1m/s | -34.9°C | 12.4% | 0hPa | 2.6V | 00:00:00 | 03:07:26 | 00:00:00 | |
| DO3MHA-11 | 2026-08-31 13:33:27 | 47.34975 | 8.70478 | 81° | 119km/h | 8694m | -6.2m/s | -35.1°C | 12.7% | 0hPa | 2.6V | 00:00:00 | 03:07:22 | 00:00:00 | |
| DK5PH-5 | 2026-08-31 13:33:26 | 47.34970 | 8.70430 | 82° | 130km/h | 8701m | -6.3m/s | -35.2°C | 12.7% | 0hPa | 2.6V | 00:00:00 | 03:07:21 | 00:00:00 | |
| DF1GD-15 | 2026-08-31 13:33:24 | 47.34965 | 8.70382 | 83° | 126km/h | 8707m | -6.4m/s | -35.3°C | 11.1% | 0hPa | 2.6V | 08:01:00 | 00:00:00 | 00:00:00 | |
| DN1GJH-1 | 2026-08-31 13:33:23 | 47.34960 | 8.70337 | 82° | 120km/h | 8713m | -6.5m/s | -35.4°C | 11.2% | 0hPa | 2.6V | 08:01:00 | 00:00:00 | 00:00:00 | |
| IW2NTF | 2026-08-31 13:33:22 | 47.34901 | 8.70051 | 66° | 124km/h | 8757m | -6.4m/s | -35.7°C | 13.4% | 0hPa | 2.6V | 08:01:23 | 03:07:12 | 00:00:00 | i |
| DO3MHA-12 | 2026-08-31 13:33:21 | 47.34943 | 8.70212 | 75° | 119km/h | 8732m | -6.3m/s | -35.5°C | 12.9% | 0hPa | 2.6V | 00:00:00 | 03:07:16 | 00:00:00 | |
| DO3MHA-11 | 2026-08-31 13:33:17 | 47.34901 | 8.70051 | 67° | 137km/h | 8758m | -6.4m/s | -35.6°C | 13.4% | 0hPa | 2.6V | 00:00:00 | 03:07:12 | 00:00:00 | |
| IW2NTF | 2026-08-31 13:33:12 | 47.34813 | 8.69564 | 82° | 122km/h | 8821m | -6.2m/s | -36.4°C | 14.4% | 0hPa | 2.5V | 08:01:33 | 03:07:02 | 00:00:00 | i |
| DO3MHA-11 | 2026-08-31 13:33:07 | 47.34813 | 8.69564 | 83° | 122km/h | 8821m | -6.1m/s | -36.4°C | 14.4% | 0hPa | 2.5V | 00:00:00 | 03:07:02 | 00:00:00 | |
| DB0UT-7 | 2026-08-31 13:33:06 | 47.34808 | 8.69520 | 82° | 122km/h | 8827m | -6.5m/s | -36.4°C | 14.5% | 0hPa | 2.5V | 00:00:00 | 03:07:01 | 00:00:00 | |
| DO3MHA-12 | 2026-08-31 13:33:03 | 47.34789 | 8.69397 | 73° | 126km/h | 8847m | -6.3m/s | -36.6°C | 14.7% | 0hPa | 2.5V | 00:00:00 | 03:06:58 | 00:00:00 | |
| IW2NTF | 2026-08-31 13:33:02 | 47.34721 | 8.69128 | 71° | 142km/h | 8884m | -6.6m/s | -36.9°C | 16.2% | 0hPa | 2.6V | 08:01:43 | 03:06:52 | 00:00:00 | i |
| DL9SK-14 | 2026-08-31 13:32:55 | 47.34687 | 8.68921 | 80° | 139km/h | 8911m | -6.5m/s | 0°C | -1.0% | -1.0hPa | 2.5V | 00:00:00 | 00:00:00 | 00:00:00 | |
| IW2NTF | 2026-08-31 13:32:52 | 47.34658 | 8.68651 | 77° | 110km/h | 8948m | -6.5m/s | -37.6°C | 16.2% | 0hPa | 2.5V | 08:01:53 | 03:06:42 | 00:00:00 | i |
| DO3MHA-12 | 2026-08-31 13:32:49 | 47.34669 | 8.68732 | 82° | 113km/h | 8936m | -6.4m/s | -37.4°C | 16.3% | 0hPa | 2.5V | 00:00:00 | 03:06:44 | 00:00:00 | |
| DO3MHA-11 | 2026-08-31 13:32:47 | 47.34658 | 8.68650 | 78° | 131km/h | 8949m | -6.5m/s | -37.5°C | 16.2% | 0hPa | 2.5V | 08:01:00 | 03:06:42 | 00:00:00 | |
| IW2NTF | 2026-08-31 13:32:42 | 47.34563 | 8.68186 | 78° | 146km/h | 9012m | -6.6m/s | -38°C | 17.6% | 0hPa | 2.6V | 08:02:03 | 03:06:32 | 00:00:00 | i |
| DO3MHA-11 | 2026-08-31 13:32:36 | 47.34556 | 8.68133 | 80° | 122km/h | 9019m | -6.4m/s | -38.1°C | 17.6% | 0hPa | 2.5V | 00:00:00 | 03:06:31 | 00:00:00 | |
| IW2NTF | 2026-08-31 13:32:32 | 47.34499 | 8.67734 | 69° | 115km/h | 9075m | -6.6m/s | -38.6°C | 17.1% | 0hPa | 2.5V | 08:02:13 | 03:06:22 | 00:00:00 | i |
| DO3MHA-11 | 2026-08-31 13:32:26 | 47.34489 | 8.67693 | 69° | 137km/h | 9082m | -6.7m/s | -38.6°C | 17.2% | 0hPa | 2.5V | 00:00:00 | 03:06:21 | 00:00:00 | |
| DO3MHA-12 | 2026-08-31 13:32:25 | 47.34477 | 8.67650 | 69° | 130km/h | 9089m | -6.6m/s | -38.6°C | 17.5% | 0hPa | 2.5V | 00:00:00 | 03:06:20 | 00:00:00 | |
| IW2NTF | 2026-08-31 13:32:22 | 47.34403 | 8.67249 | 81° | 135km/h | 9139m | -6.4m/s | -39.2°C | 17.6% | 0hPa | 2.5V | 08:02:23 | 03:06:12 | 00:00:00 | i |
| DN1GJH-1 | 2026-08-31 13:32:22 | 47.34442 | 8.67509 | 73° | 142km/h | 9107m | -5.9m/s | -38.9°C | 15.8% | 0hPa | 2.6V | 08:02:00 | 00:00:00 | 00:00:00 | i |
| DF1GD-15 | 2026-08-31 13:32:21 | 47.34442 | 8.67509 | 73° | 142km/h | 9107m | -5.9m/s | -38.9°C | 15.8% | 0hPa | 2.6V | 08:02:00 | 00:00:00 | 00:00:00 | |
| DK5PH-5 | 2026-08-31 13:32:19 | 47.34415 | 8.67351 | 80° | 124km/h | 9126m | -6.4m/s | -39.0°C | 18.0% | 0hPa | 2.6V | 08:02:00 | 03:06:14 | 00:00:00 | |
| DO3MHA-11 | 2026-08-31 13:32:16 | 47.34399 | 8.67201 | 83° | 120km/h | 9146m | -6.2m/s | -39.2°C | 17.5% | 0hPa | 2.5V | 00:00:00 | 03:06:11 | 00:00:00 | |
| DO3MHA-12 | 2026-08-31 13:32:14 | 47.34389 | 8.67112 | 80° | 115km/h | 9158m | -6.1m/s | -39.3°C | 17.4% | 0hPa | 2.6V | 08:02:00 | 03:06:09 | 00:00:00 | |
| IW2NTF | 2026-08-31 13:32:12 | 47.34318 | 8.66824 | 66° | 133km/h | 9202m | -6.5m/s | -39.6°C | 17.8% | 0hPa | 2.6V | 08:02:33 | 03:06:02 | 00:00:00 | i |
| DO3MHA-11 | 2026-08-31 13:32:06 | 47.34305 | 8.66777 | 68° | 135km/h | 9209m | -6.4m/s | -39.6°C | 18.0% | 0hPa | 2.5V | 00:00:00 | 03:06:01 | 00:00:00 | |
| IW2NTF | 2026-08-31 13:32:02 | 47.34231 | 8.66339 | 77° | 115km/h | 9265m | -6.2m/s | -40.1°C | 17.5% | 0hPa | 2.5V | 08:02:43 | 03:05:52 | 00:00:00 | i |
| DF1GD-15 | 2026-08-31 13:32:01 | 47.34261 | 8.66574 | 79° | 142km/h | 9234m | -6.3m/s | -39.8°C | 15.7% | 0hPa | 2.5V | 08:03:00 | 00:00:00 | 00:00:00 | |
| DO3MHA-11 | 2026-08-31 13:31:56 | 47.34224 | 8.66297 | 75° | 124km/h | 9271m | -6.2m/s | -40.2°C | 17.4% | 0hPa | 2.5V | 00:00:00 | 03:05:51 | 00:00:00 | |
| DB0UT-7 | 2026-08-31 13:31:53 | 47.34195 | 8.66180 | 66° | 131km/h | 9290m | -6.3m/s | -40.2°C | 17.0% | 0hPa | 2.5V | 00:00:00 | 00:00:00 | 00:00:00 | |
| IW2NTF | 2026-08-31 13:31:52 | 47.34115 | 8.65914 | 70° | 142km/h | 9328m | -6.2m/s | -40.5°C | 18.2% | 0hPa | 2.5V | 08:02:53 | 03:05:42 | 00:00:00 | i |
| DO3MHA-11 | 2026-08-31 13:31:46 | 47.34103 | 8.65863 | 74° | 122km/h | 9335m | -6.3m/s | -40.5°C | 18.1% | 0hPa | 2.5V | 00:00:00 | 03:05:41 | 00:00:00 | |
| IW2NTF | 2026-08-31 13:31:42 | 47.34035 | 8.65466 | 67° | 113km/h | 9390m | -6.4m/s | -41°C | 18.3% | 0hPa | 2.6V | 08:03:03 | 03:05:32 | 00:00:00 | i |
| DN1GJH-1 | 2026-08-31 13:31:40 | 47.34068 | 8.65625 | 79° | 117km/h | 9366m | -6.2m/s | -40.8°C | 15.6% | 0hPa | 2.5V | 08:03:00 | 00:00:00 | 00:00:00 | |
| DO3MHA-11 | 2026-08-31 13:31:36 | 47.34023 | 8.65427 | 66° | 135km/h | 9397m | -6.6m/s | -41.0°C | 18.5% | 0hPa | 2.5V | 00:00:00 | 03:05:31 | 00:00:00 | |
| DK5PH-5 | 2026-08-31 13:31:35 | 47.34010 | 8.65387 | 65° | 133km/h | 9403m | -6.6m/s | -41.0°C | 18.7% | 0hPa | 2.5V | 00:00:00 | 03:05:30 | 00:00:00 | |
| IW2NTF | 2026-08-31 13:31:32 | 47.33912 | 8.65005 | 77° | 139km/h | 9454m | -6.1m/s | -41.4°C | 19% | 0hPa | 2.5V | 08:03:13 | 03:05:22 | 00:00:00 | i |
| DO3MHA-11 | 2026-08-31 13:31:26 | 47.33905 | 8.64956 | 79° | 122km/h | 9460m | -6.2m/s | -41.4°C | 18.9% | 0hPa | 2.5V | 00:00:00 | 03:05:21 | 00:00:00 | |
| DO3MHA-12 | 2026-08-31 13:31:25 | 47.33899 | 8.64908 | 80° | 135km/h | 9466m | -6.2m/s | -41.5°C | 18.8% | 0hPa | 2.5V | 00:00:00 | 03:05:20 | 00:00:00 | |
| IW2NTF | 2026-08-31 13:31:22 | 47.33815 | 8.64577 | 62° | 130km/h | 9515m | -6.4m/s | -41.8°C | 18% | 0hPa | 2.5V | 08:03:23 | 03:05:12 | 00:00:00 | i |
| DF1GD-15 | 2026-08-31 13:31:20 | 47.33857 | 8.64699 | 67° | 117km/h | 9496m | -6.2m/s | -41.8°C | 15.4% | 0hPa | 2.5V | 08:04:00 | 00:00:00 | 00:00:00 | |
| DN1GJH-1 | 2026-08-31 13:31:19 | 47.33857 | 8.64699 | 67° | 117km/h | 9496m | -6.2m/s | -41.8°C | 15.4% | 0hPa | 2.5V | 08:04:00 | 00:00:00 | 00:00:00 | |
| DO3MHA-11 | 2026-08-31 13:31:16 | 47.33800 | 8.64533 | 64° | 142km/h | 9522m | -6.3m/s | -41.8°C | 18.1% | 0hPa | 2.5V | 08:03:00 | 03:05:11 | 00:00:00 | |
| IW2NTF | 2026-08-31 13:31:12 | 47.33693 | 8.64077 | 77° | 131km/h | 9577m | -6.3m/s | -42.1°C | 16.5% | 0hPa | 2.6V | 08:03:33 | 03:05:02 | 00:00:00 | i |
| DB0UT-7 | 2026-08-31 13:31:10 | 47.33718 | 8.64230 | 75° | 139km/h | 9559m | -6.3m/s | -41.9°C | 17.3% | 0hPa | 2.5V | 00:00:00 | 03:05:05 | 00:00:00 | |
| DO3MHA-11 | 2026-08-31 13:31:06 | 47.33686 | 8.64031 | 78° | 130km/h | 9584m | -6.2m/s | -42.1°C | 16.4% | 0hPa | 2.5V | 00:00:00 | 03:05:01 | 00:00:00 | |
| DK5PH-5 | 2026-08-31 13:31:05 | 47.33678 | 8.63986 | 76° | 137km/h | 9590m | -6.2m/s | -42.2°C | 16.3% | 0hPa | 2.5V | 00:00:00 | 03:05:00 | 00:00:00 | |
| IW2NTF | 2026-08-31 13:31:02 | 47.33572 | 8.63637 | 64° | 148km/h | 9640m | -6.5m/s | -42.5°C | 17.6% | 0hPa | 2.5V | 08:03:43 | 03:04:52 | 00:00:00 | i |
| DN1GJH-1 | 2026-08-31 13:30:59 | 47.33621 | 8.63777 | 64° | 131km/h | 9621m | -6.1m/s | -42.3°C | 14.2% | 0hPa | 2.5V | 08:04:00 | 00:00:00 | 00:00:00 | |
| DO3MHA-11 | 2026-08-31 13:30:56 | 47.33557 | 8.63586 | 67° | 142km/h | 9646m | -6.2m/s | -42.5°C | 17.8% | 0hPa | 2.5V | 00:00:00 | 03:04:51 | 00:00:00 | |
| IW2NTF | 2026-08-31 13:30:52 | 47.33469 | 8.63125 | 75° | 126km/h | 9702m | -6.4m/s | -43.1°C | 16.9% | 0hPa | 2.5V | 08:03:53 | 03:04:42 | 00:00:00 | i |
| DL9SK-14 | 2026-08-31 13:30:51 | 47.33491 | 8.63268 | 77° | 137km/h | 9683m | -6.3m/s | -43.0°C | 14.6% | -1.0hPa | 2.5V | 00:00:00 | 00:00:00 | 00:00:00 | |
| DO3MHA-11 | 2026-08-31 13:30:46 | 47.33460 | 8.63080 | 74° | 141km/h | 9709m | -6.4m/s | -43.1°C | 16.9% | 0hPa | 2.5V | 00:00:00 | 03:04:41 | 00:00:00 | |
| IW2NTF | 2026-08-31 13:30:42 | 47.33334 | 8.62651 | 68° | 159km/h | 9765m | -6.6m/s | -43.4°C | 17.6% | 0hPa | 2.6V | 08:04:03 | 03:04:32 | 00:00:00 | i |
| DF1GD-15 | 2026-08-31 13:30:39 | 47.33380 | 8.62808 | 66° | 148km/h | 9746m | -6.6m/s | -43.2°C | 14.6% | 0hPa | 2.5V | 08:04:00 | 00:00:00 | 00:00:00 | |
| DN1GJH-1 | 2026-08-31 13:30:38 | 47.33364 | 8.62757 | 67° | 151km/h | 9752m | -6.3m/s | -43.3°C | 14.7% | 0hPa | 2.5V | 08:04:00 | 00:00:00 | 00:00:00 | |
| DO3MHA-11 | 2026-08-31 13:30:36 | 47.33320 | 8.62595 | 71° | 144km/h | 9772m | -6.4m/s | -43.4°C | 17.6% | 0hPa | 2.5V | 00:00:00 | 03:04:31 | 00:00:00 | |
| IW2NTF | 2026-08-31 13:30:32 | 47.33244 | 8.62122 | 72° | 126km/h | 9829m | -6.3m/s | -44°C | 16.1% | 0hPa | 2.5V | 08:04:13 | 03:04:22 | 00:00:00 | i |
| DO3MHA-11 | 2026-08-31 13:30:26 | 47.33233 | 8.62078 | 70° | 148km/h | 9835m | -6.0m/s | -43.9°C | 16.0% | 0hPa | 2.5V | 00:00:00 | 03:04:21 | 00:00:00 | |
| IW2NTF | 2026-08-31 13:30:22 | 47.33112 | 8.61619 | 76° | 151km/h | 9891m | -6.1m/s | -44.2°C | 16.4% | 0hPa | 2.5V | 08:04:23 | 03:04:12 | 00:00:00 | i |
| DF1GD-15 | 2026-08-31 13:30:19 | 47.33147 | 8.61785 | 70° | 157km/h | 9872m | -6.2m/s | -44.1°C | 14.3% | 0hPa | 2.6V | 08:04:00 | 00:00:00 | 00:00:00 | |
| DN1GJH-1 | 2026-08-31 13:30:17 | 47.33122 | 8.61674 | 76° | 157km/h | 9885m | -6.0m/s | -44.2°C | 14.1% | 0hPa | 2.6V | 08:04:00 | 00:00:00 | 00:00:00 | |
| DO3MHA-11 | 2026-08-31 13:30:15 | 47.33097 | 8.61513 | 79° | 131km/h | 9903m | -5.8m/s | -44.3°C | 15.8% | 0hPa | 2.6V | 00:00:00 | 03:04:10 | 00:00:00 | |
| IW2NTF | 2026-08-31 13:30:12 | 47.33005 | 8.61155 | 62° | 142km/h | 9952m | -6m/s | -44.2°C | 14.5% | 0hPa | 2.6V | 08:04:33 | 03:04:02 | 00:00:00 | i |
| DB0UT-7 | 2026-08-31 13:30:08 | 47.33021 | 8.61201 | 63° | 148km/h | 9946m | -6.2m/s | -44.2°C | 14.5% | 0hPa | 2.5V | 00:00:00 | 00:00:00 | 00:00:00 | |
| DO3MHA-11 | 2026-08-31 13:30:05 | 47.32971 | 8.61055 | 65° | 151km/h | 9965m | -5.7m/s | -44.2°C | 14.7% | 0hPa | 2.5V | 00:00:00 | 03:04:00 | 00:00:00 | |
| IW2NTF | 2026-08-31 13:30:02 | 47.32874 | 8.60617 | 77° | 141km/h | 10013m | -6.1m/s | -44.6°C | 13.8% | 0hPa | 2.5V | 08:04:43 | 03:03:52 | 00:00:00 | i |
| DF1GD-15 | 2026-08-31 13:29:59 | 47.32890 | 8.60722 | 77° | 151km/h | 10001m | -5.8m/s | -44.5°C | 11.7% | 0hPa | 2.6V | 08:04:00 | 00:00:00 | 00:00:00 | |
| DN1GJH-1 | 2026-08-31 13:29:57 | 47.32882 | 8.60668 | 78° | 146km/h | 10007m | -6.0m/s | -44.6°C | 11.6% | 0hPa | 2.6V | 08:04:00 | 00:00:00 | 00:00:00 | |
| OE9MKV-15 | 2026-08-31 13:29:56 | 47.32866 | 8.60567 | 77° | 144km/h | 10019m | -6.0m/s | -44.7°C | 13.7% | 0hPa | 2.6V | 00:00:00 | 03:03:51 | 00:00:00 | |
| DO3MHA-11 | 2026-08-31 13:29:55 | 47.32857 | 8.60520 | 75° | 139km/h | 10025m | -6.1m/s | -44.7°C | 13.7% | 0hPa | 2.6V | 00:00:00 | 03:03:50 | 00:00:00 | |
| IW2NTF | 2026-08-31 13:29:52 | 47.32749 | 8.60146 | 66° | 157km/h | 10074m | -6.1m/s | -44.9°C | 14.4% | 0hPa | 2.6V | 08:04:53 | 03:03:42 | 00:00:00 | i |
| DL9SK-14 | 2026-08-31 13:29:49 | 47.32765 | 8.60199 | 65° | 151km/h | 10068m | -6.1m/s | -44.8°C | 11.6% | -1.0hPa | 2.5V | 00:00:00 | 00:00:00 | 00:00:00 | |
| DO3MHA-11 | 2026-08-31 13:29:45 | 47.32720 | 8.60034 | 72° | 148km/h | 10086m | -6.3m/s | -44.9°C | 14.5% | 0hPa | 2.5V | 08:04:00 | 03:03:40 | 00:00:00 | |
| IW2NTF | 2026-08-31 13:29:42 | 47.32647 | 8.59601 | 75° | 130km/h | 10136m | -6m/s | -45.4°C | 13.6% | 0hPa | 2.6V | 08:05:03 | 03:03:32 | 00:00:00 | i |
| DB0UT-7 | 2026-08-31 13:29:38 | 47.32655 | 8.59649 | 78° | 141km/h | 10130m | -5.9m/s | -45.3°C | 13.7% | 0hPa | 2.5V | 00:00:00 | 03:03:33 | 00:00:00 | |
| DN1GJH-1 | 2026-08-31 13:29:37 | 47.32655 | 8.59649 | 78° | 135km/h | 10130m | -5.9m/s | -45.3°C | 11.2% | 0hPa | 2.5V | 08:05:00 | 00:00:00 | 00:00:00 | |
| DO3MHA-11 | 2026-08-31 13:29:35 | 47.32628 | 8.59510 | 70° | 150km/h | 10148m | -6.0m/s | -45.4°C | 13.4% | 0hPa | 2.5V | 00:00:00 | 03:03:30 | 00:00:00 | |
| IW2NTF | 2026-08-31 13:29:32 | 47.32511 | 8.59107 | 71° | 166km/h | 10197m | -6.2m/s | -45.4°C | 14% | 0hPa | 2.5V | 08:05:13 | 03:03:22 | 00:00:00 | i |
| OE9MKV-15 | 2026-08-31 13:29:26 | 47.32498 | 8.59048 | 74° | 150km/h | 10204m | -5.9m/s | -45.4°C | 13.8% | 0hPa | 2.5V | 00:00:00 | 03:03:21 | 00:00:00 | |
| DO3MHA-11 | 2026-08-31 13:29:25 | 47.32487 | 8.58989 | 77° | 146km/h | 10210m | -5.9m/s | -45.5°C | 13.7% | 0hPa | 2.5V | 00:00:00 | 03:03:20 | 00:00:00 | |
| IW2NTF | 2026-08-31 13:29:22 | 47.32418 | 8.58567 | 68° | 135km/h | 10259m | -6.4m/s | -46°C | 13% | 0hPa | 2.5V | 08:05:23 | 03:03:12 | 00:00:00 | i |
| DN1GJH-1 | 2026-08-31 13:29:16 | 47.32418 | 8.58567 | 70° | 135km/h | 10259m | -6.4m/s | -46.0°C | 10.5% | 0hPa | 2.6V | 08:05:00 | 00:00:00 | 00:00:00 | |
| DO3MHA-11 | 2026-08-31 13:29:15 | 47.32391 | 8.58471 | 66° | 153km/h | 10271m | -6.3m/s | -45.9°C | 13.2% | 0hPa | 2.6V | 00:00:00 | 03:03:10 | 00:00:00 | |
| IW2NTF | 2026-08-31 13:29:12 | 47.32281 | 8.58019 | 78° | 159km/h | 10321m | -6m/s | -45.9°C | 12.6% | 0hPa | 2.6V | 08:05:33 | 03:03:02 | 00:00:00 | |
| DB0UT-7 | 2026-08-31 13:29:08 | 47.32290 | 8.58078 | 77° | 153km/h | 10315m | -5.9m/s | -45.8°C | 12.8% | 0hPa | 2.6V | 00:00:00 | 00:00:00 | 00:00:00 | |
| DO3MHA-11 | 2026-08-31 13:29:04 | 47.32260 | 8.57854 | 80° | 142km/h | 10340m | -6.3m/s | -45.8°C | 12.2% | 0hPa | 2.6V | 00:00:00 | 03:02:59 | 00:00:00 | |
| IW2NTF | 2026-08-31 13:29:02 | 47.32181 | 8.57516 | 64° | 151km/h | 10383m | -6m/s | -45.4°C | 11.9% | 0hPa | 2.6V | 08:05:43 | 03:02:52 | 00:00:00 | i |
| OE9MKV-15 | 2026-08-31 13:28:56 | 47.32164 | 8.57464 | 65° | 157km/h | 10389m | -5.9m/s | -45.2°C | 12.1% | 0hPa | 2.5V | 00:00:00 | 03:02:51 | 00:00:00 | |
| DF1GD-15 | 2026-08-31 13:28:55 | 47.32164 | 8.57464 | 66° | 157km/h | 10389m | -6.0m/s | -45.3°C | 9.7% | 0hPa | 2.5V | 08:05:00 | 00:00:00 | 00:00:00 | |
| DO3MHA-11 | 2026-08-31 13:28:54 | 47.32130 | 8.57353 | 67° | 157km/h | 10401m | -6.3m/s | -45.3°C | 12.4% | 0hPa | 2.5V | 00:00:00 | 03:02:49 | 00:00:00 | |
| IW2NTF | 2026-08-31 13:28:52 | 47.32047 | 8.56949 | 75° | 142km/h | 10445m | -6.5m/s | -45.8°C | 12.2% | 0hPa | 2.5V | 08:05:53 | 03:02:42 | 00:00:00 | i |
| DK5PH-5 | 2026-08-31 13:28:48 | 47.32056 | 8.57001 | 77° | 146km/h | 10439m | -5.8m/s | -45.7°C | 12.1% | 0hPa | 2.5V | 00:00:00 | 03:02:43 | 00:00:00 | |
| DO3MHA-11 | 2026-08-31 13:28:44 | 47.32014 | 8.56804 | 68° | 162km/h | 10464m | -6.1m/s | -45.8°C | 12.4% | 0hPa | 2.6V | 00:00:00 | 03:02:39 | 00:00:00 | |
| IW2NTF | 2026-08-31 13:28:42 | 47.31898 | 8.56425 | 69° | 177km/h | 10506m | -6.4m/s | -46°C | 13.5% | 0hPa | 2.5V | 08:06:03 | 03:02:32 | 00:00:00 | i |
| DN1GJH-1 | 2026-08-31 13:28:36 | 47.31898 | 8.56425 | 71° | 177km/h | 10506m | -6.4m/s | -46.0°C | 10.9% | 0hPa | 2.5V | 08:06:00 | 00:00:00 | 00:00:00 | |
| DO3MHA-11 | 2026-08-31 13:28:34 | 47.31860 | 8.56240 | 77° | 150km/h | 10526m | -6.4m/s | -46.2°C | 13.0% | 0hPa | 2.5V | 00:00:00 | 03:02:29 | 00:00:00 | |
| IW2NTF | 2026-08-31 13:28:32 | 47.31793 | 8.55865 | 68° | 142km/h | 10570m | -6.2m/s | -46.6°C | 13.1% | 0hPa | 2.5V | 08:06:13 | 03:02:22 | 00:00:00 | i |
| OE9MKV-15 | 2026-08-31 13:28:26 | 47.31779 | 8.55815 | 67° | 159km/h | 10576m | -6.0m/s | -46.5°C | 13.2% | 0hPa | 2.6V | 00:00:00 | 03:02:21 | 00:00:00 | |
| DO3MHA-11 | 2026-08-31 13:28:24 | 47.31747 | 8.55711 | 66° | 170km/h | 10588m | -6.3m/s | -46.5°C | 13.6% | 0hPa | 2.6V | 00:00:00 | 03:02:19 | 00:00:00 | |
| IW2NTF | 2026-08-31 13:28:22 | 47.31647 | 8.55284 | 77° | 170km/h | 10633m | -6.1m/s | -46.9°C | 13.7% | 0hPa | 2.6V | 08:06:23 | 03:02:12 | 00:00:00 | i |
| DL9SK-14 | 2026-08-31 13:28:16 | 47.31631 | 8.55164 | 79° | 155km/h | 10645m | -6.4m/s | -47.0°C | 10.5% | -1.0hPa | 2.5V | 00:00:00 | 00:00:00 | 00:00:00 | |
| DO3MHA-11 | 2026-08-31 13:28:14 | 47.31623 | 8.55108 | 79° | 146km/h | 10652m | -6.2m/s | -46.9°C | 13.2% | 0hPa | 2.5V | 08:06:00 | 03:02:09 | 00:00:00 | |
| IW2NTF | 2026-08-31 13:28:12 | 47.31541 | 8.54760 | 64° | 151km/h | 10698m | -6.9m/s | -46.9°C | 12.5% | 0hPa | 2.5V | 08:06:33 | 03:02:02 | 00:00:00 | i |
| DO3MHA-12 | 2026-08-31 13:28:12 | 47.31607 | 8.55003 | 75° | 144km/h | 10665m | -6.5m/s | -46.9°C | 12.8% | 0hPa | 2.5V | 00:00:00 | 03:02:07 | 00:00:00 | i |
| DB0UT-7 | 2026-08-31 13:28:10 | 47.31585 | 8.54906 | 70° | 155km/h | 10678m | -6.4m/s | -46.9°C | 12.3% | 0hPa | 2.6V | 00:00:00 | 03:02:05 | 00:00:00 | |
| DO3MHA-11 | 2026-08-31 13:28:04 | 47.31489 | 8.54599 | 66° | 161km/h | 10718m | -6.6m/s | -46.7°C | 12.7% | 0hPa | 2.6V | 00:00:00 | 03:01:59 | 00:00:00 | |
| IW2NTF | 2026-08-31 13:28:02 | 47.31404 | 8.54186 | 77° | 150km/h | 10764m | -6.3m/s | -47°C | 12.1% | 0hPa | 2.6V | 08:06:43 | 03:01:52 | 00:00:00 | i |
| DO3MHA-12 | 2026-08-31 13:28:02 | 47.31457 | 8.54481 | 71° | 148km/h | 10731m | -6.7m/s | -46.8°C | 12.8% | 0hPa | 2.5V | 00:00:00 | 03:01:57 | 00:00:00 | i |
| OE9MKV-15 | 2026-08-31 13:27:56 | 47.31395 | 8.54133 | 77° | 151km/h | 10771m | -6.3m/s | -46.9°C | 12.0% | 0hPa | 2.5V | 00:00:00 | 03:01:51 | 00:00:00 | |
| DN1GJH-1 | 2026-08-31 13:27:55 | 47.31395 | 8.54133 | 77° | 142km/h | 10771m | -6.4m/s | -47.0°C | 9.4% | 0hPa | 2.6V | 08:07:00 | 00:00:00 | 00:00:00 | |
| DO3MHA-11 | 2026-08-31 13:27:54 | 47.31376 | 8.54036 | 72° | 148km/h | 10784m | -6.6m/s | -47.0°C | 11.7% | 0hPa | 2.6V | 00:00:00 | 03:01:49 | 00:00:00 | |
| DF1GD-15 | 2026-08-31 13:27:53 | 47.31376 | 8.54036 | 72° | 133km/h | 10784m | -6.7m/s | -47.1°C | 9.2% | 0hPa | 2.6V | 08:07:00 | 00:00:00 | 00:00:00 | |
| DO3MHA-12 | 2026-08-31 13:27:51 | 47.31337 | 8.53898 | 64° | 162km/h | 10804m | -7.1m/s | -47.1°C | 11.5% | 0hPa | 2.6V | 00:00:00 | 03:01:46 | 00:00:00 | |
| DL9SK-14 | 2026-08-31 13:27:45 | 47.31211 | 8.53534 | 66° | 172km/h | 10853m | -7.3m/s | -47.4°C | 9.1% | -1.0hPa | 2.6V | 00:00:00 | 00:00:00 | 00:00:00 | |
| DO3MHA-11 | 2026-08-31 13:27:44 | 47.31211 | 8.53534 | 67° | 155km/h | 10853m | -7.2m/s | -47.4°C | 12.0% | 0hPa | 2.6V | 00:00:00 | 03:01:39 | 00:00:00 | |
| DO3MHA-12 | 2026-08-31 13:27:40 | 47.31156 | 8.53298 | 75° | 135km/h | 10882m | -7.0m/s | -47.2°C | 11.1% | 0hPa | 2.6V | 00:00:00 | 03:01:35 | 00:00:00 | |
| DN1GJH-1 | 2026-08-31 13:27:35 | 47.31115 | 8.53089 | 72° | 137km/h | 10910m | -7.3m/s | -47.3°C | 8.1% | 0hPa | 2.6V | 08:07:00 | 00:00:00 | 00:00:00 | |
| IW2NTF | 2026-08-31 13:27:33 | 47.31074 | 8.52948 | 62° | 142km/h | 10931m | -7m/s | -47.4°C | 10.5% | 0hPa | 2.6V | 08:07:07 | 03:01:28 | 00:00:00 | i |
| DF1GD-15 | 2026-08-31 13:27:32 | 47.31074 | 8.52947 | 64° | 142km/h | 10932m | -7.0m/s | -47.4°C | 8.1% | 0hPa | 2.5V | 08:07:00 | 00:00:00 | 00:00:00 | |
| OE9MKV-15 | 2026-08-31 13:27:26 | 47.30940 | 8.52574 | 68° | 157km/h | 10983m | -7.3m/s | -47.5°C | 11.3% | 0hPa | 2.5V | 00:00:00 | 03:01:21 | 00:00:00 | |
| IW2NTF | 2026-08-31 13:27:23 | 47.30898 | 8.52391 | 74° | 166km/h | 11006m | -7.2m/s | -47.8°C | 10.9% | 0hPa | 2.5V | 08:07:17 | 03:01:18 | 00:00:00 | i |
| IW2NTF | 2026-08-31 13:27:13 | 47.30763 | 8.51869 | 62° | 166km/h | 11081m | -7.4m/s | -48.1°C | 11.3% | 0hPa | 2.6V | 08:07:27 | 03:01:08 | 00:00:00 | i |
| DF1GD-15 | 2026-08-31 13:27:11 | 47.30744 | 8.51812 | 65° | 173km/h | 11088m | -7.7m/s | -48.2°C | 8.8% | 0hPa | 2.6V | 08:07:00 | 00:00:00 | 00:00:00 | |
| DK5PH-5 | 2026-08-31 13:27:09 | 47.30693 | 8.51629 | 72° | 157km/h | 11111m | -7.5m/s | -48.3°C | 11.4% | 0hPa | 2.6V | 00:00:00 | 03:01:04 | 00:00:00 | |
| IW2NTF | 2026-08-31 13:27:08 | 47.30626 | 8.51283 | 72° | 142km/h | 11156m | -7.3m/s | -48.8°C | 10.6% | 0hPa | 2.6V | 08:07:37 | 03:00:58 | 00:00:00 | i |
| DO3MHA-11 | 2026-08-31 13:27:04 | 47.30636 | 8.51334 | 75° | 142km/h | 11149m | -7.3m/s | -48.7°C | 10.8% | 0hPa | 2.6V | 00:00:00 | 03:00:59 | 00:00:00 | |
| OE9MKV-15 | 2026-08-31 13:26:56 | 47.30512 | 8.50940 | 61° | 161km/h | 11210m | -7.7m/s | -48.5°C | 10.8% | 0hPa | 2.6V | 00:00:00 | 03:00:51 | 00:00:00 | |
| IW2NTF | 2026-08-31 13:26:54 | 47.30453 | 8.50769 | 66° | 177km/h | 11232m | -7.4m/s | -48.8°C | 11.2% | 0hPa | 2.6V | 08:07:47 | 03:00:48 | 00:00:00 | i |
| DF1GD-15 | 2026-08-31 13:26:50 | 47.30421 | 8.50645 | 73° | 177km/h | 11247m | -7.0m/s | -48.9°C | 8.2% | 0hPa | 2.6V | 08:08:00 | 00:00:00 | 00:00:00 | |
| IW2NTF | 2026-08-31 13:26:43 | 47.30337 | 8.50196 | 67° | 137km/h | 11307m | -7.1m/s | -49.3°C | 10.2% | 0hPa | 2.6V | 08:07:57 | 03:00:38 | 00:00:00 | i |
| DL9SK-14 | 2026-08-31 13:26:43 | 47.30269 | 8.50003 | 60° | 157km/h | 11337m | -8.0m/s | -49.4°C | 7.6% | -1.0hPa | 2.6V | 00:00:00 | 00:00:00 | 00:00:00 | i |
| IW2NTF | 2026-08-31 13:26:33 | 47.30164 | 8.49656 | 72° | 173km/h | 11382m | -7.5m/s | -49.4°C | 10.2% | 0hPa | 2.6V | 08:08:07 | 03:00:28 | 00:00:00 | i |
| DB0UT-7 | 2026-08-31 13:26:33 | 47.30164 | 8.49656 | 73° | 157km/h | 11382m | -7.4m/s | -49.3°C | 10.2% | 0hPa | 2.6V | 00:00:00 | 03:00:28 | 00:00:00 | i |
| DF1GD-15 | 2026-08-31 13:26:30 | 47.30141 | 8.49536 | 75° | 162km/h | 11397m | -7.7m/s | -49.5°C | 7.5% | 0hPa | 2.6V | 08:08:00 | 00:00:00 | 00:00:00 | |
| OE9MKV-15 | 2026-08-31 13:26:26 | 47.30079 | 8.49278 | 64° | 155km/h | 11435m | -8.1m/s | -49.7°C | 9.7% | 0hPa | 2.6V | 08:08:00 | 03:00:21 | 00:00:00 | |
| IW2NTF | 2026-08-31 13:26:23 | 47.30025 | 8.49134 | 60° | 155km/h | 11457m | -7.3m/s | -49.8°C | 10.2% | 0hPa | 2.5V | 08:08:17 | 03:00:18 | 00:00:00 | i |
| DO3MHA-11 | 2026-08-31 13:26:23 | 47.30025 | 8.49134 | 61° | 166km/h | 11458m | -7.3m/s | -49.8°C | 10.2% | 0hPa | 2.5V | 00:00:00 | 03:00:18 | 00:00:00 | i |
| IW2NTF | 2026-08-31 13:26:13 | 47.29860 | 8.48555 | 73° | 162km/h | 11532m | -7.6m/s | -50.4°C | 10.5% | 0hPa | 2.5V | 08:08:27 | 03:00:08 | 00:00:00 | i |
| DL9SK-14 | 2026-08-31 13:26:12 | 47.29838 | 8.48441 | 74° | 153km/h | 11547m | -7.5m/s | -50.5°C | 7.5% | -1.0hPa | 2.5V | 00:00:00 | 00:00:00 | 00:00:00 | |
| DF1GD-15 | 2026-08-31 13:26:09 | 47.29827 | 8.48388 | 76° | 148km/h | 11554m | -7.1m/s | -50.5°C | 7.7% | 0hPa | 2.5V | 08:09:00 | 00:00:00 | 00:00:00 | |
| IW2NTF | 2026-08-31 13:26:03 | 47.29750 | 8.48049 | 64° | 139km/h | 11607m | -7.6m/s | -50.9°C | 10% | 0hPa | 2.5V | 08:08:37 | 02:59:58 | 00:00:00 | i |
| DB0UT-7 | 2026-08-31 13:26:03 | 47.29750 | 8.48049 | 65° | 148km/h | 11607m | -7.5m/s | -50.8°C | 10.0% | 0hPa | 2.6V | 00:00:00 | 00:00:00 | 00:00:00 | i |
| DF7PN | 2026-08-31 13:25:58 | 47.29627 | 8.47676 | 68° | 172km/h | 11663m | -7.8m/s | -51.1°C | 7.3% | -1.0hPa | 2.6V | 00:00:00 | 00:00:00 | 00:00:00 | |
| OE9MKV-15 | 2026-08-31 13:25:56 | 47.29627 | 8.47675 | 69° | 162km/h | 11663m | -7.7m/s | -51.1°C | 10.3% | 0hPa | 2.6V | 00:00:00 | 02:59:51 | 00:00:00 | |
| IW2NTF | 2026-08-31 13:25:53 | 47.29587 | 8.47499 | 74° | 159km/h | 11685m | -7.4m/s | -51.3°C | 9.8% | 0hPa | 2.6V | 08:08:47 | 02:59:48 | 00:00:00 | i |
| DN1GJH-1 | 2026-08-31 13:25:52 | 47.29587 | 8.47499 | 75° | 161km/h | 11686m | -7.4m/s | -51.3°C | 7.1% | 0hPa | 2.5V | 08:09:00 | 00:00:00 | 00:00:00 | |
| DO3MHA-11 | 2026-08-31 13:25:51 | 47.29565 | 8.47388 | 74° | 150km/h | 11701m | -7.3m/s | -51.4°C | 9.9% | 0hPa | 2.5V | 00:00:00 | 02:59:46 | 00:00:00 | |
| DF1GD-15 | 2026-08-31 13:25:48 | 47.29541 | 8.47284 | 70° | 148km/h | 11715m | -6.8m/s | -51.6°C | 7.2% | 0hPa | 2.5V | 08:09:00 | 00:00:00 | 00:00:00 | |
| IW2NTF | 2026-08-31 13:25:43 | 47.29449 | 8.46950 | 72° | 170km/h | 11759m | -7.7m/s | -51.6°C | 9.4% | 0hPa | 2.5V | 08:08:57 | 02:59:38 | 00:00:00 | i |
| DO3MHA-11 | 2026-08-31 13:25:41 | 47.29425 | 8.46832 | 76° | 151km/h | 11774m | -7.3m/s | -51.6°C | 8.9% | 0hPa | 2.6V | 00:00:00 | 02:59:36 | 00:00:00 | |
| IW2NTF | 2026-08-31 13:25:33 | 47.29311 | 8.46404 | 65° | 175km/h | 11833m | -7.2m/s | -51.6°C | 9% | 0hPa | 2.6V | 08:09:07 | 02:59:28 | 00:00:00 | i |
| DN1GJH-1 | 2026-08-31 13:25:31 | 47.29293 | 8.46344 | 68° | 179km/h | 11841m | -7.8m/s | -51.6°C | 6.2% | 0hPa | 2.5V | 08:09:00 | 00:00:00 | 00:00:00 | |
| DF1GD-15 | 2026-08-31 13:25:28 | 47.29245 | 8.46157 | 72° | 177km/h | 11864m | -7.6m/s | -51.5°C | 6.0% | 0hPa | 2.5V | 08:09:00 | 00:00:00 | 00:00:00 | |
| DF7PN | 2026-08-31 13:25:27 | 47.29208 | 8.45976 | 75° | 161km/h | 11887m | -7.3m/s | -51.7°C | 5.4% | -1.0hPa | 2.5V | 00:00:00 | 00:00:00 | 00:00:00 | |
| OE9MKV-15 | 2026-08-31 13:25:26 | 47.29208 | 8.45975 | 76° | 150km/h | 11887m | -7.3m/s | -51.6°C | 8.2% | 0hPa | 2.5V | 00:00:00 | 02:59:21 | 00:00:00 | |
| IW2NTF | 2026-08-31 13:25:23 | 47.29179 | 8.45808 | 75° | 148km/h | 11911m | -8.2m/s | -51.9°C | 8.1% | 0hPa | 2.5V | 08:09:17 | 02:59:18 | 00:00:00 | i |
| DK5PH-5 | 2026-08-31 13:25:21 | 47.29160 | 8.45706 | 73° | 38km/h | 11927m | -7.9m/s | -51.8°C | 8.0% | 0hPa | 2.6V | 00:00:00 | 02:59:16 | 00:00:00 | |
| IW2NTF | 2026-08-31 13:25:18 | 47.29033 | 8.45294 | 68° | 166km/h | 11988m | -7.8m/s | -51.9°C | 8.5% | 0hPa | 2.6V | 08:09:27 | 02:59:08 | 00:00:00 | i |
| DN1GJH-1 | 2026-08-31 13:25:11 | 47.29018 | 8.45236 | 72° | 164km/h | 11996m | -8.0m/s | -51.9°C | 5.6% | 0hPa | 2.5V | 08:10:00 | 00:00:00 | 00:00:00 | |
| DL9SK-14 | 2026-08-31 13:25:10 | 47.28983 | 8.45070 | 73° | 146km/h | 12020m | -7.8m/s | -52.1°C | 5.3% | -1.0hPa | 2.5V | 00:00:00 | 00:00:00 | 00:00:00 | |
| IW2NTF | 2026-08-31 13:25:08 | 47.28906 | 8.44773 | 67° | 151km/h | 12067m | -7.5m/s | -51.9°C | 8.4% | 0hPa | 2.5V | 08:09:37 | 02:58:58 | 00:00:00 | i |
| DO3MHA-11 | 2026-08-31 13:25:07 | 47.28961 | 8.44969 | 71° | 139km/h | 12036m | -7.7m/s | -52.1°C | 8.2% | 0hPa | 2.5V | 00:00:00 | 02:59:02 | 00:00:00 | |
| DF7PN | 2026-08-31 13:24:55 | 47.28802 | 8.44353 | 73° | 146km/h | 12127m | -7.3m/s | -52.3°C | 5.4% | -1.0hPa | 2.5V | 00:00:00 | 00:00:00 | 00:00:00 | |
| IW2NTF | 2026-08-31 13:24:53 | 47.28783 | 8.44252 | 74° | 135km/h | 12142m | -7.2m/s | -52.3°C | 8.2% | 0hPa | 2.5V | 08:09:47 | 02:58:48 | 00:00:00 | i |
| DF3TZ-5 | 2026-08-31 13:24:50 | 47.28722 | 8.44029 | 62° | 137km/h | 12181m | -7.3m/s | 0°C | -1.0% | -1.0hPa | 2.6V | 00:00:00 | 00:00:00 | 00:00:00 | |
| DB0UT-7 | 2026-08-31 13:24:48 | 47.28722 | 8.44029 | 63° | 141km/h | 12181m | -7.3m/s | -52.3°C | 8.6% | 0hPa | 2.6V | 00:00:00 | 02:58:43 | 00:00:00 | |
| DF1GD-15 | 2026-08-31 13:24:46 | 47.28706 | 8.43982 | 63° | 144km/h | 12188m | -7.3m/s | -52.4°C | 5.9% | 0hPa | 2.6V | 08:10:00 | 00:00:00 | 00:00:00 | |
| IW2NTF | 2026-08-31 13:24:43 | 47.28642 | 8.43776 | 69° | 153km/h | 12219m | -7.8m/s | -52.6°C | 8.7% | 0hPa | 2.6V | 08:09:57 | 02:58:38 | 00:00:00 | i |
| DL9SK-14 | 2026-08-31 13:24:38 | 47.28575 | 8.43490 | 67° | 122km/h | 12265m | -8.1m/s | 0°C | -1.0% | -1.0hPa | 2.5V | 00:00:00 | 00:00:00 | 00:00:00 | |
| IW2NTF | 2026-08-31 13:24:33 | 47.28525 | 8.43312 | 68° | 137km/h | 12297m | -7.1m/s | -52.6°C | 8.5% | 0hPa | 2.5V | 08:10:07 | 02:58:28 | 00:00:00 | i |
| DN1GJH-1 | 2026-08-31 13:24:29 | 47.28490 | 8.43161 | 75° | 144km/h | 12318m | -7.2m/s | -52.9°C | 5.4% | 0hPa | 2.6V | 08:10:00 | 00:00:00 | 00:00:00 | |
| DO3MHA-11 | 2026-08-31 13:24:27 | 47.28462 | 8.43012 | 74° | 130km/h | 12340m | -8.0m/s | -53.2°C | 8.1% | 0hPa | 2.6V | 00:00:00 | 02:58:22 | 00:00:00 | |
| OE9MKV-15 | 2026-08-31 13:24:26 | 47.28452 | 8.42966 | 72° | 131km/h | 12348m | -7.7m/s | -53.2°C | 8.2% | 0hPa | 2.6V | 00:00:00 | 02:58:21 | 00:00:00 | |
| DF1GD-15 | 2026-08-31 13:24:25 | 47.28452 | 8.42966 | 72° | 128km/h | 12348m | -7.7m/s | -53.3°C | 5.4% | 0hPa | 2.6V | 08:10:00 | 00:00:00 | 00:00:00 | |
| IW2NTF | 2026-08-31 13:24:23 | 47.28414 | 8.42830 | 65° | 141km/h | 12372m | -7.8m/s | -53.2°C | 8.4% | 0hPa | 2.6V | 08:10:17 | 02:58:18 | 00:00:00 | i |
| DB0UT-7 | 2026-08-31 13:24:18 | 47.28349 | 8.42576 | 75° | 141km/h | 12410m | -7.5m/s | -52.9°C | 7.9% | 0hPa | 2.6V | 00:00:00 | 00:00:00 | 00:00:00 | |
| DO3MHA-11 | 2026-08-31 13:24:17 | 47.28340 | 8.42526 | 76° | 128km/h | 12418m | -7.7m/s | -52.9°C | 7.9% | 0hPa | 2.6V | 08:10:00 | 02:58:12 | 00:00:00 | |
| IW2NTF | 2026-08-31 13:24:13 | 47.28303 | 8.42339 | 72° | 128km/h | 12449m | -7.8m/s | -53.2°C | 8% | 0hPa | 2.6V | 08:10:27 | 02:58:08 | 00:00:00 | i |
| DH7VM-15 | 2026-08-31 13:24:10 | 47.28283 | 8.42250 | 72° | 124km/h | 12465m | -7.8m/s | -53.3°C | 5.0% | 0hPa | 2.5V | 00:00:00 | 00:00:00 | 00:00:00 | |
| DN1GJH-1 | 2026-08-31 13:24:09 | 47.28273 | 8.42207 | 71° | 122km/h | 12473m | -8.1m/s | -53.4°C | 5.0% | 0hPa | 2.5V | 08:10:00 | 00:00:00 | 00:00:00 | |
| DO3MHA-11 | 2026-08-31 13:24:07 | 47.28240 | 8.42082 | 68° | 126km/h | 12498m | -8.4m/s | -53.5°C | 7.5% | 0hPa | 2.5V | 00:00:00 | 02:58:02 | 00:00:00 | |
| DF1GD-15 | 2026-08-31 13:24:05 | 47.28229 | 8.42041 | 68° | 120km/h | 12507m | -8.6m/s | -53.5°C | 4.7% | 0hPa | 2.5V | 08:10:00 | 00:00:00 | 00:00:00 | |
| IW2NTF | 2026-08-31 13:24:03 | 47.28190 | 8.41916 | 64° | 130km/h | 12532m | -8.2m/s | -53.4°C | 7.4% | 0hPa | 2.5V | 08:10:37 | 02:57:58 | 00:00:00 | i |
| DF7PN | 2026-08-31 13:23:53 | 47.28066 | 8.41446 | 63° | 126km/h | 12611m | -7.9m/s | -53.8°C | 4.1% | -1.0hPa | 2.6V | 00:00:00 | 00:00:00 | 00:00:00 | i |
| IW2NTF | 2026-08-31 13:23:53 | 47.28066 | 8.41446 | 63° | 126km/h | 12611m | -7.9m/s | -53.8°C | 7% | 0hPa | 2.6V | 08:10:47 | 02:57:48 | 00:00:00 | i |
| DN1GJH-1 | 2026-08-31 13:23:48 | 47.27999 | 8.41258 | 66° | 159km/h | 12642m | -7.9m/s | -53.6°C | 4.3% | 0hPa | 2.6V | 08:10:00 | 00:00:00 | 00:00:00 | |
| IW2NTF | 2026-08-31 13:23:43 | 47.27933 | 8.40937 | 76° | 130km/h | 12692m | -8.5m/s | -53.6°C | 6.2% | 0hPa | 2.6V | 08:10:57 | 02:57:38 | 00:00:00 | i |
| DL9SK-14 | 2026-08-31 13:23:36 | 47.27844 | 8.40627 | 63° | 151km/h | 12749m | -7.6m/s | 0°C | -1.0% | -1.0hPa | 2.5V | 00:00:00 | 00:00:00 | 00:00:00 | |
| IW2NTF | 2026-08-31 13:23:33 | 47.27799 | 8.40466 | 71° | 155km/h | 12773m | -8.1m/s | -53.8°C | 6% | 0hPa | 2.5V | 08:11:07 | 02:57:28 | 00:00:00 | i |
| DN1GJH-1 | 2026-08-31 13:23:28 | 47.27760 | 8.40265 | 74° | 124km/h | 12805m | -7.5m/s | -54.1°C | 3.3% | 0hPa | 2.6V | 08:11:00 | 00:00:00 | 00:00:00 | |
| IW2NTF | 2026-08-31 13:23:23 | 47.27672 | 8.40010 | 61° | 148km/h | 12854m | -8.7m/s | -54.2°C | 6.2% | 0hPa | 2.6V | 08:11:17 | 02:57:18 | 00:00:00 | i |
| DF7PN | 2026-08-31 13:23:22 | 47.27638 | 8.39908 | 66° | 155km/h | 12871m | -9.4m/s | -54.2°C | 3.1% | -1.0hPa | 2.6V | 00:00:00 | 00:00:00 | 00:00:00 | |
| IW2NTF | 2026-08-31 13:23:13 | 47.27558 | 8.39513 | 68° | 115km/h | 12942m | -7.9m/s | -53.8°C | 5.2% | 0hPa | 2.6V | 08:11:27 | 02:57:08 | 00:00:00 | i |
| DB0UT-7 | 2026-08-31 13:23:09 | 47.27499 | 8.39349 | 63° | 131km/h | 12976m | -9.0m/s | -53.4°C | 5.2% | 0hPa | 2.5V | 00:00:00 | 02:57:04 | 00:00:00 | |
| DN1GJH-1 | 2026-08-31 13:23:08 | 47.27499 | 8.39349 | 63° | 139km/h | 12976m | -9.1m/s | -53.4°C | 2.7% | 0hPa | 2.5V | 08:11:00 | 00:00:00 | 00:00:00 | |
| IW2NTF | 2026-08-31 13:23:03 | 47.27428 | 8.39057 | 75° | 126km/h | 13028m | -8.5m/s | -53.4°C | 4.7% | 0hPa | 2.5V | 08:11:37 | 02:56:58 | 00:00:00 | i |
| DH7VM-15 | 2026-08-31 13:22:57 | 47.27377 | 8.38853 | 64° | 124km/h | 13073m | -8.5m/s | -53.1°C | 2.0% | 0hPa | 2.6V | 00:00:00 | 00:00:00 | 00:00:00 | |
| IW2NTF | 2026-08-31 13:22:53 | 47.27305 | 8.38625 | 67° | 139km/h | 13116m | -9.3m/s | -53.3°C | 4.6% | 0hPa | 2.6V | 08:11:47 | 02:56:48 | 00:00:00 | i |
| DF7PN | 2026-08-31 13:22:51 | 47.27279 | 8.38532 | 67° | 131km/h | 13133m | -8.3m/s | -53.3°C | 2.0% | -1.0hPa | 2.6V | 00:00:00 | 00:00:00 | 00:00:00 | |
| DN1GJH-1 | 2026-08-31 13:22:48 | 47.27254 | 8.38445 | 68° | 128km/h | 13150m | -8.5m/s | -53.3°C | 2.2% | 0hPa | 2.6V | 08:12:00 | 00:00:00 | 00:00:00 | |
| IW2NTF | 2026-08-31 13:22:43 | 47.27178 | 8.38184 | 67° | 126km/h | 13204m | -9.1m/s | -53.6°C | 4.6% | 0hPa | 2.6V | 08:11:57 | 02:56:38 | 00:00:00 | i |
| DB0UT-7 | 2026-08-31 13:22:38 | 47.27117 | 8.37969 | 68° | 117km/h | 13250m | -9.3m/s | -53.7°C | 4.6% | 0hPa | 2.5V | 00:00:00 | 00:00:00 | 00:00:00 | |
| IW2NTF | 2026-08-31 13:22:33 | 47.27056 | 8.37757 | 67° | 122km/h | 13296m | -9.4m/s | -53.8°C | 4.6% | 0hPa | 2.5V | 08:12:07 | 02:56:28 | 00:00:00 | i |
| DN1GJH-1 | 2026-08-31 13:22:27 | 47.26990 | 8.37551 | 65° | 124km/h | 13344m | -9.4m/s | -53.8°C | 2.0% | 0hPa | 2.6V | 08:12:00 | 00:00:00 | 00:00:00 | |
| IW2NTF | 2026-08-31 13:22:23 | 47.26922 | 8.37344 | 64° | 124km/h | 13390m | -9.4m/s | -53.8°C | 4.5% | 0hPa | 2.6V | 08:12:17 | 02:56:18 | 00:00:00 | i |
| DF1GD-15 | 2026-08-31 13:22:22 | 47.26922 | 8.37343 | 65° | 124km/h | 13391m | -9.4m/s | -53.8°C | 2.1% | 0hPa | 2.6V | 08:12:00 | 00:00:00 | 00:00:00 | |
| DF7PN | 2026-08-31 13:22:20 | 47.26882 | 8.37218 | 65° | 124km/h | 13419m | -9.5m/s | -53.8°C | 1.9% | -1.0hPa | 2.6V | 00:00:00 | 00:00:00 | 00:00:00 | |
| IW2NTF | 2026-08-31 13:22:13 | 47.26793 | 8.36916 | 68° | 126km/h | 13485m | -9.3m/s | -53.9°C | 4.5% | 0hPa | 2.6V | 08:12:27 | 02:56:08 | 00:00:00 | i |
| DN1GJH-1 | 2026-08-31 13:22:06 | 47.26727 | 8.36658 | 71° | 122km/h | 13541m | -9.5m/s | -54.1°C | 2.1% | 0hPa | 2.5V | 08:12:00 | 00:00:00 | 00:00:00 | |
| IW2NTF | 2026-08-31 13:22:03 | 47.26686 | 8.36487 | 70° | 122km/h | 13578m | -9.5m/s | -54°C | 4.5% | 0hPa | 2.5V | 08:12:37 | 02:55:58 | 00:00:00 | i |
| DF1GD-15 | 2026-08-31 13:22:02 | 47.26686 | 8.36487 | 72° | 122km/h | 13578m | -9.5m/s | -54.0°C | 2.1% | 0hPa | 2.6V | 08:12:00 | 00:00:00 | 00:00:00 | |
| IW2NTF | 2026-08-31 13:21:53 | 47.26601 | 8.36055 | 75° | 119km/h | 13673m | -9.5m/s | -54.3°C | 4.7% | 0hPa | 2.6V | 08:12:47 | 02:55:48 | 00:00:00 | i |
| DF7PN | 2026-08-31 13:21:49 | 47.26573 | 8.35885 | 77° | 117km/h | 13711m | -9.5m/s | -54.5°C | 2.0% | -1.0hPa | 2.6V | 00:00:00 | 00:00:00 | 00:00:00 | |
| DN1GJH-1 | 2026-08-31 13:21:47 | 47.26559 | 8.35801 | 76° | 117km/h | 13731m | -9.2m/s | -54.4°C | 2.1% | 0hPa | 2.6V | 08:13:00 | 00:00:00 | 00:00:00 | |
| IW2NTF | 2026-08-31 13:21:43 | 47.26529 | 8.35632 | 75° | 119km/h | 13768m | -9.4m/s | -54.6°C | 4.7% | 0hPa | 2.6V | 08:12:57 | 02:55:38 | 00:00:00 | i |
| DF1GD-15 | 2026-08-31 13:21:42 | 47.26529 | 8.35632 | 77° | 119km/h | 13769m | -9.5m/s | -54.6°C | 2.2% | 0hPa | 2.5V | 08:13:00 | 00:00:00 | 00:00:00 | |
| IW2NTF | 2026-08-31 13:21:33 | 47.26450 | 8.35218 | 74° | 113km/h | 13865m | -9.7m/s | -54.6°C | 4.6% | 0hPa | 2.5V | 08:13:07 | 02:55:28 | 00:00:00 | i |
| DB0UT-7 | 2026-08-31 13:21:28 | 47.26408 | 8.35015 | 73° | 110km/h | 13915m | -9.7m/s | -54.7°C | 4.6% | 0hPa | 2.6V | 00:00:00 | 02:55:23 | 00:00:00 | |
| DN1GJH-1 | 2026-08-31 13:21:25 | 47.26391 | 8.34935 | 72° | 113km/h | 13934m | -9.8m/s | -54.3°C | 2.1% | 0hPa | 2.6V | 08:13:00 | 00:00:00 | 00:00:00 | |
| IW2NTF | 2026-08-31 13:21:23 | 47.26365 | 8.34818 | 71° | 111km/h | 13963m | -9.7m/s | -54°C | 4.5% | 0hPa | 2.6V | 08:13:17 | 02:55:18 | 00:00:00 | i |
| DF1GD-15 | 2026-08-31 13:21:22 | 47.26364 | 8.34818 | 73° | 111km/h | 13963m | -9.7m/s | -54.0°C | 2.1% | 0hPa | 2.5V | 08:13:00 | 00:00:00 | 00:00:00 | |
| DF7PN | 2026-08-31 13:21:18 | 47.26319 | 8.34621 | 72° | 108km/h | 14012m | -9.8m/s | -54.3°C | 1.9% | -1.0hPa | 2.5V | 00:00:00 | 00:00:00 | 00:00:00 | |
| IW2NTF | 2026-08-31 13:21:13 | 47.26273 | 8.34429 | 71° | 111km/h | 14061m | -9.9m/s | -54.3°C | 4.5% | 0hPa | 2.5V | 08:13:27 | 02:55:08 | 00:00:00 | i |
| DN1GJH-1 | 2026-08-31 13:21:05 | 47.26215 | 8.34163 | 73° | 110km/h | 14131m | -9.6m/s | -54.9°C | 2.0% | 0hPa | 2.5V | 08:14:00 | 00:00:00 | 00:00:00 | |
| IW2NTF | 2026-08-31 13:21:04 | 47.26189 | 8.34047 | 71° | 110km/h | 14160m | -10m/s | -55°C | 4.6% | 0hPa | 2.5V | 08:13:37 | 02:54:58 | 00:00:00 | i |
| DF1GD-15 | 2026-08-31 13:21:01 | 47.26180 | 8.34009 | 73° | 110km/h | 14170m | -9.6m/s | -55.1°C | 2.0% | 0hPa | 2.6V | 08:14:00 | 00:00:00 | 00:00:00 | |
| DB0UT-7 | 2026-08-31 13:20:58 | 47.26146 | 8.33859 | 73° | 97km/h | 14209m | -10.2m/s | -54.8°C | 4.4% | 0hPa | 2.6V | 00:00:00 | 00:00:00 | 00:00:00 | |
| IW2NTF | 2026-08-31 13:20:53 | 47.26104 | 8.33674 | 70° | 106km/h | 14259m | -10.1m/s | -54.7°C | 4.4% | 0hPa | 2.6V | 08:13:47 | 02:54:48 | 00:00:00 | i |
| IW2NTF | 2026-08-31 13:20:44 | 47.26022 | 8.33319 | 69° | 99km/h | 14360m | -10.1m/s | -55.3°C | 4.4% | 0hPa | 2.5V | 08:13:57 | 02:54:38 | 00:00:00 | |
| DF1GD-15 | 2026-08-31 13:20:40 | 47.26004 | 8.33249 | 71° | 104km/h | 14380m | -10.0m/s | -55.5°C | 1.9% | 0hPa | 2.6V | 08:14:00 | 00:00:00 | 00:00:00 | |
| IW2NTF | 2026-08-31 13:20:38 | 47.25934 | 8.32963 | 68° | 102km/h | 14461m | -9.9m/s | -55.9°C | 4.4% | 0hPa | 2.6V | 08:14:07 | 02:54:28 | 00:00:00 | i |
| LOEBOVI | 2026-08-31 13:20:30 | 47.25904 | 8.32854 | 68° | 104km/h | 14491m | -10.1m/s | -56.0°C | 1.8% | 0hPa | 2.6V | 00:00:00 | 00:00:00 | 00:00:00 | |
| IW2NTF | 2026-08-31 13:20:29 | 47.25833 | 8.32609 | 64° | 102km/h | 14562m | -9.8m/s | -56.4°C | 4.6% | 0hPa | 2.6V | 08:14:17 | 02:54:18 | 00:00:00 | i |
| DN1GJH-1 | 2026-08-31 13:20:25 | 47.25864 | 8.32714 | 66° | 102km/h | 14532m | -10.0m/s | -56.2°C | 1.9% | 0hPa | 2.6V | 08:14:00 | 00:00:00 | 00:00:00 | |
| DF1GD-15 | 2026-08-31 13:20:19 | 47.25801 | 8.32506 | 67° | 102km/h | 14592m | -10.4m/s | -56.6°C | 1.9% | 0hPa | 2.6V | 08:14:00 | 00:00:00 | 00:00:00 | |
| IW2NTF | 2026-08-31 13:20:18 | 47.25735 | 8.32255 | 70° | 104km/h | 14663m | -10m/s | -56.9°C | 4.9% | 0hPa | 2.6V | 08:14:27 | 02:54:08 | 00:00:00 | i |
| DF7PN | 2026-08-31 13:20:17 | 47.25762 | 8.32364 | 69° | 104km/h | 14633m | -10.2m/s | -56.7°C | 1.7% | -1.0hPa | 2.5V | 00:00:00 | 00:00:00 | 00:00:00 | |
| IW2NTF | 2026-08-31 13:20:08 | 47.25655 | 8.31904 | 73° | 99km/h | 14765m | -10.4m/s | -56.5°C | 4.5% | 0hPa | 2.5V | 08:14:37 | 02:53:58 | 00:00:00 | i |
| DN1GJH-1 | 2026-08-31 13:20:04 | 47.25668 | 8.31974 | 76° | 97km/h | 14744m | -10.4m/s | -56.7°C | 1.8% | 0hPa | 2.6V | 08:15:00 | 00:00:00 | 00:00:00 | |
| DF1GD-15 | 2026-08-31 13:20:00 | 47.25635 | 8.31803 | 77° | 91km/h | 14796m | -10.3m/s | -56.1°C | 1.8% | 0hPa | 2.6V | 08:15:00 | 00:00:00 | 00:00:00 | |
| IW2NTF | 2026-08-31 13:19:58 | 47.25591 | 8.31570 | 75° | 93km/h | 14867m | -10.3m/s | -55.5°C | 4.2% | 0hPa | 2.6V | 08:14:47 | 02:53:48 | 00:00:00 | i |
| IW2NTF | 2026-08-31 13:19:48 | 47.25530 | 8.31234 | 74° | 97km/h | 14971m | -10.2m/s | -56.2°C | 4.1% | 0hPa | 2.5V | 08:14:57 | 02:53:38 | 00:00:00 | i |
| DF7PN | 2026-08-31 13:19:45 | 47.25536 | 8.31268 | 75° | 97km/h | 14961m | -10.3m/s | -56.1°C | 1.3% | -1.0hPa | 2.6V | 00:00:00 | 00:00:00 | 00:00:00 | |
| DN1GJH-1 | 2026-08-31 13:19:44 | 47.25536 | 8.31268 | 77° | 97km/h | 14961m | -10.3m/s | -56.1°C | 1.5% | 0hPa | 2.6V | 08:15:00 | 00:00:00 | 00:00:00 | |
| DB0UT-7 | 2026-08-31 13:19:41 | 47.25517 | 8.31164 | 75° | 93km/h | 14992m | -10.4m/s | -56.2°C | 4.1% | 0hPa | 2.6V | 08:14:00 | 02:53:36 | 00:00:00 | |
| DF1GD-15 | 2026-08-31 13:19:39 | 47.25511 | 8.31130 | 77° | 95km/h | 15002m | -10.2m/s | -56.3°C | 1.6% | 0hPa | 2.6V | 08:15:00 | 00:00:00 | 00:00:00 | |
| IW2NTF | 2026-08-31 13:19:38 | 47.25468 | 8.30887 | 77° | 99km/h | 15076m | -10.5m/s | -56.9°C | 4.5% | 0hPa | 2.6V | 08:15:07 | 02:53:28 | 00:00:00 | i |
| IW2NTF | 2026-08-31 13:19:28 | 47.25421 | 8.30531 | 80° | 95km/h | 15182m | -10.8m/s | -57.4°C | 4.4% | 0hPa | 2.5V | 08:15:17 | 02:53:18 | 00:00:00 | i |
| DN1GJH-1 | 2026-08-31 13:19:23 | 47.25425 | 8.30566 | 81° | 95km/h | 15171m | -10.7m/s | -57.3°C | 1.6% | 0hPa | 2.5V | 08:16:00 | 00:00:00 | 00:00:00 | |
| IW2NTF | 2026-08-31 13:19:18 | 47.25383 | 8.30208 | 80° | 82km/h | 15291m | -11.1m/s | -57.2°C | 4.5% | 0hPa | 2.5V | 08:15:27 | 02:53:08 | 00:00:00 | i |
| DF7PN | 2026-08-31 13:19:14 | 47.25383 | 8.30208 | 80° | 82km/h | 15291m | -11.1m/s | -57.2°C | 1.3% | -1.0hPa | 2.5V | 00:00:00 | 00:00:00 | 00:00:00 | |
| DB0UT-7 | 2026-08-31 13:19:11 | 47.25376 | 8.30146 | 81° | 75km/h | 15314m | -11.3m/s | -57.2°C | 4.5% | 0hPa | 2.5V | 00:00:00 | 00:00:00 | 00:00:00 | |
| IW2NTF | 2026-08-31 13:19:08 | 47.25345 | 8.29886 | 78° | 88km/h | 15403m | -11.3m/s | -56.9°C | 4.5% | 0hPa | 2.5V | 08:15:37 | 02:52:58 | 00:00:00 | i |
| LOEBOVI | 2026-08-31 13:19:07 | 47.25365 | 8.30049 | 82° | 91km/h | 15347m | -11.0m/s | -57.1°C | 1.4% | 0hPa | 2.5V | 00:00:00 | 00:00:00 | 00:00:00 | |
| DN1GJH-1 | 2026-08-31 13:19:03 | 47.25350 | 8.29918 | 80° | 88km/h | 15392m | -11.2m/s | -56.9°C | 1.5% | 0hPa | 2.5V | 08:16:00 | 00:00:00 | 00:00:00 | |
| IW2NTF | 2026-08-31 13:18:58 | 47.25308 | 8.29590 | 79° | 75km/h | 15518m | -11.4m/s | -56.2°C | 4.2% | 0hPa | 2.5V | 08:15:47 | 02:52:48 | 00:00:00 | i |
| DF1GD-15 | 2026-08-31 13:18:57 | 47.25325 | 8.29732 | 82° | 80km/h | 15460m | -11.6m/s | -56.7°C | 1.4% | 0hPa | 2.6V | 08:16:00 | 00:00:00 | 00:00:00 | |
| IW2NTF | 2026-08-31 13:18:48 | 47.25281 | 8.29303 | 82° | 77km/h | 15633m | -11.5m/s | -54.6°C | 3.7% | 0hPa | 2.6V | 08:15:57 | 02:52:38 | 00:00:00 | i |
| DN1GJH-1 | 2026-08-31 13:18:42 | 47.25281 | 8.29303 | 84° | 77km/h | 15633m | -11.5m/s | -54.6°C | 1.2% | 0hPa | 2.6V | 08:16:00 | 00:00:00 | 00:00:00 | |
| IW2NTF | 2026-08-31 13:18:38 | 47.25248 | 8.29043 | 73° | 69km/h | 15746m | -11.2m/s | -54.1°C | 3.6% | 0hPa | 2.6V | 08:16:07 | 02:52:28 | 00:00:00 | i |
| DF1GD-15 | 2026-08-31 13:18:36 | 47.25264 | 8.29144 | 80° | 71km/h | 15701m | -11.2m/s | -54.5°C | 1.2% | 0hPa | 2.6V | 08:16:00 | 00:00:00 | 00:00:00 | |
| IW2NTF | 2026-08-31 13:18:28 | 47.25187 | 8.28808 | 65° | 68km/h | 15859m | -11.2m/s | -54.3°C | 3.4% | 0hPa | 2.6V | 08:16:17 | 02:52:18 | 00:00:00 | i |
| DN1GJH-1 | 2026-08-31 13:18:21 | 47.25180 | 8.28785 | 67° | 66km/h | 15871m | -11.5m/s | -54.4°C | 1.1% | 0hPa | 2.6V | 08:16:00 | 00:00:00 | 00:00:00 | |
| IW2NTF | 2026-08-31 13:18:18 | 47.25121 | 8.28582 | 66° | 68km/h | 15974m | -11.4m/s | -55°C | 3.8% | 0hPa | 2.6V | 08:16:27 | 02:52:08 | 00:00:00 | i |
| DF1GD-15 | 2026-08-31 13:18:15 | 47.25142 | 8.28650 | 68° | 66km/h | 15939m | -11.4m/s | -54.7°C | 1.2% | 0hPa | 2.6V | 08:16:00 | 00:00:00 | 00:00:00 | |
| DF7PN | 2026-08-31 13:18:12 | 47.25108 | 8.28535 | 66° | 68km/h | 15997m | -11.4m/s | -55.1°C | 1.0% | -1.0hPa | 2.6V | 00:00:00 | 00:00:00 | 00:00:00 | |
| IW2NTF | 2026-08-31 13:18:09 | 47.25046 | 8.28347 | 60° | 75km/h | 16089m | -11.5m/s | -55°C | 3.7% | 0hPa | 2.6V | 08:16:37 | 02:51:58 | 00:00:00 | i |
| DL1ZP-14 | 2026-08-31 13:17:59 | 47.24894 | 8.27982 | 60° | 80km/h | 16264m | -11.4m/s | 0°C | -1.0% | -1.0hPa | 2.6V | 00:00:00 | 00:00:00 | 00:00:00 | |
| IW2NTF | 2026-08-31 13:17:58 | 47.24946 | 8.28110 | 58° | 77km/h | 16205m | -11.7m/s | -55.3°C | 3.8% | 0hPa | 2.6V | 08:16:47 | 02:51:48 | 00:00:00 | i |
| DB0UT-7 | 2026-08-31 13:17:56 | 47.24977 | 8.28181 | 58° | 80km/h | 16170m | -11.9m/s | -55.2°C | 3.7% | 0hPa | 2.6V | 00:00:00 | 02:51:51 | 00:00:00 | |
| DF1GD-15 | 2026-08-31 13:17:54 | 47.24966 | 8.28158 | 59° | 77km/h | 16182m | -11.8m/s | -55.2°C | 1.1% | 0hPa | 2.6V | 08:16:00 | 00:00:00 | 00:00:00 | |
| DO3MHA-11 | 2026-08-31 13:17:52 | 47.24936 | 8.28085 | 59° | 80km/h | 16217m | -11.6m/s | -55.3°C | 3.8% | 0hPa | 2.6V | 00:00:00 | 02:51:47 | 00:00:00 | |
| IW2NTF | 2026-08-31 13:17:48 | 47.24845 | 8.27850 | 61° | 80km/h | 16321m | -11.3m/s | -56.1°C | 4% | 0hPa | 2.6V | 08:16:57 | 02:51:38 | 00:00:00 | i |
| LOEBOVI | 2026-08-31 13:17:45 | 47.24874 | 8.27929 | 62° | 80km/h | 16287m | -11.4m/s | -55.9°C | 1.1% | 0hPa | 2.6V | 00:00:00 | 00:00:00 | 00:00:00 | |
| DO3MHA-11 | 2026-08-31 13:17:40 | 47.24817 | 8.27771 | 64° | 82km/h | 16355m | -11.3m/s | -56.3°C | 4.0% | 0hPa | 2.6V | 00:00:00 | 02:51:35 | 00:00:00 | |
| IW2NTF | 2026-08-31 13:17:38 | 47.24759 | 8.27578 | 68° | 82km/h | 16435m | -11.5m/s | -55.7°C | 3.9% | 0hPa | 2.6V | 08:17:07 | 02:51:28 | 00:00:00 | i |
| DF1GD-15 | 2026-08-31 13:17:34 | 47.24775 | 8.27634 | 68° | 82km/h | 16413m | -11.3m/s | -55.9°C | 1.1% | 0hPa | 2.6V | 08:17:00 | 00:00:00 | 00:00:00 | |
| DO3MHA-11 | 2026-08-31 13:17:30 | 47.24736 | 8.27493 | 68° | 75km/h | 16470m | -11.3m/s | -55.4°C | 3.9% | 0hPa | 2.6V | 00:00:00 | 02:51:25 | 00:00:00 | |
| IW2NTF | 2026-08-31 13:17:28 | 47.24683 | 8.27308 | 67° | 73km/h | 16551m | -11.6m/s | -54.6°C | 3.5% | 0hPa | 2.6V | 08:17:17 | 02:51:18 | 00:00:00 | i |
| DB0UT-7 | 2026-08-31 13:17:26 | 47.24705 | 8.27385 | 68° | 68km/h | 16516m | -11.5m/s | -55.3°C | 3.8% | 0hPa | 2.5V | 00:00:00 | 00:00:00 | 00:00:00 | |
| OE9MKV-15 | 2026-08-31 13:17:22 | 47.24677 | 8.27283 | 70° | 62km/h | 16563m | -11.8m/s | -54.5°C | 3.5% | 0hPa | 2.6V | 00:00:00 | 02:51:17 | 00:00:00 | |
| DO3MHA-12 | 2026-08-31 13:17:21 | 47.24670 | 8.27258 | 71° | 64km/h | 16574m | -11.3m/s | -54.5°C | 3.5% | 0hPa | 2.5V | 00:00:00 | 02:51:16 | 00:00:00 | |
| DO3MHA-11 | 2026-08-31 13:17:20 | 47.24665 | 8.27234 | 73° | 64km/h | 16586m | -11.7m/s | -54.5°C | 3.5% | 0hPa | 2.5V | 00:00:00 | 02:51:15 | 00:00:00 | |
| DN1GJH-1 | 2026-08-31 13:17:19 | 47.24665 | 8.27234 | 74° | 68km/h | 16586m | -11.8m/s | -54.5°C | 0.9% | 0hPa | 2.6V | 08:17:00 | 00:00:00 | 00:00:00 | |
| IW2NTF | 2026-08-31 13:17:18 | 47.24630 | 8.27073 | 70° | 64km/h | 16668m | -11.9m/s | -54.2°C | 3.5% | 0hPa | 2.6V | 08:17:27 | 02:51:08 | 00:00:00 | i |
| DF1GD-15 | 2026-08-31 13:17:14 | 47.24640 | 8.27118 | 72° | 64km/h | 16645m | -11.8m/s | -54.3°C | 0.9% | 0hPa | 2.6V | 08:17:00 | 00:00:00 | 00:00:00 | |
| DO3MHA-11 | 2026-08-31 13:17:10 | 47.24614 | 8.27007 | 72° | 64km/h | 16705m | -12.3m/s | -54.0°C | 3.3% | 0hPa | 2.6V | 00:00:00 | 02:51:05 | 00:00:00 | |
| DF7PN | 2026-08-31 13:17:09 | 47.24609 | 8.26985 | 71° | 60km/h | 16717m | -12.1m/s | -53.9°C | 0.7% | -1.0hPa | 2.6V | 00:00:00 | 00:00:00 | 00:00:00 | |
| IW2NTF | 2026-08-31 13:17:08 | 47.24584 | 8.26851 | 76° | 66km/h | 16790m | -12.2m/s | -54.1°C | 3.4% | 0hPa | 2.6V | 08:17:37 | 02:50:58 | 00:00:00 | i |
| DO3MHA-11 | 2026-08-31 13:17:00 | 47.24573 | 8.26779 | 78° | 58km/h | 16827m | -12.3m/s | -54.3°C | 3.6% | 0hPa | 2.6V | 00:00:00 | 02:50:55 | 00:00:00 | |
| IW2NTF | 2026-08-31 13:16:58 | 47.24545 | 8.26625 | 75° | 58km/h | 16913m | -12.7m/s | -54.3°C | 3.8% | 0hPa | 2.6V | 08:17:47 | 02:50:48 | 00:00:00 | i |
| DL1ZP-14 | 2026-08-31 13:16:57 | 47.24538 | 8.26584 | 76° | 53km/h | 16938m | -12.4m/s | 0°C | -1.0% | -1.0hPa | 2.6V | 00:00:00 | 00:00:00 | 00:00:00 | |
| DH7VM-15 | 2026-08-31 13:16:56 | 47.24561 | 8.26710 | 76° | 62km/h | 16864m | -12.3m/s | -54.4°C | 0.8% | 0hPa | 2.5V | 00:00:00 | 00:00:00 | 00:00:00 | |
| DF1GD-15 | 2026-08-31 13:16:53 | 47.24549 | 8.26646 | 76° | 58km/h | 16901m | -12.6m/s | -54.5°C | 1.0% | 0hPa | 2.5V | 08:18:00 | 00:00:00 | 00:00:00 | |
| DB0UT-7 | 2026-08-31 13:16:51 | 47.24538 | 8.26584 | 77° | 24km/h | 16938m | -12.4m/s | -53.6°C | 3.7% | 0hPa | 2.5V | 00:00:00 | 02:50:46 | 00:00:00 | |
| OE9MKV-15 | 2026-08-31 13:16:50 | 47.24535 | 8.26565 | 79° | 33km/h | 16951m | -12.4m/s | -53.2°C | 3.5% | 0hPa | 2.5V | 00:00:00 | 02:50:45 | 00:00:00 | |
| DO3MHA-11 | 2026-08-31 13:16:49 | 47.24533 | 8.26547 | 81° | 38km/h | 16963m | -12.5m/s | -52.8°C | 3.4% | 0hPa | 2.5V | 08:17:00 | 02:50:44 | 00:00:00 | |
| IW2NTF | 2026-08-31 13:16:48 | 47.24529 | 8.26448 | 90° | 38km/h | 17039m | -12.7m/s | -52.1°C | 3.1% | 0hPa | 2.5V | 08:17:57 | 02:50:38 | 00:00:00 | i |
| DO3MHA-11 | 2026-08-31 13:16:39 | 47.24528 | 8.26397 | 88° | 24km/h | 17091m | -12.2m/s | -51.3°C | 2.9% | 0hPa | 2.5V | 00:00:00 | 02:50:34 | 00:00:00 | |
| IW2NTF | 2026-08-31 13:16:38 | 47.24526 | 8.26343 | 77° | 22km/h | 17165m | -12.3m/s | -50.7°C | 2.7% | 0hPa | 2.5V | 08:18:07 | 02:50:28 | 00:00:00 | i |
| DN1GJH-1 | 2026-08-31 13:16:37 | 47.24528 | 8.26386 | 94° | 29km/h | 17104m | -12.5m/s | -50.9°C | 0.7% | 0hPa | 2.6V | 08:18:00 | 00:00:00 | 00:00:00 | |
| DF1GD-15 | 2026-08-31 13:16:33 | 47.24527 | 8.26350 | 88° | 20km/h | 17153m | -12.3m/s | -50.7°C | 0.7% | 0hPa | 2.6V | 08:18:00 | 00:00:00 | 00:00:00 | |
| DO3MHA-11 | 2026-08-31 13:16:29 | 47.24519 | 8.26311 | 74° | 20km/h | 17215m | -12.3m/s | -51.0°C | 2.8% | 0hPa | 2.6V | 00:00:00 | 02:50:24 | 00:00:00 | |
| IW2NTF | 2026-08-31 13:16:28 | 47.24506 | 8.26268 | 66° | 18km/h | 17292m | -12.9m/s | -51.6°C | 2.9% | 0hPa | 2.6V | 08:18:17 | 02:50:18 | 00:00:00 | i |
| DO3MHA-12 | 2026-08-31 13:16:20 | 47.24499 | 8.26252 | 53° | 18km/h | 17331m | -12.3m/s | -51.9°C | 3.0% | 0hPa | 2.6V | 00:00:00 | 02:50:15 | 00:00:00 | |
| DO3MHA-11 | 2026-08-31 13:16:19 | 47.24496 | 8.26247 | 43° | 18km/h | 17343m | -12.7m/s | -52.0°C | 3.0% | 0hPa | 2.6V | 00:00:00 | 02:50:14 | 00:00:00 | |
| IW2NTF | 2026-08-31 13:16:18 | 47.24473 | 8.26226 | 19° | 18km/h | 17420m | -12.8m/s | -52.5°C | 3% | 0hPa | 2.6V | 08:18:27 | 02:50:08 | 00:00:00 | i |
| DB0UT-7 | 2026-08-31 13:16:17 | 47.24490 | 8.26239 | 33° | 26km/h | 17369m | -13.0m/s | -52.2°C | 3.0% | 0hPa | 2.6V | 00:00:00 | 00:00:00 | 00:00:00 | |
| DN1GJH-1 | 2026-08-31 13:16:16 | 47.24490 | 8.26239 | 33° | 18km/h | 17369m | -13.0m/s | -52.2°C | 0.8% | 0hPa | 2.6V | 08:18:00 | 00:00:00 | 00:00:00 | |
| DF1GD-15 | 2026-08-31 13:16:12 | 47.24473 | 8.26226 | 21° | 18km/h | 17420m | -12.8m/s | -52.5°C | 0.8% | 0hPa | 2.6V | 08:18:00 | 00:00:00 | 00:00:00 | |
| IW2NTF | 2026-08-31 13:16:08 | 47.24421 | 8.26214 | 20° | 22km/h | 17549m | -13.1m/s | -52.9°C | 3.1% | 0hPa | 2.6V | 08:18:37 | 02:49:58 | 00:00:00 | i |
| DF7PN | 2026-08-31 13:16:07 | 47.24443 | 8.26220 | 4° | 22km/h | 17497m | -12.8m/s | -52.5°C | 0.6% | -1.0hPa | 2.5V | 00:00:00 | 00:00:00 | 00:00:00 | |
| IW2NTF | 2026-08-31 13:15:59 | 47.24358 | 8.26171 | 19° | 31km/h | 17680m | -13m/s | -53.5°C | 3.2% | 0hPa | 2.5V | 08:18:47 | 02:49:48 | 00:00:00 | i |
| DN1GJH-1 | 2026-08-31 13:15:55 | 47.24379 | 8.26185 | 27° | 31km/h | 17640m | -12.9m/s | -53.4°C | 0.8% | 0hPa | 2.6V | 08:19:00 | 00:00:00 | 00:00:00 | |
| IW2NTF | 2026-08-31 13:15:48 | 47.24287 | 8.26116 | 38° | 33km/h | 17811m | -12.8m/s | -54.6°C | 3.5% | 0hPa | 2.6V | 08:18:57 | 02:49:38 | 00:00:00 | i |
| DB0UT-7 | 2026-08-31 13:15:47 | 47.24313 | 8.26142 | 30° | 31km/h | 17759m | -12.9m/s | -54.1°C | 3.3% | 0hPa | 2.5V | 00:00:00 | 02:49:42 | 00:00:00 | |
| IW2NTF | 2026-08-31 13:15:38 | 47.24211 | 8.26023 | 48° | 44km/h | 17944m | -13.7m/s | -55.4°C | 3.6% | 0hPa | 2.5V | 08:19:07 | 02:49:28 | 00:00:00 | i |
| DF7PN | 2026-08-31 13:15:36 | 47.24234 | 8.26056 | 38° | 38km/h | 17904m | -13.2m/s | -55.1°C | 0.7% | -1.0hPa | 2.5V | 00:00:00 | 00:00:00 | 00:00:00 | |
| DN1GJH-1 | 2026-08-31 13:15:34 | 47.24225 | 8.26045 | 46° | 44km/h | 17917m | -13.6m/s | -55.3°C | 0.9% | 0hPa | 2.5V | 08:19:00 | 00:00:00 | 00:00:00 | |
| DF1GD-15 | 2026-08-31 13:15:32 | 47.24211 | 8.26023 | 50° | 44km/h | 17944m | -13.7m/s | -55.4°C | 0.9% | 0hPa | 2.5V | 08:19:00 | 00:00:00 | 00:00:00 | |
| IW2NTF | 2026-08-31 13:15:28 | 47.24136 | 8.25899 | 54° | 49km/h | 18079m | -13.3m/s | -55.4°C | 3.7% | 0hPa | 2.5V | 08:19:17 | 02:49:18 | 00:00:00 | i |
| IW2NTF | 2026-08-31 13:15:18 | 47.24067 | 8.25758 | 64° | 46km/h | 18215m | -13.6m/s | -55.3°C | 3.6% | 0hPa | 2.6V | 08:19:27 | 02:49:08 | 00:00:00 | i |
| DN1GJH-1 | 2026-08-31 13:15:13 | 47.24072 | 8.25772 | 58° | 46km/h | 18202m | -13.5m/s | -55.5°C | 0.9% | 0hPa | 2.6V | 08:19:00 | 00:00:00 | 00:00:00 | |
| DF1GD-15 | 2026-08-31 13:15:12 | 47.24067 | 8.25758 | 66° | 46km/h | 18215m | -13.6m/s | -55.3°C | 0.9% | 0hPa | 2.6V | 08:20:00 | 00:00:00 | 00:00:00 | |
| IW2NTF | 2026-08-31 13:15:08 | 47.24012 | 8.25592 | 66° | 46km/h | 18352m | -14m/s | -55.3°C | 3.7% | 0hPa | 2.6V | 08:19:37 | 02:48:58 | 00:00:00 | i |
| DF7PN | 2026-08-31 13:15:05 | 47.24023 | 8.25625 | 65° | 49km/h | 18325m | -14.1m/s | -55.2°C | 0.7% | -1.0hPa | 2.5V | 00:00:00 | 00:00:00 | 00:00:00 | |
| IW2NTF | 2026-08-31 13:14:58 | 47.23977 | 8.25431 | 75° | 40km/h | 18492m | -14m/s | -55.2°C | 3.7% | 0hPa | 2.5V | 08:19:47 | 02:48:48 | 00:00:00 | i |
| DL1ZP-14 | 2026-08-31 13:14:53 | 47.23977 | 8.25431 | 75° | 40km/h | 18492m | -14.0m/s | 0°C | -1.0% | -1.0hPa | 2.5V | 00:00:00 | 00:00:00 | 00:00:00 | |
| DN1GJH-1 | 2026-08-31 13:14:52 | 47.23977 | 8.25431 | 76° | 40km/h | 18492m | -14.0m/s | -55.2°C | 0.9% | 0hPa | 2.5V | 08:20:00 | 00:00:00 | 00:00:00 | |
| LOEBOVI | 2026-08-31 13:14:51 | 47.23975 | 8.25416 | 83° | 40km/h | 18506m | -14.3m/s | -55.2°C | 0.8% | 0hPa | 2.5V | 00:00:00 | 00:00:00 | 00:00:00 | |
| IW2NTF | 2026-08-31 13:14:48 | 47.23958 | 8.25304 | 63° | 27km/h | 18633m | -14.3m/s | -55.4°C | 3.6% | 0hPa | 2.5V | 08:19:57 | 02:48:38 | 00:00:00 | i |
| HASLITAL | 2026-08-31 13:14:46 | 47.23969 | 8.25348 | 81° | 33km/h | 18577m | -14.3m/s | -55.0°C | 0.9% | 0hPa | 2.6V | 00:00:00 | 00:00:00 | 00:00:00 | |
| IW2NTF | 2026-08-31 13:14:38 | 47.23937 | 8.25207 | 79° | 29km/h | 18776m | -13.9m/s | -54.2°C | 3.3% | 0hPa | 2.6V | 08:20:07 | 02:48:28 | 00:00:00 | i |
| DF7PN | 2026-08-31 13:14:34 | 47.23939 | 8.25218 | 75° | 31km/h | 18762m | -14.5m/s | -54.3°C | 0.6% | -1.0hPa | 2.6V | 00:00:00 | 00:00:00 | 00:00:00 | |
| DB0UT-7 | 2026-08-31 13:14:33 | 47.23937 | 8.25207 | 80° | 18km/h | 18777m | -13.8m/s | -54.1°C | 3.3% | 0hPa | 2.6V | 00:00:00 | 00:00:00 | 00:00:00 | |
| DF1GD-15 | 2026-08-31 13:14:32 | 47.23937 | 8.25207 | 80° | 29km/h | 18777m | -13.9m/s | -54.2°C | 0.8% | 0hPa | 2.6V | 08:20:00 | 00:00:00 | 00:00:00 | |
| DN1GJH-1 | 2026-08-31 13:14:31 | 47.23936 | 8.25195 | 76° | 33km/h | 18791m | -14.4m/s | -54.2°C | 0.8% | 0hPa | 2.6V | 08:20:00 | 00:00:00 | 00:00:00 | |
| IW2NTF | 2026-08-31 13:14:28 | 47.23923 | 8.25122 | 76° | 16km/h | 18920m | -14.3m/s | -54.2°C | 3.4% | 0hPa | 2.6V | 08:20:17 | 02:48:18 | 00:00:00 | i |
| DO3MHA-11 | 2026-08-31 13:14:28 | 47.23930 | 8.25157 | 69° | 18km/h | 18848m | -14.2m/s | -54.4°C | 3.3% | 0hPa | 2.6V | 00:00:00 | 02:48:23 | 00:00:00 | i |
| DL1ZP-14 | 2026-08-31 13:14:22 | 47.23919 | 8.25098 | 75° | 15km/h | 18978m | -14.3m/s | 0°C | -1.0% | -1.0hPa | 2.5V | 00:00:00 | 00:00:00 | 00:00:00 | |
| IW2NTF | 2026-08-31 13:14:18 | 47.23907 | 8.25074 | 40° | 11km/h | 19063m | -14.3m/s | -55.4°C | 3.6% | 0hPa | 2.5V | 08:20:27 | 02:48:08 | 00:00:00 | i |
| DO3MHA-11 | 2026-08-31 13:14:18 | 47.23917 | 8.25092 | 60° | 15km/h | 18992m | -14.1m/s | -54.6°C | 3.4% | 0hPa | 2.6V | 00:00:00 | 02:48:13 | 00:00:00 | i |
| DN1GJH-1 | 2026-08-31 13:14:11 | 47.23904 | 8.25071 | 43° | 13km/h | 19077m | -14.1m/s | -55.5°C | 0.9% | 0hPa | 2.6V | 08:21:00 | 00:00:00 | 00:00:00 | |
| IW2NTF | 2026-08-31 13:14:08 | 47.23889 | 8.25025 | 71° | 16km/h | 19207m | -14.3m/s | -56°C | 3.9% | 0hPa | 2.6V | 08:20:37 | 02:47:58 | 00:00:00 | i |
| DO3MHA-11 | 2026-08-31 13:14:08 | 47.23895 | 8.25053 | 57° | 16km/h | 19135m | -14.5m/s | -55.8°C | 3.7% | 0hPa | 2.6V | 00:00:00 | 02:48:03 | 00:00:00 | i |
| DB0UT-7 | 2026-08-31 13:14:03 | 47.23889 | 8.25025 | 72° | 11km/h | 19208m | -14.3m/s | -55.9°C | 3.9% | 0hPa | 2.6V | 00:00:00 | 02:47:58 | 00:00:00 | |
| DO3MHA-12 | 2026-08-31 13:14:02 | 47.23888 | 8.25019 | 85° | 24km/h | 19222m | -14.4m/s | -55.8°C | 3.9% | 0hPa | 2.6V | 00:00:00 | 02:47:57 | 08:30:00 | |
| IW2NTF | 2026-08-31 13:13:58 | 47.23872 | 8.24951 | 69° | 24km/h | 19354m | -14.9m/s | -55.1°C | 3.8% | 0hPa | 2.6V | 08:20:47 | 02:47:48 | 00:00:00 | i |
| DL1ZP-14 | 2026-08-31 13:13:51 | 47.23861 | 8.24913 | 57° | 18km/h | 19430m | -15.6m/s | 0°C | -1.0% | -1.0hPa | 2.6V | 00:00:00 | 00:00:00 | 00:00:00 | |
| DN1GJH-1 | 2026-08-31 13:13:50 | 47.23868 | 8.24934 | 65° | 22km/h | 19384m | -15.3m/s | -54.6°C | 0.9% | 0hPa | 2.5V | 08:21:00 | 00:00:00 | 00:00:00 | |
| IW2NTF | 2026-08-31 13:13:48 | 47.23843 | 8.24887 | 37° | 20km/h | 19506m | -14.8m/s | -54.2°C | 3.5% | 0hPa | 2.5V | 08:20:57 | 02:47:38 | 00:00:00 | i |
| DO3MHA-11 | 2026-08-31 13:13:48 | 47.23860 | 8.24913 | 58° | 22km/h | 19430m | -15.5m/s | -54.6°C | 3.6% | 0hPa | 2.6V | 00:00:00 | 02:47:43 | 00:00:00 | i |
| IW2NTF | 2026-08-31 13:13:38 | 47.23813 | 8.24826 | 62° | 13km/h | 19660m | -15.4m/s | -54°C | 3.5% | 0hPa | 2.6V | 08:21:07 | 02:47:28 | 00:00:00 | i |
| DO3MHA-11 | 2026-08-31 13:13:38 | 47.23822 | 8.24856 | 60° | 15km/h | 19583m | -15.6m/s | -54.2°C | 3.6% | 0hPa | 2.6V | 00:00:00 | 02:47:33 | 00:00:00 | i |
| HASLITAL | 2026-08-31 13:13:35 | 47.23817 | 8.24841 | 69° | 18km/h | 19614m | -15.6m/s | -54.2°C | 0.8% | 0hPa | 2.6V | 08:21:00 | 00:00:00 | 00:00:00 | |
| DF7PN | 2026-08-31 13:13:32 | 47.23811 | 8.24823 | 50° | 9km/h | 19675m | -15.4m/s | 0°C | -1.0% | -1.0hPa | 2.6V | 00:00:00 | 00:00:00 | 00:00:00 | |
| DF1GD-15 | 2026-08-31 13:13:30 | 47.23810 | 8.24820 | 47° | 9km/h | 19691m | -15.2m/s | -53.4°C | 0.8% | 0hPa | 2.6V | 08:21:00 | 00:00:00 | 00:00:00 | |
| DN1GJH-1 | 2026-08-31 13:13:29 | 47.23808 | 8.24817 | 44° | 13km/h | 19707m | -15.9m/s | -53.4°C | 0.7% | 0hPa | 2.6V | 08:21:00 | 00:00:00 | 00:00:00 | |
| IW2NTF | 2026-08-31 13:13:28 | 47.23790 | 8.24796 | 21° | 18km/h | 19817m | -15.7m/s | -53.2°C | 3.3% | 0hPa | 2.6V | 08:21:17 | 02:47:18 | 00:00:00 | i |
| DO3MHA-11 | 2026-08-31 13:13:28 | 47.23804 | 8.24811 | 48° | 18km/h | 19738m | -15.3m/s | -53.2°C | 3.3% | 0hPa | 2.6V | 00:00:00 | 02:47:23 | 00:00:00 | i |
| DL1ZP-14 | 2026-08-31 13:13:20 | 47.23760 | 8.24771 | 36° | 20km/h | 19913m | -16.1m/s | 0°C | -1.0% | -1.0hPa | 2.6V | 00:00:00 | 00:00:00 | 00:00:00 | |
| IW2NTF | 2026-08-31 13:13:18 | 47.23747 | 8.24755 | 51° | 15km/h | 19977m | -16m/s | -53.7°C | 3.5% | 0hPa | 2.6V | 08:21:27 | 02:47:08 | 00:00:00 | i |
| DO3MHA-11 | 2026-08-31 13:13:18 | 47.23764 | 8.24776 | 35° | 16km/h | 19896m | -16.6m/s | -53.7°C | 3.4% | 0hPa | 2.5V | 00:00:00 | 02:47:13 | 00:00:00 | i |
| HASLITAL | 2026-08-31 13:13:15 | 47.23756 | 8.24767 | 44° | 18km/h | 19929m | -16.0m/s | -53.8°C | 0.8% | 0hPa | 2.5V | 08:21:00 | 00:00:00 | 00:00:00 | |
| DF1GD-15 | 2026-08-31 13:13:10 | 47.23742 | 8.24746 | 57° | 15km/h | 20009m | -16.2m/s | -53.0°C | 0.7% | 0hPa | 2.5V | 08:21:00 | 00:00:00 | 00:00:00 | |
| IW2NTF | 2026-08-31 13:13:08 | 47.23745 | 8.24716 | 125° | 7km/h | 20138m | -16m/s | -53.1°C | 3.3% | 0hPa | 2.5V | 08:21:37 | 02:46:58 | 00:00:00 | i |
| DO3MHA-11 | 2026-08-31 13:13:08 | 47.23740 | 8.24732 | 92° | 9km/h | 20058m | -16.2m/s | -52.8°C | 3.2% | 0hPa | 2.6V | 00:00:00 | 02:47:03 | 00:00:00 | i |
| DF7PN | 2026-08-31 13:13:01 | 47.23747 | 8.24709 | 110° | 7km/h | 20187m | -16.3m/s | 0°C | -1.0% | -1.0hPa | 2.6V | 00:00:00 | 00:00:00 | 00:00:00 | |
| IW2NTF | 2026-08-31 13:12:58 | 47.23748 | 8.24684 | 66° | 9km/h | 20301m | -15.9m/s | -52.6°C | 3.2% | 0hPa | 2.6V | 08:21:47 | 02:46:48 | 00:00:00 | i |
| DL1ZP-14 | 2026-08-31 13:12:49 | 47.23737 | 8.24658 | 38° | 18km/h | 20401m | -17.2m/s | 0°C | -1.0% | -1.0hPa | 2.6V | 00:00:00 | 00:00:00 | 00:00:00 | |
| IW2NTF | 2026-08-31 13:12:48 | 47.23723 | 8.24636 | 54° | 24km/h | 20467m | -16.8m/s | -53.3°C | 3.4% | 0hPa | 2.6V | 08:21:57 | 02:46:38 | 00:00:00 | i |
| DO3MHA-11 | 2026-08-31 13:12:48 | 47.23740 | 8.24662 | 50° | 20km/h | 20384m | -16.5m/s | -52.9°C | 3.2% | 0hPa | 2.5V | 00:00:00 | 02:46:43 | 00:00:00 | i |
| IW2NTF | 2026-08-31 13:12:38 | 47.23703 | 8.24573 | 98° | 15km/h | 20637m | -16.8m/s | -52.7°C | 3.2% | 0hPa | 2.5V | 08:22:07 | 02:46:28 | 00:00:00 | i |
| DO3MHA-11 | 2026-08-31 13:12:38 | 47.23709 | 8.24601 | 59° | 15km/h | 20551m | -17.1m/s | -52.6°C | 3.2% | 0hPa | 2.5V | 00:00:00 | 02:46:33 | 00:00:00 | i |
| HASLITAL | 2026-08-31 13:12:34 | 47.23704 | 8.24584 | 70° | 15km/h | 20603m | -17.3m/s | -52.4°C | 0.7% | 0hPa | 2.5V | 08:22:00 | 00:00:00 | 00:00:00 | |
| IW2NTF | 2026-08-31 13:12:28 | 47.23718 | 8.24558 | 174° | 2km/h | 20809m | -17.4m/s | -52.6°C | 3.2% | 0hPa | 2.5V | 08:22:17 | 02:46:18 | 00:00:00 | |
| DO3MHA-11 | 2026-08-31 13:12:28 | 47.23712 | 8.24558 | 163° | 4km/h | 20723m | -16.9m/s | -52.5°C | 3.2% | 0hPa | 2.5V | 08:22:00 | 02:46:23 | 00:00:00 | |
| DB0UT-7 | 2026-08-31 13:12:22 | 47.23718 | 8.24558 | 90° | 18km/h | 20827m | -17.7m/s | -52.7°C | 3.2% | 0hPa | 2.6V | 00:00:00 | 02:46:17 | 00:00:00 | |
| OE5DXL-15 | 2026-08-31 13:12:20 | 47.23719 | 8.24556 | 132° | 11km/h | 20862m | -17.2m/s | -52.4°C | 3.1% | 0hPa | 2.6V | 00:00:00 | 00:00:00 | 00:00:00 | |
| IW2NTF | 2026-08-31 13:12:18 | 47.23722 | 8.24568 | 259° | 11km/h | 20985m | -17.9m/s | -52.5°C | 3.1% | 0hPa | 2.6V | 08:22:27 | 02:46:08 | 00:00:00 | i |
| DO3MHA-11 | 2026-08-31 13:12:18 | 47.23719 | 8.24557 | 206° | 9km/h | 20897m | -17.7m/s | -52.7°C | 3.2% | 0hPa | 2.6V | 00:00:00 | 02:46:13 | 00:00:00 | i |
| HASLITAL | 2026-08-31 13:12:14 | 47.23720 | 8.24562 | 247° | 7km/h | 20950m | -17.5m/s | -53.0°C | 0.7% | 0hPa | 2.6V | 08:22:00 | 00:00:00 | 00:00:00 | |
| LOEBOVI | 2026-08-31 13:12:09 | 47.23725 | 8.24577 | 244° | 13km/h | 21039m | -17.6m/s | -52.5°C | 0.6% | 0hPa | 2.6V | 00:00:00 | 00:00:00 | 00:00:00 | |
| IW2NTF | 2026-08-31 13:12:08 | 47.23729 | 8.24609 | 278° | 13km/h | 21164m | -17.5m/s | -52.5°C | 3.1% | 0hPa | 2.6V | 08:22:37 | 02:45:58 | 00:00:00 | i |
| DO3MHA-11 | 2026-08-31 13:12:08 | 47.23728 | 8.24586 | 248° | 13km/h | 21075m | -17.7m/s | -52.6°C | 3.1% | 0hPa | 2.6V | 00:00:00 | 02:46:03 | 00:00:00 | i |
| DN1GJH-1 | 2026-08-31 13:12:07 | 47.23728 | 8.24586 | 248° | 11km/h | 21075m | -17.8m/s | -52.6°C | 0.7% | 0hPa | 2.6V | 08:22:00 | 00:00:00 | 00:00:00 | |
| IW2NTF | 2026-08-31 13:11:58 | 47.23708 | 8.24653 | 324° | 22km/h | 21345m | -18.1m/s | -53.3°C | 3.3% | 0hPa | 2.6V | 08:22:47 | 02:45:48 | 00:00:00 | i |
| DO3MHA-11 | 2026-08-31 13:11:58 | 47.23725 | 8.24630 | 300° | 13km/h | 21255m | -17.9m/s | -52.8°C | 3.2% | 0hPa | 2.6V | 00:00:00 | 02:45:53 | 00:00:00 | i |
| HASLITAL | 2026-08-31 13:11:54 | 47.23716 | 8.24644 | 321° | 22km/h | 21309m | -18.3m/s | -53.3°C | 0.7% | 0hPa | 2.6V | 08:22:00 | 00:00:00 | 00:00:00 | |
| IW2NTF | 2026-08-31 13:11:49 | 47.23649 | 8.24689 | 349° | 24km/h | 21528m | -18.1m/s | -53.6°C | 3.4% | 0hPa | 2.6V | 08:22:57 | 02:45:38 | 00:00:00 | i |
| DF1GD-15 | 2026-08-31 13:11:47 | 47.23679 | 8.24673 | 337° | 27km/h | 21437m | -18.2m/s | -53.5°C | 0.8% | 0hPa | 2.6V | 08:23:00 | 00:00:00 | 00:00:00 | |
| DN1GJH-1 | 2026-08-31 13:11:46 | 47.23673 | 8.24677 | 335° | 26km/h | 21455m | -18.1m/s | -53.5°C | 0.7% | 0hPa | 2.6V | 08:23:00 | 00:00:00 | 00:00:00 | |
| IW2NTF | 2026-08-31 13:11:37 | 47.23611 | 8.24681 | 26° | 11km/h | 21715m | -18.7m/s | -53.9°C | 3.5% | 0hPa | 2.6V | 08:23:07 | 02:45:28 | 00:00:00 | i |
| HASLITAL | 2026-08-31 13:11:33 | 47.23613 | 8.24682 | 24° | 11km/h | 21697m | -18.4m/s | -53.9°C | 0.8% | 0hPa | 2.6V | 08:23:00 | 00:00:00 | 00:00:00 | |
| IW2NTF | 2026-08-31 13:11:28 | 47.23590 | 8.24676 | 357° | 11km/h | 21905m | -18.5m/s | -53.1°C | 3.3% | 0hPa | 2.6V | 08:23:17 | 02:45:18 | 00:00:00 | |
| DF1GD-15 | 2026-08-31 13:11:28 | 47.23601 | 8.24679 | 11° | 9km/h | 21810m | -18.8m/s | -53.2°C | 0.7% | 0hPa | 2.6V | 08:23:00 | 00:00:00 | 00:00:00 | |
| DN1GJH-1 | 2026-08-31 13:11:26 | 47.23599 | 8.24678 | 13° | 7km/h | 21829m | -19.1m/s | -53.1°C | 0.7% | 0hPa | 2.6V | 08:23:00 | 00:00:00 | 00:00:00 | |
| IW2NTF | 2026-08-31 13:11:17 | 47.23541 | 8.24645 | 40° | 27km/h | 22099m | -19.7m/s | -53.6°C | 3.3% | 0hPa | 2.6V | 08:23:27 | 02:45:08 | 00:00:00 | i |
| DL1ZP-14 | 2026-08-31 13:11:15 | 47.23547 | 8.24651 | 31° | 27km/h | 22079m | -19.4m/s | 0°C | -1.0% | -1.0hPa | 2.6V | 00:00:00 | 00:00:00 | 00:00:00 | |
| HASLITAL | 2026-08-31 13:11:13 | 47.23547 | 8.24651 | 33° | 27km/h | 22080m | -19.4m/s | -53.6°C | 0.7% | 0hPa | 2.6V | 08:23:00 | 00:00:00 | 00:00:00 | |
| DB0UT-7 | 2026-08-31 13:11:08 | 47.23520 | 8.24614 | 46° | 11km/h | 22197m | -19.3m/s | -53.2°C | 3.3% | 0hPa | 2.6V | 00:00:00 | 00:00:00 | 00:00:00 | |
| IW2NTF | 2026-08-31 13:11:07 | 47.23508 | 8.24594 | 51° | 9km/h | 22294m | -19.3m/s | -53.5°C | 3.4% | 0hPa | 2.6V | 08:23:37 | 02:44:58 | 00:00:00 | i |
| DF1GD-15 | 2026-08-31 13:11:06 | 47.23517 | 8.24609 | 51° | 18km/h | 22216m | -19.3m/s | -53.4°C | 0.7% | 0hPa | 2.6V | 08:23:00 | 00:00:00 | 00:00:00 | |
| DN1GJH-1 | 2026-08-31 13:11:05 | 47.23514 | 8.24604 | 54° | 15km/h | 22235m | -19.1m/s | -53.3°C | 0.7% | 0hPa | 2.6V | 08:23:00 | 00:00:00 | 00:00:00 | |
| IW2NTF | 2026-08-31 13:10:57 | 47.23488 | 8.24572 | 60° | 11km/h | 22493m | -20.4m/s | -53.8°C | 3.6% | 0hPa | 2.6V | 08:23:47 | 02:44:48 | 00:00:00 | i |
| HASLITAL | 2026-08-31 13:10:53 | 47.23489 | 8.24575 | 50° | 11km/h | 22473m | -20.1m/s | -54.0°C | 0.8% | 0hPa | 2.6V | 08:24:00 | 00:00:00 | 00:00:00 | |
| LOEBOVI | 2026-08-31 13:10:49 | 47.23484 | 8.24561 | 85° | 9km/h | 22553m | -19.6m/s | -53.0°C | 0.6% | 0hPa | 2.6V | 00:00:00 | 00:00:00 | 00:00:00 | |
| IW2NTF | 2026-08-31 13:10:47 | 47.23487 | 8.24538 | 126° | 11km/h | 22696m | -20.5m/s | -52.5°C | 3.1% | 0hPa | 2.6V | 08:23:57 | 02:44:38 | 00:00:00 | i |
| DF1GD-15 | 2026-08-31 13:10:46 | 47.23484 | 8.24551 | 85° | 7km/h | 22614m | -20.3m/s | -52.7°C | 0.7% | 0hPa | 2.6V | 08:24:00 | 00:00:00 | 00:00:00 | |
| DL1ZP-14 | 2026-08-31 13:10:44 | 47.23485 | 8.24542 | 121° | 11km/h | 22676m | -20.4m/s | 0°C | -1.0% | -1.0hPa | 2.6V | 00:00:00 | 00:00:00 | 00:00:00 | |
| DB0UT-7 | 2026-08-31 13:10:38 | 47.23501 | 8.24524 | 146° | 20km/h | 22799m | -20.3m/s | -52.6°C | 3.2% | 0hPa | 2.6V | 00:00:00 | 02:44:33 | 00:00:00 | |
| IW2NTF | 2026-08-31 13:10:37 | 47.23513 | 8.24519 | 177° | 7km/h | 22901m | -20.6m/s | -52.6°C | 3.2% | 0hPa | 2.6V | 08:24:07 | 02:44:28 | 00:00:00 | i |
| DH7VM-15 | 2026-08-31 13:10:35 | 47.23506 | 8.24520 | 156° | 9km/h | 22840m | -20.4m/s | -52.7°C | 0.6% | 0hPa | 2.6V | 00:00:00 | 00:00:00 | 00:00:00 | |
| HASLITAL | 2026-08-31 13:10:33 | 47.23511 | 8.24519 | 181° | 7km/h | 22881m | -20.7m/s | -52.6°C | 0.7% | 0hPa | 2.6V | 08:24:00 | 00:00:00 | 00:00:00 | |
| IW2NTF | 2026-08-31 13:10:26 | 47.23502 | 8.24573 | 299° | 26km/h | 23111m | -20.6m/s | -53.1°C | 3.3% | 0hPa | 2.6V | 08:24:17 | 02:44:18 | 00:00:00 | i |
| DF1GD-15 | 2026-08-31 13:10:25 | 47.23511 | 8.24548 | 297° | 24km/h | 23049m | -20.7m/s | -52.9°C | 0.7% | 0hPa | 2.5V | 08:24:00 | 00:00:00 | 00:00:00 | |
| DN1GJH-1 | 2026-08-31 13:10:23 | 47.23505 | 8.24564 | 301° | 26km/h | 23090m | -20.5m/s | -53.0°C | 0.7% | 0hPa | 2.5V | 08:24:00 | 00:00:00 | 00:00:00 | |
| IW2NTF | 2026-08-31 13:10:15 | 47.23459 | 8.24633 | 334° | 20km/h | 23322m | -21m/s | -53°C | 3.4% | 0hPa | 2.5V | 08:24:27 | 02:44:08 | 00:00:00 | i |
| HASLITAL | 2026-08-31 13:10:12 | 47.23459 | 8.24633 | 335° | 20km/h | 23323m | -21.0m/s | -53.0°C | 0.7% | 0hPa | 2.5V | 08:24:00 | 00:00:00 | 00:00:00 | |
| IW2NTF | 2026-08-31 13:10:05 | 47.23429 | 8.24658 | 313° | 9km/h | 23539m | -21.8m/s | -52.3°C | 3.2% | 0hPa | 2.5V | 08:24:37 | 02:43:58 | 00:00:00 | i |
| DF1GD-15 | 2026-08-31 13:10:04 | 47.23432 | 8.24653 | 320° | 9km/h | 23496m | -22.2m/s | -52.5°C | 0.7% | 0hPa | 2.6V | 08:25:00 | 00:00:00 | 00:00:00 | |
| DN1GJH-1 | 2026-08-31 13:10:03 | 47.23430 | 8.24655 | 315° | 13km/h | 23517m | -21.7m/s | -52.3°C | 0.6% | 0hPa | 2.6V | 08:25:00 | 00:00:00 | 00:00:00 | |
| DL6DJ-15 | 2026-08-31 13:09:55 | 47.23345 | 8.24750 | 358° | 29km/h | 23939m | -22.6m/s | 0°C | -1.0% | -1.0hPa | 2.6V | 00:00:00 | 00:00:00 | 00:00:00 | |
| IW2NTF | 2026-08-31 13:09:54 | 47.23401 | 8.24714 | 317° | 26km/h | 23759m | -22.5m/s | -52.3°C | 3.2% | 0hPa | 2.6V | 08:24:47 | 02:43:48 | 00:00:00 | i |
| HASLITAL | 2026-08-31 13:09:52 | 47.23401 | 8.24714 | 318° | 27km/h | 23759m | -22.5m/s | -52.3°C | 0.6% | 0hPa | 2.6V | 08:25:00 | 00:00:00 | 00:00:00 | |
| IW2NTF | 2026-08-31 13:09:44 | 47.23329 | 8.24750 | 9° | 31km/h | 23984m | -22.4m/s | -52°C | 3.2% | 0hPa | 2.6V | 08:24:57 | 02:43:38 | 00:00:00 | i |
| DN1GJH-1 | 2026-08-31 13:09:43 | 47.23337 | 8.24751 | 359° | 31km/h | 23962m | -22.9m/s | -51.9°C | 0.6% | 0hPa | 2.7V | 08:25:00 | 00:00:00 | 00:00:00 | |
| IW2NTF | 2026-08-31 13:09:34 | 47.23272 | 8.24729 | 5° | 18km/h | 24214m | -23.3m/s | -51.8°C | 3.1% | 0hPa | 2.7V | 08:25:07 | 02:43:28 | 00:00:00 | i |
| DB0UT-7 | 2026-08-31 13:09:32 | 47.23266 | 8.24728 | 2° | 16km/h | 24238m | -23.5m/s | -51.5°C | 3.1% | 0hPa | 2.5V | 00:00:00 | 00:00:00 | 00:00:00 | |
| HASLITAL | 2026-08-31 13:09:31 | 47.23266 | 8.24728 | 2° | 24km/h | 24238m | -23.6m/s | -51.6°C | 0.6% | 0hPa | 2.5V | 08:25:00 | 00:00:00 | 00:00:00 | |
| IW2NTF | 2026-08-31 13:09:24 | 47.23218 | 8.24721 | 15° | 18km/h | 24446m | -23.2m/s | -51.4°C | 3.1% | 0hPa | 2.5V | 08:25:17 | 02:43:18 | 00:00:00 | i |
| DF1GD-15 | 2026-08-31 13:09:23 | 47.23222 | 8.24723 | 18° | 20km/h | 24423m | -23.1m/s | -51.5°C | 0.6% | 0hPa | 2.5V | 08:25:00 | 00:00:00 | 00:00:00 | |
| DN1GJH-1 | 2026-08-31 13:09:22 | 47.23218 | 8.24721 | 17° | 18km/h | 24446m | -23.2m/s | -51.4°C | 0.6% | 0hPa | 2.5V | 08:25:00 | 00:00:00 | 00:00:00 | |
| IW2NTF | 2026-08-31 13:09:14 | 47.23187 | 8.24713 | 327° | 13km/h | 24685m | -24.4m/s | -50.9°C | 3% | 0hPa | 2.5V | 08:25:27 | 02:43:08 | 00:00:00 | i |
| HASLITAL | 2026-08-31 13:09:10 | 47.23182 | 8.24719 | 323° | 15km/h | 24734m | -24.5m/s | -50.8°C | 0.5% | 0hPa | 2.6V | 08:26:00 | 00:00:00 | 00:00:00 | |
| IW2NTF | 2026-08-31 13:09:04 | 47.23153 | 8.24743 | 341° | 20km/h | 24928m | -24.9m/s | -51.1°C | 3.1% | 0hPa | 2.6V | 08:25:37 | 02:42:58 | 00:00:00 | i |
| DF1GD-15 | 2026-08-31 13:09:02 | 47.23153 | 8.24743 | 343° | 20km/h | 24928m | -24.9m/s | -51.1°C | 0.6% | 0hPa | 2.7V | 08:26:00 | 00:00:00 | 00:00:00 | |
| DN1GJH-1 | 2026-08-31 13:09:01 | 47.23148 | 8.24745 | 335° | 20km/h | 24953m | -24.4m/s | -51.0°C | 0.6% | 0hPa | 2.7V | 08:26:00 | 00:00:00 | 00:00:00 | |
| DB0UT-7 | 2026-08-31 13:09:00 | 47.23138 | 8.24751 | 339° | 15km/h | 25003m | -24.3m/s | -50.9°C | 3.0% | 0hPa | 2.7V | 00:00:00 | 02:42:55 | 00:00:00 | |
| IW2NTF | 2026-08-31 13:08:55 | 47.23107 | 8.24759 | 11° | 13km/h | 25177m | -24.9m/s | -50.2°C | 2.9% | 0hPa | 2.7V | 08:25:47 | 02:42:48 | 00:00:00 | i |
| DL6DJ-15 | 2026-08-31 13:08:53 | 47.23104 | 8.24758 | 6° | 11km/h | 25202m | -25.1m/s | 0°C | -1.0% | -1.0hPa | 2.6V | 00:00:00 | 00:00:00 | 00:00:00 | |
| DF7PN | 2026-08-31 13:08:52 | 47.23104 | 8.24758 | 6° | 11km/h | 25202m | -25.1m/s | -50.1°C | 0.4% | -1.0hPa | 2.6V | 00:00:00 | 00:00:00 | 00:00:00 | |
| HASLITAL | 2026-08-31 13:08:49 | 47.23098 | 8.24754 | 31° | 13km/h | 25253m | -25.2m/s | -50.1°C | 0.5% | 0hPa | 2.6V | 08:26:00 | 00:00:00 | 00:00:00 | |
| IW2NTF | 2026-08-31 13:08:44 | 47.23093 | 8.24726 | 124° | 7km/h | 25431m | -25.9m/s | -50.3°C | 2.9% | 0hPa | 2.6V | 08:25:57 | 02:42:38 | 00:00:00 | i |
| DN1GJH-1 | 2026-08-31 13:08:41 | 47.23095 | 8.24723 | 172° | 4km/h | 25482m | -25.8m/s | -50.0°C | 0.5% | 0hPa | 2.5V | 08:26:00 | 00:00:00 | 00:00:00 | |
| IW2NTF | 2026-08-31 13:08:34 | 47.23091 | 8.24736 | 326° | 5km/h | 25690m | -26.6m/s | -50.5°C | 3% | 0hPa | 2.5V | 08:26:07 | 02:42:28 | 00:00:00 | i |
| OE5DXL-15 | 2026-08-31 13:08:33 | 47.23091 | 8.24736 | 327° | 11km/h | 25690m | -26.6m/s | -50.4°C | 3.0% | 0hPa | 2.5V | 08:26:00 | 00:00:00 | 00:00:00 | |
| DO3MHA-11 | 2026-08-31 13:08:28 | 47.23091 | 8.24739 | 152° | 4km/h | 25822m | -26.4m/s | -49.6°C | 2.8% | 0hPa | 2.5V | 00:00:00 | 02:42:23 | 00:00:00 | |
| IW2NTF | 2026-08-31 13:08:24 | 47.23097 | 8.24732 | 127° | 9km/h | 25955m | -27.1m/s | -49.3°C | 2.7% | 0hPa | 2.5V | 08:26:17 | 02:42:18 | 00:00:00 | i |
| DK5PH-5 | 2026-08-31 13:08:22 | 47.23099 | 8.24729 | 139° | 15km/h | 25983m | -26.7m/s | -49.3°C | 2.7% | 0hPa | 2.6V | 00:00:00 | 02:42:17 | 00:00:00 | |
| DF7PN | 2026-08-31 13:08:21 | 47.23101 | 8.24726 | 130° | 13km/h | 26009m | -27.1m/s | -49.5°C | 0.4% | -1.0hPa | 2.5V | 00:00:00 | 00:00:00 | 00:00:00 | |
| DN1GJH-1 | 2026-08-31 13:08:19 | 47.23104 | 8.24723 | 149° | 15km/h | 26037m | -27.1m/s | -49.5°C | 0.5% | 0hPa | 2.5V | 08:27:00 | 00:00:00 | 00:00:00 | |
| DO3MHA-11 | 2026-08-31 13:08:18 | 47.23110 | 8.24716 | 158° | 15km/h | 26091m | -26.7m/s | -49.5°C | 2.8% | 0hPa | 2.5V | 00:00:00 | 02:42:13 | 00:00:00 | |
| LOEBOVI | 2026-08-31 13:08:16 | 47.23114 | 8.24713 | 155° | 18km/h | 26118m | -27.2m/s | -49.7°C | 0.4% | 0hPa | 2.5V | 00:00:00 | 00:00:00 | 00:00:00 | |
| IW2NTF | 2026-08-31 13:08:14 | 47.23130 | 8.24711 | 191° | 16km/h | 26227m | -27.4m/s | -49.8°C | 2.9% | 0hPa | 2.5V | 08:26:27 | 02:42:08 | 00:00:00 | i |
| DO3MHA-11 | 2026-08-31 13:08:08 | 47.23144 | 8.24723 | 227° | 16km/h | 26365m | -27.7m/s | -50.0°C | 3.0% | 0hPa | 2.6V | 00:00:00 | 02:42:03 | 00:00:00 | |
| IW2NTF | 2026-08-31 13:08:04 | 47.23141 | 8.24740 | 324° | 13km/h | 26504m | -27.3m/s | -49.7°C | 2.9% | 0hPa | 2.6V | 08:26:37 | 02:41:58 | 00:00:00 | i |
| DH7VM-15 | 2026-08-31 13:08:02 | 47.23141 | 8.24740 | 326° | 13km/h | 26504m | -27.3m/s | -49.7°C | 0.4% | 0hPa | 2.6V | 00:00:00 | 00:00:00 | 00:00:00 | |
| OE5DXL-15 | 2026-08-31 13:08:01 | 47.23135 | 8.24746 | 347° | 7km/h | 26560m | -27.7m/s | -49.5°C | 2.9% | 0hPa | 2.6V | 00:00:00 | 00:00:00 | 00:00:00 | |
| DF1GD-15 | 2026-08-31 13:08:00 | 47.23135 | 8.24746 | 348° | 16km/h | 26560m | -27.7m/s | -49.6°C | 0.5% | 0hPa | 2.6V | 08:27:00 | 00:00:00 | 00:00:00 | |
| DN1GJH-1 | 2026-08-31 13:07:58 | 47.23125 | 8.24748 | 361° | 18km/h | 26616m | -27.7m/s | -49.4°C | 0.5% | 0hPa | 2.6V | 08:27:00 | 00:00:00 | 00:00:00 | |
| IW2NTF | 2026-08-31 13:07:54 | 47.23101 | 8.24743 | 358° | 9km/h | 26784m | -28.1m/s | -49.1°C | 2.8% | 0hPa | 2.6V | 08:26:47 | 02:41:48 | 00:00:00 | i |
| DO3MHA-11 | 2026-08-31 13:07:51 | 47.23098 | 8.24743 | 317° | 4km/h | 26841m | -28.3m/s | -49.0°C | 2.8% | 0hPa | 2.7V | 00:00:00 | 02:41:46 | 00:00:00 | |
| DK5PH-5 | 2026-08-31 13:07:50 | 47.23097 | 8.24744 | 315° | 7km/h | 26870m | -28.3m/s | -49.1°C | 2.8% | 0hPa | 2.7V | 00:00:00 | 02:41:45 | 00:00:00 | |
| DB0UT-7 | 2026-08-31 13:07:49 | 47.23097 | 8.24745 | 263° | 9km/h | 26898m | -28.4m/s | -49.0°C | 2.8% | 0hPa | 2.7V | 00:00:00 | 00:00:00 | 00:00:00 | |
| HASLITAL | 2026-08-31 13:07:47 | 47.23097 | 8.24746 | 228° | 5km/h | 26927m | -28.7m/s | -49.0°C | 0.4% | 0hPa | 2.6V | 08:27:00 | 00:00:00 | 00:00:00 | |
| IW2NTF | 2026-08-31 13:07:44 | 47.23100 | 8.24760 | 277° | 7km/h | 27071m | -29.1m/s | -49°C | 2.8% | 0hPa | 2.6V | 08:26:57 | 02:41:38 | 00:00:00 | |
| DF1GD-15 | 2026-08-31 13:07:39 | 47.23099 | 8.24768 | 273° | 7km/h | 27160m | -29.3m/s | -48.9°C | 0.5% | 0hPa | 2.6V | 08:27:00 | 00:00:00 | 00:00:00 | |
| DN1GJH-1 | 2026-08-31 13:07:38 | 47.23098 | 8.24773 | 274° | 9km/h | 27219m | -29.6m/s | -48.6°C | 0.4% | 0hPa | 2.6V | 08:27:00 | 00:00:00 | 00:00:00 | |
| IW2NTF | 2026-08-31 13:07:34 | 47.23096 | 8.24787 | 312° | 7km/h | 27367m | -29.7m/s | -48.1°C | 2.7% | 0hPa | 2.6V | 08:27:07 | 02:41:28 | 00:00:00 | i |
| OE5DXL-15 | 2026-08-31 13:07:31 | 47.23093 | 8.24792 | 333° | 13km/h | 27427m | -30.1m/s | -48.2°C | 2.7% | 0hPa | 2.5V | 00:00:00 | 00:00:00 | 00:00:00 | |
| HASLITAL | 2026-08-31 13:07:26 | 47.23084 | 8.24796 | 8° | 11km/h | 27547m | -29.9m/s | -48.2°C | 0.4% | 0hPa | 2.5V | 08:27:00 | 00:00:00 | 00:00:00 | |
| IW2NTF | 2026-08-31 13:07:24 | 47.23073 | 8.24786 | 46° | 16km/h | 27668m | -30.5m/s | -47.6°C | 2.6% | 0hPa | 2.5V | 08:27:17 | 02:41:18 | 00:00:00 | i |
| DO3MHA-11 | 2026-08-31 13:07:21 | 47.23069 | 8.24776 | 55° | 15km/h | 27730m | -30.7m/s | -47.4°C | 2.6% | 0hPa | 2.5V | 00:00:00 | 02:41:16 | 00:00:00 | |
| DF1GD-15 | 2026-08-31 13:07:18 | 47.23065 | 8.24766 | 60° | 15km/h | 27792m | -30.8m/s | -47.3°C | 0.4% | 0hPa | 2.5V | 08:27:00 | 00:00:00 | 00:00:00 | |
| DN1GJH-1 | 2026-08-31 13:07:17 | 47.23063 | 8.24761 | 71° | 15km/h | 27823m | -31.1m/s | -47.3°C | 0.4% | 0hPa | 2.5V | 08:27:00 | 00:00:00 | 00:00:00 | |
| IW2NTF | 2026-08-31 13:07:15 | 47.23055 | 8.24747 | 19° | 9km/h | 27978m | -31m/s | -47.1°C | 2.5% | 0hPa | 2.5V | 08:27:27 | 02:41:08 | 00:00:00 | i |
| DB0UT-7 | 2026-08-31 13:07:13 | 47.23054 | 8.24747 | 20° | 11km/h | 27979m | -31.0m/s | 0°C | 0% | 0hPa | 2.7V | 00:00:00 | 02:41:08 | 00:00:00 | |
| HASLITAL | 2026-08-31 13:07:06 | 47.23045 | 8.24724 | 77° | 11km/h | 28201m | -31.9m/s | -46.7°C | 0.4% | 0hPa | 2.7V | 08:27:00 | 00:00:00 | 00:00:00 | |
| IW2NTF | 2026-08-31 13:07:04 | 47.23043 | 8.24712 | 72° | 13km/h | 28298m | -32.5m/s | -46.7°C | 2.5% | 0hPa | 2.7V | 08:27:37 | 02:40:58 | 00:00:00 | i |
| DK5PH-5 | 2026-08-31 13:07:03 | 47.23043 | 8.24712 | 73° | 13km/h | 28299m | -32.5m/s | -46.6°C | 2.5% | 0hPa | 2.6V | 00:00:00 | 02:40:58 | 00:00:00 | |
| LOEBOVI | 2026-08-31 13:07:01 | 47.23043 | 8.24708 | 87° | 9km/h | 28331m | -32.6m/s | -46.6°C | 0.3% | 0hPa | 2.6V | 00:00:00 | 00:00:00 | 00:00:00 | |
| OE5DXL-15 | 2026-08-31 13:07:00 | 47.23042 | 8.24701 | 86° | 15km/h | 28397m | -32.9m/s | -46.5°C | 2.5% | 0hPa | 2.6V | 00:00:00 | 00:00:00 | 00:00:00 | |
| DF1GD-15 | 2026-08-31 13:06:57 | 47.23041 | 8.24697 | 78° | 7km/h | 28463m | -33.1m/s | -46.4°C | 0.4% | 0hPa | 2.6V | 08:27:00 | 00:00:00 | 00:00:00 | |
| DN1GJH-1 | 2026-08-31 13:06:56 | 47.23040 | 8.24695 | 48° | 7km/h | 28495m | -32.5m/s | -46.3°C | 0.3% | 0hPa | 2.6V | 08:27:00 | 00:00:00 | 00:00:00 | |
| IW2NTF | 2026-08-31 13:06:53 | 47.23032 | 8.24685 | 29° | 11km/h | 28627m | -33.4m/s | -46°C | 2.4% | 0hPa | 2.6V | 08:27:47 | 02:40:48 | 00:00:00 | i |
| IW2NTF | 2026-08-31 13:06:43 | 47.22993 | 8.24662 | 15° | 15km/h | 28966m | -34.8m/s | -45.8°C | 2.5% | 0hPa | 2.7V | 08:27:57 | 02:40:38 | 00:00:00 | i |
| IW2NTF | 2026-08-31 13:06:38 | 47.22967 | 8.24635 | 53° | 11km/h | 29311m | -35.3m/s | -44.9°C | 2.4% | 0hPa | 2.7V | 08:28:07 | 02:40:28 | 00:00:00 | i |
| DF1GD-15 | 2026-08-31 13:06:37 | 47.22977 | 8.24651 | 38° | 13km/h | 29138m | -34.9m/s | -45.6°C | 0.3% | 0hPa | 2.7V | 08:28:00 | 00:00:00 | 00:00:00 | |
| DL1ZP-14 | 2026-08-31 13:06:36 | 47.22965 | 8.24632 | 43° | 9km/h | 29347m | -34.9m/s | 0°C | -1.0% | -1.0hPa | 2.7V | 00:00:00 | 00:00:00 | 00:00:00 | |
| DB0UT-7 | 2026-08-31 13:06:31 | 47.22963 | 8.24629 | 48° | 26km/h | 29382m | -35.4m/s | 0°C | 0% | 0hPa | 2.5V | 00:00:00 | 00:00:00 | 00:00:00 | |
| OE5DXL-15 | 2026-08-31 13:06:30 | 47.22962 | 8.24627 | 50° | 18km/h | 29417m | -34.8m/s | -44.5°C | 2.4% | 0hPa | 2.5V | 00:00:00 | 00:00:00 | 00:00:00 | |
| IW2NTF | 2026-08-31 13:06:26 | 47.22943 | 8.24616 | 17° | 16km/h | 29666m | -35.9m/s | -43.6°C | 2.2% | 0hPa | 2.5V | 08:28:17 | 02:40:18 | 00:00:00 | i |
| DK5PH-5 | 2026-08-31 13:06:26 | 47.22954 | 8.24621 | 12° | 22km/h | 29559m | -36.3m/s | -43.8°C | 2.3% | 0hPa | 2.6V | 08:28:00 | 02:40:21 | 00:00:00 | i |
| HASLITAL | 2026-08-31 13:06:24 | 47.22950 | 8.24620 | 17° | 15km/h | 29595m | -35.4m/s | -43.8°C | 0.3% | 0hPa | 2.5V | 08:28:00 | 00:00:00 | 00:00:00 | |
| IW2NTF | 2026-08-31 13:06:18 | 47.22911 | 8.24572 | 36° | 24km/h | 30031m | -36.8m/s | -42°C | 2% | 0hPa | 2.5V | 08:28:27 | 02:40:08 | 00:00:00 | i |
| DF1GD-15 | 2026-08-31 13:06:16 | 47.22925 | 8.24592 | 48° | 16km/h | 29884m | -36.8m/s | -42.3°C | 0.2% | 0hPa | 2.6V | 08:28:00 | 00:00:00 | 00:00:00 | |
| DN1GJH-1 | 2026-08-31 13:06:15 | 47.22922 | 8.24587 | 49° | 18km/h | 29921m | -36.8m/s | -42.4°C | 0.2% | 0hPa | 2.6V | 08:28:00 | 00:00:00 | 00:00:00 | |
| IW2NTF | 2026-08-31 13:06:08 | 47.22862 | 8.24494 | 57° | 29km/h | 30405m | -37.9m/s | -42°C | 2.1% | 0hPa | 2.6V | 08:28:37 | 02:39:58 | 00:00:00 | i |
| HASLITAL | 2026-08-31 13:06:03 | 47.22866 | 8.24503 | 55° | 31km/h | 30368m | -37.3m/s | -42.0°C | 0.2% | 0hPa | 2.7V | 08:28:00 | 00:00:00 | 00:00:00 | |
| DB0UT-7 | 2026-08-31 13:05:59 | 47.22854 | 8.24458 | 88° | 22km/h | 30558m | -38.2m/s | 0°C | 0% | 0hPa | 2.7V | 08:28:00 | 02:39:54 | 00:00:00 | |
| IW2NTF | 2026-08-31 13:05:58 | 47.22852 | 8.24407 | 72° | 27km/h | 30791m | -38.5m/s | -41°C | 1.9% | 0hPa | 2.7V | 08:28:47 | 02:39:48 | 00:00:00 | i |
| DF1GD-15 | 2026-08-31 13:05:55 | 47.22855 | 8.24433 | 86° | 22km/h | 30674m | -39.2m/s | -41.2°C | 0.2% | 0hPa | 2.7V | 08:28:00 | 00:00:00 | 00:00:00 | |
| DK5PH-5 | 2026-08-31 13:05:54 | 47.22854 | 8.24416 | 76° | 20km/h | 30752m | -39.7m/s | -41.0°C | 1.9% | 0hPa | 2.7V | 00:00:00 | 02:39:49 | 00:00:00 | |
| IW2NTF | 2026-08-31 13:05:45 | 47.22849 | 8.24321 | 88° | 20km/h | 31189m | -40.9m/s | -40.6°C | 2% | 0hPa | 2.7V | 08:28:57 | 02:39:38 | 00:00:00 | i |
| IW2NTF | 2026-08-31 13:05:35 | 47.22839 | 8.24264 | 34° | 20km/h | 31600m | -41.5m/s | -38.8°C | 1.7% | 0hPa | 2.5V | 08:29:07 | 02:39:28 | 00:00:00 | i |
| DN1GJH-1 | 2026-08-31 13:05:34 | 47.22847 | 8.24273 | 39° | 16km/h | 31517m | -41.7m/s | -39.0°C | 0.1% | 0hPa | 2.5V | 08:29:00 | 00:00:00 | 00:00:00 | |
| LOEBOVI | 2026-08-31 13:05:31 | 47.22834 | 8.24260 | 33° | 24km/h | 31642m | -42.5m/s | -38.7°C | 0.1% | 0hPa | 2.5V | 00:00:00 | 00:00:00 | 00:00:00 | |
| DB0UT-7 | 2026-08-31 13:05:29 | 47.22821 | 8.24246 | 36° | 37km/h | 31770m | -41.8m/s | 0°C | 0% | 0hPa | 2.5V | 00:00:00 | 00:00:00 | 00:00:00 | |
| IW2NTF | 2026-08-31 13:05:28 | 47.22803 | 8.24220 | 72° | 18km/h | 32027m | -43.7m/s | -38.5°C | 1.7% | 0hPa | 2.5V | 08:29:17 | 02:39:18 | 00:00:00 | i |
| OE5DXL-15 | 2026-08-31 13:05:25 | 47.22807 | 8.24231 | 54° | 15km/h | 31940m | -43.2m/s | -38.6°C | 1.7% | 0hPa | 2.7V | 00:00:00 | 00:00:00 | 00:00:00 | |
| HASLITAL | 2026-08-31 13:05:22 | 47.22803 | 8.24220 | 74° | 18km/h | 32027m | -43.7m/s | -38.5°C | 0.1% | 0hPa | 2.6V | 08:29:00 | 00:00:00 | 00:00:00 | |
| DH7VM-15 | 2026-08-31 13:05:21 | 47.22802 | 8.24213 | 83° | 18km/h | 32071m | -42.8m/s | -38.3°C | 0.1% | 0hPa | 2.6V | 00:00:00 | 00:00:00 | 00:00:00 | |
| DK5PH-5 | 2026-08-31 13:05:19 | 47.22801 | 8.24193 | 92° | 20km/h | 32202m | -43.9m/s | -38.0°C | 1.6% | 0hPa | 2.6V | 00:00:00 | 02:39:14 | 00:00:00 | |
| IW2NTF | 2026-08-31 13:05:13 | 47.22790 | 8.24156 | 74° | 27km/h | 32465m | -44.1m/s | -37.3°C | 1.6% | 0hPa | 2.6V | 08:29:27 | 02:39:08 | 00:00:00 | i |
| IW2NTF | 2026-08-31 13:05:08 | 47.22806 | 8.24110 | 277° | 5km/h | 32916m | -44.5m/s | -36.6°C | 1.5% | 0hPa | 2.6V | 08:29:37 | 02:38:58 | 00:00:00 | i |
| HASLITAL | 2026-08-31 13:05:02 | 47.22806 | 8.24110 | 278° | 5km/h | 32917m | -44.5m/s | -36.6°C | 0.1% | 0hPa | 2.7V | 08:29:00 | 00:00:00 | 00:00:00 | |
| IW2NTF | 2026-08-31 13:04:54 | 47.22803 | 8.24112 | 332° | 42km/h | 33354m | -43.2m/s | -35.1°C | 1.4% | 0hPa | 2.7V | 08:30:00 | 02:38:48 | 00:00:00 | i |
| DN1GJH-1 | 2026-08-31 13:04:53 | 47.22812 | 8.24107 | 342° | 33km/h | 33312m | -41.7m/s | -35.2°C | 0.0% | 0hPa | 2.7V | 00:00:00 | 00:00:00 | 00:00:00 | |
| IW2NTF | 2026-08-31 13:04:48 | 47.22840 | 8.24155 | 155° | 37km/h | 33775m | -44.3m/s | -34.8°C | 1.4% | 0hPa | 2.7V | 08:30:00 | 02:38:38 | 00:00:00 | i |
| DK5PH-5 | 2026-08-31 13:04:45 | 47.22817 | 8.24166 | 170° | 46km/h | 33689m | -42.8m/s | -35.0°C | 1.4% | 0hPa | 2.5V | 00:00:00 | 02:38:40 | 00:00:00 | |
| HASLITAL | 2026-08-31 13:04:42 | 47.22840 | 8.24155 | 157° | 37km/h | 33776m | -44.3m/s | -34.8°C | 0.0% | 0hPa | 2.5V | 00:00:00 | 00:00:00 | 00:00:00 | |
| IW2NTF | 2026-08-31 13:04:37 | 47.22765 | 8.24177 | 350° | 38km/h | 34206m | -45.4m/s | -32.7°C | 1.2% | 0hPa | 2.5V | 08:30:00 | 02:38:28 | 00:00:00 | i |
| DF1GD-15 | 2026-08-31 13:04:33 | 47.22776 | 8.24173 | 343° | 47km/h | 34161m | -44.8m/s | -33.0°C | 0.0% | 0hPa | 2.5V | 00:00:00 | 00:00:00 | 00:00:00 | |
| IW2NTF | 2026-08-31 13:04:26 | 47.22704 | 8.24071 | 30° | 27km/h | 34708m | -52.3m/s | -32°C | 1.1% | 0hPa | 2.5V | 08:30:00 | 02:38:18 | 00:00:00 | i |
| OE9MKV-15 | 2026-08-31 13:04:25 | 47.22719 | 8.24093 | 52° | 22km/h | 34602m | -52.6m/s | -31.8°C | 1.1% | 0hPa | 2.6V | 00:00:00 | 02:38:20 | 00:00:00 | |
| HASLITAL | 2026-08-31 13:04:21 | 47.22699 | 8.24067 | 21° | 18km/h | 34758m | -51.7m/s | -31.9°C | 0.0% | 0hPa | 2.6V | 00:00:00 | 00:00:00 | 00:00:00 | |
| IW2NTF | 2026-08-31 13:04:16 | 47.22680 | 8.24071 | 23° | 24km/h | 35237m | -30.7m/s | -32.1°C | 1.2% | 0hPa | 2.6V | 08:30:00 | 02:38:08 | 00:00:00 | i |
| DN1GJH-1 | 2026-08-31 13:04:13 | 47.22685 | 8.24073 | 354° | 11km/h | 35204m | -36.7m/s | -32.0°C | 0.0% | 0hPa | 2.6V | 00:00:00 | 00:00:00 | 00:00:00 | |
| DF1GD-15 | 2026-08-31 13:04:12 | 47.22680 | 8.24071 | 25° | 24km/h | 35238m | -30.7m/s | -32.1°C | 0.0% | 0hPa | 2.6V | 00:00:00 | 00:00:00 | 00:00:00 | |
| DK5PH-5 | 2026-08-31 13:04:07 | 47.22646 | 8.24039 | 68° | 22km/h | 35274m | 3.9m/s | -31.9°C | 1.2% | 0hPa | 2.6V | 00:00:00 | 02:38:02 | 00:00:00 | |
| IW2NTF | 2026-08-31 13:04:05 | 47.22653 | 8.24050 | 264° | 26km/h | 35249m | 3.9m/s | -31.8°C | 1.2% | 0hPa | 2.6V | 08:30:00 | 02:37:56 | 00:00:00 | i |
| DH7VM-15 | 2026-08-31 13:04:02 | 47.22650 | 8.24034 | 236° | 18km/h | 35257m | 4.7m/s | -31.9°C | 0% | 0hPa | 2.6V | 00:00:00 | 00:00:00 | 00:00:00 | |
| HASLITAL | 2026-08-31 13:04:00 | 47.22653 | 8.24049 | 266° | 26km/h | 35249m | 3.9m/s | -31.8°C | -0.0% | 0hPa | 2.6V | 00:00:00 | 00:00:00 | 00:00:00 | |
| IW2NTF | 2026-08-31 13:03:56 | 47.22616 | 8.24040 | 92° | 16km/h | 35203m | 4m/s | -31.7°C | 1.2% | 0hPa | 2.6V | 08:30:00 | 02:37:46 | 00:00:00 | i |
| DN1GJH-1 | 2026-08-31 13:03:52 | 47.22619 | 8.24056 | 65° | 26km/h | 35212m | 4.7m/s | -31.8°C | 0.0% | 0hPa | 2.7V | 00:00:00 | 00:00:00 | 00:00:00 | |
| OE5DXL-15 | 2026-08-31 13:03:50 | 47.22616 | 8.24035 | 119° | 20km/h | 35200m | 4.3m/s | -31.7°C | 1.2% | 0hPa | 2.7V | 00:00:00 | 00:00:00 | 00:00:00 | |
| IW2NTF | 2026-08-31 13:03:45 | 47.22592 | 8.24069 | 9° | 27km/h | 35157m | 4.9m/s | -31.6°C | 1.2% | 0hPa | 2.7V | 08:30:00 | 02:37:36 | 00:00:00 | i |
| OE9MKV-15 | 2026-08-31 13:03:44 | 47.22612 | 8.24061 | 314° | 20km/h | 35172m | 4.4m/s | -31.6°C | 1.2% | 0hPa | 2.7V | 00:00:00 | 02:37:39 | 00:00:00 | |
| DF7PN | 2026-08-31 13:03:42 | 47.22592 | 8.24069 | 9° | 26km/h | 35157m | 4.9m/s | -31.6°C | 0.0% | -1.0hPa | 2.7V | 00:00:00 | 00:00:00 | 00:00:00 | |
| HASLITAL | 2026-08-31 13:03:40 | 47.22592 | 8.24069 | 10° | 27km/h | 35157m | 4.9m/s | -31.6°C | 0.0% | 0hPa | 2.7V | 00:00:00 | 00:00:00 | 00:00:00 | |
| IW2NTF | 2026-08-31 13:03:35 | 47.22562 | 8.24042 | 292° | 26km/h | 35106m | 4.7m/s | -31.4°C | 1.1% | 0hPa | 2.7V | 08:30:00 | 02:37:26 | 00:00:00 | i |
| DN1GJH-1 | 2026-08-31 13:03:32 | 47.22566 | 8.24030 | 287° | 11km/h | 35117m | 5.6m/s | -31.5°C | -0.0% | 0hPa | 2.7V | 00:00:00 | 00:00:00 | 00:00:00 | |
| DF1GD-15 | 2026-08-31 13:03:31 | 47.22565 | 8.24035 | 289° | 20km/h | 35111m | 5.2m/s | -31.5°C | -0.0% | 0hPa | 2.7V | 00:00:00 | 00:00:00 | 00:00:00 | |
| IW2NTF | 2026-08-31 13:03:25 | 47.22520 | 8.24033 | 74° | 18km/h | 35059m | 4.5m/s | -31.4°C | 1.1% | 0hPa | 2.7V | 08:30:00 | 02:37:16 | 00:00:00 | i |
| HASLITAL | 2026-08-31 13:03:20 | 47.22520 | 8.24033 | 76° | 18km/h | 35059m | 4.6m/s | -31.4°C | -0.0% | 0hPa | 2.6V | 00:00:00 | 00:00:00 | 00:00:00 | |
| OE5DXL-15 | 2026-08-31 13:03:19 | 47.22518 | 8.24024 | 38° | 20km/h | 35051m | 4.5m/s | -31.4°C | 1.1% | 0hPa | 2.6V | 00:00:00 | 00:00:00 | 08:30:00 | |
| IW2NTF | 2026-08-31 13:03:15 | 47.22475 | 8.24047 | 5° | 37km/h | 35015m | 3.8m/s | -31.6°C | 1.1% | 0hPa | 2.7V | 08:30:00 | 02:37:06 | 00:00:00 | i |
| DF7PN | 2026-08-31 13:03:11 | 47.22467 | 8.24043 | 16° | 33km/h | 35011m | 3.9m/s | -31.6°C | -1.0% | -1.0hPa | 2.7V | 00:00:00 | 00:00:00 | 00:00:00 | |
| OE9MKV-15 | 2026-08-31 13:03:10 | 47.22467 | 8.24043 | 17° | 24km/h | 35011m | 3.9m/s | -31.6°C | 1.1% | 0hPa | 2.7V | 00:00:00 | 02:37:05 | 00:00:00 | |
| IW2NTF | 2026-08-31 13:03:05 | 47.22419 | 8.24021 | 329° | 33km/h | 34976m | 4.2m/s | -31.9°C | 1.2% | 0hPa | 2.7V | 08:30:00 | 02:36:56 | 00:00:00 | i |
| DK5PH-5 | 2026-08-31 13:03:04 | 47.22434 | 8.24012 | 359° | 20km/h | 34988m | 3.8m/s | -31.7°C | 1.1% | 0hPa | 2.6V | 00:00:00 | 02:36:59 | 00:00:00 | |
| HASLITAL | 2026-08-31 13:02:59 | 47.22411 | 8.24026 | 334° | 37km/h | 34972m | 4.2m/s | -31.9°C | -0.0% | 0hPa | 2.6V | 00:00:00 | 00:00:00 | 00:00:00 | |
| LOEBOVI | 2026-08-31 13:02:56 | 47.22385 | 8.24034 | 3° | 33km/h | 34960m | 3.4m/s | -32.0°C | 0% | 0hPa | 2.6V | 00:00:00 | 00:00:00 | 00:00:00 | |
| IW2NTF | 2026-08-31 13:02:55 | 47.22372 | 8.24001 | 140° | 13km/h | 34934m | 3.4m/s | -32°C | 1.2% | 0hPa | 2.6V | 08:30:00 | 02:36:46 | 00:00:00 | i |
| DN1GJH-1 | 2026-08-31 13:02:51 | 47.22372 | 8.24001 | 142° | 13km/h | 34935m | 3.4m/s | -32.0°C | 0.0% | 0hPa | 2.6V | 00:00:00 | 00:00:00 | 00:00:00 | |
| OE5DXL-15 | 2026-08-31 13:02:49 | 47.22377 | 8.24000 | 247° | 22km/h | 34929m | 3.3m/s | -32.0°C | 1.2% | 0hPa | 2.6V | 00:00:00 | 00:00:00 | 00:00:00 | |
| IW2NTF | 2026-08-31 13:02:45 | 47.22327 | 8.24031 | 18° | 33km/h | 34895m | 2.7m/s | -32°C | 1.1% | 0hPa | 2.6V | 08:30:00 | 02:36:36 | 00:00:00 | i |
| DH7VM-15 | 2026-08-31 13:02:41 | 47.22335 | 8.24033 | 4° | 38km/h | 34899m | 2.8m/s | -32.0°C | 0% | 0hPa | 2.7V | 00:00:00 | 00:00:00 | 00:00:00 | |
| HASLITAL | 2026-08-31 13:02:39 | 47.22321 | 8.24025 | 37° | 26km/h | 34893m | 3.0m/s | -32.0°C | 0.0% | 0hPa | 2.7V | 00:00:00 | 00:00:00 | 00:00:00 | |
| IW2NTF | 2026-08-31 13:02:35 | 47.22314 | 8.24026 | 316° | 33km/h | 34856m | 4.7m/s | -32.4°C | 1.2% | 0hPa | 2.7V | 08:30:00 | 02:36:26 | 00:00:00 | i |
| DN1GJH-1 | 2026-08-31 13:02:29 | 47.22308 | 8.24033 | 329° | 35km/h | 34852m | 3.9m/s | -32.4°C | 0.0% | 0hPa | 2.7V | 00:00:00 | 00:00:00 | 00:00:00 | |
| IW2NTF | 2026-08-31 13:02:25 | 47.22286 | 8.23996 | 146° | 18km/h | 34819m | 2.7m/s | -32.4°C | 1.2% | 0hPa | 2.7V | 08:30:00 | 02:36:16 | 00:00:00 | i |
| OE5DXL-15 | 2026-08-31 13:02:19 | 47.22291 | 8.23992 | 210° | 20km/h | 34815m | 3.0m/s | -32.2°C | 1.2% | 0hPa | 2.7V | 00:00:00 | 00:00:00 | 00:00:00 | |
| HASLITAL | 2026-08-31 13:02:18 | 47.22291 | 8.23992 | 211° | 4km/h | 34815m | 3.1m/s | -32.3°C | 0.0% | 0hPa | 2.7V | 00:00:00 | 00:00:00 | 00:00:00 | |
| IW2NTF | 2026-08-31 13:02:15 | 47.22250 | 8.23975 | 59° | 24km/h | 34781m | 4m/s | -32.2°C | 1.2% | 0hPa | 2.7V | 08:30:00 | 02:36:06 | 00:00:00 | i |
| DB0UT-7 | 2026-08-31 13:02:13 | 47.22260 | 8.23989 | 26° | 18km/h | 34789m | 3.4m/s | 0°C | 0% | 0hPa | 2.6V | 00:00:00 | 00:00:00 | 00:00:00 | |
| DN1GJH-1 | 2026-08-31 13:02:08 | 47.22248 | 8.23959 | 112° | 20km/h | 34772m | 4.9m/s | -32.3°C | 0.0% | 0hPa | 2.6V | 00:00:00 | 00:00:00 | 00:00:00 | |
| IW2NTF | 2026-08-31 13:02:05 | 47.22253 | 8.23958 | 358° | 27km/h | 34741m | 3.9m/s | -32.3°C | 1.2% | 0hPa | 2.6V | 08:30:00 | 02:35:56 | 00:00:00 | i |
| DK5PH-5 | 2026-08-31 13:02:03 | 47.22263 | 8.23954 | 308° | 26km/h | 34749m | 3.4m/s | -32.3°C | 1.2% | 0hPa | 2.7V | 00:00:00 | 02:35:58 | 00:00:00 | |
| DL1ZP-14 | 2026-08-31 13:01:56 | 47.22192 | 8.23885 | 1° | 44km/h | 34680m | 4.5m/s | 0°C | -1.0% | -1.0hPa | 2.6V | 00:00:00 | 00:00:00 | 00:00:00 | |
| IW2NTF | 2026-08-31 13:01:55 | 47.22221 | 8.23881 | 119° | 5km/h | 34702m | 3.5m/s | -32.5°C | 1.2% | 0hPa | 2.6V | 08:30:00 | 02:35:46 | 00:00:00 | i |
| OE5DXL-15 | 2026-08-31 13:01:50 | 47.22217 | 8.23881 | 346° | 24km/h | 34695m | 4.5m/s | -32.4°C | 1.2% | 0hPa | 2.7V | 00:00:00 | 00:00:00 | 00:00:00 | |
| DN1GJH-1 | 2026-08-31 13:01:49 | 47.22217 | 8.23881 | 346° | 18km/h | 34695m | 4.5m/s | -32.5°C | 0.0% | 0hPa | 2.6V | 00:00:00 | 00:00:00 | 00:00:00 | |
| IW2NTF | 2026-08-31 13:01:45 | 47.22145 | 8.23857 | 57° | 27km/h | 34662m | 4.9m/s | -32.4°C | 1.2% | 0hPa | 2.6V | 08:30:00 | 02:35:36 | 00:00:00 | i |
| HASLITAL | 2026-08-31 13:01:37 | 47.22145 | 8.23836 | 130° | 18km/h | 34647m | 4.6m/s | -32.4°C | 0.0% | 0hPa | 2.6V | 00:00:00 | 00:00:00 | 00:00:00 | |
| IW2NTF | 2026-08-31 13:01:35 | 47.22123 | 8.23817 | 18° | 44km/h | 34623m | 4.7m/s | -32.3°C | 1.2% | 0hPa | 2.6V | 08:30:00 | 02:35:26 | 00:00:00 | i |
| DK5PH-5 | 2026-08-31 13:01:28 | 47.22092 | 8.23795 | 38° | 35km/h | 34609m | 4.4m/s | -32.2°C | 1.2% | 0hPa | 2.7V | 00:00:00 | 02:35:23 | 00:00:00 | |
| DN1GJH-1 | 2026-08-31 13:01:27 | 47.22092 | 8.23795 | 38° | 42km/h | 34609m | 4.5m/s | -32.3°C | 0.0% | 0hPa | 2.7V | 00:00:00 | 00:00:00 | 00:00:00 | |
| IW2NTF | 2026-08-31 13:01:25 | 47.22082 | 8.23764 | 291° | 7km/h | 34576m | 2.8m/s | -32.5°C | 1.2% | 0hPa | 2.7V | 08:30:00 | 02:35:16 | 00:00:00 | i |
| OE5DXL-15 | 2026-08-31 13:01:19 | 47.22076 | 8.23769 | 346° | 31km/h | 34570m | 3.2m/s | -32.5°C | 1.2% | 0hPa | 2.7V | 00:00:00 | 00:00:00 | 00:00:00 | |
| HASLITAL | 2026-08-31 13:01:16 | 47.22059 | 8.23772 | 4° | 44km/h | 34562m | 4.4m/s | -32.7°C | 0.0% | 0hPa | 2.7V | 00:00:00 | 00:00:00 | 00:00:00 | |
| IW2NTF | 2026-08-31 13:01:15 | 47.21994 | 8.23736 | 41° | 31km/h | 34541m | 3.3m/s | -33°C | 1.2% | 0hPa | 2.7V | 08:30:00 | 02:35:06 | 00:00:00 | i |
| DN1GJH-1 | 2026-08-31 13:01:07 | 47.21987 | 8.23723 | 75° | 4km/h | 34529m | 4.2m/s | -33.1°C | 0.0% | 0hPa | 2.6V | 00:00:00 | 00:00:00 | 00:00:00 | |
| IW2NTF | 2026-08-31 13:01:05 | 47.21955 | 8.23717 | 19° | 47km/h | 34505m | 4.8m/s | -33.2°C | 1.2% | 0hPa | 2.6V | 08:30:00 | 02:34:56 | 00:00:00 | i |
| DB0UT-7 | 2026-08-31 13:01:01 | 47.21955 | 8.23717 | 20° | 38km/h | 34505m | 4.8m/s | 0°C | 0% | 0hPa | 2.7V | 00:00:00 | 02:34:56 | 00:00:00 | |
| IW2NTF | 2026-08-31 13:00:55 | 47.21881 | 8.23683 | 328° | 29km/h | 34464m | 4m/s | -33.1°C | 1.3% | 0hPa | 2.7V | 08:30:00 | 02:34:46 | 00:00:00 | i |
| DK5PH-5 | 2026-08-31 13:00:53 | 47.21891 | 8.23674 | 337° | 27km/h | 34473m | 4.2m/s | -33.0°C | 1.3% | 0hPa | 2.7V | 00:00:00 | 02:34:48 | 00:00:00 | |
| OE5DXL-15 | 2026-08-31 13:00:49 | 47.21866 | 8.23693 | 342° | 29km/h | 34457m | 4.1m/s | -33.1°C | 1.2% | 0hPa | 2.7V | 00:00:00 | 00:00:00 | 00:00:00 | |
| DN1GJH-1 | 2026-08-31 13:00:47 | 47.21844 | 8.23698 | 360° | 49km/h | 34448m | 4.7m/s | -33.3°C | 0.0% | 0hPa | 2.7V | 00:00:00 | 00:00:00 | 00:00:00 | |
| IW2NTF | 2026-08-31 13:00:45 | 47.21787 | 8.23670 | 29° | 24km/h | 34424m | 3.9m/s | -33.1°C | 1.2% | 0hPa | 2.7V | 08:30:00 | 02:34:36 | 00:00:00 | i |
| IW2NTF | 2026-08-31 13:00:35 | 47.21738 | 8.23697 | 354° | 44km/h | 34384m | 4.2m/s | -33.2°C | 1.3% | 0hPa | 2.5V | 08:30:00 | 02:34:26 | 00:00:00 | i |
| DN1GJH-1 | 2026-08-31 13:00:26 | 47.21697 | 8.23693 | 3° | 33km/h | 34371m | 3.1m/s | -33.1°C | 0.0% | 0hPa | 2.5V | 00:00:00 | 00:00:00 | 00:00:00 | |
| IW2NTF | 2026-08-31 13:00:25 | 47.21668 | 8.23710 | 319° | 24km/h | 34349m | 3.3m/s | -33.1°C | 1.2% | 0hPa | 2.5V | 08:30:00 | 02:34:16 | 00:00:00 | i |
| DK5PH-5 | 2026-08-31 13:00:23 | 47.21676 | 8.23700 | 319° | 27km/h | 34356m | 3.9m/s | -33.1°C | 1.3% | 0hPa | 2.7V | 00:00:00 | 02:34:18 | 08:30:00 | |
| OE5DXL-15 | 2026-08-31 13:00:19 | 47.21657 | 8.23718 | 341° | 31km/h | 34342m | 3.5m/s | -33.1°C | 1.2% | 0hPa | 2.7V | 00:00:00 | 00:00:00 | 00:00:00 | |
| HASLITAL | 2026-08-31 13:00:17 | 47.21635 | 8.23719 | 9° | 33km/h | 34331m | 3.8m/s | -33.2°C | 0.0% | 0hPa | 2.7V | 00:00:00 | 00:00:00 | 00:00:00 | |
| IW2NTF | 2026-08-31 13:00:16 | 47.21600 | 8.23712 | 336° | 22km/h | 34312m | 4m/s | -33.2°C | 1.2% | 0hPa | 2.7V | 08:30:00 | 02:34:06 | 00:00:00 | i |
| LOEBOVI | 2026-08-31 13:00:08 | 47.21586 | 8.23733 | 304° | 37km/h | 34301m | 3.8m/s | -33.3°C | 0.0% | 0hPa | 2.7V | 00:00:00 | 00:00:00 | 00:00:00 | |
| IW2NTF | 2026-08-31 13:00:06 | 47.21527 | 8.23796 | 352° | 37km/h | 34275m | 3.5m/s | -33.6°C | 1.2% | 0hPa | 2.7V | 08:30:00 | 02:33:56 | 00:00:00 | i |
| DF1GD-15 | 2026-08-31 13:00:05 | 47.21573 | 8.23757 | 310° | 46km/h | 34294m | 3.3m/s | -33.4°C | 0.0% | 0hPa | 2.5V | 00:00:00 | 00:00:00 | 00:00:00 | |
| DF7PN | 2026-08-31 13:00:04 | 47.21527 | 8.23796 | 352° | 37km/h | 34276m | 3.6m/s | 0°C | -1.0% | -1.0hPa | 2.5V | 00:00:00 | 00:00:00 | 00:00:00 | |
| IW2NTF | 2026-08-31 12:59:54 | 47.21499 | 8.23836 | 298° | 44km/h | 34242m | 4.4m/s | -33.8°C | 1.3% | 0hPa | 2.5V | 08:30:00 | 02:33:46 | 00:00:00 | i |
| DK5PH-5 | 2026-08-31 12:59:53 | 47.21506 | 8.23810 | 278° | 24km/h | 34251m | 3.4m/s | -33.6°C | 1.2% | 0hPa | 2.7V | 00:00:00 | 02:33:48 | 00:00:00 | |
| OE5DXL-15 | 2026-08-31 12:59:49 | 47.21484 | 8.23862 | 320° | 27km/h | 34234m | 4.1m/s | -33.8°C | 1.2% | 0hPa | 2.7V | 00:00:00 | 00:00:00 | 00:00:00 | |
| DF1GD-15 | 2026-08-31 12:59:45 | 47.21453 | 8.23882 | 350° | 38km/h | 34223m | 3.3m/s | -33.9°C | 0.1% | 0hPa | 2.7V | 00:00:00 | 00:00:00 | 00:00:00 | |
| IW2NTF | 2026-08-31 12:59:44 | 47.21430 | 8.23886 | 250° | 11km/h | 34205m | 4.3m/s | -34.1°C | 1.3% | 0hPa | 2.7V | 08:30:00 | 02:33:36 | 00:00:00 | i |
| IW2NTF | 2026-08-31 12:59:34 | 47.21401 | 8.23963 | 30° | 20km/h | 34165m | 5.1m/s | -34.3°C | 1.3% | 0hPa | 2.7V | 08:30:00 | 02:33:26 | 00:00:00 | i |
| DF7PN | 2026-08-31 12:59:33 | 47.21396 | 8.23951 | 87° | 18km/h | 34155m | 5.2m/s | 0°C | -1.0% | -1.0hPa | 2.7V | 00:00:00 | 00:00:00 | 00:00:00 | |
| IW2NTF | 2026-08-31 12:59:24 | 47.21397 | 8.23979 | 308° | 37km/h | 34124m | 4.7m/s | -34.5°C | 1.3% | 0hPa | 2.7V | 08:30:00 | 02:33:16 | 00:00:00 | i |
| DK5PH-5 | 2026-08-31 12:59:23 | 47.21405 | 8.23957 | 282° | 29km/h | 34134m | 3.9m/s | -34.4°C | 1.3% | 0hPa | 2.7V | 00:00:00 | 02:33:18 | 00:00:00 | |
| DL1ZP-14 | 2026-08-31 12:59:21 | 47.21391 | 8.23989 | 321° | 37km/h | 34120m | 4.6m/s | 0°C | -1.0% | -1.0hPa | 2.7V | 00:00:00 | 00:00:00 | 00:00:00 | |
| OE5DXL-15 | 2026-08-31 12:59:19 | 47.21384 | 8.23997 | 333° | 29km/h | 34116m | 4.3m/s | -34.5°C | 1.3% | 0hPa | 2.5V | 00:00:00 | 00:00:00 | 00:00:00 | |
| IW2NTF | 2026-08-31 12:59:14 | 47.21397 | 8.23997 | 209° | 33km/h | 34079m | 2.9m/s | -34.5°C | 1.3% | 0hPa | 2.5V | 08:30:00 | 02:33:06 | 00:00:00 | i |
| HASLITAL | 2026-08-31 12:59:13 | 47.21375 | 8.23992 | 159° | 24km/h | 34091m | 4.8m/s | -34.5°C | 0.1% | 0hPa | 2.5V | 00:00:00 | 00:00:00 | 00:00:00 | |
| IW2NTF | 2026-08-31 12:59:04 | 47.21361 | 8.24053 | 61° | 16km/h | 34039m | 3.6m/s | -34.4°C | 1.3% | 0hPa | 2.5V | 08:30:00 | 02:32:56 | 00:00:00 | i |
| DN1GJH-1 | 2026-08-31 12:59:03 | 47.21380 | 8.24061 | 354° | 40km/h | 34048m | 3.4m/s | -34.4°C | 0.1% | 0hPa | 2.5V | 00:00:00 | 00:00:00 | 00:00:00 | |
| DF7PN | 2026-08-31 12:59:02 | 47.21370 | 8.24043 | 181° | 26km/h | 34025m | 5.1m/s | 0°C | -1.0% | -1.0hPa | 2.5V | 00:00:00 | 00:00:00 | 00:00:00 | |
| IW2NTF | 2026-08-31 12:58:54 | 47.21383 | 8.24095 | 335° | 31km/h | 33994m | 5.6m/s | -34.5°C | 1.3% | 0hPa | 2.5V | 08:30:00 | 02:32:46 | 00:00:00 | i |
| DK5PH-5 | 2026-08-31 12:58:53 | 47.21392 | 8.24080 | 286° | 27km/h | 34005m | 4.2m/s | -34.4°C | 1.3% | 0hPa | 2.6V | 00:00:00 | 02:32:48 | 00:00:00 | |
| DH7VM-15 | 2026-08-31 12:58:52 | 47.21392 | 8.24080 | 287° | 29km/h | 34005m | 4.3m/s | -34.5°C | 0.0% | 0hPa | 2.7V | 00:00:00 | 00:00:00 | 00:00:00 | |
| OE5DXL-15 | 2026-08-31 12:58:47 | 47.21353 | 8.24085 | 55° | 27km/h | 33978m | 2.6m/s | -34.3°C | 1.3% | 0hPa | 2.7V | 00:00:00 | 00:00:00 | 08:30:00 | |
| IW2NTF | 2026-08-31 12:58:44 | 47.21375 | 8.24084 | 227° | 31km/h | 33955m | 2.9m/s | -34.6°C | 1.3% | 0hPa | 2.6V | 08:30:00 | 02:32:36 | 00:00:00 | i |
| DN1GJH-1 | 2026-08-31 12:58:42 | 47.21362 | 8.24072 | 199° | 27km/h | 33963m | 4.7m/s | -34.6°C | 0.1% | 0hPa | 2.7V | 00:00:00 | 00:00:00 | 00:00:00 | |
| LOEBOVI | 2026-08-31 12:58:38 | 47.21380 | 8.24101 | 268° | 20km/h | 33951m | 2.5m/s | -34.6°C | 0.0% | 0hPa | 2.7V | 00:00:00 | 00:00:00 | 00:00:00 | |
| IW2NTF | 2026-08-31 12:58:34 | 47.21350 | 8.24057 | 105° | 20km/h | 33919m | 1.8m/s | -34.7°C | 1.3% | 0hPa | 2.7V | 08:30:00 | 02:32:26 | 00:00:00 | i |
| HASLITAL | 2026-08-31 12:58:32 | 47.21352 | 8.24077 | 68° | 38km/h | 33922m | 2.3m/s | -34.6°C | 0.1% | 0hPa | 2.6V | 00:00:00 | 00:00:00 | 00:00:00 | |
| DF7PN | 2026-08-31 12:58:31 | 47.21350 | 8.24056 | 105° | 20km/h | 33919m | 1.8m/s | 0°C | -1.0% | -1.0hPa | 2.6V | 00:00:00 | 00:00:00 | 00:00:00 | |
| IW2NTF | 2026-08-31 12:58:24 | 47.21378 | 8.24099 | 62° | 27km/h | 33878m | 6.9m/s | -35.3°C | 1.4% | 0hPa | 2.6V | 08:30:00 | 02:32:16 | 00:00:00 | i |
| DK5PH-5 | 2026-08-31 12:58:23 | 47.21382 | 8.24105 | 297° | 33km/h | 33888m | 2.3m/s | -35.0°C | 1.4% | 0hPa | 2.7V | 00:00:00 | 02:32:18 | 00:00:00 | |
| DN1GJH-1 | 2026-08-31 12:58:22 | 47.21382 | 8.24105 | 297° | 7km/h | 33888m | 2.4m/s | -35.1°C | 0.1% | 0hPa | 2.7V | 00:00:00 | 00:00:00 | 00:00:00 | |
| OE5DXL-15 | 2026-08-31 12:58:17 | 47.21370 | 8.24037 | 91° | 31km/h | 33859m | 1.7m/s | -35.2°C | 1.4% | 0hPa | 2.7V | 00:00:00 | 02:32:12 | 00:00:00 | |
| IW2NTF | 2026-08-31 12:58:12 | 47.21386 | 8.24049 | 257° | 46km/h | 33827m | 5.7m/s | -35.5°C | 1.4% | 0hPa | 2.7V | 08:30:00 | 02:32:06 | 00:00:00 | i |
| IW2NTF | 2026-08-31 12:58:01 | 47.21398 | 8.24013 | 101° | 31km/h | 33785m | 1.4m/s | -35.3°C | 1.4% | 0hPa | 2.7V | 08:30:00 | 02:31:56 | 00:00:00 | i |
| DL6DJ-15 | 2026-08-31 12:58:00 | 47.21394 | 8.24047 | 284° | 47km/h | 33753m | 3.7m/s | 0°C | -1.0% | -1.0hPa | 2.7V | 00:00:00 | 00:00:00 | 00:00:00 | |
| IW2NTF | 2026-08-31 12:57:51 | 47.21386 | 8.24082 | 92° | 4km/h | 33744m | 5.3m/s | -35.4°C | 1.4% | 0hPa | 2.7V | 08:30:00 | 02:31:46 | 00:00:00 | i |
| DL1ZP-14 | 2026-08-31 12:57:48 | 47.21395 | 8.24043 | 113° | 38km/h | 33721m | 3.0m/s | 0°C | -1.0% | -1.0hPa | 2.7V | 00:00:00 | 00:00:00 | 00:00:00 | |
| IW2NTF | 2026-08-31 12:57:46 | 47.21402 | 8.24045 | 286° | 38km/h | 33696m | 6.6m/s | -35.5°C | 1.4% | 0hPa | 2.7V | 08:30:00 | 02:31:36 | 00:00:00 | i |
| OE5DXL-15 | 2026-08-31 12:57:46 | 47.21399 | 8.24032 | 119° | 27km/h | 33719m | 1.1m/s | -35.4°C | 1.4% | 0hPa | 2.7V | 00:00:00 | 00:00:00 | 00:00:00 | i |
| DF1GD-15 | 2026-08-31 12:57:40 | 47.21402 | 8.24045 | 288° | 38km/h | 33697m | 6.6m/s | -35.5°C | 0.1% | 0hPa | 2.7V | 00:00:00 | 00:00:00 | 00:00:00 | |
| IW2NTF | 2026-08-31 12:57:36 | 47.21388 | 8.24067 | 132° | 20km/h | 33651m | 3m/s | -35.7°C | 1.4% | 0hPa | 2.7V | 08:30:00 | 02:31:26 | 00:00:00 | i |
| HASLITAL | 2026-08-31 12:57:31 | 47.21385 | 8.24073 | 118° | 26km/h | 33655m | 3.9m/s | -35.7°C | 0.1% | 0hPa | 2.7V | 00:00:00 | 00:00:00 | 00:00:00 | |
| IW2NTF | 2026-08-31 12:57:26 | 47.21367 | 8.24142 | 19° | 13km/h | 33613m | 5.8m/s | -36°C | 1.5% | 0hPa | 2.7V | 08:30:00 | 02:31:16 | 00:00:00 | i |
| DK5PH-5 | 2026-08-31 12:57:22 | 47.21371 | 8.24142 | 334° | 29km/h | 33618m | 4.4m/s | -35.9°C | 1.4% | 0hPa | 2.7V | 00:00:00 | 02:31:17 | 00:00:00 | |
| DN1GJH-1 | 2026-08-31 12:57:20 | 47.21367 | 8.24142 | 21° | 13km/h | 33613m | 5.8m/s | -36.0°C | 0.1% | 0hPa | 2.6V | 00:00:00 | 00:00:00 | 00:00:00 | |
| DF1GD-15 | 2026-08-31 12:57:19 | 47.21365 | 8.24138 | 65° | 18km/h | 33607m | 6.8m/s | -36.0°C | 0.1% | 0hPa | 2.6V | 00:00:00 | 00:00:00 | 00:00:00 | |
| IW2NTF | 2026-08-31 12:57:16 | 47.21349 | 8.24139 | 290° | 51km/h | 33563m | 6.5m/s | -35.9°C | 1.4% | 0hPa | 2.6V | 08:30:00 | 02:31:06 | 00:00:00 | |
| OE5DXL-15 | 2026-08-31 12:57:16 | 47.21363 | 8.24104 | 81° | 29km/h | 33590m | 2.5m/s | -35.8°C | 1.4% | 0hPa | 2.7V | 00:00:00 | 00:00:00 | 00:00:00 | |
| HASLITAL | 2026-08-31 12:57:10 | 47.21349 | 8.24139 | 291° | 51km/h | 33563m | 6.5m/s | -35.9°C | 0.1% | 0hPa | 2.7V | 00:00:00 | 00:00:00 | 00:00:00 | |
| IW2NTF | 2026-08-31 12:57:06 | 47.21338 | 8.24156 | 85° | 37km/h | 33515m | 2.6m/s | -35.8°C | 1.5% | 0hPa | 2.7V | 08:30:00 | 02:30:56 | 00:00:00 | i |
| DL6DJ-15 | 2026-08-31 12:56:58 | 47.21330 | 8.24135 | 352° | 16km/h | 33508m | 4.7m/s | 0°C | -1.0% | -1.0hPa | 2.6V | 00:00:00 | 00:00:00 | 00:00:00 | |
| IW2NTF | 2026-08-31 12:56:55 | 47.21317 | 8.24210 | 147° | 13km/h | 33468m | 6.1m/s | -35.9°C | 1.5% | 0hPa | 2.6V | 08:30:00 | 02:30:45 | 00:00:00 | i |
| DK5PH-5 | 2026-08-31 12:56:52 | 47.21312 | 8.24203 | 260° | 26km/h | 33477m | 3.0m/s | -35.8°C | 1.5% | 0hPa | 2.6V | 00:00:00 | 02:30:47 | 00:00:00 | |
| HASLITAL | 2026-08-31 12:56:50 | 47.21314 | 8.24210 | 228° | 13km/h | 33473m | 4.3m/s | -35.9°C | 0.1% | 0hPa | 2.6V | 00:00:00 | 00:00:00 | 00:00:00 | |
| OE5DXL-15 | 2026-08-31 12:56:46 | 47.21323 | 8.24166 | 86° | 27km/h | 33445m | 4.0m/s | -35.7°C | 1.4% | 0hPa | 2.6V | 00:00:00 | 00:00:00 | 00:00:00 | |
| IW2NTF | 2026-08-31 12:56:45 | 47.21299 | 8.24155 | 293° | 35km/h | 33416m | 6.6m/s | -35.6°C | 1.4% | 0hPa | 2.6V | 08:30:00 | 02:30:35 | 00:00:00 | i |
| DN1GJH-1 | 2026-08-31 12:56:40 | 47.21303 | 8.24145 | 310° | 29km/h | 33423m | 7.1m/s | -35.6°C | 0.1% | 0hPa | 2.6V | 00:00:00 | 00:00:00 | 00:00:00 | |
| DF1GD-15 | 2026-08-31 12:56:38 | 47.21297 | 8.24167 | 280° | 35km/h | 33411m | 5.2m/s | -35.5°C | 0.1% | 0hPa | 2.6V | 00:00:00 | 00:00:00 | 00:00:00 | |
| IW2NTF | 2026-08-31 12:56:35 | 47.21312 | 8.24149 | 63° | 27km/h | 33368m | 4.2m/s | -35.5°C | 1.4% | 0hPa | 2.6V | 08:30:00 | 02:30:25 | 00:00:00 | i |
| HASLITAL | 2026-08-31 12:56:30 | 47.21314 | 8.24159 | 84° | 31km/h | 33372m | 4.5m/s | -35.6°C | 0.1% | 0hPa | 2.6V | 00:00:00 | 00:00:00 | 00:00:00 | |
| DL6DJ-15 | 2026-08-31 12:56:27 | 47.21296 | 8.24140 | 336° | 26km/h | 33355m | 5.1m/s | 0°C | -1.0% | -1.0hPa | 2.6V | 00:00:00 | 00:00:00 | 00:00:00 | |
| IW2NTF | 2026-08-31 12:56:25 | 47.21298 | 8.24186 | 170° | 26km/h | 33318m | 5.4m/s | -36°C | 1.5% | 0hPa | 2.6V | 08:30:00 | 02:30:15 | 00:00:00 | i |
| DK5PH-5 | 2026-08-31 12:56:22 | 47.21287 | 8.24181 | 229° | 24km/h | 33329m | 5.3m/s | -35.9°C | 1.4% | 0hPa | 2.6V | 00:00:00 | 02:30:17 | 00:00:00 | |
| DN1GJH-1 | 2026-08-31 12:56:19 | 47.21298 | 8.24186 | 172° | 26km/h | 33319m | 5.4m/s | -36.0°C | 0.1% | 0hPa | 2.6V | 00:00:00 | 00:00:00 | 00:00:00 | |
| DF1GD-15 | 2026-08-31 12:56:17 | 47.21310 | 8.24177 | 140° | 27km/h | 33309m | 4.0m/s | -36.1°C | 0.1% | 0hPa | 2.6V | 00:00:00 | 00:00:00 | 00:00:00 | |
| OE5DXL-15 | 2026-08-31 12:56:16 | 47.21317 | 8.24164 | 119° | 24km/h | 33303m | 3.2m/s | -36.0°C | 1.4% | 0hPa | 2.6V | 00:00:00 | 00:00:00 | 00:00:00 | |
| IW2NTF | 2026-08-31 12:56:15 | 47.21309 | 8.24198 | 278° | 38km/h | 33272m | 4.3m/s | -36.3°C | 1.5% | 0hPa | 2.6V | 08:30:00 | 02:30:05 | 00:00:00 | i |
| DL1ZP-14 | 2026-08-31 12:56:14 | 47.21308 | 8.24198 | 278° | 37km/h | 33272m | 4.3m/s | 0°C | -1.0% | -1.0hPa | 2.6V | 00:00:00 | 00:00:00 | 00:00:00 | |
| HASLITAL | 2026-08-31 12:56:09 | 47.21308 | 8.24198 | 280° | 38km/h | 33272m | 4.3m/s | -36.3°C | 0.1% | 0hPa | 2.6V | 00:00:00 | 00:00:00 | 00:00:00 | |
| IW2NTF | 2026-08-31 12:56:05 | 47.21318 | 8.24179 | 84° | 9km/h | 33228m | 3m/s | -36.3°C | 1.4% | 0hPa | 2.6V | 08:30:00 | 02:29:55 | 00:00:00 | i |
| DN1GJH-1 | 2026-08-31 12:55:58 | 47.21318 | 8.24178 | 274° | 4km/h | 33225m | 4.5m/s | -36.4°C | 0.1% | 0hPa | 2.6V | 00:00:00 | 00:00:00 | 00:00:00 | |
| DF1GD-15 | 2026-08-31 12:55:57 | 47.21318 | 8.24182 | 265° | 18km/h | 33220m | 5.8m/s | -36.5°C | 0.1% | 0hPa | 2.6V | 00:00:00 | 00:00:00 | 00:00:00 | |
| IW2NTF | 2026-08-31 12:55:55 | 47.21331 | 8.24240 | 79° | 26km/h | 33182m | 6.9m/s | -36.7°C | 1.5% | 0hPa | 2.6V | 08:30:00 | 02:29:45 | 00:00:00 | i |
| DK5PH-5 | 2026-08-31 12:55:52 | 47.21331 | 8.24247 | 221° | 31km/h | 33193m | 3.3m/s | -36.5°C | 1.5% | 0hPa | 2.6V | 00:00:00 | 02:29:47 | 08:30:00 | |
| HASLITAL | 2026-08-31 12:55:49 | 47.21331 | 8.24240 | 80° | 26km/h | 33183m | 6.9m/s | -36.7°C | 0.1% | 0hPa | 2.6V | 00:00:00 | 00:00:00 | 00:00:00 | |
| OE5DXL-15 | 2026-08-31 12:55:46 | 47.21317 | 8.24186 | 60° | 29km/h | 33162m | 2.2m/s | -36.6°C | 1.5% | 0hPa | 2.6V | 00:00:00 | 00:00:00 | 00:00:00 | |
| IW2NTF | 2026-08-31 12:55:45 | 47.21324 | 8.24211 | 239° | 44km/h | 33131m | 4.3m/s | -36.9°C | 1.5% | 0hPa | 2.6V | 08:30:00 | 02:29:35 | 00:00:00 | i |
| DF1GD-15 | 2026-08-31 12:55:37 | 47.21334 | 8.24233 | 229° | 24km/h | 33126m | 2.2m/s | -36.9°C | 0.1% | 0hPa | 2.6V | 00:00:00 | 00:00:00 | 00:00:00 | |
| IW2NTF | 2026-08-31 12:55:35 | 47.21307 | 8.24180 | 45° | 16km/h | 33087m | 2.9m/s | -37°C | 1.5% | 0hPa | 2.6V | 08:30:00 | 02:29:25 | 00:00:00 | i |
| HASLITAL | 2026-08-31 12:55:28 | 47.21305 | 8.24178 | 37° | 2km/h | 33084m | 4.7m/s | -37.0°C | 0.1% | 0hPa | 2.6V | 00:00:00 | 00:00:00 | 00:00:00 | |
| IW2NTF | 2026-08-31 12:55:25 | 47.21353 | 8.24212 | 76° | 18km/h | 33039m | 7m/s | -37.1°C | 1.5% | 0hPa | 2.6V | 08:30:00 | 02:29:15 | 00:00:00 | i |
| DN1GJH-1 | 2026-08-31 12:55:17 | 47.21345 | 8.24193 | 54° | 38km/h | 33025m | 6.1m/s | -37.1°C | 0.1% | 0hPa | 2.6V | 00:00:00 | 00:00:00 | 00:00:00 | |
| OE5DXL-15 | 2026-08-31 12:55:16 | 47.21333 | 8.24172 | 48° | 35km/h | 33017m | 1.9m/s | -37.0°C | 1.5% | 0hPa | 2.6V | 00:00:00 | 00:00:00 | 00:00:00 | |
| IW2NTF | 2026-08-31 12:55:15 | 47.21357 | 8.24175 | 199° | 53km/h | 32990m | 5m/s | -37.2°C | 1.5% | 0hPa | 2.6V | 08:30:00 | 02:29:05 | 00:00:00 | i |
| DK5PH-5 | 2026-08-31 12:55:15 | 47.21329 | 8.24165 | 58° | 35km/h | 33016m | 2.0m/s | -36.9°C | 1.5% | 0hPa | 2.5V | 00:00:00 | 02:29:10 | 00:00:00 | i |
| DL1ZP-14 | 2026-08-31 12:55:12 | 47.21382 | 8.24184 | 186° | 44km/h | 32984m | 2.2m/s | 0°C | -1.0% | -1.0hPa | 2.5V | 00:00:00 | 00:00:00 | 00:00:00 | |
| HASLITAL | 2026-08-31 12:55:07 | 47.21382 | 8.24184 | 188° | 44km/h | 32984m | 2.2m/s | -37.2°C | 0.1% | 0hPa | 2.6V | 00:00:00 | 00:00:00 | 00:00:00 | |
| IW2NTF | 2026-08-31 12:55:05 | 47.21381 | 8.24130 | 48° | 16km/h | 32945m | 2.2m/s | -37.5°C | 1.6% | 0hPa | 2.6V | 08:30:00 | 02:28:55 | 00:00:00 | |
| DF1GD-15 | 2026-08-31 12:54:56 | 47.21389 | 8.24129 | 191° | 35km/h | 32932m | 7.2m/s | -37.7°C | 0.1% | 0hPa | 2.6V | 00:00:00 | 00:00:00 | 00:00:00 | |
| IW2NTF | 2026-08-31 12:54:55 | 47.21458 | 8.24118 | 92° | 24km/h | 32897m | 7.8m/s | -37.5°C | 1.6% | 0hPa | 2.6V | 08:30:00 | 02:28:45 | 00:00:00 | i |
| DL6DJ-15 | 2026-08-31 12:54:54 | 47.21440 | 8.24076 | 52° | 33km/h | 32872m | 2.8m/s | 0°C | -1.0% | -1.0hPa | 2.6V | 00:00:00 | 00:00:00 | 00:00:00 | |
| HASLITAL | 2026-08-31 12:54:47 | 47.21452 | 8.24097 | 53° | 38km/h | 32882m | 7.2m/s | -37.4°C | 0.1% | 0hPa | 2.6V | 00:00:00 | 00:00:00 | 00:00:00 | |
| IW2NTF | 2026-08-31 12:54:45 | 47.21464 | 8.24050 | 177° | 49km/h | 32842m | 4.7m/s | -37.3°C | 1.6% | 0hPa | 2.6V | 08:30:00 | 02:28:35 | 00:00:00 | i |
| DK5PH-5 | 2026-08-31 12:54:45 | 47.21436 | 8.24067 | 63° | 38km/h | 32870m | 2.4m/s | -37.3°C | 1.5% | 0hPa | 2.7V | 00:00:00 | 02:28:40 | 00:00:00 | i |
| DN1GJH-1 | 2026-08-31 12:54:36 | 47.21495 | 8.24040 | 145° | 33km/h | 32833m | 3.4m/s | -37.3°C | 0.1% | 0hPa | 2.7V | 00:00:00 | 00:00:00 | 00:00:00 | |
| IW2NTF | 2026-08-31 12:54:35 | 47.21472 | 8.23960 | 60° | 22km/h | 32799m | 2.8m/s | -37.3°C | 1.5% | 0hPa | 2.7V | 08:30:00 | 02:28:25 | 00:00:00 | i |
| LOEBOVI | 2026-08-31 12:54:34 | 47.21501 | 8.24020 | 83° | 33km/h | 32823m | 7.0m/s | -37.3°C | 0.1% | 0hPa | 2.6V | 00:00:00 | 00:00:00 | 00:00:00 | |
| HASLITAL | 2026-08-31 12:54:27 | 47.21482 | 8.23947 | 169° | 38km/h | 32782m | 7.6m/s | -37.7°C | 0.1% | 0hPa | 2.6V | 00:00:00 | 00:00:00 | 00:00:00 | |
| IW2NTF | 2026-08-31 12:54:25 | 47.21530 | 8.23881 | 68° | 47km/h | 32746m | 7.8m/s | -37.6°C | 1.6% | 0hPa | 2.6V | 08:30:00 | 02:28:15 | 00:00:00 | i |
| DL6DJ-15 | 2026-08-31 12:54:23 | 47.21516 | 8.23847 | 54° | 55km/h | 32733m | 4.9m/s | 0°C | -1.0% | -1.0hPa | 2.6V | 00:00:00 | 00:00:00 | 00:00:00 | |
| DF1GD-15 | 2026-08-31 12:54:16 | 47.21508 | 8.23831 | 57° | 53km/h | 32729m | 3.0m/s | -37.5°C | 0.1% | 0hPa | 2.6V | 00:00:00 | 00:00:00 | 00:00:00 | |
| IW2NTF | 2026-08-31 12:54:15 | 47.21527 | 8.23765 | 158° | 42km/h | 32696m | 2.8m/s | -37.6°C | 1.6% | 0hPa | 2.6V | 08:30:00 | 02:28:05 | 00:00:00 | i |
| OE5DXL-15 | 2026-08-31 12:54:15 | 47.21498 | 8.23802 | 76° | 40km/h | 32723m | 3.7m/s | -37.5°C | 1.5% | 0hPa | 2.7V | 00:00:00 | 00:00:00 | 08:30:00 | i |
| DL1ZP-14 | 2026-08-31 12:54:10 | 47.21536 | 8.23758 | 147° | 37km/h | 32694m | 2.1m/s | 0°C | -1.0% | -1.0hPa | 2.6V | 00:00:00 | 00:00:00 | 00:00:00 | |
| IW2NTF | 2026-08-31 12:54:06 | 47.21499 | 8.23633 | 82° | 29km/h | 32653m | 5m/s | -37.5°C | 1.5% | 0hPa | 2.5V | 08:30:00 | 02:27:55 | 00:00:00 | i |
| DK5PH-5 | 2026-08-31 12:54:00 | 47.21499 | 8.23634 | 83° | 27km/h | 32653m | 4.9m/s | -37.4°C | 1.5% | 0hPa | 2.5V | 00:00:00 | 02:27:55 | 00:00:00 | |
| DN1GJH-1 | 2026-08-31 12:53:56 | 47.21520 | 8.23603 | 160° | 35km/h | 32630m | 3.9m/s | -37.5°C | 0.1% | 0hPa | 2.6V | 00:00:00 | 00:00:00 | 00:00:00 | i |
| IW2NTF | 2026-08-31 12:53:56 | 47.21519 | 8.23556 | 47° | 55km/h | 32600m | 6.6m/s | -37.6°C | 1.5% | 0hPa | 2.5V | 08:30:00 | 02:27:45 | 00:00:00 | i |
| HASLITAL | 2026-08-31 12:53:47 | 47.21490 | 8.23508 | 55° | 49km/h | 32589m | 2.6m/s | -37.5°C | 0.1% | 0hPa | 2.6V | 00:00:00 | 00:00:00 | 00:00:00 | |
| IW2NTF | 2026-08-31 12:53:45 | 47.21507 | 8.23468 | 157° | 18km/h | 32554m | 2.7m/s | -37.6°C | 1.6% | 0hPa | 2.6V | 08:30:00 | 02:27:35 | 00:00:00 | |
| OE5DXL-15 | 2026-08-31 12:53:45 | 47.21482 | 8.23484 | 84° | 31km/h | 32581m | 5.5m/s | -37.5°C | 1.5% | 0hPa | 2.6V | 00:00:00 | 00:00:00 | 00:00:00 | |
| IW2NTF | 2026-08-31 12:53:35 | 47.21457 | 8.23364 | 101° | 22km/h | 32505m | 6.5m/s | -38.1°C | 1.6% | 0hPa | 2.6V | 08:30:00 | 02:27:25 | 00:00:00 | |
| DN1GJH-1 | 2026-08-31 12:53:34 | 47.21486 | 8.23429 | 42° | 55km/h | 32527m | 5.4m/s | -38.0°C | 0.2% | 0hPa | 2.5V | 00:00:00 | 00:00:00 | 00:00:00 | |
| DK5PH-5 | 2026-08-31 12:53:27 | 47.21470 | 8.23355 | 182° | 18km/h | 32488m | 4.1m/s | -38.3°C | 1.6% | 0hPa | 2.5V | 00:00:00 | 02:27:22 | 00:00:00 | |
| IW2NTF | 2026-08-31 12:53:25 | 47.21450 | 8.23312 | 38° | 57km/h | 32455m | 3.9m/s | -38.8°C | 1.7% | 0hPa | 2.5V | 08:30:00 | 02:27:15 | 00:00:00 | i |
| LOEBOVI | 2026-08-31 12:53:19 | 47.21449 | 8.23312 | 40° | 57km/h | 32456m | 3.9m/s | -38.8°C | 0.1% | 0hPa | 2.5V | 00:00:00 | 00:00:00 | 00:00:00 | |
| IW2NTF | 2026-08-31 12:53:15 | 47.21454 | 8.23248 | 93° | 7km/h | 32410m | 4m/s | -38.8°C | 1.7% | 0hPa | 2.5V | 08:30:00 | 02:27:05 | 00:00:00 | i |
| OE5DXL-15 | 2026-08-31 12:53:15 | 47.21430 | 8.23258 | 134° | 29km/h | 32433m | 6.9m/s | -38.8°C | 1.7% | 0hPa | 2.6V | 00:00:00 | 00:00:00 | 00:00:00 | i |
| DF1GD-15 | 2026-08-31 12:53:14 | 47.21430 | 8.23258 | 134° | 24km/h | 32433m | 7.0m/s | -38.9°C | 0.2% | 0hPa | 2.6V | 00:00:00 | 00:00:00 | 00:00:00 | |
| IW2NTF | 2026-08-31 12:53:05 | 47.21404 | 8.23169 | 155° | 29km/h | 32359m | 7m/s | -38.8°C | 1.7% | 0hPa | 2.6V | 08:30:00 | 02:26:55 | 00:00:00 | i |
| HASLITAL | 2026-08-31 12:53:04 | 47.21415 | 8.23207 | 34° | 53km/h | 32385m | 2.5m/s | -38.8°C | 0.2% | 0hPa | 2.6V | 00:00:00 | 00:00:00 | 00:00:00 | |
| DH7VM-15 | 2026-08-31 12:53:00 | 47.21403 | 8.23169 | 157° | 29km/h | 32360m | 7.0m/s | -38.8°C | 0.1% | 0hPa | 2.6V | 00:00:00 | 00:00:00 | 00:00:00 | |
| IW2NTF | 2026-08-31 12:52:55 | 47.21392 | 8.23123 | 27° | 42km/h | 32315m | 2.2m/s | -38.7°C | 1.7% | 0hPa | 2.6V | 08:30:00 | 02:26:45 | 00:00:00 | i |
| DF1GD-15 | 2026-08-31 12:52:55 | 47.21430 | 8.23158 | 77° | 9km/h | 32340m | 4.6m/s | -38.8°C | 0.2% | 0hPa | 2.5V | 00:00:00 | 00:00:00 | 00:00:00 | i |
| DN1GJH-1 | 2026-08-31 12:52:54 | 47.21430 | 8.23158 | 77° | 9km/h | 32340m | 4.6m/s | -38.8°C | 0.2% | 0hPa | 2.5V | 00:00:00 | 00:00:00 | 00:00:00 | |
| IW2NTF | 2026-08-31 12:52:45 | 47.21420 | 8.23089 | 48° | 13km/h | 32271m | 5.1m/s | -38.7°C | 1.7% | 0hPa | 2.5V | 08:30:00 | 02:26:35 | 00:00:00 | i |
| HASLITAL | 2026-08-31 12:52:43 | 47.21402 | 8.23096 | 172° | 37km/h | 32285m | 4.0m/s | -38.7°C | 0.2% | 0hPa | 2.6V | 00:00:00 | 00:00:00 | 00:00:00 | |
| OE5DXL-15 | 2026-08-31 12:52:42 | 47.21417 | 8.23093 | 171° | 26km/h | 32279m | 2.4m/s | -38.6°C | 1.7% | 0hPa | 2.6V | 00:00:00 | 00:00:00 | 00:00:00 | |
| IW2NTF | 2026-08-31 12:52:35 | 47.21383 | 8.23035 | 156° | 33km/h | 32220m | 5.3m/s | -38.9°C | 1.7% | 0hPa | 2.6V | 08:30:00 | 02:26:25 | 00:00:00 | i |
| DN1GJH-1 | 2026-08-31 12:52:34 | 47.21377 | 8.23061 | 25° | 35km/h | 32248m | 2.6m/s | -38.6°C | 0.2% | 0hPa | 2.6V | 00:00:00 | 00:00:00 | 00:00:00 | |
| DF1GD-15 | 2026-08-31 12:52:33 | 47.21372 | 8.23056 | 41° | 20km/h | 32244m | 4.4m/s | -38.7°C | 0.2% | 0hPa | 2.6V | 00:00:00 | 00:00:00 | 00:00:00 | |
| IW2NTF | 2026-08-31 12:52:23 | 47.21356 | 8.22996 | 18° | 24km/h | 32179m | 4m/s | -38.9°C | 1.6% | 0hPa | 2.6V | 08:30:00 | 02:26:15 | 00:00:00 | i |
| HASLITAL | 2026-08-31 12:52:23 | 47.21394 | 8.23010 | 24° | 35km/h | 32196m | 5.9m/s | -39.0°C | 0.2% | 0hPa | 2.5V | 00:00:00 | 00:00:00 | 00:00:00 | i |
| DF7PN | 2026-08-31 12:52:18 | 47.21358 | 8.22982 | 157° | 24km/h | 32159m | 5.4m/s | 0°C | -1.0% | -1.0hPa | 2.5V | 00:00:00 | 00:00:00 | 00:00:00 | |
| IW2NTF | 2026-08-31 12:52:13 | 47.21369 | 8.22958 | 22° | 33km/h | 32134m | 6.2m/s | -39.1°C | 1.7% | 0hPa | 2.5V | 08:30:00 | 02:26:05 | 00:00:00 | i |
| OE5DXL-15 | 2026-08-31 12:52:12 | 47.21376 | 8.22968 | 89° | 26km/h | 32145m | 3.9m/s | -39.0°C | 1.7% | 0hPa | 2.6V | 00:00:00 | 00:00:00 | 00:00:00 | |
| IW2NTF | 2026-08-31 12:52:03 | 47.21332 | 8.22927 | 174° | 20km/h | 32088m | 2.9m/s | -39.2°C | 1.7% | 0hPa | 2.6V | 08:30:00 | 02:25:55 | 00:00:00 | i |
| LOEBOVI | 2026-08-31 12:51:59 | 47.21335 | 8.22925 | 150° | 11km/h | 32086m | 2.7m/s | -39.2°C | 0.2% | 0hPa | 2.6V | 00:00:00 | 00:00:00 | 00:00:00 | |
| IW2NTF | 2026-08-31 12:51:53 | 47.21264 | 8.22863 | 52° | 27km/h | 32046m | 4.8m/s | -39.2°C | 1.7% | 0hPa | 2.6V | 08:30:00 | 02:25:45 | 00:00:00 | i |
| DL6DJ-15 | 2026-08-31 12:51:47 | 47.21268 | 8.22852 | 190° | 15km/h | 32027m | 2.9m/s | 0°C | -1.0% | -1.0hPa | 2.5V | 00:00:00 | 00:00:00 | 00:00:00 | |
| IW2NTF | 2026-08-31 12:51:41 | 47.21233 | 8.22839 | 20° | 57km/h | 31999m | 5.2m/s | -39.7°C | 1.7% | 0hPa | 2.5V | 08:30:00 | 02:25:35 | 00:00:00 | i |
| HASLITAL | 2026-08-31 12:51:40 | 47.21246 | 8.22845 | 16° | 51km/h | 32005m | 5.9m/s | -39.6°C | 0.2% | 0hPa | 2.6V | 00:00:00 | 00:00:00 | 00:00:00 | |
| IW2NTF | 2026-08-31 12:51:31 | 47.21192 | 8.22794 | 332° | 15km/h | 31959m | 3.4m/s | -39.7°C | 1.8% | 0hPa | 2.6V | 08:30:00 | 02:25:25 | 00:00:00 | i |
| IW2NTF | 2026-08-31 12:51:21 | 47.21101 | 8.22750 | 140° | 7km/h | 31912m | 6.9m/s | -39.9°C | 1.8% | 0hPa | 2.5V | 08:30:00 | 02:25:15 | 00:00:00 | i |
| HASLITAL | 2026-08-31 12:51:19 | 47.21101 | 8.22750 | 141° | 7km/h | 31912m | 6.9m/s | -39.9°C | 0.2% | 0hPa | 2.5V | 00:00:00 | 00:00:00 | 00:00:00 | |
| DF7PN | 2026-08-31 12:51:16 | 47.21109 | 8.22757 | 308° | 11km/h | 31896m | 3.1m/s | 0°C | -1.0% | -1.0hPa | 2.5V | 00:00:00 | 00:00:00 | 00:00:00 | |
| IW2NTF | 2026-08-31 12:51:11 | 47.21046 | 8.22741 | 18° | 62km/h | 31865m | 2.7m/s | -39.9°C | 1.8% | 0hPa | 2.5V | 08:30:00 | 02:25:05 | 00:00:00 | i |
| DN1GJH-1 | 2026-08-31 12:51:10 | 47.21061 | 8.22748 | 18° | 66km/h | 31869m | 4.6m/s | -39.9°C | 0.2% | 0hPa | 2.6V | 00:00:00 | 00:00:00 | 00:00:00 | |
| IW2NTF | 2026-08-31 12:51:01 | 47.21021 | 8.22712 | 21° | 26km/h | 31821m | 5.5m/s | -40°C | 1.8% | 0hPa | 2.6V | 08:30:00 | 02:24:55 | 00:00:00 | i |
| HASLITAL | 2026-08-31 12:50:59 | 47.21021 | 8.22712 | 22° | 26km/h | 31822m | 5.5m/s | -40.0°C | 0.2% | 0hPa | 2.5V | 00:00:00 | 00:00:00 | 00:00:00 | |
| IW2NTF | 2026-08-31 12:50:51 | 47.20947 | 8.22672 | 180° | 18km/h | 31768m | 6.2m/s | -40°C | 1.8% | 0hPa | 2.5V | 08:30:00 | 02:24:45 | 00:00:00 | i |
| DN1GJH-1 | 2026-08-31 12:50:50 | 47.20943 | 8.22672 | 172° | 9km/h | 31775m | 7.1m/s | -40.1°C | 0.2% | 0hPa | 2.6V | 00:00:00 | 00:00:00 | 00:00:00 | |
| IW2NTF | 2026-08-31 12:50:41 | 47.20894 | 8.22630 | 27° | 38km/h | 31728m | 3.4m/s | -39.9°C | 1.8% | 0hPa | 2.6V | 08:30:00 | 02:24:35 | 00:00:00 | i |
| HASLITAL | 2026-08-31 12:50:38 | 47.20887 | 8.22625 | 38° | 22km/h | 31724m | 5.7m/s | -39.9°C | 0.2% | 0hPa | 2.5V | 00:00:00 | 00:00:00 | 00:00:00 | |
| IW2NTF | 2026-08-31 12:50:31 | 47.20899 | 8.22583 | 41° | 37km/h | 31676m | 5.7m/s | -40.2°C | 1.8% | 0hPa | 2.5V | 08:30:00 | 02:24:25 | 00:00:00 | i |
| DF1GD-15 | 2026-08-31 12:50:30 | 47.20904 | 8.22591 | 60° | 24km/h | 31682m | 5.3m/s | 0°C | 0% | 0hPa | 2.6V | 00:00:00 | 00:00:00 | 00:00:00 | |
| DN1GJH-1 | 2026-08-31 12:50:29 | 47.20899 | 8.22583 | 43° | 37km/h | 31676m | 5.7m/s | -40.2°C | 0.2% | 0hPa | 2.6V | 00:00:00 | 00:00:00 | 00:00:00 | |
| IW2NTF | 2026-08-31 12:50:21 | 47.20877 | 8.22525 | 166° | 29km/h | 31625m | 3.9m/s | -40.4°C | 1.8% | 0hPa | 2.6V | 08:30:00 | 02:24:15 | 00:00:00 | i |
| HASLITAL | 2026-08-31 12:50:16 | 47.20883 | 8.22508 | 47° | 24km/h | 31608m | 5.8m/s | -40.5°C | 0.2% | 0hPa | 2.6V | 00:00:00 | 00:00:00 | 00:00:00 | |
| DH7VM-15 | 2026-08-31 12:50:14 | 47.20877 | 8.22501 | 39° | 35km/h | 31603m | 5.6m/s | -40.5°C | 0.2% | 0hPa | 2.6V | 00:00:00 | 00:00:00 | 00:00:00 | |
| IW2NTF | 2026-08-31 12:50:11 | 47.20845 | 8.22467 | 85° | 11km/h | 31579m | 5.9m/s | -40.6°C | 1.8% | 0hPa | 2.6V | 08:30:00 | 02:24:05 | 00:00:00 | i |
| DN1GJH-1 | 2026-08-31 12:50:09 | 47.20845 | 8.22467 | 86° | 11km/h | 31580m | 5.9m/s | -40.6°C | 0.2% | 0hPa | 2.5V | 00:00:00 | 00:00:00 | 00:00:00 | |
| IW2NTF | 2026-08-31 12:50:00 | 47.20858 | 8.22430 | 25° | 38km/h | 31526m | 6.1m/s | -41.1°C | 1.9% | 0hPa | 2.5V | 08:30:00 | 02:23:55 | 00:00:00 | |
| HASLITAL | 2026-08-31 12:49:55 | 47.20831 | 8.22406 | 53° | 13km/h | 31509m | 4.8m/s | -41.2°C | 0.2% | 0hPa | 2.6V | 00:00:00 | 00:00:00 | 00:00:00 | |
| IW2NTF | 2026-08-31 12:49:50 | 47.20860 | 8.22386 | 136° | 20km/h | 31478m | 4.3m/s | -41.3°C | 1.9% | 0hPa | 2.6V | 08:30:00 | 02:23:45 | 00:00:00 | i |
| DF1GD-15 | 2026-08-31 12:49:49 | 47.20860 | 8.22386 | 138° | 20km/h | 31479m | 4.3m/s | 0°C | 0% | 0hPa | 2.5V | 00:00:00 | 00:00:00 | 00:00:00 | |
| DN1GJH-1 | 2026-08-31 12:49:48 | 47.20862 | 8.22380 | 105° | 18km/h | 31474m | 5.3m/s | -41.3°C | 0.3% | 0hPa | 2.5V | 00:00:00 | 00:00:00 | 00:00:00 | |
| IW2NTF | 2026-08-31 12:49:40 | 47.20832 | 8.22303 | 152° | 22km/h | 31426m | 6.7m/s | -41.6°C | 2% | 0hPa | 2.5V | 08:30:00 | 02:23:35 | 00:00:00 | i |
| HASLITAL | 2026-08-31 12:49:33 | 47.20858 | 8.22283 | 40° | 18km/h | 31397m | 6.4m/s | -41.4°C | 0.2% | 0hPa | 2.6V | 00:00:00 | 00:00:00 | 00:00:00 | |
| IW2NTF | 2026-08-31 12:49:30 | 47.20829 | 8.22260 | 24° | 35km/h | 31377m | 2.7m/s | -41.4°C | 1.9% | 0hPa | 2.6V | 08:30:00 | 02:23:25 | 00:00:00 | i |
| DN1GJH-1 | 2026-08-31 12:49:27 | 47.20819 | 8.22252 | 72° | 11km/h | 31369m | 5.9m/s | -41.4°C | 0.2% | 0hPa | 2.5V | 00:00:00 | 00:00:00 | 00:00:00 | |
| IW2NTF | 2026-08-31 12:49:20 | 47.20858 | 8.22202 | 72° | 27km/h | 31326m | 5.8m/s | -41.6°C | 2% | 0hPa | 2.5V | 08:30:00 | 02:23:15 | 00:00:00 | i |
| HASLITAL | 2026-08-31 12:49:13 | 47.20825 | 8.22153 | 74° | 20km/h | 31300m | 4.9m/s | -41.7°C | 0.3% | 0hPa | 2.6V | 00:00:00 | 00:00:00 | 00:00:00 | |
| IW2NTF | 2026-08-31 12:49:11 | 47.20848 | 8.22122 | 148° | 47km/h | 31273m | 5.4m/s | -41.7°C | 2% | 0hPa | 2.6V | 08:30:00 | 02:23:05 | 00:00:00 | i |
| DN1GJH-1 | 2026-08-31 12:49:07 | 47.20866 | 8.22105 | 142° | 37km/h | 31265m | 3.7m/s | -41.6°C | 0.2% | 0hPa | 2.6V | 00:00:00 | 00:00:00 | 00:00:00 | |
| IW2NTF | 2026-08-31 12:49:01 | 47.20844 | 8.22036 | 68° | 24km/h | 31225m | 4.8m/s | -41.5°C | 1.9% | 0hPa | 2.6V | 08:30:00 | 02:22:55 | 00:00:00 | i |
| HASLITAL | 2026-08-31 12:48:53 | 47.20878 | 8.21979 | 111° | 27km/h | 31192m | 4.7m/s | -41.4°C | 0.2% | 0hPa | 2.5V | 00:00:00 | 00:00:00 | 00:00:00 | |
| IW2NTF | 2026-08-31 12:48:50 | 47.20871 | 8.21946 | 49° | 44km/h | 31173m | 6.9m/s | -41.4°C | 1.9% | 0hPa | 2.5V | 08:30:00 | 02:22:45 | 00:00:00 | i |
| DN1GJH-1 | 2026-08-31 12:48:46 | 47.20847 | 8.21913 | 49° | 37km/h | 31159m | 4.7m/s | -41.2°C | 0.2% | 0hPa | 2.5V | 00:00:00 | 00:00:00 | 00:00:00 | |
| OE5DXL-15 | 2026-08-31 12:48:42 | 47.20850 | 8.21864 | 139° | 35km/h | 31133m | 4.8m/s | -41.3°C | 1.9% | 0hPa | 2.5V | 00:00:00 | 00:00:00 | 00:00:00 | |
| DF7PN | 2026-08-31 12:48:41 | 47.20841 | 8.21794 | 37° | 47km/h | 31096m | 5.1m/s | 0°C | -1.0% | -1.0hPa | 2.5V | 00:00:00 | 00:00:00 | 00:00:00 | i |
| IW2NTF | 2026-08-31 12:48:41 | 47.20861 | 8.21845 | 114° | 31km/h | 31124m | 4.3m/s | -41.3°C | 1.9% | 0hPa | 2.6V | 08:30:00 | 02:22:35 | 00:00:00 | i |
| IW2NTF | 2026-08-31 12:48:30 | 47.20815 | 8.21747 | 98° | 26km/h | 31071m | 5.8m/s | -41.7°C | 1.9% | 0hPa | 2.5V | 08:30:00 | 02:22:25 | 00:00:00 | i |
| DN1GJH-1 | 2026-08-31 12:48:25 | 47.20827 | 8.21708 | 103° | 33km/h | 31053m | 4.6m/s | -41.8°C | 0.2% | 0hPa | 2.5V | 00:00:00 | 00:00:00 | 00:00:00 | |
| IW2NTF | 2026-08-31 12:48:20 | 47.20789 | 8.21635 | 36° | 49km/h | 31021m | 3.4m/s | -41.9°C | 2% | 0hPa | 2.5V | 08:30:00 | 02:22:15 | 00:00:00 | |
| IW2NTF | 2026-08-31 12:48:10 | 47.20782 | 8.21549 | 55° | 35km/h | 30971m | 6.5m/s | -41.7°C | 1.9% | 0hPa | 2.6V | 08:30:00 | 02:22:05 | 00:00:00 | i |
| DF7PN | 2026-08-31 12:48:09 | 47.20750 | 8.21514 | 32° | 37km/h | 30950m | 3.7m/s | 0°C | -1.0% | -1.0hPa | 2.5V | 00:00:00 | 00:00:00 | 00:00:00 | |
| DN1GJH-1 | 2026-08-31 12:48:06 | 47.20750 | 8.21514 | 33° | 38km/h | 30950m | 3.7m/s | -41.6°C | 0.3% | 0hPa | 2.5V | 00:00:00 | 00:00:00 | 00:00:00 | |
| IW2NTF | 2026-08-31 12:48:00 | 47.20749 | 8.21476 | 124° | 33km/h | 30921m | 3.9m/s | -41.5°C | 2% | 0hPa | 2.5V | 08:30:00 | 02:21:55 | 00:00:00 | i |
| DO3MHA-11 | 2026-08-31 12:47:53 | 47.20730 | 8.21388 | 42° | 31km/h | 30888m | 3.7m/s | -41.5°C | 1.9% | 0hPa | 2.5V | 00:00:00 | 02:21:48 | 08:30:00 | |
| IW2NTF | 2026-08-31 12:47:50 | 47.20716 | 8.21364 | 77° | 15km/h | 30875m | 5.7m/s | -41.7°C | 1.9% | 0hPa | 2.6V | 08:30:00 | 02:21:45 | 00:00:00 | i |
| DN1GJH-1 | 2026-08-31 12:47:45 | 47.20734 | 8.21340 | 137° | 35km/h | 30854m | 3.9m/s | -41.8°C | 0.3% | 0hPa | 2.6V | 00:00:00 | 00:00:00 | 00:00:00 | |
| IW2NTF | 2026-08-31 12:47:40 | 47.20730 | 8.21264 | 51° | 46km/h | 30824m | 4.1m/s | -41.9°C | 2% | 0hPa | 2.6V | 08:30:00 | 02:21:35 | 00:00:00 | i |
| DF7PN | 2026-08-31 12:47:38 | 47.20719 | 8.21240 | 62° | 33km/h | 30817m | 3.4m/s | 0°C | -1.0% | -1.0hPa | 2.5V | 00:00:00 | 00:00:00 | 00:00:00 | |
| IW2NTF | 2026-08-31 12:47:35 | 47.20744 | 8.21206 | 114° | 18km/h | 30780m | 4m/s | -41.7°C | 2% | 0hPa | 2.5V | 08:30:00 | 02:21:25 | 00:00:00 | i |
| DO3MHA-11 | 2026-08-31 12:47:34 | 47.20729 | 8.21215 | 172° | 20km/h | 30792m | 4.4m/s | -41.7°C | 2.0% | 0hPa | 2.6V | 00:00:00 | 02:21:28 | 00:00:00 | |
| HASLITAL | 2026-08-31 12:47:30 | 47.20741 | 8.21210 | 147° | 18km/h | 30784m | 3.4m/s | -41.7°C | 0.3% | 0hPa | 2.6V | 00:00:00 | 00:00:00 | 00:00:00 | |
| DN1GJH-1 | 2026-08-31 12:47:24 | 47.20728 | 8.21141 | 64° | 46km/h | 30756m | 4.2m/s | -41.7°C | 0.3% | 0hPa | 2.6V | 00:00:00 | 00:00:00 | 00:00:00 | |
| IW2NTF | 2026-08-31 12:47:20 | 47.20723 | 8.21097 | 183° | 15km/h | 30732m | 6m/s | -42°C | 2% | 0hPa | 2.6V | 08:30:00 | 02:21:15 | 00:00:00 | i |
| IW2NTF | 2026-08-31 12:47:15 | 47.20710 | 8.21022 | 72° | 44km/h | 30686m | 3.3m/s | -42°C | 1.9% | 0hPa | 2.6V | 08:30:00 | 02:21:05 | 00:00:00 | i |
| DO3MHA-11 | 2026-08-31 12:47:13 | 47.20726 | 8.21072 | 66° | 27km/h | 30699m | 5.7m/s | -42.0°C | 2.0% | 0hPa | 2.6V | 00:00:00 | 02:21:08 | 00:00:00 | |
| OE5DXL-15 | 2026-08-31 12:47:12 | 47.20720 | 8.21056 | 64° | 33km/h | 30694m | 5.2m/s | -42.0°C | 2.0% | 0hPa | 2.6V | 00:00:00 | 00:00:00 | 00:00:00 | |
| HASLITAL | 2026-08-31 12:47:09 | 47.20710 | 8.21022 | 74° | 44km/h | 30686m | 3.3m/s | -42.0°C | 0.3% | 0hPa | 2.6V | 00:00:00 | 00:00:00 | 00:00:00 | |
| DF7PN | 2026-08-31 12:47:07 | 47.20706 | 8.20992 | 244° | 7km/h | 30661m | 4.3m/s | 0°C | -1.0% | -1.0hPa | 2.6V | 00:00:00 | 00:00:00 | 00:00:00 | |
| DN1GJH-1 | 2026-08-31 12:47:04 | 47.20705 | 8.20992 | 246° | 9km/h | 30661m | 4.3m/s | -42.0°C | 0.3% | 0hPa | 2.6V | 00:00:00 | 00:00:00 | 00:00:00 | |
| DO3MHA-11 | 2026-08-31 12:47:03 | 47.20705 | 8.20995 | 8° | 22km/h | 30655m | 2.8m/s | -42.0°C | 2.0% | 0hPa | 2.6V | 00:00:00 | 02:20:58 | 00:00:00 | |
| IW2NTF | 2026-08-31 12:47:01 | 47.20692 | 8.20977 | 58° | 42km/h | 30641m | 6.3m/s | -42.1°C | 2% | 0hPa | 2.5V | 08:30:00 | 02:20:55 | 00:00:00 | i |
| IW2NTF | 2026-08-31 12:46:51 | 47.20654 | 8.20882 | 310° | 13km/h | 30593m | 2.2m/s | -42.7°C | 2.1% | 0hPa | 2.5V | 08:30:00 | 02:20:45 | 00:00:00 | i |
| LOEBOVI | 2026-08-31 12:46:51 | 47.20656 | 8.20877 | 283° | 15km/h | 30597m | 4.4m/s | -42.7°C | 0.3% | 0hPa | 2.6V | 00:00:00 | 00:00:00 | 00:00:00 | i |
| HASLITAL | 2026-08-31 12:46:50 | 47.20654 | 8.20882 | 311° | 15km/h | 30594m | 2.2m/s | -42.7°C | 0.3% | 0hPa | 2.6V | 00:00:00 | 00:00:00 | 00:00:00 | |
| DO3MHA-11 | 2026-08-31 12:46:49 | 47.20651 | 8.20884 | 352° | 44km/h | 30591m | 2.4m/s | -42.6°C | 2.1% | 0hPa | 2.6V | 00:00:00 | 02:20:44 | 00:00:00 | |
| DN1GJH-1 | 2026-08-31 12:46:43 | 47.20614 | 8.20832 | 59° | 68km/h | 30565m | 4.6m/s | -42.8°C | 0.3% | 0hPa | 2.6V | 00:00:00 | 00:00:00 | 00:00:00 | |
| IW2NTF | 2026-08-31 12:46:40 | 47.20590 | 8.20766 | 56° | 27km/h | 30551m | 4.9m/s | -42.9°C | 2.1% | 0hPa | 2.6V | 08:30:00 | 02:20:35 | 00:00:00 | i |
| DO3MHA-11 | 2026-08-31 12:46:38 | 47.20583 | 8.20760 | 326° | 38km/h | 30539m | 6.7m/s | -42.9°C | 2.1% | 0hPa | 2.6V | 00:00:00 | 02:20:33 | 00:00:00 | |
| DH7VM-15 | 2026-08-31 12:46:37 | 47.20583 | 8.20760 | 327° | 13km/h | 30539m | 6.7m/s | -42.9°C | 0.3% | 0hPa | 2.6V | 00:00:00 | 00:00:00 | 00:00:00 | |
| DF7PN | 2026-08-31 12:46:36 | 47.20577 | 8.20768 | 326° | 18km/h | 30529m | 3.0m/s | 0°C | -1.0% | -1.0hPa | 2.6V | 00:00:00 | 00:00:00 | 00:00:00 | |
| IW2NTF | 2026-08-31 12:46:30 | 47.20540 | 8.20714 | 68° | 66km/h | 30500m | 5.5m/s | -42.9°C | 2.1% | 0hPa | 2.6V | 08:30:00 | 02:20:25 | 00:00:00 | |
| HASLITAL | 2026-08-31 12:46:29 | 47.20540 | 8.20714 | 70° | 66km/h | 30500m | 5.5m/s | -42.9°C | 0.3% | 0hPa | 2.6V | 00:00:00 | 00:00:00 | 00:00:00 | |
| DO3MHA-11 | 2026-08-31 12:46:28 | 47.20532 | 8.20669 | 81° | 27km/h | 30492m | 3.1m/s | -42.8°C | 2.1% | 0hPa | 2.6V | 00:00:00 | 02:20:23 | 00:00:00 | |
| DO3MHA-12 | 2026-08-31 12:46:23 | 47.20522 | 8.20629 | 324° | 31km/h | 30467m | 5.4m/s | -42.7°C | 2.1% | 0hPa | 2.6V | 00:00:00 | 02:20:18 | 00:00:00 | |
| IW2NTF | 2026-08-31 12:46:20 | 47.20506 | 8.20638 | 6° | 24km/h | 30455m | 3.3m/s | -42.6°C | 2.1% | 0hPa | 2.6V | 08:30:00 | 02:20:15 | 00:00:00 | i |
| DO3MHA-11 | 2026-08-31 12:46:18 | 47.20493 | 8.20623 | 53° | 31km/h | 30446m | 5.9m/s | -42.7°C | 2.1% | 0hPa | 2.6V | 00:00:00 | 02:20:13 | 00:00:00 | |
| DH7VM-15 | 2026-08-31 12:46:17 | 47.20493 | 8.20623 | 54° | 44km/h | 30446m | 5.9m/s | -42.8°C | 0.3% | 0hPa | 2.6V | 00:00:00 | 00:00:00 | 00:00:00 | |
| IW2NTF | 2026-08-31 12:46:10 | 47.20462 | 8.20501 | 24° | 13km/h | 30404m | 6.4m/s | -42.6°C | 2.1% | 0hPa | 2.6V | 08:30:00 | 02:20:05 | 00:00:00 | |
| HASLITAL | 2026-08-31 12:46:08 | 47.20458 | 8.20501 | 341° | 20km/h | 30398m | 6.3m/s | -42.5°C | 0.3% | 0hPa | 2.5V | 00:00:00 | 00:00:00 | 00:00:00 | |
| DO3MHA-12 | 2026-08-31 12:46:07 | 47.20448 | 8.20510 | 333° | 38km/h | 30388m | 3.9m/s | -42.4°C | 2.1% | 0hPa | 2.5V | 00:00:00 | 02:20:02 | 00:00:00 | |
| IW2NTF | 2026-08-31 12:46:05 | 47.20404 | 8.20443 | 65° | 51km/h | 30355m | 3.6m/s | -42.4°C | 2% | 0hPa | 2.5V | 08:30:00 | 02:19:55 | 00:00:00 | i |
| DO3MHA-11 | 2026-08-31 12:46:05 | 47.20435 | 8.20510 | 23° | 38km/h | 30380m | 4.2m/s | -42.4°C | 2.1% | 0hPa | 2.5V | 00:00:00 | 02:20:00 | 00:00:00 | i |
| DN1GJH-1 | 2026-08-31 12:46:02 | 47.20421 | 8.20494 | 54° | 42km/h | 30370m | 5.5m/s | -42.4°C | 0.3% | 0hPa | 2.5V | 00:00:00 | 00:00:00 | 00:00:00 | |
| DO3MHA-11 | 2026-08-31 12:45:55 | 47.20380 | 8.20405 | 337° | 35km/h | 30329m | 6.4m/s | -42.4°C | 2.1% | 0hPa | 2.5V | 00:00:00 | 02:19:50 | 08:30:00 | |
| DO3MHA-12 | 2026-08-31 12:45:54 | 47.20375 | 8.20409 | 332° | 35km/h | 30323m | 4.8m/s | -42.4°C | 2.1% | 0hPa | 2.5V | 00:00:00 | 02:19:49 | 00:00:00 | |
| IW2NTF | 2026-08-31 12:45:50 | 47.20348 | 8.20409 | 39° | 31km/h | 30304m | 6.1m/s | -42.4°C | 2.1% | 0hPa | 2.5V | 08:30:00 | 02:19:45 | 00:00:00 | i |
| HASLITAL | 2026-08-31 12:45:48 | 47.20342 | 8.20398 | 55° | 42km/h | 30299m | 5.9m/s | -42.5°C | 0.3% | 0hPa | 2.5V | 00:00:00 | 00:00:00 | 00:00:00 | |
| IW2NTF | 2026-08-31 12:45:45 | 47.20285 | 8.20333 | 333° | 29km/h | 30253m | 4.2m/s | -42.4°C | 2% | 0hPa | 2.5V | 08:30:00 | 02:19:35 | 00:00:00 | i |
| DO3MHA-11 | 2026-08-31 12:45:45 | 47.20317 | 8.20341 | 54° | 27km/h | 30280m | 4.6m/s | -42.3°C | 2.0% | 0hPa | 2.6V | 00:00:00 | 02:19:40 | 00:00:00 | i |
| OE5DXL-15 | 2026-08-31 12:45:42 | 47.20297 | 8.20326 | 350° | 27km/h | 30263m | 5.9m/s | -42.3°C | 2.1% | 0hPa | 2.6V | 00:00:00 | 00:00:00 | 00:00:00 | |
| DO3MHA-12 | 2026-08-31 12:45:40 | 47.20284 | 8.20333 | 334° | 27km/h | 30253m | 4.2m/s | -42.3°C | 2.0% | 0hPa | 2.6V | 00:00:00 | 02:19:35 | 00:00:00 | |
| IW2NTF | 2026-08-31 12:45:35 | 47.20240 | 8.20259 | 43° | 24km/h | 30201m | 5.6m/s | -42.2°C | 2% | 0hPa | 2.6V | 08:30:00 | 02:19:25 | 00:00:00 | i |
| DO3MHA-11 | 2026-08-31 12:45:35 | 47.20259 | 8.20322 | 63° | 26km/h | 30227m | 5.7m/s | -42.2°C | 2.0% | 0hPa | 2.6V | 00:00:00 | 02:19:30 | 00:00:00 | i |
| DO3MHA-12 | 2026-08-31 12:45:29 | 47.20235 | 8.20254 | 22° | 26km/h | 30195m | 5.9m/s | -42.3°C | 2.0% | 0hPa | 2.6V | 00:00:00 | 02:19:24 | 00:00:00 | |
| LOEBOVI | 2026-08-31 12:45:28 | 47.20235 | 8.20254 | 23° | 22km/h | 30195m | 6.0m/s | -42.3°C | 0.3% | 0hPa | 2.6V | 00:00:00 | 00:00:00 | 00:00:00 | |
| HASLITAL | 2026-08-31 12:45:27 | 47.20229 | 8.20253 | 355° | 26km/h | 30190m | 5.7m/s | -42.4°C | 0.3% | 0hPa | 2.6V | 00:00:00 | 00:00:00 | 00:00:00 | |
| IW2NTF | 2026-08-31 12:45:26 | 47.20195 | 8.20233 | 78° | 40km/h | 30146m | 6.1m/s | -42.4°C | 2% | 0hPa | 2.6V | 08:30:00 | 02:19:15 | 00:00:00 | i |
| DO3MHA-11 | 2026-08-31 12:45:24 | 47.20207 | 8.20265 | 7° | 27km/h | 30170m | 5.1m/s | -42.3°C | 2.1% | 0hPa | 2.6V | 00:00:00 | 02:19:19 | 00:00:00 | |
| DN1GJH-1 | 2026-08-31 12:45:22 | 47.20203 | 8.20263 | 35° | 18km/h | 30165m | 5.5m/s | -42.3°C | 0.3% | 0hPa | 2.6V | 00:00:00 | 00:00:00 | 00:00:00 | |
| DO3MHA-12 | 2026-08-31 12:45:17 | 47.20191 | 8.20194 | 77° | 24km/h | 30132m | 5.3m/s | -42.3°C | 2.0% | 0hPa | 2.6V | 00:00:00 | 02:19:12 | 00:00:00 | |
| DO3MHA-11 | 2026-08-31 12:45:14 | 47.20181 | 8.20182 | 346° | 26km/h | 30114m | 5.6m/s | -42.2°C | 2.0% | 0hPa | 2.6V | 00:00:00 | 02:19:09 | 00:00:00 | |
| OE5DXL-15 | 2026-08-31 12:45:11 | 47.20168 | 8.20188 | 354° | 24km/h | 30100m | 4.4m/s | -42.2°C | 2.0% | 0hPa | 2.6V | 00:00:00 | 00:00:00 | 08:30:00 | |
| IW2NTF | 2026-08-31 12:45:11 | 47.20164 | 8.20187 | 33° | 13km/h | 30095m | 5.3m/s | -42.2°C | 2% | 0hPa | 2.5V | 08:30:00 | 02:19:05 | 00:00:00 | |
| DO3MHA-12 | 2026-08-31 12:45:06 | 47.20161 | 8.20147 | 100° | 24km/h | 30073m | 5.3m/s | -42.3°C | 2.1% | 0hPa | 2.6V | 00:00:00 | 02:19:01 | 00:00:00 | i |
| IW2NTF | 2026-08-31 12:45:05 | 47.20155 | 8.20103 | 344° | 22km/h | 30041m | 6.2m/s | -42.3°C | 2% | 0hPa | 2.6V | 08:30:00 | 02:18:55 | 00:00:00 | |
| DL6DJ-15 | 2026-08-31 12:45:04 | 47.20126 | 8.20096 | 82° | 27km/h | 30009m | 5.9m/s | -42.4°C | -1.0% | -1.0hPa | 2.6V | 00:00:00 | 00:00:00 | 00:00:00 | |
| DO3MHA-12 | 2026-08-31 12:44:56 | 47.20132 | 8.20108 | 22° | 22km/h | 30021m | 5.4m/s | -42.3°C | 2.0% | 0hPa | 2.6V | 00:00:00 | 02:18:51 | 00:00:00 | |
| IW2NTF | 2026-08-31 12:44:55 | 47.20129 | 8.20053 | 103° | 22km/h | 29989m | 4.9m/s | -42.5°C | 2.1% | 0hPa | 2.6V | 08:30:00 | 02:18:45 | 00:00:00 | i |
| DO3MHA-11 | 2026-08-31 12:44:54 | 47.20126 | 8.20095 | 83° | 24km/h | 30009m | 5.9m/s | -42.3°C | 2.0% | 0hPa | 2.6V | 00:00:00 | 02:18:49 | 00:00:00 | |
| DO3MHA-12 | 2026-08-31 12:44:46 | 47.20121 | 8.20050 | 336° | 27km/h | 29965m | 6.0m/s | -42.6°C | 2.1% | 0hPa | 2.5V | 00:00:00 | 02:18:41 | 08:30:00 | |
| IW2NTF | 2026-08-31 12:44:44 | 47.20090 | 8.20034 | 83° | 29km/h | 29933m | 5.1m/s | -42.5°C | 2% | 0hPa | 2.5V | 08:30:00 | 02:18:35 | 00:00:00 | i |
| DO3MHA-11 | 2026-08-31 12:44:44 | 47.20108 | 8.20056 | 350° | 26km/h | 29955m | 4.8m/s | -42.5°C | 2.0% | 0hPa | 2.6V | 00:00:00 | 02:18:39 | 00:00:00 | i |
| OE5DXL-15 | 2026-08-31 12:44:42 | 47.20096 | 8.20052 | 44° | 24km/h | 29944m | 5.5m/s | -42.5°C | 2.0% | 0hPa | 2.6V | 00:00:00 | 00:00:00 | 00:00:00 | |
| DN1GJH-1 | 2026-08-31 12:44:41 | 47.20096 | 8.20052 | 44° | 26km/h | 29944m | 5.5m/s | -42.6°C | 0.3% | 0hPa | 2.6V | 00:00:00 | 00:00:00 | 00:00:00 | |
| DO3MHA-12 | 2026-08-31 12:44:36 | 47.20096 | 8.19991 | 124° | 20km/h | 29914m | 5.7m/s | -42.5°C | 2.1% | 0hPa | 2.6V | 00:00:00 | 02:18:31 | 00:00:00 | |
| IW2NTF | 2026-08-31 12:44:34 | 47.20081 | 8.19994 | 5° | 26km/h | 29881m | 5.1m/s | -42.6°C | 2% | 0hPa | 2.6V | 08:30:00 | 02:18:25 | 00:00:00 | i |
| DO3MHA-11 | 2026-08-31 12:44:34 | 47.20098 | 8.19986 | 358° | 24km/h | 29902m | 6.4m/s | -42.5°C | 2.1% | 0hPa | 2.5V | 00:00:00 | 02:18:29 | 00:00:00 | i |
| DO3MHA-12 | 2026-08-31 12:44:26 | 47.20066 | 8.19966 | 83° | 22km/h | 29858m | 5.4m/s | -42.6°C | 2.0% | 0hPa | 2.5V | 00:00:00 | 02:18:21 | 00:00:00 | |
| IW2NTF | 2026-08-31 12:44:25 | 47.20067 | 8.19924 | 330° | 11km/h | 29827m | 5.6m/s | -42.8°C | 2% | 0hPa | 2.5V | 08:30:00 | 02:18:15 | 00:00:00 | i |
| DO3MHA-11 | 2026-08-31 12:44:24 | 47.20067 | 8.19942 | 105° | 20km/h | 29849m | 3.2m/s | -42.6°C | 2.0% | 0hPa | 2.6V | 00:00:00 | 02:18:19 | 08:30:00 | |
| DN1GJH-1 | 2026-08-31 12:44:20 | 47.20068 | 8.19923 | 21° | 4km/h | 29833m | 6.4m/s | -42.8°C | 0.3% | 0hPa | 2.5V | 00:00:00 | 00:00:00 | 00:00:00 | |
| DO3MHA-12 | 2026-08-31 12:44:16 | 47.20047 | 8.19939 | 359° | 22km/h | 29808m | 5.3m/s | -43.0°C | 2.1% | 0hPa | 2.5V | 00:00:00 | 02:18:11 | 00:00:00 | |
| DO3MHA-11 | 2026-08-31 12:44:14 | 47.20038 | 8.19934 | 50° | 24km/h | 29796m | 6.3m/s | -43.2°C | 2.1% | 0hPa | 2.5V | 00:00:00 | 02:18:09 | 00:00:00 | |
| IW2NTF | 2026-08-31 12:44:13 | 47.20034 | 8.19894 | 89° | 24km/h | 29775m | 4m/s | -43.3°C | 2.1% | 0hPa | 2.5V | 08:30:00 | 02:18:05 | 00:00:00 | i |
| OE5DXL-15 | 2026-08-31 12:44:12 | 47.20035 | 8.19916 | 86° | 22km/h | 29784m | 5.3m/s | -43.3°C | 2.1% | 0hPa | 2.5V | 00:00:00 | 00:00:00 | 00:00:00 | |
| LOEBOVI | 2026-08-31 12:44:07 | 47.20032 | 8.19881 | 36° | 15km/h | 29765m | 5.7m/s | -43.4°C | 0.3% | 0hPa | 2.5V | 00:00:00 | 00:00:00 | 00:00:00 | |
| DO3MHA-12 | 2026-08-31 12:44:06 | 47.20023 | 8.19883 | 328° | 26km/h | 29753m | 5.5m/s | -43.4°C | 2.1% | 0hPa | 2.5V | 00:00:00 | 02:18:01 | 00:00:00 | |
| HASLITAL | 2026-08-31 12:44:05 | 47.20024 | 8.19883 | 329° | 22km/h | 29753m | 5.5m/s | -43.4°C | 0.3% | 0hPa | 2.5V | 00:00:00 | 00:00:00 | 00:00:00 | |
| DO3MHA-11 | 2026-08-31 12:44:04 | 47.20012 | 8.19895 | 325° | 26km/h | 29744m | 3.3m/s | -43.4°C | 2.1% | 0hPa | 2.5V | 00:00:00 | 02:17:59 | 00:00:00 | |
| IW2NTF | 2026-08-31 12:44:03 | 47.19994 | 8.19898 | 61° | 18km/h | 29723m | 6.3m/s | -43.6°C | 2.2% | 0hPa | 2.5V | 08:30:00 | 02:17:55 | 00:00:00 | i |
| DN1GJH-1 | 2026-08-31 12:44:00 | 47.19997 | 8.19903 | 29° | 16km/h | 29730m | 6.1m/s | -43.5°C | 0.3% | 0hPa | 2.6V | 00:00:00 | 00:00:00 | 00:00:00 | |
| DO3MHA-12 | 2026-08-31 12:43:56 | 47.19990 | 8.19854 | 85° | 15km/h | 29702m | 4.6m/s | -43.6°C | 2.1% | 0hPa | 2.6V | 00:00:00 | 02:17:51 | 00:00:00 | |
| DO3MHA-11 | 2026-08-31 12:43:54 | 47.19987 | 8.19840 | 39° | 15km/h | 29692m | 4.9m/s | -43.7°C | 2.1% | 0hPa | 2.6V | 00:00:00 | 02:17:49 | 00:00:00 | |
| IW2NTF | 2026-08-31 12:43:53 | 47.19976 | 8.19853 | 295° | 20km/h | 29673m | 3.4m/s | -43.8°C | 2.2% | 0hPa | 2.6V | 08:30:00 | 02:17:45 | 00:00:00 | i |
| DO3MHA-12 | 2026-08-31 12:43:46 | 47.19977 | 8.19857 | 115° | 24km/h | 29654m | 5.3m/s | -43.8°C | 2.2% | 0hPa | 2.5V | 00:00:00 | 02:17:41 | 00:00:00 | |
| HASLITAL | 2026-08-31 12:43:45 | 47.19979 | 8.19849 | 110° | 27km/h | 29648m | 5.1m/s | -43.9°C | 0.3% | 0hPa | 2.5V | 00:00:00 | 00:00:00 | 00:00:00 | |
| DH7VM-15 | 2026-08-31 12:43:42 | 47.19981 | 8.19827 | 87° | 27km/h | 29640m | 3.5m/s | -43.9°C | 0.3% | 0hPa | 2.5V | 00:00:00 | 00:00:00 | 00:00:00 | |
| IW2NTF | 2026-08-31 12:43:41 | 47.19975 | 8.19805 | 17° | 20km/h | 29624m | 6.3m/s | -43.9°C | 2.2% | 0hPa | 2.5V | 08:30:00 | 02:17:35 | 00:00:00 | i |
| DN1GJH-1 | 2026-08-31 12:43:39 | 47.19975 | 8.19805 | 18° | 20km/h | 29625m | 6.3m/s | -43.9°C | 0.3% | 0hPa | 2.5V | 00:00:00 | 00:00:00 | 00:00:00 | |
| DO3MHA-12 | 2026-08-31 12:43:36 | 47.19956 | 8.19819 | 309° | 20km/h | 29606m | 3.5m/s | -44.0°C | 2.2% | 0hPa | 2.5V | 00:00:00 | 02:17:31 | 00:00:00 | |
| DO3MHA-11 | 2026-08-31 12:43:34 | 47.19955 | 8.19824 | 133° | 24km/h | 29595m | 6.0m/s | -44.1°C | 2.2% | 0hPa | 2.5V | 00:00:00 | 02:17:29 | 00:00:00 | |
| IW2NTF | 2026-08-31 12:43:31 | 47.19962 | 8.19795 | 94° | 33km/h | 29573m | 4.1m/s | -44.2°C | 2.2% | 0hPa | 2.5V | 08:30:00 | 02:17:25 | 00:00:00 | i |
| DO3MHA-12 | 2026-08-31 12:43:26 | 47.19951 | 8.19766 | 6° | 22km/h | 29555m | 5.3m/s | -44.3°C | 2.2% | 0hPa | 2.6V | 00:00:00 | 02:17:21 | 00:00:00 | |
| IW2NTF | 2026-08-31 12:43:24 | 47.19923 | 8.19781 | 88° | 9km/h | 29529m | 5.7m/s | -44.6°C | 2.2% | 0hPa | 2.6V | 08:30:00 | 02:17:15 | 00:00:00 | i |
| DO3MHA-11 | 2026-08-31 12:43:24 | 47.19938 | 8.19771 | 338° | 22km/h | 29545m | 3.6m/s | -44.4°C | 2.2% | 0hPa | 2.5V | 00:00:00 | 02:17:19 | 00:00:00 | i |
| HASLITAL | 2026-08-31 12:43:23 | 47.19938 | 8.19771 | 339° | 29km/h | 29545m | 3.7m/s | -44.4°C | 0.3% | 0hPa | 2.6V | 00:00:00 | 00:00:00 | 00:00:00 | |
| DN1GJH-1 | 2026-08-31 12:43:19 | 47.19923 | 8.19780 | 89° | 9km/h | 29530m | 5.7m/s | -44.6°C | 0.4% | 0hPa | 2.6V | 00:00:00 | 00:00:00 | 00:00:00 | |
| DO3MHA-12 | 2026-08-31 12:43:16 | 47.19933 | 8.19747 | 107° | 20km/h | 29509m | 3.3m/s | -44.6°C | 2.2% | 0hPa | 2.6V | 00:00:00 | 02:17:11 | 08:30:00 | |
| IW2NTF | 2026-08-31 12:43:14 | 47.19920 | 8.19727 | 343° | 22km/h | 29480m | 3.7m/s | -44.9°C | 2.2% | 0hPa | 2.6V | 08:30:00 | 02:17:05 | 00:00:00 | i |
| DO3MHA-11 | 2026-08-31 12:43:14 | 47.19935 | 8.19729 | 88° | 18km/h | 29500m | 4.5m/s | -44.7°C | 2.3% | 0hPa | 2.5V | 00:00:00 | 02:17:09 | 00:00:00 | i |
| OE5DXL-15 | 2026-08-31 12:43:12 | 47.19930 | 8.19723 | 357° | 22km/h | 29490m | 5.5m/s | -44.7°C | 2.3% | 0hPa | 2.5V | 00:00:00 | 00:00:00 | 00:00:00 | |
| DO3MHA-12 | 2026-08-31 12:43:06 | 47.19907 | 8.19724 | 93° | 24km/h | 29462m | 5.8m/s | -45.0°C | 2.2% | 0hPa | 2.5V | 00:00:00 | 02:17:01 | 00:00:00 | |
| HASLITAL | 2026-08-31 12:43:04 | 47.19912 | 8.19707 | 123° | 35km/h | 29451m | 5.4m/s | -45.1°C | 0.4% | 0hPa | 2.5V | 00:00:00 | 00:00:00 | 00:00:00 | i |
| IW2NTF | 2026-08-31 12:43:03 | 47.19930 | 8.19671 | 122° | 15km/h | 29434m | 4.9m/s | -45.2°C | 2.3% | 0hPa | 2.5V | 08:30:00 | 02:16:55 | 00:00:00 | |
| DL6DJ-15 | 2026-08-31 12:42:59 | 47.19926 | 8.19670 | 334° | 16km/h | 29418m | 4.8m/s | -45.3°C | -1.0% | -1.0hPa | 2.5V | 00:00:00 | 00:00:00 | 00:00:00 | |
| DN1GJH-1 | 2026-08-31 12:42:58 | 47.19930 | 8.19668 | 62° | 4km/h | 29429m | 5.7m/s | -45.2°C | 0.4% | 0hPa | 2.5V | 00:00:00 | 00:00:00 | 00:00:00 | |
| DO3MHA-12 | 2026-08-31 12:42:56 | 47.19921 | 8.19673 | 347° | 26km/h | 29414m | 3.9m/s | -45.3°C | 2.3% | 0hPa | 2.5V | 00:00:00 | 02:16:51 | 00:00:00 | |
| IW2NTF | 2026-08-31 12:42:55 | 47.19912 | 8.19638 | 110° | 38km/h | 29386m | 4.5m/s | -45.5°C | 2.3% | 0hPa | 2.5V | 08:30:00 | 02:16:45 | 00:00:00 | i |
| DO3MHA-11 | 2026-08-31 12:42:54 | 47.19912 | 8.19673 | 26° | 24km/h | 29406m | 4.9m/s | -45.3°C | 2.3% | 0hPa | 2.6V | 00:00:00 | 02:16:49 | 08:30:00 | |
| DO3MHA-12 | 2026-08-31 12:42:46 | 47.19921 | 8.19600 | 72° | 26km/h | 29371m | 4.9m/s | -45.4°C | 2.3% | 0hPa | 2.6V | 00:00:00 | 02:16:41 | 00:00:00 | |
| DO3MHA-11 | 2026-08-31 12:42:44 | 47.19915 | 8.19598 | 350° | 27km/h | 29360m | 5.3m/s | -45.4°C | 2.3% | 0hPa | 2.6V | 00:00:00 | 02:16:39 | 00:00:00 | |
| HASLITAL | 2026-08-31 12:42:42 | 47.19909 | 8.19599 | 356° | 27km/h | 29356m | 4.4m/s | -45.5°C | 0.4% | 0hPa | 2.6V | 00:00:00 | 00:00:00 | 00:00:00 | |
| IW2NTF | 2026-08-31 12:42:40 | 47.19888 | 8.19596 | 34° | 26km/h | 29343m | 5m/s | -45.5°C | 2.3% | 0hPa | 2.6V | 08:30:00 | 02:16:35 | 00:00:00 | i |
| DN1GJH-1 | 2026-08-31 12:42:38 | 47.19884 | 8.19590 | 58° | 26km/h | 29339m | 5.3m/s | -45.6°C | 0.4% | 0hPa | 2.6V | 00:00:00 | 00:00:00 | 00:00:00 | |
| LOEBOVI | 2026-08-31 12:42:36 | 47.19882 | 8.19570 | 105° | 33km/h | 29328m | 5.4m/s | -45.7°C | 0.3% | 0hPa | 2.6V | 00:00:00 | 00:00:00 | 00:00:00 | |
| DO3MHA-12 | 2026-08-31 12:42:35 | 47.19888 | 8.19548 | 121° | 20km/h | 29320m | 3.7m/s | -45.6°C | 2.3% | 0hPa | 2.6V | 00:00:00 | 02:16:30 | 00:00:00 | |
| DO3MHA-11 | 2026-08-31 12:42:34 | 47.19892 | 8.19541 | 134° | 18km/h | 29316m | 4.4m/s | -45.6°C | 2.3% | 0hPa | 2.6V | 00:00:00 | 02:16:29 | 00:00:00 | |
| IW2NTF | 2026-08-31 12:42:31 | 47.19891 | 8.19545 | 320° | 20km/h | 29295m | 5.3m/s | -45.9°C | 2.3% | 0hPa | 2.6V | 08:30:00 | 02:16:25 | 00:00:00 | i |
| IW2NTF | 2026-08-31 12:42:25 | 47.19862 | 8.19504 | 94° | 9km/h | 29249m | 5.1m/s | -46.4°C | 2.4% | 0hPa | 2.5V | 08:30:00 | 02:16:15 | 00:00:00 | i |
| DO3MHA-12 | 2026-08-31 12:42:25 | 47.19865 | 8.19544 | 55° | 18km/h | 29271m | 4.4m/s | -46.1°C | 2.4% | 0hPa | 2.6V | 00:00:00 | 02:16:20 | 00:00:00 | i |
| DO3MHA-11 | 2026-08-31 12:42:24 | 47.19863 | 8.19536 | 79° | 18km/h | 29267m | 4.7m/s | -46.2°C | 2.4% | 0hPa | 2.6V | 00:00:00 | 02:16:19 | 00:00:00 | |
| HASLITAL | 2026-08-31 12:42:22 | 47.19862 | 8.19525 | 86° | 29km/h | 29262m | 4.3m/s | -46.3°C | 0.4% | 0hPa | 2.5V | 00:00:00 | 00:00:00 | 00:00:00 | |
| DN1GJH-1 | 2026-08-31 12:42:18 | 47.19860 | 8.19506 | 295° | 15km/h | 29239m | 5.2m/s | -46.4°C | 0.4% | 0hPa | 2.5V | 00:00:00 | 00:00:00 | 00:00:00 | |
| IW2NTF | 2026-08-31 12:42:15 | 47.19840 | 8.19501 | 82° | 37km/h | 29202m | 4.9m/s | -46.5°C | 2.5% | 0hPa | 2.5V | 08:30:00 | 02:16:05 | 00:00:00 | |
| DO3MHA-12 | 2026-08-31 12:42:15 | 47.19851 | 8.19523 | 315° | 24km/h | 29227m | 3.0m/s | -46.4°C | 2.4% | 0hPa | 2.5V | 00:00:00 | 02:16:10 | 00:00:00 | |
| DO3MHA-11 | 2026-08-31 12:42:14 | 47.19848 | 8.19527 | 344° | 22km/h | 29223m | 4.6m/s | -46.4°C | 2.5% | 0hPa | 2.5V | 00:00:00 | 02:16:09 | 00:00:00 | |
| OE5DXL-15 | 2026-08-31 12:42:11 | 47.19841 | 8.19513 | 82° | 22km/h | 29207m | 5.2m/s | -46.5°C | 2.5% | 0hPa | 2.5V | 00:00:00 | 00:00:00 | 00:00:00 | |
| IW2NTF | 2026-08-31 12:42:05 | 47.19812 | 8.19483 | 353° | 9km/h | 29157m | 5m/s | -46.6°C | 2.5% | 0hPa | 2.5V | 08:30:00 | 02:15:55 | 00:00:00 | i |
| DO3MHA-11 | 2026-08-31 12:42:04 | 47.19825 | 8.19464 | 328° | 20km/h | 29175m | 5.0m/s | -46.5°C | 2.5% | 0hPa | 2.6V | 00:00:00 | 02:15:59 | 00:00:00 | |
| DL6DJ-15 | 2026-08-31 12:41:57 | 47.19784 | 8.19435 | 308° | 26km/h | 29104m | 3.9m/s | -46.8°C | -1.0% | -1.0hPa | 2.6V | 00:00:00 | 00:00:00 | 00:00:00 | |
| IW2NTF | 2026-08-31 12:41:55 | 47.19789 | 8.19428 | 323° | 29km/h | 29109m | 5.3m/s | -46.8°C | 2.5% | 0hPa | 2.6V | 08:30:00 | 02:15:45 | 00:00:00 | i |
| DO3MHA-11 | 2026-08-31 12:41:54 | 47.19807 | 8.19433 | 65° | 18km/h | 29130m | 4.1m/s | -46.7°C | 2.5% | 0hPa | 2.5V | 00:00:00 | 02:15:49 | 00:00:00 | |
| IW2NTF | 2026-08-31 12:41:45 | 47.19777 | 8.19406 | 51° | 16km/h | 29063m | 5m/s | -46.7°C | 2.5% | 0hPa | 2.6V | 08:30:00 | 02:15:35 | 00:00:00 | i |
| DO3MHA-11 | 2026-08-31 12:41:44 | 47.19776 | 8.19439 | 100° | 24km/h | 29081m | 4.8m/s | -46.8°C | 2.5% | 0hPa | 2.6V | 00:00:00 | 02:15:39 | 00:00:00 | |
| OE5DXL-15 | 2026-08-31 12:41:41 | 47.19779 | 8.19412 | 80° | 22km/h | 29068m | 4.3m/s | -46.7°C | 2.5% | 0hPa | 2.6V | 00:00:00 | 00:00:00 | 00:00:00 | |
| DN1GJH-1 | 2026-08-31 12:41:36 | 47.19764 | 8.19403 | 341° | 29km/h | 29047m | 5.4m/s | -46.8°C | 0.4% | 0hPa | 2.6V | 00:00:00 | 00:00:00 | 00:00:00 | |
| IW2NTF | 2026-08-31 12:41:35 | 47.19731 | 8.19399 | 83° | 22km/h | 29013m | 5.1m/s | -46.7°C | 2.5% | 0hPa | 2.6V | 08:30:00 | 02:15:25 | 00:00:00 | i |
| DO3MHA-11 | 2026-08-31 12:41:34 | 47.19743 | 8.19414 | 350° | 20km/h | 29034m | 4.8m/s | -46.7°C | 2.5% | 0hPa | 2.5V | 00:00:00 | 02:15:29 | 00:00:00 | |
| DO3MHA-12 | 2026-08-31 12:41:32 | 47.19734 | 8.19412 | 48° | 22km/h | 29024m | 5.6m/s | -46.7°C | 2.5% | 0hPa | 2.5V | 00:00:00 | 02:15:27 | 00:00:00 | |
| IW2NTF | 2026-08-31 12:41:25 | 47.19686 | 8.19377 | 7° | 24km/h | 28968m | 5m/s | -46.7°C | 2.5% | 0hPa | 2.5V | 08:30:00 | 02:15:15 | 00:00:00 | i |
| DO3MHA-11 | 2026-08-31 12:41:24 | 47.19716 | 8.19370 | 348° | 26km/h | 28985m | 4.8m/s | -46.8°C | 2.6% | 0hPa | 2.6V | 00:00:00 | 02:15:19 | 08:30:00 | |
| DO3MHA-12 | 2026-08-31 12:41:22 | 47.19701 | 8.19376 | 351° | 22km/h | 28976m | 2.9m/s | -46.8°C | 2.5% | 0hPa | 2.5V | 00:00:00 | 02:15:17 | 00:00:00 | |
| HASLITAL | 2026-08-31 12:41:20 | 47.19693 | 8.19377 | 357° | 33km/h | 28973m | 4.1m/s | -46.8°C | 0.4% | 0hPa | 2.5V | 00:00:00 | 00:00:00 | 00:00:00 | |
| DN1GJH-1 | 2026-08-31 12:41:16 | 47.19676 | 8.19360 | 92° | 22km/h | 28953m | 5.0m/s | -46.8°C | 0.4% | 0hPa | 2.5V | 00:00:00 | 00:00:00 | 00:00:00 | |
| IW2NTF | 2026-08-31 12:41:15 | 47.19674 | 8.19346 | 325° | 27km/h | 28918m | 5.1m/s | -47°C | 2.5% | 0hPa | 2.5V | 08:30:00 | 02:15:05 | 00:00:00 | i |
| DO3MHA-11 | 2026-08-31 12:41:14 | 47.19681 | 8.19339 | 127° | 24km/h | 28940m | 4.7m/s | -46.8°C | 2.5% | 0hPa | 2.6V | 00:00:00 | 02:15:09 | 00:00:00 | |
| DO3MHA-12 | 2026-08-31 12:41:12 | 47.19682 | 8.19338 | 325° | 13km/h | 28929m | 5.4m/s | -46.9°C | 2.5% | 0hPa | 2.6V | 00:00:00 | 02:15:07 | 00:00:00 | |
| OE5DXL-15 | 2026-08-31 12:41:11 | 47.19679 | 8.19341 | 322° | 24km/h | 28924m | 5.4m/s | -46.9°C | 2.5% | 0hPa | 2.5V | 00:00:00 | 00:00:00 | 00:00:00 | |
| IW2NTF | 2026-08-31 12:41:05 | 47.19637 | 8.19297 | 113° | 9km/h | 28871m | 4.7m/s | -47.1°C | 2.5% | 0hPa | 2.5V | 08:30:00 | 02:14:55 | 00:00:00 | i |
| DO3MHA-11 | 2026-08-31 12:41:04 | 47.19635 | 8.19332 | 75° | 24km/h | 28889m | 5.1m/s | -47.0°C | 2.5% | 0hPa | 2.6V | 00:00:00 | 02:14:59 | 00:00:00 | |
| HASLITAL | 2026-08-31 12:41:00 | 47.19636 | 8.19302 | 106° | 16km/h | 28876m | 4.3m/s | -47.0°C | 0.4% | 0hPa | 2.6V | 00:00:00 | 00:00:00 | 00:00:00 | |
| DO3MHA-12 | 2026-08-31 12:40:57 | 47.19630 | 8.19304 | 321° | 27km/h | 28855m | 5.5m/s | -47.1°C | 2.5% | 0hPa | 2.6V | 00:00:00 | 02:14:52 | 00:00:00 | |
| IW2NTF | 2026-08-31 12:40:55 | 47.19589 | 8.19290 | 83° | 33km/h | 28818m | 5.8m/s | -47.3°C | 2.6% | 0hPa | 2.6V | 08:30:00 | 02:14:45 | 00:00:00 | |
| DN1GJH-1 | 2026-08-31 12:40:55 | 47.19623 | 8.19310 | 335° | 31km/h | 28850m | 4.5m/s | -47.2°C | 0.4% | 0hPa | 2.5V | 00:00:00 | 00:00:00 | 00:00:00 | |
| DO3MHA-11 | 2026-08-31 12:40:54 | 47.19608 | 8.19317 | 355° | 24km/h | 28841m | 5.2m/s | -47.1°C | 2.6% | 0hPa | 2.5V | 00:00:00 | 02:14:49 | 00:00:00 | |
| DO3MHA-12 | 2026-08-31 12:40:47 | 47.19591 | 8.19262 | 114° | 15km/h | 28803m | 5.0m/s | -47.3°C | 2.6% | 0hPa | 2.6V | 00:00:00 | 02:14:42 | 00:00:00 | |
| IW2NTF | 2026-08-31 12:40:46 | 47.19575 | 8.19277 | 15° | 18km/h | 28768m | 5.2m/s | -47.5°C | 2.6% | 0hPa | 2.6V | 08:30:00 | 02:14:35 | 00:00:00 | i |
| DO3MHA-11 | 2026-08-31 12:40:44 | 47.19591 | 8.19262 | 299° | 22km/h | 28788m | 4.8m/s | -47.4°C | 2.6% | 0hPa | 2.6V | 00:00:00 | 02:14:39 | 00:00:00 | |
| OE5DXL-15 | 2026-08-31 12:40:41 | 47.19579 | 8.19276 | 337° | 15km/h | 28774m | 5.2m/s | -47.4°C | 2.6% | 0hPa | 2.6V | 00:00:00 | 00:00:00 | 08:30:00 | |
| HASLITAL | 2026-08-31 12:40:40 | 47.19579 | 8.19276 | 338° | 18km/h | 28774m | 5.3m/s | -47.4°C | 0.5% | 0hPa | 2.5V | 00:00:00 | 00:00:00 | 00:00:00 | |
| DO3MHA-12 | 2026-08-31 12:40:37 | 47.19567 | 8.19259 | 82° | 16km/h | 28753m | 5.5m/s | -47.5°C | 2.6% | 0hPa | 2.5V | 00:00:00 | 02:14:32 | 00:00:00 | |
| IW2NTF | 2026-08-31 12:40:35 | 47.19568 | 8.19229 | 281° | 13km/h | 28715m | 5.4m/s | -47.5°C | 2.6% | 0hPa | 2.6V | 08:30:00 | 02:14:25 | 00:00:00 | i |
| DO3MHA-11 | 2026-08-31 12:40:34 | 47.19567 | 8.19230 | 102° | 9km/h | 28738m | 5.1m/s | -47.5°C | 2.6% | 0hPa | 2.6V | 00:00:00 | 02:14:29 | 00:00:00 | |
| DO3MHA-12 | 2026-08-31 12:40:27 | 47.19566 | 8.19239 | 17° | 15km/h | 28701m | 5.6m/s | -47.5°C | 2.6% | 0hPa | 2.6V | 00:00:00 | 02:14:22 | 00:00:00 | |
| IW2NTF | 2026-08-31 12:40:25 | 47.19559 | 8.19200 | 36° | 13km/h | 28666m | 5.7m/s | -47.6°C | 2.6% | 0hPa | 2.6V | 08:30:00 | 02:14:15 | 00:00:00 | i |
| DO3MHA-11 | 2026-08-31 12:40:24 | 47.19564 | 8.19227 | 83° | 15km/h | 28685m | 5.0m/s | -47.6°C | 2.6% | 0hPa | 2.6V | 00:00:00 | 02:14:19 | 00:00:00 | |
| HASLITAL | 2026-08-31 12:40:19 | 47.19559 | 8.19200 | 38° | 13km/h | 28666m | 5.7m/s | -47.6°C | 0.5% | 0hPa | 2.5V | 00:00:00 | 00:00:00 | 00:00:00 | |
| DO3MHA-12 | 2026-08-31 12:40:17 | 47.19552 | 8.19204 | 316° | 16km/h | 28651m | 4.1m/s | -47.5°C | 2.6% | 0hPa | 2.5V | 00:00:00 | 02:14:12 | 00:00:00 | |
| IW2NTF | 2026-08-31 12:40:16 | 47.19551 | 8.19179 | 95° | 27km/h | 28614m | 4.8m/s | -47.6°C | 2.6% | 0hPa | 2.5V | 08:30:00 | 02:14:05 | 00:00:00 | i |
| DO3MHA-11 | 2026-08-31 12:40:14 | 47.19548 | 8.19210 | 74° | 16km/h | 28637m | 5.8m/s | -47.5°C | 2.6% | 0hPa | 2.5V | 00:00:00 | 02:14:09 | 00:00:00 | |
| OE5DXL-15 | 2026-08-31 12:40:11 | 47.19550 | 8.19190 | 99° | 18km/h | 28620m | 5.4m/s | -47.6°C | 2.7% | 0hPa | 2.5V | 00:00:00 | 00:00:00 | 00:00:00 | |
| DO3MHA-12 | 2026-08-31 12:40:06 | 47.19551 | 8.19154 | 5° | 20km/h | 28593m | 6.0m/s | -47.5°C | 2.7% | 0hPa | 2.5V | 00:00:00 | 02:14:01 | 08:30:00 | |
| IW2NTF | 2026-08-31 12:40:05 | 47.19537 | 8.19155 | 66° | 18km/h | 28563m | 5.5m/s | -47.5°C | 2.6% | 0hPa | 2.5V | 08:30:00 | 02:13:55 | 00:00:00 | i |
| DO3MHA-11 | 2026-08-31 12:40:04 | 47.19547 | 8.19157 | 331° | 22km/h | 28583m | 4.4m/s | -47.6°C | 2.7% | 0hPa | 2.6V | 00:00:00 | 02:13:59 | 00:00:00 | |
| HASLITAL | 2026-08-31 12:39:59 | 47.19537 | 8.19155 | 67° | 18km/h | 28564m | 5.5m/s | -47.5°C | 0.5% | 0hPa | 2.6V | 00:00:00 | 00:00:00 | 00:00:00 | |
| IW2NTF | 2026-08-31 12:39:55 | 47.19535 | 8.19092 | 57° | 11km/h | 28502m | 5.4m/s | -47.5°C | 2.6% | 0hPa | 2.6V | 08:30:00 | 02:13:43 | 00:00:00 | i |
| DO3MHA-12 | 2026-08-31 12:39:55 | 47.19538 | 8.19102 | 103° | 11km/h | 28539m | 5.2m/s | -47.6°C | 2.6% | 0hPa | 2.6V | 00:00:00 | 02:13:50 | 00:00:00 | i |
| DO3MHA-11 | 2026-08-31 12:39:54 | 47.19539 | 8.19094 | 95° | 13km/h | 28533m | 5.9m/s | -47.6°C | 2.6% | 0hPa | 2.6V | 00:00:00 | 02:13:49 | 08:30:00 | |
| LOEBOVI | 2026-08-31 12:39:46 | 47.19533 | 8.19088 | 64° | 16km/h | 28497m | 5.4m/s | -47.5°C | 0.4% | 0hPa | 2.5V | 00:00:00 | 00:00:00 | 00:00:00 | |
| DO3MHA-12 | 2026-08-31 12:39:45 | 47.19530 | 8.19070 | 83° | 15km/h | 28487m | 5.1m/s | -47.5°C | 2.6% | 0hPa | 2.5V | 00:00:00 | 02:13:40 | 00:00:00 | |
| DO3MHA-11 | 2026-08-31 12:39:44 | 47.19529 | 8.19059 | 80° | 13km/h | 28482m | 4.5m/s | -47.5°C | 2.6% | 0hPa | 2.5V | 00:00:00 | 02:13:39 | 00:00:00 | |
| IW2NTF | 2026-08-31 12:39:43 | 47.19524 | 8.19037 | 319° | 7km/h | 28449m | 4.1m/s | -47.6°C | 2.7% | 0hPa | 2.5V | 08:30:00 | 02:13:33 | 00:00:00 | i |
| OE5DXL-15 | 2026-08-31 12:39:41 | 47.19526 | 8.19035 | 357° | 15km/h | 28460m | 5.7m/s | -47.5°C | 2.7% | 0hPa | 2.6V | 00:00:00 | 00:00:00 | 00:00:00 | |
| HASLITAL | 2026-08-31 12:39:39 | 47.19525 | 8.19036 | 307° | 5km/h | 28454m | 5.0m/s | -47.6°C | 0.5% | 0hPa | 2.6V | 00:00:00 | 00:00:00 | 00:00:00 | |
| DO3MHA-12 | 2026-08-31 12:39:35 | 47.19520 | 8.19035 | 71° | 20km/h | 28434m | 5.5m/s | -47.5°C | 2.7% | 0hPa | 2.6V | 00:00:00 | 02:13:30 | 00:00:00 | |
| DN1GJH-1 | 2026-08-31 12:39:34 | 47.19519 | 8.19029 | 76° | 22km/h | 28429m | 5.3m/s | -47.5°C | 0.5% | 0hPa | 2.5V | 00:00:00 | 00:00:00 | 00:00:00 | |
| IW2NTF | 2026-08-31 12:39:33 | 47.19521 | 8.18970 | 108° | 11km/h | 28398m | 6m/s | -47.4°C | 2.6% | 0hPa | 2.5V | 08:30:00 | 02:13:23 | 00:00:00 | |
| DO3MHA-12 | 2026-08-31 12:39:25 | 47.19524 | 8.18967 | 331° | 16km/h | 28383m | 3.9m/s | -47.3°C | 2.6% | 0hPa | 2.5V | 00:00:00 | 02:13:20 | 00:00:00 | |
| IW2NTF | 2026-08-31 12:39:24 | 47.19511 | 8.18917 | 70° | 29km/h | 28348m | 4.4m/s | -47.4°C | 2.6% | 0hPa | 2.5V | 08:30:00 | 02:13:13 | 00:00:00 | i |
| HASLITAL | 2026-08-31 12:39:18 | 47.19511 | 8.18917 | 72° | 29km/h | 28349m | 4.4m/s | -47.4°C | 0.5% | 0hPa | 2.5V | 00:00:00 | 00:00:00 | 00:00:00 | |
| DO3MHA-12 | 2026-08-31 12:39:15 | 47.19508 | 8.18897 | 75° | 15km/h | 28332m | 5.5m/s | -47.4°C | 2.6% | 0hPa | 2.5V | 00:00:00 | 02:13:10 | 00:00:00 | |
| DO3MHA-11 | 2026-08-31 12:39:14 | 47.19508 | 8.18896 | 183° | 18km/h | 28327m | 5.2m/s | -47.3°C | 2.6% | 0hPa | 2.5V | 00:00:00 | 02:13:09 | 00:00:00 | |
| IW2NTF | 2026-08-31 12:39:13 | 47.19507 | 8.18880 | 73° | 27km/h | 28296m | 5.2m/s | -47.3°C | 2.6% | 0hPa | 2.5V | 08:30:00 | 02:13:03 | 00:00:00 | i |
| DN1GJH-1 | 2026-08-31 12:39:13 | 47.19508 | 8.18896 | 184° | 5km/h | 28327m | 5.2m/s | -47.4°C | 0.5% | 0hPa | 2.6V | 00:00:00 | 00:00:00 | 00:00:00 | i |
| OE5DXL-15 | 2026-08-31 12:39:10 | 47.19510 | 8.18894 | 77° | 20km/h | 28308m | 5.8m/s | -47.3°C | 2.6% | 0hPa | 2.6V | 00:00:00 | 00:00:00 | 00:00:00 | |
| DO3MHA-12 | 2026-08-31 12:39:05 | 47.19498 | 8.18846 | 68° | 13km/h | 28283m | 4.7m/s | -47.2°C | 2.5% | 0hPa | 2.6V | 00:00:00 | 02:13:00 | 00:00:00 | |
| DO3MHA-11 | 2026-08-31 12:39:04 | 47.19496 | 8.18837 | 67° | 13km/h | 28278m | 5.3m/s | -47.3°C | 2.6% | 0hPa | 2.6V | 00:00:00 | 02:12:59 | 00:00:00 | |
| IW2NTF | 2026-08-31 12:39:01 | 47.19489 | 8.18839 | 306° | 2km/h | 28247m | 5.1m/s | -47.4°C | 2.7% | 0hPa | 2.6V | 08:30:00 | 02:12:53 | 00:00:00 | |
| DL6DJ-15 | 2026-08-31 12:38:51 | 47.19464 | 8.18782 | 342° | 15km/h | 28201m | 6.1m/s | -47.4°C | -1.0% | -1.0hPa | 2.5V | 00:00:00 | 00:00:00 | 00:00:00 | |
| IW2NTF | 2026-08-31 12:38:49 | 47.19460 | 8.18785 | 324° | 20km/h | 28195m | 5.4m/s | -47.4°C | 2.6% | 0hPa | 2.5V | 08:30:00 | 02:12:43 | 00:00:00 | i |
| DO3MHA-12 | 2026-08-31 12:38:45 | 47.19449 | 8.18803 | 323° | 18km/h | 28181m | 4.8m/s | -47.3°C | 2.6% | 0hPa | 2.6V | 00:00:00 | 02:12:40 | 00:00:00 | |
| DO3MHA-11 | 2026-08-31 12:38:44 | 47.19445 | 8.18806 | 343° | 18km/h | 28176m | 5.0m/s | -47.3°C | 2.6% | 0hPa | 2.6V | 00:00:00 | 02:12:39 | 00:00:00 | |
| IW2NTF | 2026-08-31 12:38:43 | 47.19428 | 8.18771 | 52° | 18km/h | 28147m | 5.1m/s | -47.5°C | 2.6% | 0hPa | 2.6V | 08:30:00 | 02:12:33 | 00:00:00 | i |
| OE5DXL-15 | 2026-08-31 12:38:40 | 47.19433 | 8.18787 | 68° | 18km/h | 28157m | 3.9m/s | -47.4°C | 2.6% | 0hPa | 2.5V | 00:00:00 | 00:00:00 | 00:00:00 | |
| HASLITAL | 2026-08-31 12:38:37 | 47.19426 | 8.18768 | 30° | 9km/h | 28142m | 5.4m/s | -47.4°C | 0.5% | 0hPa | 2.5V | 00:00:00 | 00:00:00 | 00:00:00 | |
| DO3MHA-12 | 2026-08-31 12:38:35 | 47.19421 | 8.18770 | 315° | 20km/h | 28132m | 4.8m/s | -47.4°C | 2.6% | 0hPa | 2.5V | 00:00:00 | 02:12:30 | 08:30:00 | |
| DO3MHA-11 | 2026-08-31 12:38:34 | 47.19418 | 8.18776 | 300° | 18km/h | 28127m | 4.7m/s | -47.4°C | 2.7% | 0hPa | 2.6V | 00:00:00 | 02:12:29 | 00:00:00 | |
| IW2NTF | 2026-08-31 12:38:31 | 47.19397 | 8.18785 | 54° | 20km/h | 28096m | 5.8m/s | -47.3°C | 2.5% | 0hPa | 2.6V | 08:30:00 | 02:12:23 | 00:00:00 | i |
| DO3MHA-12 | 2026-08-31 12:38:25 | 47.19391 | 8.18767 | 71° | 18km/h | 28081m | 5.4m/s | -47.2°C | 2.6% | 0hPa | 2.6V | 00:00:00 | 02:12:20 | 00:00:00 | |
| DO3MHA-11 | 2026-08-31 12:38:24 | 47.19391 | 8.18765 | 27° | 22km/h | 28076m | 4.5m/s | -47.3°C | 2.6% | 0hPa | 2.6V | 00:00:00 | 02:12:19 | 08:30:00 | |
| IW2NTF | 2026-08-31 12:38:20 | 47.19371 | 8.18793 | 350° | 24km/h | 28049m | 5.7m/s | -47.3°C | 2.6% | 0hPa | 2.6V | 08:30:00 | 02:12:13 | 00:00:00 | i |
| DO3MHA-12 | 2026-08-31 12:38:15 | 47.19352 | 8.18783 | 47° | 15km/h | 28033m | 5.1m/s | -47.3°C | 2.6% | 0hPa | 2.6V | 00:00:00 | 02:12:10 | 00:00:00 | |
| DO3MHA-11 | 2026-08-31 12:38:14 | 47.19347 | 8.18775 | 58° | 13km/h | 28029m | 4.1m/s | -47.3°C | 2.6% | 0hPa | 2.6V | 00:00:00 | 02:12:09 | 00:00:00 | |
| DN1GJH-1 | 2026-08-31 12:38:11 | 47.19343 | 8.18761 | 83° | 13km/h | 28018m | 6.1m/s | -47.3°C | 0.5% | 0hPa | 2.6V | 00:00:00 | 00:00:00 | 00:00:00 | |
| IW2NTF | 2026-08-31 12:38:09 | 47.19345 | 8.18762 | 275° | 7km/h | 27998m | 3.7m/s | -47.3°C | 2.6% | 0hPa | 2.6V | 08:30:00 | 02:12:03 | 00:00:00 | i |
| DO3MHA-12 | 2026-08-31 12:38:05 | 47.19338 | 8.18765 | 31° | 22km/h | 27985m | 5.7m/s | -47.3°C | 2.7% | 0hPa | 2.5V | 00:00:00 | 02:12:00 | 00:00:00 | |
| DO3MHA-11 | 2026-08-31 12:38:04 | 47.19334 | 8.18760 | 34° | 22km/h | 27979m | 5.5m/s | -47.2°C | 2.6% | 0hPa | 2.6V | 00:00:00 | 02:11:59 | 00:00:00 | |
| IW2NTF | 2026-08-31 12:38:03 | 47.19305 | 8.18709 | 44° | 13km/h | 27950m | 5.3m/s | -47.2°C | 2.6% | 0hPa | 2.6V | 08:30:00 | 02:11:53 | 00:00:00 | i |
| DO3MHA-12 | 2026-08-31 12:37:55 | 47.19304 | 8.18708 | 268° | 22km/h | 27937m | 3.7m/s | -47.2°C | 2.6% | 0hPa | 2.5V | 00:00:00 | 02:11:50 | 00:00:00 | |
| DO3MHA-11 | 2026-08-31 12:37:54 | 47.19304 | 8.18709 | 233° | 22km/h | 27933m | 3.4m/s | -47.2°C | 2.6% | 0hPa | 2.5V | 00:00:00 | 02:11:49 | 00:00:00 | |
| IW2NTF | 2026-08-31 12:37:51 | 47.19286 | 8.18669 | 57° | 35km/h | 27903m | 4m/s | -47.3°C | 2.6% | 0hPa | 2.6V | 08:30:00 | 02:11:43 | 00:00:00 | i |
| DL6DJ-15 | 2026-08-31 12:37:49 | 47.19282 | 8.18659 | 55° | 31km/h | 27899m | 4.4m/s | -47.4°C | -1.0% | -1.0hPa | 2.6V | 00:00:00 | 00:00:00 | 00:00:00 | |
| DO3MHA-12 | 2026-08-31 12:37:45 | 47.19274 | 8.18646 | 41° | 15km/h | 27889m | 5.4m/s | -47.4°C | 2.6% | 0hPa | 2.6V | 00:00:00 | 02:11:40 | 00:00:00 | |
| DO3MHA-11 | 2026-08-31 12:37:44 | 47.19271 | 8.18644 | 28° | 16km/h | 27884m | 5.1m/s | -47.4°C | 2.6% | 0hPa | 2.6V | 00:00:00 | 02:11:39 | 00:00:00 | |
| IW2NTF | 2026-08-31 12:37:39 | 47.19263 | 8.18639 | 58° | 26km/h | 27856m | 5.5m/s | -47.5°C | 2.6% | 0hPa | 2.6V | 08:30:00 | 02:11:33 | 00:00:00 | |
| DO3MHA-12 | 2026-08-31 12:37:35 | 47.19250 | 8.18608 | 59° | 15km/h | 27842m | 3.6m/s | -47.5°C | 2.6% | 0hPa | 2.5V | 00:00:00 | 02:11:30 | 00:00:00 | |
| IW2NTF | 2026-08-31 12:37:34 | 47.19232 | 8.18585 | 348° | 7km/h | 27810m | 3.5m/s | -47.5°C | 2.6% | 0hPa | 2.6V | 08:30:00 | 02:11:23 | 00:00:00 | i |
| HASLITAL | 2026-08-31 12:37:34 | 47.19245 | 8.18598 | 52° | 31km/h | 27838m | 4.5m/s | -47.5°C | 0.5% | 0hPa | 2.5V | 00:00:00 | 00:00:00 | 00:00:00 | i |
| DN1GJH-1 | 2026-08-31 12:37:29 | 47.19234 | 8.18583 | 324° | 4km/h | 27818m | 4.5m/s | -47.5°C | 0.5% | 0hPa | 2.5V | 00:00:00 | 00:00:00 | 00:00:00 | |
| DO3MHA-12 | 2026-08-31 12:37:25 | 47.19224 | 8.18573 | 47° | 22km/h | 27795m | 5.1m/s | -47.5°C | 2.6% | 0hPa | 2.5V | 00:00:00 | 02:11:20 | 00:00:00 | |
| DO3MHA-11 | 2026-08-31 12:37:24 | 47.19219 | 8.18565 | 53° | 24km/h | 27790m | 4.5m/s | -47.5°C | 2.6% | 0hPa | 2.5V | 00:00:00 | 02:11:19 | 00:00:00 | |
| IW2NTF | 2026-08-31 12:37:21 | 47.19184 | 8.18525 | 346° | 15km/h | 27762m | 4.9m/s | -47.5°C | 2.6% | 0hPa | 2.6V | 08:30:00 | 02:11:13 | 00:00:00 | i |
| DH7VM-15 | 2026-08-31 12:37:18 | 47.19189 | 8.18525 | 10° | 22km/h | 27767m | 5.3m/s | -47.5°C | 0.4% | 0hPa | 2.6V | 00:00:00 | 00:00:00 | 00:00:00 | |
| DO3MHA-11 | 2026-08-31 12:37:14 | 47.19173 | 8.18532 | 21° | 24km/h | 27746m | 4.9m/s | -47.6°C | 2.6% | 0hPa | 2.6V | 00:00:00 | 02:11:09 | 00:00:00 | |
| HASLITAL | 2026-08-31 12:37:12 | 47.19170 | 8.18529 | 35° | 16km/h | 27740m | 5.3m/s | -47.6°C | 0.5% | 0hPa | 2.6V | 00:00:00 | 00:00:00 | 00:00:00 | |
| IW2NTF | 2026-08-31 12:37:09 | 47.19145 | 8.18491 | 34° | 29km/h | 27719m | 4.5m/s | -47.7°C | 2.6% | 0hPa | 2.6V | 08:30:00 | 02:11:03 | 00:00:00 | |
| DN1GJH-1 | 2026-08-31 12:37:08 | 47.19151 | 8.18498 | 46° | 31km/h | 27723m | 3.8m/s | -47.7°C | 0.4% | 0hPa | 2.6V | 00:00:00 | 00:00:00 | 00:00:00 | |
| LOEBOVI | 2026-08-31 12:37:07 | 47.19145 | 8.18491 | 35° | 29km/h | 27719m | 4.5m/s | -47.7°C | 0.5% | 0hPa | 2.6V | 00:00:00 | 00:00:00 | 00:00:00 | |
| DO3MHA-11 | 2026-08-31 12:37:04 | 47.19126 | 8.18496 | 310° | 20km/h | 27700m | 4.1m/s | -47.7°C | 2.6% | 0hPa | 2.6V | 00:00:00 | 02:10:59 | 00:00:00 | |
| IW2NTF | 2026-08-31 12:37:03 | 47.19104 | 8.18506 | 43° | 24km/h | 27673m | 4.7m/s | -48°C | 2.6% | 0hPa | 2.6V | 08:30:00 | 02:10:53 | 00:00:00 | i |
| DO3MHA-12 | 2026-08-31 12:36:54 | 47.19090 | 8.18484 | 14° | 20km/h | 27656m | 5.1m/s | -48.0°C | 2.7% | 0hPa | 2.6V | 00:00:00 | 02:10:49 | 00:00:00 | |
| HASLITAL | 2026-08-31 12:36:51 | 47.19085 | 8.18490 | 297° | 20km/h | 27646m | 4.7m/s | -48.1°C | 0.5% | 0hPa | 2.6V | 00:00:00 | 00:00:00 | 00:00:00 | i |
| IW2NTF | 2026-08-31 12:36:51 | 47.19073 | 8.18519 | 325° | 20km/h | 27630m | 4.9m/s | -48.3°C | 2.7% | 0hPa | 2.6V | 08:30:00 | 02:10:43 | 00:00:00 | i |
| DL6DJ-15 | 2026-08-31 12:36:47 | 47.19051 | 8.18514 | 27° | 26km/h | 27611m | 4.1m/s | -48.6°C | -1.0% | -1.0hPa | 2.6V | 00:00:00 | 00:00:00 | 00:00:00 | |
| DO3MHA-11 | 2026-08-31 12:36:44 | 47.19051 | 8.18514 | 28° | 16km/h | 27611m | 4.1m/s | -48.5°C | 2.7% | 0hPa | 2.6V | 00:00:00 | 02:10:39 | 00:00:00 | |
| IW2NTF | 2026-08-31 12:36:40 | 47.19030 | 8.18522 | 300° | 18km/h | 27583m | 4.3m/s | -48.6°C | 2.8% | 0hPa | 2.6V | 08:30:00 | 02:10:33 | 00:00:00 | i |
| DO3MHA-11 | 2026-08-31 12:36:34 | 47.19020 | 8.18536 | 356° | 15km/h | 27564m | 4.3m/s | -48.4°C | 2.7% | 0hPa | 2.5V | 00:00:00 | 02:10:29 | 00:00:00 | i |
| IW2NTF | 2026-08-31 12:36:33 | 47.18999 | 8.18537 | 298° | 16km/h | 27535m | 5.3m/s | -48.5°C | 2.8% | 0hPa | 2.5V | 08:30:00 | 02:10:23 | 00:00:00 | |
| HASLITAL | 2026-08-31 12:36:30 | 47.19008 | 8.18532 | 5° | 15km/h | 27551m | 4.5m/s | -48.5°C | 0.5% | 0hPa | 2.5V | 00:00:00 | 00:00:00 | 00:00:00 | |
| DN1GJH-1 | 2026-08-31 12:36:27 | 47.18999 | 8.18537 | 299° | 16km/h | 27536m | 5.4m/s | -48.5°C | 0.5% | 0hPa | 2.5V | 00:00:00 | 00:00:00 | 00:00:00 | |
| DO3MHA-12 | 2026-08-31 12:36:24 | 47.18993 | 8.18558 | 310° | 11km/h | 27517m | 5.5m/s | -48.6°C | 2.8% | 0hPa | 2.5V | 00:00:00 | 02:10:19 | 00:00:00 | |
| IW2NTF | 2026-08-31 12:36:21 | 47.18982 | 8.18557 | 324° | 5km/h | 27491m | 4.7m/s | -48.6°C | 2.8% | 0hPa | 2.5V | 08:30:00 | 02:10:13 | 00:00:00 | i |
| DL6DJ-15 | 2026-08-31 12:36:16 | 47.18980 | 8.18574 | 273° | 22km/h | 27475m | 4.8m/s | -48.5°C | -1.0% | -1.0hPa | 2.6V | 00:00:00 | 00:00:00 | 00:00:00 | |
| DO3MHA-11 | 2026-08-31 12:36:14 | 47.18980 | 8.18583 | 275° | 15km/h | 27471m | 3.9m/s | -48.4°C | 2.8% | 0hPa | 2.6V | 00:00:00 | 02:10:09 | 00:00:00 | |
| IW2NTF | 2026-08-31 12:36:11 | 47.18965 | 8.18606 | 25° | 13km/h | 27442m | 4.2m/s | -48.2°C | 2.7% | 0hPa | 2.6V | 08:30:00 | 02:10:03 | 00:00:00 | i |
| OE5DXL-15 | 2026-08-31 12:36:10 | 47.18972 | 8.18608 | 352° | 15km/h | 27452m | 5.6m/s | -48.3°C | 2.7% | 0hPa | 2.6V | 00:00:00 | 02:10:05 | 08:30:00 | |
| DN1GJH-1 | 2026-08-31 12:36:07 | 47.18965 | 8.18606 | 27° | 13km/h | 27442m | 4.2m/s | -48.2°C | 0.5% | 0hPa | 2.6V | 00:00:00 | 00:00:00 | 00:00:00 | |
| DO3MHA-12 | 2026-08-31 12:36:04 | 47.18962 | 8.18603 | 228° | 16km/h | 27423m | 5.1m/s | -48.2°C | 2.7% | 0hPa | 2.6V | 00:00:00 | 02:09:59 | 00:00:00 | |
| IW2NTF | 2026-08-31 12:35:59 | 47.18963 | 8.18636 | 349° | 13km/h | 27393m | 5m/s | -48.2°C | 2.7% | 0hPa | 2.6V | 08:30:00 | 02:09:53 | 00:00:00 | i |
| DH7VM-15 | 2026-08-31 12:35:56 | 47.18959 | 8.18637 | 3° | 18km/h | 27388m | 4.4m/s | -48.2°C | 0.5% | 0hPa | 2.5V | 00:00:00 | 00:00:00 | 00:00:00 | |
| DO3MHA-12 | 2026-08-31 12:35:54 | 47.18948 | 8.18630 | 23° | 13km/h | 27376m | 4.5m/s | -48.2°C | 2.6% | 0hPa | 2.5V | 00:00:00 | 02:09:49 | 00:00:00 | |
| IW2NTF | 2026-08-31 12:35:53 | 47.18953 | 8.18651 | 261° | 18km/h | 27347m | 4.6m/s | -48.6°C | 2.7% | 0hPa | 2.5V | 08:30:00 | 02:09:43 | 00:00:00 | i |
| DN1GJH-1 | 2026-08-31 12:35:46 | 47.18953 | 8.18656 | 283° | 13km/h | 27342m | 5.2m/s | -48.6°C | 0.5% | 0hPa | 2.5V | 00:00:00 | 00:00:00 | 00:00:00 | |
| DO3MHA-12 | 2026-08-31 12:35:44 | 47.18944 | 8.18662 | 10° | 13km/h | 27327m | 4.4m/s | -48.7°C | 2.8% | 0hPa | 2.5V | 00:00:00 | 02:09:39 | 00:00:00 | |
| IW2NTF | 2026-08-31 12:35:41 | 47.18935 | 8.18664 | 224° | 15km/h | 27298m | 5.2m/s | -48.9°C | 2.8% | 0hPa | 2.5V | 08:30:00 | 02:09:33 | 00:00:00 | i |
| OE5DXL-15 | 2026-08-31 12:35:40 | 47.18932 | 8.18659 | 297° | 13km/h | 27309m | 5.6m/s | -48.8°C | 2.8% | 0hPa | 2.6V | 00:00:00 | 00:00:00 | 00:00:00 | |
| DO3MHA-11 | 2026-08-31 12:35:34 | 47.18942 | 8.18684 | 291° | 11km/h | 27279m | 5.1m/s | -48.9°C | 2.8% | 0hPa | 2.6V | 00:00:00 | 02:09:29 | 00:00:00 | |
| IW2NTF | 2026-08-31 12:35:29 | 47.18922 | 8.18692 | 291° | 7km/h | 27249m | 5.7m/s | -48.9°C | 2.8% | 0hPa | 2.6V | 08:30:00 | 02:09:23 | 00:00:00 | i |
| HASLITAL | 2026-08-31 12:35:29 | 47.18927 | 8.18690 | 6° | 15km/h | 27260m | 4.3m/s | -49.0°C | 0.5% | 0hPa | 2.5V | 00:00:00 | 00:00:00 | 00:00:00 | i |
| DN1GJH-1 | 2026-08-31 12:35:26 | 47.18923 | 8.18699 | 243° | 15km/h | 27239m | 4.3m/s | -49.0°C | 0.5% | 0hPa | 2.5V | 00:00:00 | 00:00:00 | 00:00:00 | |
| DO3MHA-12 | 2026-08-31 12:35:24 | 47.18927 | 8.18707 | 235° | 13km/h | 27231m | 4.1m/s | -49.0°C | 2.9% | 0hPa | 2.5V | 00:00:00 | 02:09:19 | 00:00:00 | |
| IW2NTF | 2026-08-31 12:35:23 | 47.18916 | 8.18710 | 4° | 20km/h | 27201m | 4.3m/s | -49.2°C | 2.9% | 0hPa | 2.5V | 08:30:00 | 02:09:13 | 00:00:00 | i |
| DO3MHA-11 | 2026-08-31 12:35:21 | 47.18928 | 8.18712 | 5° | 15km/h | 27216m | 5.5m/s | -49.1°C | 2.8% | 0hPa | 2.6V | 00:00:00 | 02:09:16 | 08:30:00 | |
| DF7PN | 2026-08-31 12:35:13 | 47.18911 | 8.18730 | 249° | 16km/h | 27171m | 4.1m/s | -49.2°C | 0.5% | -1.0hPa | 2.5V | 00:00:00 | 00:00:00 | 00:00:00 | |
| IW2NTF | 2026-08-31 12:35:11 | 47.18911 | 8.18743 | 14° | 7km/h | 27151m | 4.8m/s | -49.3°C | 2.9% | 0hPa | 2.5V | 08:30:00 | 02:09:03 | 00:00:00 | i |
| DO3MHA-11 | 2026-08-31 12:35:11 | 47.18913 | 8.18736 | 247° | 9km/h | 27167m | 4.8m/s | -49.2°C | 2.8% | 0hPa | 2.6V | 00:00:00 | 02:09:06 | 00:00:00 | i |
| OE5DXL-15 | 2026-08-31 12:35:10 | 47.18913 | 8.18740 | 276° | 9km/h | 27162m | 5.6m/s | -49.3°C | 2.8% | 0hPa | 2.6V | 00:00:00 | 00:00:00 | 00:00:00 | |
| HASLITAL | 2026-08-31 12:35:08 | 47.18913 | 8.18742 | 303° | 7km/h | 27156m | 5.4m/s | -49.2°C | 0.5% | 0hPa | 2.6V | 00:00:00 | 00:00:00 | 00:00:00 | |
| DN1GJH-1 | 2026-08-31 12:35:05 | 47.18906 | 8.18741 | 10° | 9km/h | 27142m | 4.5m/s | -49.3°C | 0.5% | 0hPa | 2.6V | 00:00:00 | 00:00:00 | 00:00:00 | |
| DO3MHA-11 | 2026-08-31 12:35:01 | 47.18906 | 8.18754 | 242° | 11km/h | 27116m | 4.3m/s | -49.2°C | 2.9% | 0hPa | 2.6V | 00:00:00 | 02:08:56 | 00:00:00 | |
| IW2NTF | 2026-08-31 12:34:59 | 47.18912 | 8.18771 | 246° | 13km/h | 27102m | 5.7m/s | -49.2°C | 2.9% | 0hPa | 2.6V | 08:30:00 | 02:08:53 | 00:00:00 | i |
| IW2NTF | 2026-08-31 12:34:54 | 47.18917 | 8.18777 | 239° | 15km/h | 27050m | 4.5m/s | -49°C | 2.8% | 0hPa | 2.6V | 08:30:00 | 02:08:43 | 00:00:00 | i |
| DO3MHA-11 | 2026-08-31 12:34:51 | 47.18910 | 8.18767 | 196° | 9km/h | 27065m | 5.3m/s | -49.1°C | 2.8% | 0hPa | 2.5V | 00:00:00 | 02:08:46 | 00:00:00 | |
| HASLITAL | 2026-08-31 12:34:48 | 47.18914 | 8.18772 | 228° | 15km/h | 27056m | 4.9m/s | -49.0°C | 0.5% | 0hPa | 2.6V | 00:00:00 | 00:00:00 | 00:00:00 | |
| DN1GJH-1 | 2026-08-31 12:34:44 | 47.18919 | 8.18787 | 314° | 5km/h | 27035m | 5.5m/s | -49.0°C | 0.5% | 0hPa | 2.6V | 00:00:00 | 00:00:00 | 00:00:00 | |
| DF7PN | 2026-08-31 12:34:42 | 47.18914 | 8.18787 | 97° | 0km/h | 27016m | 5.8m/s | -48.9°C | 0.4% | -1.0hPa | 2.6V | 00:00:00 | 00:00:00 | 00:00:00 | |
| IW2NTF | 2026-08-31 12:34:41 | 47.18918 | 8.18789 | 202° | 11km/h | 26999m | 4.7m/s | -48.9°C | 2.9% | 0hPa | 2.6V | 08:30:00 | 02:08:33 | 00:00:00 | i |
| DO3MHA-11 | 2026-08-31 12:34:41 | 47.18914 | 8.18787 | 98° | 7km/h | 27016m | 5.7m/s | -48.9°C | 2.8% | 0hPa | 2.5V | 00:00:00 | 02:08:36 | 00:00:00 | i |
| OE5DXL-15 | 2026-08-31 12:34:40 | 47.18915 | 8.18787 | 165° | 11km/h | 27010m | 5.6m/s | -48.9°C | 2.8% | 0hPa | 2.5V | 00:00:00 | 00:00:00 | 00:00:00 | |
| DO3MHA-12 | 2026-08-31 12:34:31 | 47.18918 | 8.18790 | 15° | 9km/h | 26964m | 4.7m/s | -48.9°C | 2.8% | 0hPa | 2.5V | 00:00:00 | 02:08:26 | 00:00:00 | |
| IW2NTF | 2026-08-31 12:34:29 | 47.18913 | 8.18789 | 274° | 5km/h | 26949m | 5.7m/s | -49°C | 2.8% | 0hPa | 2.6V | 08:30:00 | 02:08:23 | 00:00:00 | i |
| DN1GJH-1 | 2026-08-31 12:34:24 | 47.18916 | 8.18799 | 236° | 13km/h | 26935m | 4.0m/s | -49.0°C | 0.5% | 0hPa | 2.6V | 00:00:00 | 00:00:00 | 00:00:00 | |
| IW2NTF | 2026-08-31 12:34:23 | 47.18900 | 8.18793 | 19° | 20km/h | 26900m | 4.1m/s | -49.1°C | 2.9% | 0hPa | 2.6V | 08:30:00 | 02:08:13 | 00:00:00 | i |
| DO3MHA-11 | 2026-08-31 12:34:21 | 47.18913 | 8.18802 | 30° | 16km/h | 26914m | 6.0m/s | -49.1°C | 2.9% | 0hPa | 2.5V | 00:00:00 | 02:08:16 | 00:00:00 | |
| DO3MHA-11 | 2026-08-31 12:34:11 | 47.18890 | 8.18819 | 293° | 20km/h | 26864m | 5.1m/s | -49.0°C | 2.9% | 0hPa | 2.6V | 00:00:00 | 02:08:06 | 00:00:00 | |
| IW2NTF | 2026-08-31 12:34:10 | 47.18879 | 8.18822 | 24° | 26km/h | 26846m | 5.6m/s | -49°C | 2.9% | 0hPa | 2.6V | 08:30:00 | 02:08:03 | 00:00:00 | i |
| OE5DXL-15 | 2026-08-31 12:34:10 | 47.18888 | 8.18823 | 336° | 20km/h | 26859m | 5.6m/s | -49.0°C | 2.9% | 0hPa | 2.6V | 00:00:00 | 00:00:00 | 00:00:00 | i |
| HASLITAL | 2026-08-31 12:34:07 | 47.18879 | 8.18822 | 26° | 26km/h | 26847m | 5.6m/s | -49.0°C | 0.6% | 0hPa | 2.6V | 00:00:00 | 00:00:00 | 00:00:00 | |
| DN1GJH-1 | 2026-08-31 12:34:03 | 47.18854 | 8.18799 | 34° | 22km/h | 26827m | 5.3m/s | -48.9°C | 0.6% | 0hPa | 2.6V | 00:00:00 | 00:00:00 | 00:00:00 | |
| DO3MHA-12 | 2026-08-31 12:34:01 | 47.18847 | 8.18794 | 276° | 18km/h | 26811m | 5.3m/s | -48.9°C | 2.8% | 0hPa | 2.6V | 00:00:00 | 02:07:56 | 08:30:00 | |
| IW2NTF | 2026-08-31 12:33:59 | 47.18845 | 8.18799 | 344° | 7km/h | 26796m | 5.4m/s | -48.9°C | 2.8% | 0hPa | 2.5V | 08:30:00 | 02:07:53 | 00:00:00 | i |
| IW2NTF | 2026-08-31 12:33:53 | 47.18792 | 8.18786 | 316° | 15km/h | 26743m | 5.1m/s | -48.8°C | 2.8% | 0hPa | 2.6V | 08:30:00 | 02:07:43 | 00:00:00 | i |
| DO3MHA-11 | 2026-08-31 12:33:51 | 47.18803 | 8.18780 | 2° | 18km/h | 26759m | 5.7m/s | -48.8°C | 2.8% | 0hPa | 2.6V | 00:00:00 | 02:07:46 | 08:30:00 | |
| HASLITAL | 2026-08-31 12:33:46 | 47.18789 | 8.18789 | 324° | 11km/h | 26739m | 4.4m/s | -48.8°C | 0.6% | 0hPa | 2.5V | 00:00:00 | 00:00:00 | 00:00:00 | |
| DN1GJH-1 | 2026-08-31 12:33:43 | 47.18779 | 8.18790 | 28° | 20km/h | 26722m | 5.6m/s | -48.8°C | 0.5% | 0hPa | 2.5V | 00:00:00 | 00:00:00 | 00:00:00 | |
| IW2NTF | 2026-08-31 12:33:41 | 47.18742 | 8.18773 | 343° | 24km/h | 26693m | 6.3m/s | -48.9°C | 2.8% | 0hPa | 2.5V | 08:30:00 | 02:07:33 | 00:00:00 | |
| DO3MHA-11 | 2026-08-31 12:33:41 | 47.18761 | 8.18777 | 26° | 26km/h | 26709m | 3.7m/s | -48.8°C | 2.8% | 0hPa | 2.5V | 00:00:00 | 02:07:36 | 00:00:00 | |
| OE5DXL-15 | 2026-08-31 12:33:40 | 47.18754 | 8.18773 | 13° | 26km/h | 26704m | 4.8m/s | -48.7°C | 2.8% | 0hPa | 2.5V | 00:00:00 | 00:00:00 | 00:00:00 | |
| DF7PN | 2026-08-31 12:33:39 | 47.18748 | 8.18772 | 2° | 22km/h | 26699m | 6.0m/s | -48.9°C | 0.4% | -1.0hPa | 2.5V | 00:00:00 | 00:00:00 | 00:00:00 | |
| DO3MHA-11 | 2026-08-31 12:33:31 | 47.18704 | 8.18808 | 1° | 27km/h | 26656m | 4.5m/s | -48.9°C | 2.8% | 0hPa | 2.5V | 00:00:00 | 02:07:26 | 00:00:00 | |
| IW2NTF | 2026-08-31 12:33:29 | 47.18682 | 8.18804 | 10° | 27km/h | 26643m | 4.2m/s | -49°C | 2.8% | 0hPa | 2.5V | 08:30:00 | 02:07:23 | 00:00:00 | i |
| HASLITAL | 2026-08-31 12:33:26 | 47.18675 | 8.18803 | 357° | 27km/h | 26638m | 5.3m/s | -48.9°C | 0.5% | 0hPa | 2.5V | 00:00:00 | 00:00:00 | 00:00:00 | |
| IW2NTF | 2026-08-31 12:33:22 | 47.18629 | 8.18852 | 356° | 22km/h | 26591m | 4.5m/s | -48.9°C | 2.8% | 0hPa | 2.5V | 08:30:00 | 02:07:13 | 00:00:00 | i |
| DO3MHA-12 | 2026-08-31 12:33:21 | 47.18645 | 8.18840 | 313° | 24km/h | 26607m | 5.3m/s | -48.8°C | 2.8% | 0hPa | 2.5V | 00:00:00 | 02:07:16 | 00:00:00 | |
| IW2NTF | 2026-08-31 12:33:11 | 47.18593 | 8.18898 | 318° | 24km/h | 26541m | 5.6m/s | -49°C | 2.8% | 0hPa | 2.5V | 08:30:00 | 02:07:03 | 00:00:00 | i |
| DO3MHA-11 | 2026-08-31 12:33:11 | 47.18603 | 8.18874 | 288° | 22km/h | 26556m | 4.5m/s | -48.9°C | 2.8% | 0hPa | 2.6V | 00:00:00 | 02:07:06 | 00:00:00 | i |
| OE5DXL-15 | 2026-08-31 12:33:10 | 47.18601 | 8.18883 | 297° | 16km/h | 26552m | 4.1m/s | -48.9°C | 2.8% | 0hPa | 2.6V | 00:00:00 | 00:00:00 | 00:00:00 | |
| DF7PN | 2026-08-31 12:33:09 | 47.18593 | 8.18898 | 318° | 24km/h | 26541m | 5.6m/s | -49.0°C | 0.4% | -1.0hPa | 2.6V | 00:00:00 | 00:00:00 | 00:00:00 | |
| HASLITAL | 2026-08-31 12:33:05 | 47.18582 | 8.18905 | 347° | 26km/h | 26531m | 4.2m/s | -49.0°C | 0.6% | 0hPa | 2.6V | 00:00:00 | 00:00:00 | 00:00:00 | |
| LOEBOVI | 2026-08-31 12:33:02 | 47.18566 | 8.18908 | 338° | 15km/h | 26518m | 5.8m/s | -49.0°C | 0.5% | 0hPa | 2.6V | 00:00:00 | 00:00:00 | 00:00:00 | |
| DO3MHA-11 | 2026-08-31 12:33:01 | 47.18563 | 8.18914 | 283° | 16km/h | 26506m | 5.8m/s | -49.0°C | 2.8% | 0hPa | 2.6V | 00:00:00 | 02:06:56 | 00:00:00 | |
| IW2NTF | 2026-08-31 12:32:59 | 47.18565 | 8.18932 | 256° | 18km/h | 26491m | 4.1m/s | -49.1°C | 2.9% | 0hPa | 2.6V | 08:30:00 | 02:06:53 | 00:00:00 | i |
| DH7VM-15 | 2026-08-31 12:32:55 | 47.18565 | 8.18941 | 305° | 13km/h | 26481m | 6.0m/s | -49.2°C | 0.5% | 0hPa | 2.5V | 00:00:00 | 00:00:00 | 00:00:00 | |
| DO3MHA-11 | 2026-08-31 12:32:51 | 47.18546 | 8.18950 | 332° | 16km/h | 26459m | 4.5m/s | -49.2°C | 2.8% | 0hPa | 2.5V | 00:00:00 | 02:06:46 | 00:00:00 | |
| IW2NTF | 2026-08-31 12:32:49 | 47.18542 | 8.18969 | 263° | 24km/h | 26442m | 5m/s | -49.3°C | 2.8% | 0hPa | 2.6V | 08:30:00 | 02:06:43 | 00:00:00 | i |
| HASLITAL | 2026-08-31 12:32:45 | 47.18546 | 8.18985 | 241° | 22km/h | 26433m | 4.2m/s | -49.3°C | 0.6% | 0hPa | 2.6V | 00:00:00 | 00:00:00 | 00:00:00 | |
| DO3MHA-11 | 2026-08-31 12:32:41 | 47.18550 | 8.18997 | 31° | 18km/h | 26409m | 4.0m/s | -49.5°C | 2.9% | 0hPa | 2.6V | 00:00:00 | 02:06:36 | 00:00:00 | |
| IW2NTF | 2026-08-31 12:32:38 | 47.18542 | 8.18998 | 318° | 13km/h | 26396m | 5m/s | -49.5°C | 2.9% | 0hPa | 2.6V | 08:30:00 | 02:06:33 | 00:00:00 | i |
| DF7PN | 2026-08-31 12:32:37 | 47.18540 | 8.19003 | 280° | 16km/h | 26391m | 5.9m/s | -49.5°C | 0.5% | -1.0hPa | 2.6V | 00:00:00 | 00:00:00 | 00:00:00 | |
| IW2NTF | 2026-08-31 12:32:33 | 47.18550 | 8.19046 | 96° | 7km/h | 26349m | 4.3m/s | -49.5°C | 2.9% | 0hPa | 2.6V | 08:30:00 | 02:06:23 | 00:00:00 | i |
| DO3MHA-11 | 2026-08-31 12:32:31 | 47.18548 | 8.19047 | 233° | 9km/h | 26364m | 5.2m/s | -49.4°C | 2.9% | 0hPa | 2.6V | 00:00:00 | 02:06:26 | 00:00:00 | |
| HASLITAL | 2026-08-31 12:32:25 | 47.18551 | 8.19043 | 163° | 7km/h | 26341m | 4.9m/s | -49.4°C | 0.6% | 0hPa | 2.6V | 00:00:00 | 00:00:00 | 00:00:00 | |
| IW2NTF | 2026-08-31 12:32:21 | 47.18560 | 8.19076 | 315° | 5km/h | 26304m | 4.4m/s | -49.3°C | 2.9% | 0hPa | 2.6V | 08:30:00 | 02:06:13 | 00:00:00 | i |
| DO3MHA-11 | 2026-08-31 12:32:21 | 47.18561 | 8.19062 | 254° | 11km/h | 26318m | 4.6m/s | -49.3°C | 2.9% | 0hPa | 2.4V | 00:00:00 | 02:06:16 | 08:30:00 | i |
| DN1GJH-1 | 2026-08-31 12:32:20 | 47.18561 | 8.19063 | 254° | 20km/h | 26318m | 4.6m/s | -49.4°C | 0.6% | 0hPa | 2.5V | 00:00:00 | 00:00:00 | 00:00:00 | |
| DO3MHA-11 | 2026-08-31 12:32:11 | 47.18573 | 8.19077 | 202° | 11km/h | 26273m | 3.8m/s | -49.2°C | 2.9% | 0hPa | 2.5V | 00:00:00 | 02:06:06 | 00:00:00 | |
| IW2NTF | 2026-08-31 12:32:09 | 47.18585 | 8.19085 | 217° | 7km/h | 26260m | 5.5m/s | -49.2°C | 2.8% | 0hPa | 2.5V | 08:30:00 | 02:06:03 | 00:00:00 | i |
| DF7PN | 2026-08-31 12:32:06 | 47.18584 | 8.19086 | 0° | 7km/h | 26249m | 5.0m/s | -49.3°C | -1.0% | -1.0hPa | 2.6V | 00:00:00 | 00:00:00 | 00:00:00 | |
| HASLITAL | 2026-08-31 12:32:04 | 47.18582 | 8.19085 | 30° | 11km/h | 26245m | 4.4m/s | -49.3°C | 0.6% | 0hPa | 2.6V | 00:00:00 | 00:00:00 | 00:00:00 | |
| DO3MHA-11 | 2026-08-31 12:32:01 | 47.18579 | 8.19083 | 208° | 16km/h | 26227m | 5.1m/s | -49.3°C | 2.8% | 0hPa | 2.6V | 00:00:00 | 02:05:56 | 00:00:00 | |
| DN1GJH-1 | 2026-08-31 12:32:00 | 47.18579 | 8.19083 | 208° | 13km/h | 26227m | 5.1m/s | -49.4°C | 0.6% | 0hPa | 2.6V | 00:00:00 | 00:00:00 | 00:00:00 | |
| IW2NTF | 2026-08-31 12:31:59 | 47.18593 | 8.19091 | 199° | 26km/h | 26214m | 4.1m/s | -49.5°C | 2.9% | 0hPa | 2.6V | 08:30:00 | 02:05:53 | 00:00:00 | i |
| IW2NTF | 2026-08-31 12:31:53 | 47.18604 | 8.19066 | 195° | 9km/h | 26168m | 5.2m/s | -49.6°C | 2.9% | 0hPa | 2.5V | 08:30:00 | 02:05:43 | 00:00:00 | i |
| DO3MHA-11 | 2026-08-31 12:31:51 | 47.18603 | 8.19074 | 62° | 13km/h | 26183m | 3.5m/s | -49.5°C | 2.9% | 0hPa | 2.6V | 00:00:00 | 02:05:46 | 00:00:00 | |
| HASLITAL | 2026-08-31 12:31:44 | 47.18614 | 8.19070 | 189° | 16km/h | 26156m | 3.1m/s | -49.6°C | 0.6% | 0hPa | 2.6V | 00:00:00 | 00:00:00 | 00:00:00 | |
| DH7VM-15 | 2026-08-31 12:31:43 | 47.18619 | 8.19068 | 124° | 11km/h | 26148m | 4.6m/s | -49.6°C | 0.6% | 0hPa | 2.6V | 00:00:00 | 00:00:00 | 00:00:00 | |
| IW2NTF | 2026-08-31 12:31:41 | 47.18617 | 8.19026 | 85° | 22km/h | 26126m | 4.8m/s | -49.6°C | 2.9% | 0hPa | 2.6V | 08:30:00 | 02:05:33 | 00:00:00 | i |
| OE5DXL-15 | 2026-08-31 12:31:40 | 47.18619 | 8.19045 | 84° | 13km/h | 26134m | 4.2m/s | -49.6°C | 2.9% | 0hPa | 2.5V | 00:00:00 | 00:00:00 | 08:30:00 | |
| DN1GJH-1 | 2026-08-31 12:31:39 | 47.18619 | 8.19045 | 84° | 27km/h | 26134m | 4.3m/s | -49.6°C | 0.6% | 0hPa | 2.6V | 00:00:00 | 00:00:00 | 00:00:00 | |
| DF7PN | 2026-08-31 12:31:35 | 47.18620 | 8.19010 | 156° | 9km/h | 26111m | 4.7m/s | -49.6°C | -1.0% | -1.0hPa | 2.6V | 00:00:00 | 00:00:00 | 00:00:00 | |
| DO3MHA-11 | 2026-08-31 12:31:31 | 47.18627 | 8.19007 | 67° | 15km/h | 26094m | 5.1m/s | -49.6°C | 2.9% | 0hPa | 2.6V | 00:00:00 | 02:05:26 | 00:00:00 | |
| IW2NTF | 2026-08-31 12:31:29 | 47.18623 | 8.18994 | 58° | 20km/h | 26079m | 4.1m/s | -49.6°C | 2.9% | 0hPa | 2.6V | 08:30:00 | 02:05:23 | 00:00:00 | i |
| IW2NTF | 2026-08-31 12:31:23 | 47.18624 | 8.18961 | 29° | 13km/h | 26034m | 5m/s | -49.6°C | 2.9% | 0hPa | 2.4V | 08:30:00 | 02:05:13 | 00:00:00 | i |
| HASLITAL | 2026-08-31 12:31:23 | 47.18619 | 8.18968 | 117° | 15km/h | 26061m | 5.1m/s | -49.6°C | 0.6% | 0hPa | 2.6V | 00:00:00 | 00:00:00 | 00:00:00 | i |
| DO3MHA-11 | 2026-08-31 12:31:21 | 47.18625 | 8.18963 | 175° | 13km/h | 26048m | 3.7m/s | -49.5°C | 3.0% | 0hPa | 2.6V | 00:00:00 | 02:05:16 | 00:00:00 | |
| DN1GJH-1 | 2026-08-31 12:31:19 | 47.18626 | 8.18963 | 213° | 4km/h | 26044m | 4.5m/s | -49.6°C | 0.6% | 0hPa | 2.6V | 00:00:00 | 00:00:00 | 00:00:00 | |
| IW2NTF | 2026-08-31 12:31:12 | 47.18617 | 8.18924 | 119° | 5km/h | 25989m | 4.8m/s | -49.5°C | 2.9% | 0hPa | 2.6V | 08:30:00 | 02:05:03 | 00:00:00 | i |
| DO3MHA-11 | 2026-08-31 12:31:12 | 47.18611 | 8.18930 | 130° | 11km/h | 26003m | 4.8m/s | -49.5°C | 2.9% | 0hPa | 2.5V | 00:00:00 | 02:05:06 | 00:00:00 | i |
| OE5DXL-15 | 2026-08-31 12:31:10 | 47.18614 | 8.18928 | 149° | 9km/h | 25998m | 4.0m/s | -49.4°C | 2.9% | 0hPa | 2.5V | 00:00:00 | 00:00:00 | 00:00:00 | |
| DF7PN | 2026-08-31 12:31:04 | 47.18612 | 8.18911 | 43° | 11km/h | 25968m | 4.5m/s | -49.4°C | -1.0% | -1.0hPa | 2.5V | 00:00:00 | 00:00:00 | 00:00:00 | |
| HASLITAL | 2026-08-31 12:31:02 | 47.18612 | 8.18911 | 44° | 11km/h | 25968m | 4.5m/s | -49.4°C | 0.6% | 0hPa | 2.5V | 00:00:00 | 00:00:00 | 00:00:00 | |
| IW2NTF | 2026-08-31 12:31:01 | 47.18615 | 8.18911 | 222° | 7km/h | 25944m | 3.9m/s | -49.3°C | 2.8% | 0hPa | 2.5V | 08:30:00 | 02:04:53 | 00:00:00 | i |
| DN1GJH-1 | 2026-08-31 12:30:58 | 47.18613 | 8.18910 | 210° | 11km/h | 25949m | 4.3m/s | -49.3°C | 0.6% | 0hPa | 2.6V | 00:00:00 | 00:00:00 | 00:00:00 | |
| DO3MHA-11 | 2026-08-31 12:30:51 | 47.18607 | 8.18915 | 72° | 9km/h | 25912m | 5.1m/s | -49.5°C | 2.9% | 0hPa | 2.6V | 00:00:00 | 02:04:46 | 08:30:00 | |
| IW2NTF | 2026-08-31 12:30:50 | 47.18611 | 8.18911 | 165° | 11km/h | 25897m | 3.9m/s | -49.6°C | 2.9% | 0hPa | 2.6V | 08:30:00 | 02:04:43 | 00:00:00 | i |
| DO3MHA-11 | 2026-08-31 12:30:41 | 47.18605 | 8.18918 | 360° | 9km/h | 25865m | 3.9m/s | -49.6°C | 2.9% | 0hPa | 2.6V | 00:00:00 | 02:04:36 | 00:00:00 | |
| IW2NTF | 2026-08-31 12:30:40 | 47.18596 | 8.18916 | 65° | 5km/h | 25849m | 5m/s | -49.6°C | 2.9% | 0hPa | 2.6V | 08:30:00 | 02:04:33 | 00:00:00 | i |
| OE5DXL-15 | 2026-08-31 12:30:40 | 47.18600 | 8.18918 | 2° | 13km/h | 25861m | 5.1m/s | -49.6°C | 2.9% | 0hPa | 2.6V | 00:00:00 | 00:00:00 | 00:00:00 | i |
| DN1GJH-1 | 2026-08-31 12:30:37 | 47.18595 | 8.18916 | 66° | 5km/h | 25850m | 5.1m/s | -49.6°C | 0.6% | 0hPa | 2.6V | 00:00:00 | 00:00:00 | 00:00:00 | |
| DF7PN | 2026-08-31 12:30:33 | 47.18600 | 8.18911 | 329° | 4km/h | 25828m | 5.1m/s | -49.7°C | -1.0% | -1.0hPa | 2.6V | 00:00:00 | 00:00:00 | 00:00:00 | |
| DO3MHA-11 | 2026-08-31 12:30:31 | 47.18596 | 8.18916 | 329° | 9km/h | 25817m | 4.6m/s | -49.7°C | 2.8% | 0hPa | 2.6V | 00:00:00 | 02:04:26 | 00:00:00 | |
| IW2NTF | 2026-08-31 12:30:29 | 47.18581 | 8.18930 | 316° | 13km/h | 25798m | 5.5m/s | -50.1°C | 2.9% | 0hPa | 2.6V | 08:30:00 | 02:04:22 | 00:00:00 | i |
| DO3MHA-11 | 2026-08-31 12:30:21 | 47.18580 | 8.18939 | 319° | 20km/h | 25770m | 5.2m/s | -50.4°C | 3.1% | 0hPa | 2.4V | 00:00:00 | 02:04:16 | 00:00:00 | |
| IW2NTF | 2026-08-31 12:30:20 | 47.18561 | 8.18957 | 325° | 27km/h | 25751m | 3.8m/s | -50.4°C | 2.9% | 0hPa | 2.6V | 08:30:00 | 02:04:12 | 00:00:00 | i |
| LOEBOVI | 2026-08-31 12:30:19 | 47.18577 | 8.18942 | 325° | 18km/h | 25765m | 5.5m/s | -50.5°C | 0.6% | 0hPa | 2.6V | 00:00:00 | 00:00:00 | 00:00:00 | |
| DH7VM-15 | 2026-08-31 12:30:17 | 47.18561 | 8.18956 | 327° | 27km/h | 25752m | 3.8m/s | -50.4°C | 0.6% | 0hPa | 2.6V | 00:00:00 | 00:00:00 | 00:00:00 | |
| DO3MHA-11 | 2026-08-31 12:30:11 | 47.18545 | 8.18982 | 268° | 13km/h | 25723m | 3.9m/s | -50.4°C | 3.0% | 0hPa | 2.6V | 00:00:00 | 02:04:06 | 00:00:00 | |
| IW2NTF | 2026-08-31 12:30:10 | 47.18538 | 8.18998 | 320° | 18km/h | 25703m | 4.2m/s | -50.5°C | 3.1% | 0hPa | 2.6V | 08:30:00 | 02:04:02 | 00:00:00 | i |
| OE5DXL-15 | 2026-08-31 12:30:10 | 47.18545 | 8.18985 | 284° | 13km/h | 25719m | 4.7m/s | -50.4°C | 3.1% | 0hPa | 2.4V | 00:00:00 | 00:00:00 | 00:00:00 | i |
| DF7PN | 2026-08-31 12:30:02 | 47.18521 | 8.19008 | 139° | 2km/h | 25675m | 4.7m/s | 0°C | -1.0% | -1.0hPa | 2.6V | 00:00:00 | 00:00:00 | 00:00:00 | |
| IW2NTF | 2026-08-31 12:30:01 | 47.18525 | 8.19019 | 296° | 16km/h | 25649m | 5.6m/s | -50.6°C | 3% | 0hPa | 2.6V | 08:30:00 | 02:03:51 | 00:00:00 | i |
| HASLITAL | 2026-08-31 12:30:00 | 47.18521 | 8.19008 | 140° | 4km/h | 25675m | 4.7m/s | -50.7°C | 0.6% | 0hPa | 2.6V | 00:00:00 | 00:00:00 | 00:00:00 | |
| DN1GJH-1 | 2026-08-31 12:29:56 | 47.18526 | 8.19014 | 273° | 11km/h | 25655m | 5.7m/s | -50.6°C | 0.6% | 0hPa | 2.6V | 00:00:00 | 00:00:00 | 00:00:00 | |
| IW2NTF | 2026-08-31 12:29:50 | 47.18526 | 8.19040 | 150° | 7km/h | 25603m | 5m/s | -50.3°C | 3.1% | 0hPa | 2.6V | 08:30:00 | 02:03:41 | 00:00:00 | i |
| IW2NTF | 2026-08-31 12:29:40 | 47.18521 | 8.19062 | 154° | 16km/h | 25552m | 5.3m/s | -50.2°C | 2.9% | 0hPa | 2.6V | 08:30:00 | 02:03:31 | 00:00:00 | |
| HASLITAL | 2026-08-31 12:29:40 | 47.18518 | 8.19052 | 313° | 20km/h | 25578m | 3.4m/s | -50.2°C | 0.6% | 0hPa | 2.4V | 00:00:00 | 00:00:00 | 00:00:00 | |
| OE5DXL-15 | 2026-08-31 12:29:39 | 47.18514 | 8.19061 | 288° | 13km/h | 25568m | 5.7m/s | -50.2°C | 2.9% | 0hPa | 2.4V | 00:00:00 | 00:00:00 | 00:00:00 | |
| DN1GJH-1 | 2026-08-31 12:29:35 | 47.18521 | 8.19062 | 155° | 16km/h | 25552m | 5.3m/s | -50.2°C | 0.6% | 0hPa | 2.4V | 00:00:00 | 00:00:00 | 00:00:00 | |
| DF7PN | 2026-08-31 12:29:31 | 47.18523 | 8.19040 | 351° | 15km/h | 25517m | 4.7m/s | 0°C | -1.0% | -1.0hPa | 2.4V | 00:00:00 | 00:00:00 | 00:00:00 | |
| IW2NTF | 2026-08-31 12:29:30 | 47.18515 | 8.19043 | 316° | 4km/h | 25500m | 5.1m/s | -50.4°C | 3% | 0hPa | 2.4V | 08:30:00 | 02:03:21 | 00:00:00 | i |
| DK5PH-5 | 2026-08-31 12:29:30 | 47.18526 | 8.19040 | 14° | 13km/h | 25522m | 5.0m/s | -50.4°C | 3.0% | 0hPa | 2.6V | 00:00:00 | 02:03:25 | 00:00:00 | i |
| IW2NTF | 2026-08-31 12:29:20 | 47.18501 | 8.19004 | 48° | 18km/h | 25454m | 4.9m/s | -50.7°C | 3.1% | 0hPa | 2.6V | 08:30:00 | 02:03:11 | 00:00:00 | i |
| HASLITAL | 2026-08-31 12:29:19 | 47.18515 | 8.19027 | 66° | 18km/h | 25472m | 5.8m/s | -50.7°C | 0.6% | 0hPa | 2.4V | 00:00:00 | 00:00:00 | 00:00:00 | |
| DN1GJH-1 | 2026-08-31 12:29:14 | 47.18498 | 8.18998 | 63° | 18km/h | 25449m | 5.3m/s | -50.8°C | 0.6% | 0hPa | 2.4V | 00:00:00 | 00:00:00 | 00:00:00 | |
| OE5DXL-15 | 2026-08-31 12:29:08 | 47.18489 | 8.18971 | 25° | 15km/h | 25413m | 5.8m/s | -50.6°C | 3.0% | 0hPa | 2.4V | 00:00:00 | 00:00:00 | 00:00:00 | |
| IW2NTF | 2026-08-31 12:29:01 | 47.18461 | 8.18946 | 70° | 7km/h | 25365m | 5.1m/s | -50.6°C | 3.1% | 0hPa | 2.4V | 08:30:00 | 02:02:53 | 00:00:00 | i |
| DF7PN | 2026-08-31 12:29:00 | 47.18427 | 8.18931 | 32° | 7km/h | 25326m | 5.6m/s | 0°C | -1.0% | -1.0hPa | 2.6V | 00:00:00 | 00:00:00 | 00:00:00 | |
| HASLITAL | 2026-08-31 12:28:58 | 47.18461 | 8.18948 | 106° | 4km/h | 25370m | 3.4m/s | -50.5°C | 0.6% | 0hPa | 2.6V | 00:00:00 | 00:00:00 | 00:00:00 | |
| DN1GJH-1 | 2026-08-31 12:28:54 | 47.18451 | 8.18940 | 18° | 24km/h | 25350m | 4.5m/s | -50.6°C | 0.7% | 0hPa | 2.6V | 00:00:00 | 00:00:00 | 00:00:00 | |
| DH7VM-15 | 2026-08-31 12:28:51 | 47.18434 | 8.18934 | 11° | 20km/h | 25337m | 4.8m/s | -50.6°C | 0.6% | 0hPa | 2.6V | 00:00:00 | 00:00:00 | 00:00:00 | |
| OE5DXL-15 | 2026-08-31 12:28:38 | 47.18395 | 8.18930 | 356° | 20km/h | 25269m | 5.1m/s | -50.6°C | 3.0% | 0hPa | 2.6V | 00:00:00 | 00:00:00 | 00:00:00 | |
| HASLITAL | 2026-08-31 12:28:37 | 47.18395 | 8.18930 | 357° | 5km/h | 25269m | 5.2m/s | -50.7°C | 0.6% | 0hPa | 2.4V | 00:00:00 | 00:00:00 | 00:00:00 | |
| DN1GJH-1 | 2026-08-31 12:28:33 | 47.18394 | 8.18934 | 306° | 4km/h | 25250m | 5.5m/s | -50.6°C | 0.6% | 0hPa | 2.4V | 00:00:00 | 00:00:00 | 00:00:00 | |
| DF7PN | 2026-08-31 12:28:29 | 47.18349 | 8.18959 | 318° | 18km/h | 25206m | 4.5m/s | 0°C | -1.0% | -1.0hPa | 2.4V | 00:00:00 | 00:00:00 | 00:00:00 | |
| HASLITAL | 2026-08-31 12:28:16 | 47.18313 | 8.18978 | 333° | 24km/h | 25170m | 5.1m/s | -51.5°C | 0.7% | 0hPa | 2.4V | 00:00:00 | 00:00:00 | 00:00:00 | |
| DN1GJH-1 | 2026-08-31 12:28:13 | 47.18298 | 8.18997 | 308° | 26km/h | 25153m | 5.2m/s | -51.7°C | 0.7% | 0hPa | 2.4V | 00:00:00 | 00:00:00 | 00:00:00 | |
| OE5DXL-15 | 2026-08-31 12:28:07 | 47.18260 | 8.19030 | 3° | 18km/h | 25119m | 3.8m/s | -51.8°C | 3.3% | 0hPa | 2.4V | 00:00:00 | 00:00:00 | 00:00:00 | |
| DF7PN | 2026-08-31 12:27:58 | 47.18215 | 8.19073 | 347° | 31km/h | 25059m | 4.5m/s | 0°C | -1.0% | -1.0hPa | 2.4V | 00:00:00 | 00:00:00 | 00:00:00 | |
| HASLITAL | 2026-08-31 12:27:56 | 47.18230 | 8.19068 | 351° | 31km/h | 25068m | 5.2m/s | -51.8°C | 0.7% | 0hPa | 2.4V | 00:00:00 | 00:00:00 | 00:00:00 | |
| DN1GJH-1 | 2026-08-31 12:27:52 | 47.18201 | 8.19082 | 322° | 24km/h | 25048m | 5.7m/s | -51.7°C | 0.7% | 0hPa | 2.4V | 00:00:00 | 00:00:00 | 00:00:00 | |
| LOEBOVI | 2026-08-31 12:27:37 | 47.18164 | 8.19128 | 324° | 18km/h | 24977m | 4.5m/s | -51.4°C | 0.7% | 0hPa | 2.4V | 00:00:00 | 00:00:00 | 00:00:00 | |
| HASLITAL | 2026-08-31 12:27:35 | 47.18156 | 8.19139 | 321° | 22km/h | 24966m | 5.9m/s | -51.4°C | 0.7% | 0hPa | 2.4V | 00:00:00 | 00:00:00 | 00:00:00 | |
| DH7VM-15 | 2026-08-31 12:27:32 | 47.18142 | 8.19158 | 318° | 26km/h | 24951m | 4.9m/s | -51.4°C | 0.7% | 0hPa | 2.4V | 00:00:00 | 00:00:00 | 00:00:00 | |
| DN1GJH-1 | 2026-08-31 12:27:31 | 47.18138 | 8.19164 | 303° | 20km/h | 24946m | 5.1m/s | -51.4°C | 0.7% | 0hPa | 2.4V | 00:00:00 | 00:00:00 | 00:00:00 | |
| HASLITAL | 2026-08-31 12:27:15 | 47.18108 | 8.19226 | 254° | 20km/h | 24865m | 4.4m/s | -51.3°C | 0.7% | 0hPa | 2.4V | 00:00:00 | 00:00:00 | 00:00:00 | |
| DH7VM-15 | 2026-08-31 12:27:12 | 47.18109 | 8.19246 | 285° | 18km/h | 24850m | 5.4m/s | -51.3°C | 0.6% | 0hPa | 2.4V | 00:00:00 | 00:00:00 | 00:00:00 | |
| DN1GJH-1 | 2026-08-31 12:27:11 | 47.18106 | 8.19252 | 308° | 18km/h | 24845m | 4.9m/s | -51.4°C | 0.7% | 0hPa | 2.4V | 00:00:00 | 00:00:00 | 00:00:00 | |
| HASLITAL | 2026-08-31 12:26:55 | 47.18084 | 8.19308 | 246° | 7km/h | 24766m | 4.5m/s | -51.7°C | 0.7% | 0hPa | 2.4V | 00:00:00 | 00:00:00 | 00:00:00 | |
| DN1GJH-1 | 2026-08-31 12:26:50 | 47.18082 | 8.19311 | 14° | 15km/h | 24744m | 6.1m/s | -52.1°C | 0.7% | 0hPa | 2.4V | 00:00:00 | 00:00:00 | 00:00:00 | |
| HASLITAL | 2026-08-31 12:26:34 | 47.18031 | 8.19314 | 13° | 26km/h | 24667m | 4.5m/s | -52.3°C | 0.7% | 0hPa | 2.4V | 00:00:00 | 00:00:00 | 00:00:00 | |
| DN1GJH-1 | 2026-08-31 12:26:29 | 47.18017 | 8.19310 | 0° | 0km/h | 24643m | 4.0m/s | -52.2°C | 0.7% | 0hPa | 2.4V | 00:00:00 | 00:00:00 | 00:00:00 | |
| LOEBOVI | 2026-08-31 12:26:16 | 47.17968 | 8.19307 | 1° | 16km/h | 24581m | 5.3m/s | -52.1°C | 0.7% | 0hPa | 2.4V | 00:00:00 | 00:00:00 | 00:00:00 | |
| HASLITAL | 2026-08-31 12:26:14 | 47.17959 | 8.19307 | 356° | 20km/h | 24571m | 4.7m/s | -52.2°C | 0.7% | 0hPa | 2.4V | 00:00:00 | 00:00:00 | 00:00:00 | |
| DN1GJH-1 | 2026-08-31 12:26:08 | 47.17938 | 8.19304 | 26° | 9km/h | 24542m | 3.9m/s | -52.1°C | 0.7% | 0hPa | 2.4V | 00:00:00 | 00:00:00 | 00:00:00 | |
| OE5DXL-15 | 2026-08-31 12:25:57 | 47.17868 | 8.19312 | 33° | 20km/h | 24485m | 4.3m/s | -52.3°C | 3.3% | 0hPa | 2.4V | 00:00:00 | 00:00:00 | 00:00:00 | |
| HASLITAL | 2026-08-31 12:25:55 | 47.17858 | 8.19314 | 329° | 24km/h | 24469m | 4.9m/s | -52.3°C | 0.7% | 0hPa | 2.4V | 00:00:00 | 00:00:00 | 00:00:00 | |
| DN1GJH-1 | 2026-08-31 12:25:47 | 47.17817 | 8.19339 | 4° | 29km/h | 24440m | 4.6m/s | -52.3°C | 0.8% | 0hPa | 2.4V | 00:00:00 | 00:00:00 | 00:00:00 | |
| DO3MHA-11 | 2026-08-31 12:25:45 | 47.17798 | 8.19337 | 360° | 20km/h | 24428m | 4.9m/s | -52.2°C | 3.3% | 0hPa | 2.4V | 00:00:00 | 01:59:40 | 00:00:00 | |
| DH7VM-15 | 2026-08-31 12:25:44 | 47.17798 | 8.19337 | 361° | 22km/h | 24428m | 5.0m/s | -52.2°C | 0.7% | 0hPa | 2.4V | 00:00:00 | 00:00:00 | 00:00:00 | |
| HASLITAL | 2026-08-31 12:25:32 | 47.17746 | 8.19363 | 347° | 24km/h | 24371m | 5.6m/s | -52.0°C | 0.7% | 0hPa | 2.4V | 00:00:00 | 00:00:00 | 00:00:00 | |
| OE5DXL-15 | 2026-08-31 12:25:26 | 47.17710 | 8.19392 | 354° | 18km/h | 24336m | 4.6m/s | -51.9°C | 3.2% | 0hPa | 2.4V | 00:00:00 | 00:00:00 | 08:30:00 | |
| HASLITAL | 2026-08-31 12:25:12 | 47.17640 | 8.19395 | 20° | 26km/h | 24275m | 3.7m/s | -52.1°C | 0.7% | 0hPa | 2.6V | 00:00:00 | 00:00:00 | 00:00:00 | |
| DN1GJH-1 | 2026-08-31 12:25:05 | 47.17617 | 8.19399 | 354° | 13km/h | 24243m | 4.9m/s | -52.3°C | 0.7% | 0hPa | 2.6V | 00:00:00 | 00:00:00 | 00:00:00 | |
| LOEBOVI | 2026-08-31 12:24:55 | 47.17570 | 8.19368 | 327° | 16km/h | 24195m | 4.4m/s | -52.2°C | 0.7% | 0hPa | 2.6V | 00:00:00 | 00:00:00 | 00:00:00 | |
| OE5DXL-15 | 2026-08-31 12:24:54 | 47.17564 | 8.19372 | 342° | 29km/h | 24187m | 4.4m/s | -52.3°C | 3.3% | 0hPa | 2.6V | 00:00:00 | 00:00:00 | 00:00:00 | |
| HASLITAL | 2026-08-31 12:24:51 | 47.17558 | 8.19369 | 36° | 16km/h | 24178m | 4.4m/s | -52.3°C | 0.7% | 0hPa | 2.6V | 00:00:00 | 00:00:00 | 00:00:00 | |
| DO3MHA-11 | 2026-08-31 12:24:48 | 47.17539 | 8.19347 | 25° | 26km/h | 24159m | 5.3m/s | -52.2°C | 3.3% | 0hPa | 2.6V | 00:00:00 | 01:58:43 | 00:00:00 | |
| DN1GJH-1 | 2026-08-31 12:24:44 | 47.17517 | 8.19343 | 351° | 31km/h | 24144m | 4.8m/s | -52.2°C | 0.7% | 0hPa | 2.6V | 00:00:00 | 00:00:00 | 00:00:00 | |
| DH7VM-15 | 2026-08-31 12:24:32 | 47.17435 | 8.19349 | 356° | 26km/h | 24088m | 4.3m/s | -52.3°C | 0.7% | 0hPa | 2.6V | 00:00:00 | 00:00:00 | 00:00:00 | |
| HASLITAL | 2026-08-31 12:24:31 | 47.17428 | 8.19349 | 360° | 31km/h | 24083m | 5.6m/s | -52.3°C | 0.8% | 0hPa | 2.6V | 00:00:00 | 00:00:00 | 00:00:00 | |
| DO3MHA-11 | 2026-08-31 12:24:30 | 47.17411 | 8.19347 | 9° | 31km/h | 24072m | 4.3m/s | -52.3°C | 3.3% | 0hPa | 2.6V | 00:00:00 | 01:58:25 | 00:00:00 | |
| DN1GJH-1 | 2026-08-31 12:24:24 | 47.17368 | 8.19352 | 326° | 31km/h | 24051m | 5.5m/s | -52.2°C | 0.8% | 0hPa | 2.6V | 00:00:00 | 00:00:00 | 00:00:00 | |
| OE5DXL-15 | 2026-08-31 12:24:22 | 47.17352 | 8.19374 | 316° | 29km/h | 24036m | 4.5m/s | -52.1°C | 3.4% | 0hPa | 2.6V | 00:00:00 | 00:00:00 | 00:00:00 | |
| HASLITAL | 2026-08-31 12:24:10 | 47.17275 | 8.19412 | 306° | 33km/h | 23986m | 4.7m/s | -51.9°C | 0.7% | 0hPa | 2.6V | 00:00:00 | 00:00:00 | 00:00:00 | |
| DN1GJH-1 | 2026-08-31 12:24:03 | 47.17232 | 8.19452 | 348° | 27km/h | 23954m | 4.8m/s | -51.9°C | 0.8% | 0hPa | 2.6V | 00:00:00 | 00:00:00 | 00:00:00 | |
| HASLITAL | 2026-08-31 12:23:50 | 47.17166 | 8.19540 | 302° | 24km/h | 23891m | 5.0m/s | -51.6°C | 0.7% | 0hPa | 2.6V | 00:00:00 | 00:00:00 | 00:00:00 | |
| OE5DXL-15 | 2026-08-31 12:23:48 | 47.17154 | 8.19562 | 320° | 26km/h | 23877m | 5.5m/s | -51.6°C | 3.2% | 0hPa | 2.6V | 00:00:00 | 00:00:00 | 00:00:00 | |
| DN1GJH-1 | 2026-08-31 12:23:43 | 47.17132 | 8.19588 | 317° | 27km/h | 23860m | 3.7m/s | -51.6°C | 0.7% | 0hPa | 2.4V | 00:00:00 | 00:00:00 | 00:00:00 | |
| LOEBOVI | 2026-08-31 12:23:33 | 47.17103 | 8.19677 | 332° | 26km/h | 23811m | 4.5m/s | -51.4°C | 0.7% | 0hPa | 2.4V | 00:00:00 | 00:00:00 | 00:00:00 | |
| HASLITAL | 2026-08-31 12:23:29 | 47.17086 | 8.19702 | 287° | 29km/h | 23791m | 5.3m/s | -51.6°C | 0.7% | 0hPa | 2.4V | 00:00:00 | 00:00:00 | 00:00:00 | |
| DN1GJH-1 | 2026-08-31 12:23:22 | 47.17077 | 8.19780 | 300° | 24km/h | 23759m | 4.1m/s | -51.7°C | 0.7% | 0hPa | 2.4V | 00:00:00 | 00:00:00 | 00:00:00 | |
| OE5DXL-15 | 2026-08-31 12:23:17 | 47.17067 | 8.19833 | 274° | 16km/h | 23728m | 4.6m/s | -51.7°C | 3.3% | 0hPa | 2.4V | 00:00:00 | 00:00:00 | 00:00:00 | |
| HASLITAL | 2026-08-31 12:23:08 | 47.17052 | 8.19893 | 288° | 16km/h | 23695m | 5.3m/s | -51.6°C | 0.7% | 0hPa | 2.4V | 00:00:00 | 00:00:00 | 00:00:00 | |
| DH7VM-15 | 2026-08-31 12:23:04 | 47.17054 | 8.19915 | 277° | 13km/h | 23671m | 5.6m/s | -51.5°C | 0.7% | 0hPa | 2.4V | 00:00:00 | 00:00:00 | 00:00:00 | |
| DN1GJH-1 | 2026-08-31 12:23:01 | 47.17051 | 8.19925 | 304° | 20km/h | 23661m | 4.3m/s | -51.5°C | 0.7% | 0hPa | 2.4V | 00:00:00 | 00:00:00 | 00:00:00 | |
| HASLITAL | 2026-08-31 12:22:47 | 47.17038 | 8.19981 | 335° | 11km/h | 23596m | 4.9m/s | -51.5°C | 0.7% | 0hPa | 2.4V | 00:00:00 | 00:00:00 | 00:00:00 | |
| DN1GJH-1 | 2026-08-31 12:22:40 | 47.17034 | 8.20019 | 295° | 16km/h | 23563m | 4.2m/s | -51.5°C | 0.8% | 0hPa | 2.4V | 00:00:00 | 00:00:00 | 00:00:00 | |
| HASLITAL | 2026-08-31 12:22:27 | 47.17021 | 8.20058 | 297° | 7km/h | 23499m | 5.2m/s | -51.5°C | 0.7% | 0hPa | 2.4V | 00:00:00 | 00:00:00 | 00:00:00 | |
| DN1GJH-1 | 2026-08-31 12:22:19 | 47.17034 | 8.20069 | 296° | 5km/h | 23465m | 5.0m/s | -51.3°C | 0.7% | 0hPa | 2.4V | 00:00:00 | 00:00:00 | 00:00:00 | |
| OE5DXL-15 | 2026-08-31 12:22:16 | 47.17027 | 8.20076 | 330° | 11km/h | 23446m | 4.8m/s | -51.4°C | 3.2% | 0hPa | 2.4V | 00:00:00 | 00:00:00 | 00:00:00 | |
| LOEBOVI | 2026-08-31 12:22:11 | 47.17025 | 8.20086 | 271° | 7km/h | 23429m | 4.4m/s | -51.4°C | 0.7% | 0hPa | 2.6V | 00:00:00 | 00:00:00 | 00:00:00 | |
| HASLITAL | 2026-08-31 12:22:05 | 47.17020 | 8.20102 | 360° | 4km/h | 23399m | 5.4m/s | -51.5°C | 0.7% | 0hPa | 2.6V | 00:00:00 | 00:00:00 | 00:00:00 | |
| OE5DXL-15 | 2026-08-31 12:21:46 | 47.16981 | 8.20134 | 334° | 16km/h | 23304m | 4.6m/s | -52.0°C | 3.3% | 0hPa | 2.6V | 00:00:00 | 00:00:00 | 00:00:00 | |
| HASLITAL | 2026-08-31 12:21:44 | 47.16976 | 8.20138 | 339° | 24km/h | 23299m | 4.9m/s | -52.2°C | 0.8% | 0hPa | 2.6V | 00:00:00 | 00:00:00 | 00:00:00 | |
| DN1GJH-1 | 2026-08-31 12:21:38 | 47.16958 | 8.20159 | 311° | 15km/h | 23271m | 4.9m/s | -52.3°C | 0.8% | 0hPa | 2.6V | 00:00:00 | 00:00:00 | 00:00:00 | |
| HASLITAL | 2026-08-31 12:21:23 | 47.16910 | 8.20212 | 299° | 16km/h | 23201m | 5.2m/s | -52.2°C | 0.8% | 0hPa | 2.6V | 00:00:00 | 00:00:00 | 00:00:00 | |
| DN1GJH-1 | 2026-08-31 12:21:18 | 47.16903 | 8.20229 | 313° | 16km/h | 23178m | 5.2m/s | -52.2°C | 0.8% | 0hPa | 2.6V | 00:00:00 | 00:00:00 | 00:00:00 | |
| OE5DXL-15 | 2026-08-31 12:21:15 | 47.16886 | 8.20252 | 317° | 16km/h | 23159m | 4.6m/s | -52.3°C | 3.3% | 0hPa | 2.6V | 00:00:00 | 00:00:00 | 00:00:00 | |
| HASLITAL | 2026-08-31 12:21:02 | 47.16862 | 8.20332 | 320° | 16km/h | 23103m | 5.9m/s | -52.6°C | 0.8% | 0hPa | 2.6V | 00:00:00 | 00:00:00 | 00:00:00 | |
| DN1GJH-1 | 2026-08-31 12:20:57 | 47.16849 | 8.20348 | 293° | 20km/h | 23078m | 4.7m/s | -52.4°C | 0.8% | 0hPa | 2.6V | 00:00:00 | 00:00:00 | 00:00:00 | |
| LOEBOVI | 2026-08-31 12:20:49 | 47.16842 | 8.20397 | 232° | 4km/h | 23038m | 5.1m/s | -52.5°C | 0.8% | 0hPa | 2.6V | 00:00:00 | 00:00:00 | 00:00:00 | |
| DH7VM-15 | 2026-08-31 12:20:47 | 47.16843 | 8.20399 | 265° | 5km/h | 23028m | 5.5m/s | -52.6°C | 0.8% | 0hPa | 2.6V | 00:00:00 | 00:00:00 | 00:00:00 | |
| DN1GJH-1 | 2026-08-31 12:20:37 | 47.16849 | 8.20423 | 172° | 9km/h | 22978m | 4.4m/s | -52.7°C | 0.8% | 0hPa | 2.6V | 00:00:00 | 00:00:00 | 00:00:00 | |
| HASLITAL | 2026-08-31 12:20:20 | 47.16873 | 8.20405 | 165° | 4km/h | 22899m | 5.3m/s | -52.6°C | 0.8% | 0hPa | 2.6V | 00:00:00 | 00:00:00 | 00:00:00 | |
| DN1GJH-1 | 2026-08-31 12:20:16 | 47.16876 | 8.20390 | 110° | 15km/h | 22880m | 4.6m/s | -52.5°C | 0.8% | 0hPa | 2.6V | 00:00:00 | 00:00:00 | 00:00:00 | |
| OE5DXL-15 | 2026-08-31 12:20:12 | 47.16889 | 8.20373 | 156° | 18km/h | 22857m | 4.0m/s | -52.5°C | 3.5% | 0hPa | 2.6V | 00:00:00 | 00:00:00 | 00:00:00 | |
| HASLITAL | 2026-08-31 12:20:00 | 47.16916 | 8.20322 | 139° | 20km/h | 22807m | 4.2m/s | -52.5°C | 0.8% | 0hPa | 2.6V | 00:00:00 | 00:00:00 | 00:00:00 | |
| DN1GJH-1 | 2026-08-31 12:19:55 | 47.16940 | 8.20280 | 128° | 33km/h | 22782m | 4.3m/s | -52.4°C | 0.8% | 0hPa | 2.6V | 00:00:00 | 00:00:00 | 00:00:00 | |
| HASLITAL | 2026-08-31 12:19:39 | 47.16978 | 8.20193 | 109° | 18km/h | 22710m | 4.3m/s | -52.1°C | 0.7% | 0hPa | 2.6V | 00:00:00 | 00:00:00 | 00:00:00 | |
| DH7VM-15 | 2026-08-31 12:19:35 | 47.16982 | 8.20153 | 99° | 20km/h | 22684m | 4.1m/s | -52.0°C | 0.8% | 0hPa | 2.6V | 00:00:00 | 00:00:00 | 00:00:00 | |
| DN1GJH-1 | 2026-08-31 12:19:34 | 47.16982 | 8.20153 | 99° | 20km/h | 22684m | 4.1m/s | -52.0°C | 0.8% | 0hPa | 2.6V | 00:00:00 | 00:00:00 | 00:00:00 | |
| LOEBOVI | 2026-08-31 12:19:27 | 47.16995 | 8.20130 | 113° | 13km/h | 22652m | 5.7m/s | -52.1°C | 0.7% | 0hPa | 2.6V | 00:00:00 | 00:00:00 | 00:00:00 | |
| HASLITAL | 2026-08-31 12:19:19 | 47.16996 | 8.20070 | 153° | 9km/h | 22613m | 4.8m/s | -52.2°C | 0.8% | 0hPa | 2.6V | 00:00:00 | 00:00:00 | 00:00:00 | |
| DN1GJH-1 | 2026-08-31 12:19:13 | 47.17006 | 8.20054 | 106° | 15km/h | 22585m | 4.9m/s | -52.2°C | 0.8% | 0hPa | 2.6V | 00:00:00 | 00:00:00 | 00:00:00 | |
| HASLITAL | 2026-08-31 12:18:58 | 47.17019 | 8.19987 | 141° | 9km/h | 22515m | 3.9m/s | -52.3°C | 0.8% | 0hPa | 2.6V | 00:00:00 | 00:00:00 | 00:00:00 | |
| DN1GJH-1 | 2026-08-31 12:18:52 | 47.17010 | 8.19959 | 55° | 15km/h | 22486m | 4.6m/s | -52.4°C | 0.8% | 0hPa | 2.6V | 00:00:00 | 00:00:00 | 00:00:00 | |
| OE5DXL-15 | 2026-08-31 12:18:47 | 47.17010 | 8.19943 | 90° | 9km/h | 22460m | 4.3m/s | -52.8°C | 3.5% | 0hPa | 2.6V | 00:00:00 | 00:00:00 | 00:00:00 | |
| HASLITAL | 2026-08-31 12:18:38 | 47.16986 | 8.19896 | 11° | 9km/h | 22422m | 4.8m/s | -52.9°C | 0.8% | 0hPa | 2.4V | 00:00:00 | 00:00:00 | 00:00:00 | |
| DN1GJH-1 | 2026-08-31 12:18:32 | 47.16978 | 8.19889 | 76° | 11km/h | 22389m | 3.5m/s | -52.9°C | 0.9% | 0hPa | 2.4V | 00:00:00 | 00:00:00 | 00:00:00 | |
| DL1ZP-14 | 2026-08-31 12:18:26 | 47.16969 | 8.19885 | 18° | 4km/h | 22339m | 5.0m/s | -52.7°C | 0.7% | -1.0hPa | 2.4V | 00:00:00 | 00:00:00 | 00:00:00 | |
| HASLITAL | 2026-08-31 12:18:18 | 47.16967 | 8.19879 | 89° | 5km/h | 22326m | 5.0m/s | -52.8°C | 0.8% | 0hPa | 2.4V | 00:00:00 | 00:00:00 | 00:00:00 | |
| OE5DXL-15 | 2026-08-31 12:18:17 | 47.16968 | 8.19878 | 187° | 4km/h | 22315m | 5.0m/s | 0°C | 0% | 0hPa | 2.4V | 00:00:00 | 00:00:00 | 00:00:00 | |
| DH7VM-15 | 2026-08-31 12:18:13 | 47.16972 | 8.19883 | 240° | 7km/h | 22302m | 4.6m/s | -52.8°C | 0.8% | 0hPa | 2.4V | 00:00:00 | 00:00:00 | 00:00:00 | |
| DN1GJH-1 | 2026-08-31 12:18:11 | 47.16973 | 8.19884 | 28° | 2km/h | 22291m | 5.6m/s | -52.7°C | 0.9% | 0hPa | 2.4V | 00:00:00 | 00:00:00 | 00:00:00 | |
| LOEBOVI | 2026-08-31 12:18:05 | 47.16971 | 8.19873 | 0° | 0km/h | 22262m | 4.2m/s | -52.4°C | 0.8% | 0hPa | 2.4V | 00:00:00 | 00:00:00 | 00:00:00 | |
| DL1ZP-14 | 2026-08-31 12:17:56 | 47.16961 | 8.19843 | 64° | 15km/h | 22191m | 5.7m/s | -52.0°C | 0.7% | -1.0hPa | 2.4V | 00:00:00 | 00:00:00 | 00:00:00 | |
| DN1GJH-1 | 2026-08-31 12:17:50 | 47.16961 | 8.19843 | 65° | 16km/h | 22191m | 5.7m/s | -52.0°C | 0.8% | 0hPa | 2.4V | 00:00:00 | 00:00:00 | 00:00:00 | |
| OE5DXL-15 | 2026-08-31 12:17:46 | 47.16949 | 8.19811 | 58° | 16km/h | 22166m | 5.2m/s | 0°C | 0% | 0hPa | 2.4V | 00:00:00 | 00:00:00 | 00:00:00 | |
| HASLITAL | 2026-08-31 12:17:37 | 47.16938 | 8.19790 | 69° | 16km/h | 22129m | 4.6m/s | -51.8°C | 0.8% | 0hPa | 2.4V | 00:00:00 | 00:00:00 | 00:00:00 | |
| DN1GJH-1 | 2026-08-31 12:17:30 | 47.16919 | 8.19751 | 54° | 22km/h | 22091m | 4.9m/s | -51.5°C | 0.8% | 0hPa | 2.4V | 00:00:00 | 00:00:00 | 00:00:00 | |
| DL1ZP-14 | 2026-08-31 12:17:24 | 47.16894 | 8.19706 | 43° | 22km/h | 22043m | 5.1m/s | -51.6°C | 0.6% | -1.0hPa | 2.4V | 00:00:00 | 00:00:00 | 00:00:00 | |
| HASLITAL | 2026-08-31 12:17:16 | 47.16880 | 8.19684 | 52° | 26km/h | 22029m | 4.9m/s | -51.7°C | 0.8% | 0hPa | 2.6V | 00:00:00 | 00:00:00 | 00:00:00 | |
| DN1GJH-1 | 2026-08-31 12:17:08 | 47.16849 | 8.19653 | 28° | 22km/h | 21992m | 4.2m/s | -51.7°C | 0.8% | 0hPa | 2.6V | 00:00:00 | 00:00:00 | 00:00:00 | |
| DH7VM-15 | 2026-08-31 12:16:57 | 47.16789 | 8.19607 | 22° | 31km/h | 21943m | 4.0m/s | -51.8°C | 0.8% | 0hPa | 2.6V | 00:00:00 | 00:00:00 | 00:00:00 | |
| HASLITAL | 2026-08-31 12:16:56 | 47.16782 | 8.19604 | 11° | 27km/h | 21939m | 5.2m/s | -51.7°C | 0.8% | 0hPa | 2.6V | 00:00:00 | 00:00:00 | 00:00:00 | |
| DO3MHA-11 | 2026-08-31 12:16:53 | 47.16762 | 8.19606 | 337° | 24km/h | 21920m | 3.7m/s | -51.6°C | 3.3% | 0hPa | 2.6V | 00:00:00 | 01:50:48 | 08:30:00 | |
| DN1GJH-1 | 2026-08-31 12:16:48 | 47.16733 | 8.19607 | 19° | 27km/h | 21898m | 4.5m/s | -51.8°C | 0.8% | 0hPa | 2.4V | 00:00:00 | 00:00:00 | 00:00:00 | |
| LOEBOVI | 2026-08-31 12:16:44 | 47.16716 | 8.19596 | 29° | 20km/h | 21883m | 4.6m/s | -51.7°C | 0.8% | 0hPa | 2.4V | 00:00:00 | 00:00:00 | 00:00:00 | |
| DO3MHA-11 | 2026-08-31 12:16:43 | 47.16708 | 8.19590 | 19° | 18km/h | 21875m | 3.7m/s | -51.6°C | 3.3% | 0hPa | 2.4V | 00:00:00 | 01:50:38 | 00:00:00 | |
| HASLITAL | 2026-08-31 12:16:35 | 47.16671 | 8.19600 | 333° | 18km/h | 21843m | 4.5m/s | -51.6°C | 0.8% | 0hPa | 2.4V | 00:00:00 | 00:00:00 | 00:00:00 | |
| DO3MHA-11 | 2026-08-31 12:16:32 | 47.16657 | 8.19607 | 1° | 11km/h | 21827m | 4.9m/s | -51.5°C | 3.2% | 0hPa | 2.4V | 00:00:00 | 01:50:27 | 00:00:00 | |
| DN1GJH-1 | 2026-08-31 12:16:27 | 47.16640 | 8.19602 | 15° | 16km/h | 21810m | 4.0m/s | -51.6°C | 0.8% | 0hPa | 2.4V | 00:00:00 | 00:00:00 | 00:00:00 | |
| DO3MHA-11 | 2026-08-31 12:16:20 | 47.16623 | 8.19607 | 328° | 11km/h | 21772m | 4.1m/s | -51.5°C | 3.2% | 0hPa | 2.4V | 00:00:00 | 01:50:15 | 00:00:00 | |
| HASLITAL | 2026-08-31 12:16:15 | 47.16610 | 8.19609 | 37° | 9km/h | 21756m | 5.1m/s | -51.6°C | 0.8% | 0hPa | 2.4V | 00:00:00 | 00:00:00 | 00:00:00 | |
| DO3MHA-11 | 2026-08-31 12:16:10 | 47.16603 | 8.19595 | 351° | 13km/h | 21730m | 4.7m/s | -51.6°C | 3.2% | 0hPa | 2.4V | 00:00:00 | 01:50:05 | 00:00:00 | |
| DN1GJH-1 | 2026-08-31 12:16:07 | 47.16597 | 8.19598 | 328° | 15km/h | 21722m | 4.5m/s | -51.7°C | 0.8% | 0hPa | 2.4V | 00:00:00 | 00:00:00 | 00:00:00 | |
| DL1ZP-14 | 2026-08-31 12:15:51 | 47.16567 | 8.19608 | 307° | 11km/h | 21642m | 5.6m/s | -52.3°C | 0.7% | -1.0hPa | 2.4V | 00:00:00 | 00:00:00 | 00:00:00 | |
| DN1GJH-1 | 2026-08-31 12:15:46 | 47.16560 | 8.19617 | 345° | 9km/h | 21630m | 4.1m/s | -52.3°C | 0.8% | 0hPa | 2.4V | 00:00:00 | 00:00:00 | 00:00:00 | |
| DH7VM-15 | 2026-08-31 12:15:41 | 47.16553 | 8.19602 | 63° | 15km/h | 21607m | 3.9m/s | -52.5°C | 0.8% | 0hPa | 2.4V | 00:00:00 | 00:00:00 | 00:00:00 | |
| DO3MHA-11 | 2026-08-31 12:15:38 | 47.16542 | 8.19593 | 353° | 15km/h | 21589m | 4.3m/s | -52.6°C | 3.4% | 0hPa | 2.4V | 00:00:00 | 01:49:33 | 00:00:00 | |
| HASLITAL | 2026-08-31 12:15:34 | 47.16532 | 8.19595 | 359° | 9km/h | 21576m | 4.6m/s | -52.7°C | 0.9% | 0hPa | 2.4V | 00:00:00 | 00:00:00 | 00:00:00 | |
| DO3MHA-11 | 2026-08-31 12:15:28 | 47.16512 | 8.19593 | 6° | 20km/h | 21548m | 4.7m/s | -52.6°C | 3.4% | 0hPa | 2.4V | 00:00:00 | 01:49:23 | 00:00:00 | |
| DN1GJH-1 | 2026-08-31 12:15:25 | 47.16502 | 8.19589 | 22° | 20km/h | 21538m | 5.0m/s | -52.6°C | 0.8% | 0hPa | 2.6V | 00:00:00 | 00:00:00 | 00:00:00 | |
| LOEBOVI | 2026-08-31 12:15:24 | 47.16494 | 8.19583 | 30° | 18km/h | 21529m | 3.6m/s | -52.6°C | 0.8% | 0hPa | 2.6V | 00:00:00 | 00:00:00 | 00:00:00 | |
| DL1ZP-14 | 2026-08-31 12:15:20 | 47.16467 | 8.19589 | 328° | 27km/h | 21502m | 4.3m/s | -52.8°C | 0.7% | -1.0hPa | 2.6V | 00:00:00 | 00:00:00 | 00:00:00 | |
| DO3MHA-11 | 2026-08-31 12:15:14 | 47.16446 | 8.19601 | 359° | 22km/h | 21485m | 4.0m/s | -52.6°C | 3.4% | 0hPa | 2.6V | 00:00:00 | 01:49:09 | 00:00:00 | |
| DN1GJH-1 | 2026-08-31 12:15:05 | 47.16406 | 8.19610 | 334° | 22km/h | 21449m | 4.8m/s | -52.6°C | 0.9% | 0hPa | 2.6V | 00:00:00 | 00:00:00 | 00:00:00 | |
| DL1ZP-14 | 2026-08-31 12:14:49 | 47.16311 | 8.19692 | 311° | 31km/h | 21371m | 4.0m/s | -52.7°C | 0.7% | -1.0hPa | 2.6V | 00:00:00 | 00:00:00 | 00:00:00 | |
| DO3MHA-11 | 2026-08-31 12:14:48 | 47.16311 | 8.19692 | 312° | 26km/h | 21372m | 4.0m/s | -52.6°C | 3.4% | 0hPa | 2.6V | 00:00:00 | 01:48:43 | 08:30:00 | |
| DN1GJH-1 | 2026-08-31 12:14:44 | 47.16296 | 8.19711 | 330° | 22km/h | 21359m | 3.8m/s | -52.6°C | 0.9% | 0hPa | 2.6V | 00:00:00 | 00:00:00 | 00:00:00 | |
| DO3MHA-11 | 2026-08-31 12:14:36 | 47.16247 | 8.19744 | 305° | 24km/h | 21323m | 4.5m/s | -52.7°C | 3.5% | 0hPa | 2.6V | 00:00:00 | 01:48:31 | 00:00:00 | |
| DO3MHA-12 | 2026-08-31 12:14:35 | 47.16244 | 8.19751 | 297° | 20km/h | 21318m | 4.1m/s | -52.7°C | 3.4% | 0hPa | 2.6V | 00:00:00 | 01:48:30 | 00:00:00 | |
| HASLITAL | 2026-08-31 12:14:33 | 47.16242 | 8.19757 | 289° | 18km/h | 21314m | 4.1m/s | -52.7°C | 0.9% | 0hPa | 2.6V | 00:00:00 | 00:00:00 | 00:00:00 | |
| DL6DJ-15 | 2026-08-31 12:14:31 | 47.16226 | 8.19796 | 318° | 27km/h | 21292m | 3.8m/s | 0°C | -1.0% | -1.0hPa | 2.6V | 00:00:00 | 00:00:00 | 00:00:00 | |
| DH7VM-15 | 2026-08-31 12:14:28 | 47.16226 | 8.19795 | 320° | 29km/h | 21292m | 3.8m/s | -52.7°C | 0.8% | 0hPa | 2.6V | 00:00:00 | 00:00:00 | 00:00:00 | |
| DO3MHA-11 | 2026-08-31 12:14:26 | 47.16212 | 8.19811 | 321° | 22km/h | 21279m | 4.3m/s | -52.4°C | 3.4% | 0hPa | 2.6V | 00:00:00 | 01:48:21 | 00:00:00 | |
| DN1GJH-1 | 2026-08-31 12:14:23 | 47.16207 | 8.19819 | 295° | 13km/h | 21271m | 4.2m/s | -52.5°C | 0.9% | 0hPa | 2.6V | 00:00:00 | 00:00:00 | 00:00:00 | |
| DO3MHA-12 | 2026-08-31 12:14:19 | 47.16200 | 8.19860 | 288° | 16km/h | 21250m | 3.3m/s | -52.5°C | 3.4% | 0hPa | 2.6V | 00:00:00 | 01:48:14 | 00:00:00 | |
| DL1ZP-14 | 2026-08-31 12:14:17 | 47.16196 | 8.19876 | 298° | 16km/h | 21242m | 4.9m/s | -52.5°C | 0.7% | -1.0hPa | 2.6V | 00:00:00 | 00:00:00 | 00:00:00 | |
| DO3MHA-11 | 2026-08-31 12:14:16 | 47.16194 | 8.19881 | 303° | 18km/h | 21237m | 4.3m/s | -52.4°C | 3.3% | 0hPa | 2.4V | 00:00:00 | 01:48:11 | 00:00:00 | |
| HASLITAL | 2026-08-31 12:14:13 | 47.16190 | 8.19886 | 335° | 9km/h | 21229m | 4.0m/s | -52.4°C | 0.8% | 0hPa | 2.6V | 00:00:00 | 00:00:00 | 00:00:00 | |
| DO3MHA-12 | 2026-08-31 12:14:08 | 47.16174 | 8.19918 | 283° | 18km/h | 21204m | 3.3m/s | -52.5°C | 3.4% | 0hPa | 2.6V | 00:00:00 | 01:48:03 | 00:00:00 | |
| DO3MHA-11 | 2026-08-31 12:14:06 | 47.16171 | 8.19935 | 287° | 16km/h | 21197m | 4.0m/s | -52.5°C | 3.4% | 0hPa | 2.6V | 00:00:00 | 01:48:01 | 00:00:00 | |
| DN1GJH-1 | 2026-08-31 12:14:02 | 47.16164 | 8.19948 | 338° | 13km/h | 21183m | 4.2m/s | -52.7°C | 0.9% | 0hPa | 2.6V | 00:00:00 | 00:00:00 | 00:00:00 | |
| DF7PN | 2026-08-31 12:13:59 | 47.16149 | 8.19962 | 297° | 16km/h | 21160m | 3.8m/s | -52.8°C | 0.7% | -1.0hPa | 2.6V | 00:00:00 | 00:00:00 | 00:00:00 | |
| DL1ZP-14 | 2026-08-31 12:13:47 | 47.16152 | 8.20010 | 284° | 7km/h | 21106m | 5.3m/s | -52.7°C | 0.7% | -1.0hPa | 2.6V | 00:00:00 | 00:00:00 | 00:00:00 | |
| DO3MHA-11 | 2026-08-31 12:13:46 | 47.16152 | 8.20010 | 285° | 13km/h | 21106m | 5.3m/s | -52.7°C | 3.3% | 0hPa | 2.6V | 00:00:00 | 01:47:41 | 00:00:00 | |
| DN1GJH-1 | 2026-08-31 12:13:41 | 47.16149 | 8.20022 | 284° | 9km/h | 21089m | 4.0m/s | -52.7°C | 0.9% | 0hPa | 2.6V | 00:00:00 | 00:00:00 | 00:00:00 | |
| DO3MHA-12 | 2026-08-31 12:13:38 | 47.16151 | 8.20048 | 263° | 9km/h | 21072m | 3.5m/s | -53.0°C | 3.4% | 0hPa | 2.6V | 00:00:00 | 01:47:33 | 00:00:00 | |
| DO3MHA-11 | 2026-08-31 12:13:36 | 47.16153 | 8.20060 | 253° | 7km/h | 21064m | 5.4m/s | -53.1°C | 3.5% | 0hPa | 2.6V | 00:00:00 | 01:47:31 | 00:00:00 | |
| HASLITAL | 2026-08-31 12:13:31 | 47.16158 | 8.20066 | 0° | 0km/h | 21045m | 4.7m/s | -53.3°C | 0.9% | 0hPa | 2.6V | 00:00:00 | 00:00:00 | 00:00:00 | |
| DF7PN | 2026-08-31 12:13:28 | 47.16155 | 8.20081 | 301° | 11km/h | 21023m | 4.5m/s | -53.4°C | 0.7% | -1.0hPa | 2.6V | 00:00:00 | 00:00:00 | 00:00:00 | |
| DO3MHA-11 | 2026-08-31 12:13:26 | 47.16153 | 8.20084 | 316° | 7km/h | 21019m | 5.2m/s | -53.4°C | 3.5% | 0hPa | 2.6V | 00:00:00 | 01:47:21 | 00:00:00 | |
| DH7VM-15 | 2026-08-31 12:13:22 | 47.16146 | 8.20091 | 332° | 7km/h | 21005m | 4.5m/s | -53.5°C | 0.9% | 0hPa | 2.6V | 00:00:00 | 00:00:00 | 00:00:00 | |
| DN1GJH-1 | 2026-08-31 12:13:20 | 47.16143 | 8.20095 | 308° | 5km/h | 20995m | 4.4m/s | -53.5°C | 0.9% | 0hPa | 2.6V | 00:00:00 | 00:00:00 | 00:00:00 | |
| DO3MHA-12 | 2026-08-31 12:13:18 | 47.16141 | 8.20098 | 358° | 13km/h | 20983m | 3.7m/s | -53.4°C | 3.6% | 0hPa | 2.6V | 00:00:00 | 01:47:13 | 00:00:00 | |
| DO3MHA-11 | 2026-08-31 12:13:16 | 47.16138 | 8.20095 | 34° | 13km/h | 20974m | 4.7m/s | -53.4°C | 3.6% | 0hPa | 2.6V | 00:00:00 | 01:47:11 | 08:30:00 | |
| DL1ZP-14 | 2026-08-31 12:13:15 | 47.16136 | 8.20092 | 33° | 13km/h | 20969m | 3.5m/s | -53.5°C | 0.8% | -1.0hPa | 2.4V | 00:00:00 | 00:00:00 | 00:00:00 | |
| HASLITAL | 2026-08-31 12:13:10 | 47.16122 | 8.20095 | 320° | 16km/h | 20952m | 4.7m/s | -53.5°C | 0.9% | 0hPa | 2.6V | 00:00:00 | 00:00:00 | 00:00:00 | |
| DO3MHA-12 | 2026-08-31 12:13:08 | 47.16117 | 8.20109 | 281° | 7km/h | 20940m | 3.7m/s | -53.2°C | 3.4% | 0hPa | 2.6V | 00:00:00 | 01:47:03 | 00:00:00 | |
| DO3MHA-11 | 2026-08-31 12:13:06 | 47.16117 | 8.20111 | 132° | 9km/h | 20930m | 5.3m/s | -53.3°C | 3.4% | 0hPa | 2.6V | 00:00:00 | 01:47:01 | 00:00:00 | |
| DH7VM-15 | 2026-08-31 12:13:02 | 47.16121 | 8.20100 | 122° | 13km/h | 20916m | 4.0m/s | -53.4°C | 0.9% | 0hPa | 2.6V | 00:00:00 | 00:00:00 | 00:00:00 | |
| DF7PN | 2026-08-31 12:12:57 | 47.16119 | 8.20104 | 339° | 9km/h | 20884m | 4.9m/s | -54.0°C | 0.8% | -1.0hPa | 2.6V | 00:00:00 | 00:00:00 | 00:00:00 | |
| DO3MHA-11 | 2026-08-31 12:12:56 | 47.16119 | 8.20103 | 340° | 11km/h | 20884m | 4.9m/s | -54.0°C | 3.7% | 0hPa | 2.6V | 00:00:00 | 01:46:51 | 00:00:00 | |
| OE5DXL-15 | 2026-08-31 12:12:52 | 47.16114 | 8.20104 | 121° | 15km/h | 20866m | 5.0m/s | 0°C | 0% | 0hPa | 2.6V | 00:00:00 | 00:00:00 | 00:00:00 | |
| HASLITAL | 2026-08-31 12:12:50 | 47.16115 | 8.20103 | 162° | 9km/h | 20861m | 4.8m/s | -54.1°C | 1.0% | 0hPa | 2.6V | 00:00:00 | 00:00:00 | 00:00:00 | |
| DO3MHA-12 | 2026-08-31 12:12:48 | 47.16124 | 8.20096 | 142° | 15km/h | 20847m | 5.2m/s | -54.0°C | 3.7% | 0hPa | 2.6V | 00:00:00 | 01:46:43 | 00:00:00 | |
| DO3MHA-11 | 2026-08-31 12:12:46 | 47.16130 | 8.20086 | 122° | 15km/h | 20838m | 3.7m/s | -53.9°C | 3.7% | 0hPa | 2.6V | 00:00:00 | 01:46:41 | 00:00:00 | |
| DL1ZP-14 | 2026-08-31 12:12:44 | 47.16133 | 8.20076 | 89° | 11km/h | 20830m | 3.8m/s | -53.9°C | 0.8% | -1.0hPa | 2.4V | 00:00:00 | 00:00:00 | 00:00:00 | |
| LOEBOVI | 2026-08-31 12:12:41 | 47.16131 | 8.20068 | 45° | 9km/h | 20821m | 4.6m/s | -53.8°C | 0.9% | 0hPa | 2.6V | 00:00:00 | 00:00:00 | 00:00:00 | |
| DN1GJH-1 | 2026-08-31 12:12:39 | 47.16126 | 8.20063 | 32° | 13km/h | 20813m | 4.1m/s | -53.7°C | 1.0% | 0hPa | 2.6V | 00:00:00 | 00:00:00 | 00:00:00 | |
| DO3MHA-12 | 2026-08-31 12:12:38 | 47.16120 | 8.20055 | 50° | 13km/h | 20804m | 4.7m/s | -53.6°C | 3.6% | 0hPa | 2.6V | 00:00:00 | 01:46:33 | 00:00:00 | |
| DO3MHA-11 | 2026-08-31 12:12:36 | 47.16115 | 8.20044 | 65° | 13km/h | 20795m | 4.2m/s | -53.6°C | 3.6% | 0hPa | 2.6V | 00:00:00 | 01:46:31 | 00:00:00 | |
| HASLITAL | 2026-08-31 12:12:29 | 47.16112 | 8.20022 | 78° | 7km/h | 20768m | 3.6m/s | -53.6°C | 0.9% | 0hPa | 2.6V | 00:00:00 | 00:00:00 | 00:00:00 | |
| DO3MHA-12 | 2026-08-31 12:12:28 | 47.16109 | 8.20015 | 57° | 18km/h | 20758m | 5.4m/s | -53.6°C | 3.5% | 0hPa | 2.6V | 00:00:00 | 01:46:23 | 00:00:00 | |
| DF7PN | 2026-08-31 12:12:26 | 47.16098 | 8.19994 | 50° | 26km/h | 20744m | 4.1m/s | -53.5°C | 0.8% | -1.0hPa | 2.6V | 00:00:00 | 00:00:00 | 00:00:00 | |
| DK5PH-5 | 2026-08-31 12:12:20 | 47.16082 | 8.19969 | 52° | 16km/h | 20722m | 3.9m/s | -53.7°C | 3.4% | 0hPa | 2.6V | 00:00:00 | 01:46:15 | 00:00:00 | |
| DN1GJH-1 | 2026-08-31 12:12:19 | 47.16082 | 8.19969 | 52° | 11km/h | 20722m | 3.9m/s | -53.7°C | 0.9% | 0hPa | 2.6V | 00:00:00 | 00:00:00 | 00:00:00 | |
| DO3MHA-12 | 2026-08-31 12:12:18 | 47.16080 | 8.19961 | 63° | 20km/h | 20712m | 4.9m/s | -53.8°C | 3.5% | 0hPa | 2.6V | 00:00:00 | 01:46:13 | 08:30:00 | |
| DO3MHA-11 | 2026-08-31 12:12:16 | 47.16076 | 8.19951 | 53° | 24km/h | 20704m | 4.4m/s | -54.0°C | 3.6% | 0hPa | 2.4V | 00:00:00 | 01:46:11 | 00:00:00 | |
| DL1ZP-14 | 2026-08-31 12:12:13 | 47.16066 | 8.19940 | 24° | 18km/h | 20690m | 4.4m/s | -54.4°C | 0.8% | -1.0hPa | 2.6V | 00:00:00 | 00:00:00 | 00:00:00 | |
| HASLITAL | 2026-08-31 12:12:09 | 47.16049 | 8.19930 | 25° | 27km/h | 20678m | 5.3m/s | -54.6°C | 1.0% | 0hPa | 2.4V | 00:00:00 | 00:00:00 | 00:00:00 | |
| DO3MHA-12 | 2026-08-31 12:12:08 | 47.16036 | 8.19921 | 33° | 16km/h | 20668m | 4.0m/s | -54.6°C | 3.7% | 0hPa | 2.4V | 00:00:00 | 01:46:03 | 00:00:00 | |
| DO3MHA-11 | 2026-08-31 12:12:06 | 47.16024 | 8.19909 | 38° | 16km/h | 20660m | 3.8m/s | -54.6°C | 3.7% | 0hPa | 2.4V | 00:00:00 | 01:46:01 | 00:00:00 | |
| DF7PN | 2026-08-31 12:11:54 | 47.15969 | 8.19877 | 5° | 35km/h | 20609m | 4.7m/s | -54.7°C | 0.8% | -1.0hPa | 2.4V | 00:00:00 | 00:00:00 | 00:00:00 | |
| HASLITAL | 2026-08-31 12:11:49 | 47.15942 | 8.19877 | 359° | 18km/h | 20591m | 4.6m/s | -54.5°C | 1.0% | 0hPa | 2.4V | 00:00:00 | 00:00:00 | 00:00:00 | |
| DO3MHA-12 | 2026-08-31 12:11:48 | 47.15934 | 8.19875 | 27° | 18km/h | 20583m | 4.1m/s | -54.4°C | 3.8% | 0hPa | 2.4V | 00:00:00 | 01:45:43 | 00:00:00 | |
| DO3MHA-11 | 2026-08-31 12:11:46 | 47.15927 | 8.19868 | 42° | 20km/h | 20575m | 3.9m/s | -54.4°C | 3.8% | 0hPa | 2.6V | 00:00:00 | 01:45:41 | 08:30:00 | |
| DL1ZP-14 | 2026-08-31 12:11:43 | 47.15912 | 8.19854 | 20° | 18km/h | 20557m | 4.1m/s | -54.5°C | 0.8% | -1.0hPa | 2.4V | 00:00:00 | 00:00:00 | 00:00:00 | |
| DO3MHA-12 | 2026-08-31 12:11:38 | 47.15891 | 8.19843 | 30° | 18km/h | 20541m | 4.5m/s | -54.4°C | 3.7% | 0hPa | 2.4V | 00:00:00 | 01:45:33 | 00:00:00 | |
| DO3MHA-11 | 2026-08-31 12:11:37 | 47.15879 | 8.19834 | 30° | 15km/h | 20533m | 4.0m/s | -54.4°C | 3.8% | 0hPa | 2.4V | 00:00:00 | 01:45:31 | 00:00:00 | |
| DK5PH-5 | 2026-08-31 12:11:34 | 47.15869 | 8.19827 | 17° | 11km/h | 20524m | 4.5m/s | -54.3°C | 3.7% | 0hPa | 2.4V | 00:00:00 | 01:45:29 | 00:00:00 | |
| DO3MHA-12 | 2026-08-31 12:11:28 | 47.15851 | 8.19828 | 37° | 13km/h | 20497m | 5.2m/s | -54.0°C | 3.8% | 0hPa | 2.4V | 00:00:00 | 01:45:23 | 00:00:00 | |
| DO3MHA-11 | 2026-08-31 12:11:26 | 47.15848 | 8.19821 | 62° | 13km/h | 20488m | 3.9m/s | -53.9°C | 3.7% | 0hPa | 2.4V | 00:00:00 | 01:45:21 | 00:00:00 | |
| DF7PN | 2026-08-31 12:11:23 | 47.15842 | 8.19808 | 41° | 11km/h | 20475m | 4.6m/s | -54.0°C | 0.8% | -1.0hPa | 2.4V | 00:00:00 | 00:00:00 | 00:00:00 | |
| LOEBOVI | 2026-08-31 12:11:20 | 47.15837 | 8.19805 | 9° | 13km/h | 20467m | 3.6m/s | -54.0°C | 0.9% | 0hPa | 2.4V | 00:00:00 | 00:00:00 | 00:00:00 | |
| DO3MHA-12 | 2026-08-31 12:11:18 | 47.15828 | 8.19803 | 26° | 9km/h | 20454m | 4.7m/s | -53.7°C | 3.6% | 0hPa | 2.4V | 00:00:00 | 01:45:13 | 00:00:00 | |
| DO3MHA-11 | 2026-08-31 12:11:16 | 47.15824 | 8.19798 | 55° | 9km/h | 20445m | 4.0m/s | -53.7°C | 3.6% | 0hPa | 2.6V | 00:00:00 | 01:45:11 | 00:00:00 | |
| OE5DXL-15 | 2026-08-31 12:11:15 | 47.15819 | 8.19789 | 40° | 11km/h | 20432m | 4.7m/s | 0°C | 0% | 0hPa | 2.6V | 00:00:00 | 00:00:00 | 00:00:00 | |
| DL1ZP-14 | 2026-08-31 12:11:11 | 47.15817 | 8.19786 | 20° | 5km/h | 20423m | 3.9m/s | -53.6°C | 0.8% | -1.0hPa | 2.6V | 00:00:00 | 00:00:00 | 00:00:00 | |
| DO3MHA-12 | 2026-08-31 12:11:08 | 47.15814 | 8.19780 | 75° | 9km/h | 20412m | 4.7m/s | -53.5°C | 3.6% | 0hPa | 2.6V | 00:00:00 | 01:45:03 | 00:00:00 | |
| DO3MHA-11 | 2026-08-31 12:11:06 | 47.15812 | 8.19770 | 73° | 9km/h | 20403m | 3.6m/s | -53.5°C | 3.6% | 0hPa | 2.6V | 00:00:00 | 01:45:01 | 00:00:00 | |
| DK5PH-5 | 2026-08-31 12:11:04 | 47.15810 | 8.19761 | 54° | 7km/h | 20395m | 4.6m/s | -53.4°C | 3.6% | 0hPa | 2.6V | 00:00:00 | 01:44:59 | 08:30:00 | |
| DF7PN | 2026-08-31 12:10:52 | 47.15801 | 8.19733 | 48° | 5km/h | 20341m | 4.9m/s | -53.2°C | 0.7% | -1.0hPa | 2.6V | 00:00:00 | 00:00:00 | 00:00:00 | |
| DO3MHA-12 | 2026-08-31 12:10:48 | 47.15796 | 8.19728 | 80° | 5km/h | 20324m | 4.7m/s | -53.2°C | 3.5% | 0hPa | 2.6V | 00:00:00 | 01:44:43 | 08:30:00 | |
| HASLITAL | 2026-08-31 12:10:47 | 47.15796 | 8.19728 | 81° | 5km/h | 20324m | 4.8m/s | -53.3°C | 0.9% | 0hPa | 2.4V | 00:00:00 | 00:00:00 | 00:00:00 | |
| DO3MHA-11 | 2026-08-31 12:10:46 | 47.15796 | 8.19723 | 120° | 7km/h | 20315m | 3.7m/s | -53.2°C | 3.4% | 0hPa | 2.4V | 00:00:00 | 01:44:41 | 00:00:00 | |
| OE5DXL-15 | 2026-08-31 12:10:42 | 47.15801 | 8.19716 | 156° | 11km/h | 20294m | 3.8m/s | 0°C | 0% | 0hPa | 2.6V | 00:00:00 | 00:00:00 | 00:00:00 | |
| DL1ZP-14 | 2026-08-31 12:10:41 | 47.15802 | 8.19715 | 123° | 5km/h | 20290m | 3.4m/s | -53.4°C | 0.8% | -1.0hPa | 2.6V | 00:00:00 | 00:00:00 | 00:00:00 | |
| DO3MHA-12 | 2026-08-31 12:10:38 | 47.15803 | 8.19710 | 95° | 7km/h | 20281m | 5.2m/s | -53.5°C | 3.6% | 0hPa | 2.5V | 00:00:00 | 01:44:33 | 00:00:00 | |
| DO3MHA-11 | 2026-08-31 12:10:36 | 47.15802 | 8.19701 | 88° | 9km/h | 20272m | 4.1m/s | -53.6°C | 3.6% | 0hPa | 2.5V | 00:00:00 | 01:44:31 | 00:00:00 | |
| DN1GJH-1 | 2026-08-31 12:10:35 | 47.15802 | 8.19701 | 88° | 13km/h | 20272m | 4.1m/s | 0°C | 0% | 0hPa | 2.5V | 00:00:00 | 00:00:00 | 00:00:00 | |
| DK5PH-5 | 2026-08-31 12:10:33 | 47.15801 | 8.19693 | 8° | 9km/h | 20259m | 3.9m/s | -53.5°C | 3.5% | 0hPa | 2.5V | 00:00:00 | 01:44:28 | 00:00:00 | |
| DH7VM-15 | 2026-08-31 12:10:29 | 47.15802 | 8.19692 | 126° | 7km/h | 20248m | 5.3m/s | -53.6°C | 0.9% | 0hPa | 2.5V | 00:00:00 | 00:00:00 | 00:00:00 | |
| DO3MHA-12 | 2026-08-31 12:10:28 | 47.15806 | 8.19684 | 119° | 15km/h | 20238m | 4.1m/s | -53.4°C | 3.5% | 0hPa | 2.5V | 00:00:00 | 01:44:23 | 00:00:00 | |
| HASLITAL | 2026-08-31 12:10:26 | 47.15809 | 8.19678 | 124° | 20km/h | 20234m | 4.4m/s | -53.5°C | 0.9% | 0hPa | 2.5V | 00:00:00 | 00:00:00 | 00:00:00 | |
| DF7PN | 2026-08-31 12:10:21 | 47.15820 | 8.19648 | 131° | 11km/h | 20208m | 4.5m/s | -53.4°C | 0.8% | -1.0hPa | 2.5V | 00:00:00 | 00:00:00 | 00:00:00 | |
| DO3MHA-12 | 2026-08-31 12:10:17 | 47.15830 | 8.19633 | 138° | 16km/h | 20189m | 4.5m/s | -53.3°C | 3.5% | 0hPa | 2.5V | 00:00:00 | 01:44:12 | 00:00:00 | |
| DO3MHA-11 | 2026-08-31 12:10:16 | 47.15833 | 8.19630 | 138° | 16km/h | 20184m | 5.4m/s | -53.2°C | 3.5% | 0hPa | 2.6V | 00:00:00 | 01:44:11 | 08:30:00 | |
| DN1GJH-1 | 2026-08-31 12:10:14 | 47.15835 | 8.19627 | 134° | 13km/h | 20180m | 4.6m/s | 0°C | 0% | 0hPa | 2.6V | 00:00:00 | 00:00:00 | 00:00:00 | |
| DL1ZP-14 | 2026-08-31 12:10:09 | 47.15845 | 8.19586 | 105° | 20km/h | 20149m | 3.9m/s | -53.1°C | 0.8% | -1.0hPa | 2.6V | 00:00:00 | 00:00:00 | 00:00:00 | |
| DO3MHA-12 | 2026-08-31 12:10:07 | 47.15846 | 8.19579 | 102° | 11km/h | 20145m | 4.5m/s | -53.1°C | 3.6% | 0hPa | 2.4V | 00:00:00 | 01:44:02 | 00:00:00 | |
| DO3MHA-11 | 2026-08-31 12:10:06 | 47.15847 | 8.19574 | 101° | 11km/h | 20141m | 5.1m/s | -53.0°C | 3.5% | 0hPa | 2.4V | 00:00:00 | 01:44:01 | 00:00:00 | |
| HASLITAL | 2026-08-31 12:10:05 | 47.15847 | 8.19574 | 101° | 11km/h | 20141m | 5.1m/s | -53.1°C | 0.9% | 0hPa | 2.4V | 00:00:00 | 00:00:00 | 00:00:00 | |
| DK5PH-5 | 2026-08-31 12:10:03 | 47.15846 | 8.19569 | 56° | 15km/h | 20128m | 3.1m/s | -53.1°C | 3.5% | 0hPa | 2.4V | 00:00:00 | 01:43:58 | 00:00:00 | |
| DF7PN | 2026-08-31 12:09:50 | 47.15855 | 8.19496 | 43° | 9km/h | 20071m | 4.6m/s | -53.1°C | 0.7% | -1.0hPa | 2.4V | 00:00:00 | 00:00:00 | 00:00:00 | |
| OE5DXL-15 | 2026-08-31 12:09:49 | 47.15849 | 8.19493 | 19° | 20km/h | 20061m | 4.8m/s | 0°C | 0% | 0hPa | 2.4V | 00:00:00 | 00:00:00 | 00:00:00 | |
| DO3MHA-12 | 2026-08-31 12:09:46 | 47.15841 | 8.19488 | 25° | 20km/h | 20052m | 4.0m/s | -53.0°C | 3.3% | 0hPa | 2.4V | 00:00:00 | 01:43:41 | 00:00:00 | |
| HASLITAL | 2026-08-31 12:09:45 | 47.15841 | 8.19488 | 25° | 18km/h | 20052m | 4.0m/s | -53.1°C | 0.9% | 0hPa | 2.6V | 00:00:00 | 00:00:00 | 00:00:00 | |
| DL1ZP-14 | 2026-08-31 12:09:38 | 47.15830 | 8.19437 | 47° | 29km/h | 20010m | 4.5m/s | -53.6°C | 0.7% | -1.0hPa | 2.6V | 00:00:00 | 00:00:00 | 00:00:00 | |
| DO3MHA-11 | 2026-08-31 12:09:36 | 47.15824 | 8.19430 | 38° | 18km/h | 20006m | 3.9m/s | -53.7°C | 3.5% | 0hPa | 2.6V | 00:00:00 | 01:43:31 | 00:00:00 | |
| DO3MHA-12 | 2026-08-31 12:09:35 | 47.15818 | 8.19423 | 28° | 18km/h | 20002m | 4.3m/s | -54.0°C | 3.6% | 0hPa | 2.6V | 00:00:00 | 01:43:30 | 00:00:00 | |
| DK5PH-5 | 2026-08-31 12:09:31 | 47.15798 | 8.19414 | 11° | 20km/h | 19982m | 4.2m/s | -54.0°C | 3.7% | 0hPa | 2.6V | 00:00:00 | 01:43:26 | 00:00:00 | |
| DO3MHA-11 | 2026-08-31 12:09:26 | 47.15786 | 8.19393 | 49° | 27km/h | 19960m | 4.0m/s | -54.0°C | 3.7% | 0hPa | 2.5V | 00:00:00 | 01:43:21 | 00:00:00 | |
| DO3MHA-12 | 2026-08-31 12:09:25 | 47.15782 | 8.19386 | 41° | 27km/h | 19955m | 4.5m/s | -53.9°C | 3.6% | 0hPa | 2.5V | 00:00:00 | 01:43:20 | 00:00:00 | |
| HASLITAL | 2026-08-31 12:09:24 | 47.15782 | 8.19386 | 42° | 26km/h | 19955m | 4.5m/s | -54.0°C | 1.0% | 0hPa | 2.5V | 00:00:00 | 00:00:00 | 00:00:00 | |
| DF7PN | 2026-08-31 12:09:19 | 47.15740 | 8.19367 | 14° | 27km/h | 19928m | 4.6m/s | -54.0°C | 0.8% | -1.0hPa | 2.5V | 00:00:00 | 00:00:00 | 00:00:00 | |
| DO3MHA-11 | 2026-08-31 12:09:16 | 47.15723 | 8.19356 | 41° | 24km/h | 19914m | 4.4m/s | -53.7°C | 3.6% | 0hPa | 2.5V | 00:00:00 | 01:43:11 | 00:00:00 | |
| DO3MHA-12 | 2026-08-31 12:09:15 | 47.15719 | 8.19350 | 46° | 26km/h | 19910m | 3.8m/s | -53.7°C | 3.6% | 0hPa | 2.5V | 00:00:00 | 01:43:10 | 08:30:00 | |
| DL1ZP-14 | 2026-08-31 12:09:07 | 47.15669 | 8.19317 | 27° | 26km/h | 19873m | 5.0m/s | -53.6°C | 0.8% | -1.0hPa | 2.5V | 00:00:00 | 00:00:00 | 00:00:00 | |
| DO3MHA-11 | 2026-08-31 12:09:06 | 47.15669 | 8.19317 | 28° | 18km/h | 19873m | 4.9m/s | -53.5°C | 3.6% | 0hPa | 2.6V | 00:00:00 | 01:43:01 | 00:00:00 | |
| DO3MHA-12 | 2026-08-31 12:09:05 | 47.15664 | 8.19312 | 41° | 18km/h | 19868m | 4.6m/s | -53.5°C | 3.6% | 0hPa | 2.6V | 00:00:00 | 01:43:00 | 00:00:00 | |
| HASLITAL | 2026-08-31 12:09:04 | 47.15660 | 8.19306 | 46° | 18km/h | 19864m | 3.8m/s | -53.5°C | 1.0% | 0hPa | 2.6V | 00:00:00 | 00:00:00 | 00:00:00 | |
| DF7PN | 2026-08-31 12:08:48 | 47.15591 | 8.19253 | 27° | 16km/h | 19792m | 4.9m/s | -53.9°C | 0.8% | -1.0hPa | 2.6V | 00:00:00 | 00:00:00 | 00:00:00 | |
| DO3MHA-11 | 2026-08-31 12:08:46 | 47.15582 | 8.19251 | 5° | 18km/h | 19782m | 4.2m/s | -54.1°C | 3.6% | 0hPa | 2.6V | 00:00:00 | 01:42:41 | 08:30:00 | |
| DO3MHA-12 | 2026-08-31 12:08:45 | 47.15578 | 8.19250 | 359° | 18km/h | 19778m | 4.1m/s | -54.0°C | 3.6% | 0hPa | 2.6V | 00:00:00 | 01:42:40 | 00:00:00 | |
| HASLITAL | 2026-08-31 12:08:43 | 47.15573 | 8.19249 | 15° | 18km/h | 19774m | 4.0m/s | -54.2°C | 0.9% | 0hPa | 2.5V | 00:00:00 | 00:00:00 | 00:00:00 | |
| LOEBOVI | 2026-08-31 12:08:38 | 47.15561 | 8.19222 | 78° | 22km/h | 19750m | 5.5m/s | -54.1°C | 0.9% | 0hPa | 2.5V | 00:00:00 | 00:00:00 | 00:00:00 | |
| DL1ZP-14 | 2026-08-31 12:08:36 | 47.15556 | 8.19196 | 61° | 16km/h | 19728m | 4.7m/s | -54.1°C | 0.8% | -1.0hPa | 2.5V | 00:00:00 | 00:00:00 | 00:00:00 | |
| DO3MHA-12 | 2026-08-31 12:08:35 | 47.15556 | 8.19196 | 62° | 24km/h | 19728m | 4.6m/s | -54.0°C | 3.5% | 0hPa | 2.6V | 00:00:00 | 01:42:30 | 00:00:00 | |
| DO3MHA-11 | 2026-08-31 12:08:26 | 47.15519 | 8.19134 | 49° | 26km/h | 19688m | 4.0m/s | -54.6°C | 3.7% | 0hPa | 2.6V | 00:00:00 | 01:42:21 | 00:00:00 | |
| DO3MHA-12 | 2026-08-31 12:08:25 | 47.15516 | 8.19129 | 57° | 27km/h | 19683m | 4.6m/s | -54.8°C | 3.7% | 0hPa | 2.6V | 00:00:00 | 01:42:20 | 00:00:00 | |
| HASLITAL | 2026-08-31 12:08:22 | 47.15512 | 8.19114 | 76° | 24km/h | 19674m | 4.2m/s | -55.0°C | 1.0% | 0hPa | 2.6V | 00:00:00 | 00:00:00 | 00:00:00 | |
| DF7PN | 2026-08-31 12:08:17 | 47.15490 | 8.19061 | 38° | 31km/h | 19649m | 4.0m/s | -54.9°C | 0.9% | -1.0hPa | 2.6V | 00:00:00 | 00:00:00 | 00:00:00 | |
| DO3MHA-11 | 2026-08-31 12:08:16 | 47.15484 | 8.19053 | 42° | 26km/h | 19645m | 4.6m/s | -54.8°C | 3.8% | 0hPa | 2.6V | 00:00:00 | 01:42:11 | 00:00:00 | |
| DO3MHA-12 | 2026-08-31 12:08:15 | 47.15478 | 8.19045 | 41° | 24km/h | 19640m | 5.4m/s | -54.8°C | 3.8% | 0hPa | 2.6V | 00:00:00 | 01:42:10 | 00:00:00 | |
| DO3MHA-11 | 2026-08-31 12:08:06 | 47.15438 | 8.18994 | 42° | 29km/h | 19600m | 4.8m/s | -54.8°C | 3.8% | 0hPa | 2.6V | 00:00:00 | 01:42:01 | 00:00:00 | |
| DL1ZP-14 | 2026-08-31 12:08:05 | 47.15429 | 8.18981 | 52° | 27km/h | 19591m | 4.5m/s | -54.9°C | 0.9% | -1.0hPa | 2.6V | 00:00:00 | 00:00:00 | 00:00:00 | |
| HASLITAL | 2026-08-31 12:08:01 | 47.15419 | 8.18962 | 54° | 35km/h | 19581m | 4.6m/s | -55.0°C | 1.0% | 0hPa | 2.5V | 00:00:00 | 00:00:00 | 00:00:00 | |
| DO3MHA-11 | 2026-08-31 12:07:56 | 47.15393 | 8.18910 | 62° | 24km/h | 19555m | 4.9m/s | -54.7°C | 3.8% | 0hPa | 2.5V | 00:00:00 | 01:41:51 | 00:00:00 | |
| DO3MHA-12 | 2026-08-31 12:07:54 | 47.15387 | 8.18892 | 64° | 26km/h | 19547m | 4.4m/s | -54.7°C | 3.7% | 0hPa | 2.5V | 00:00:00 | 01:41:49 | 00:00:00 | |
| DH7VM-15 | 2026-08-31 12:07:51 | 47.15381 | 8.18879 | 58° | 20km/h | 19537m | 5.2m/s | -54.7°C | 1.0% | 0hPa | 2.5V | 00:00:00 | 00:00:00 | 00:00:00 | |
| DO3MHA-11 | 2026-08-31 12:07:46 | 47.15359 | 8.18835 | 62° | 29km/h | 19511m | 4.1m/s | -54.7°C | 3.7% | 0hPa | 2.5V | 00:00:00 | 01:41:41 | 00:00:00 | |
| DO3MHA-12 | 2026-08-31 12:07:44 | 47.15351 | 8.18811 | 62° | 26km/h | 19504m | 3.2m/s | -54.6°C | 3.7% | 0hPa | 2.5V | 00:00:00 | 01:41:39 | 08:30:00 | |
| HASLITAL | 2026-08-31 12:07:41 | 47.15342 | 8.18790 | 55° | 29km/h | 19496m | 4.8m/s | -54.7°C | 1.0% | 0hPa | 2.5V | 00:00:00 | 00:00:00 | 00:00:00 | |
| DO3MHA-11 | 2026-08-31 12:07:36 | 47.15318 | 8.18753 | 55° | 26km/h | 19471m | 3.6m/s | -54.8°C | 3.7% | 0hPa | 2.5V | 00:00:00 | 01:41:31 | 00:00:00 | |
| DL1ZP-14 | 2026-08-31 12:07:34 | 47.15306 | 8.18726 | 60° | 29km/h | 19459m | 4.2m/s | -54.8°C | 0.9% | -1.0hPa | 2.5V | 00:00:00 | 00:00:00 | 00:00:00 | |
| DO3MHA-11 | 2026-08-31 12:07:26 | 47.15287 | 8.18669 | 72° | 24km/h | 19430m | 3.8m/s | -54.9°C | 3.8% | 0hPa | 2.5V | 00:00:00 | 01:41:21 | 00:00:00 | |
| DO3MHA-12 | 2026-08-31 12:07:23 | 47.15278 | 8.18642 | 60° | 22km/h | 19417m | 4.4m/s | -55.0°C | 3.8% | 0hPa | 2.5V | 00:00:00 | 01:41:18 | 00:00:00 | |
| HASLITAL | 2026-08-31 12:07:20 | 47.15269 | 8.18624 | 53° | 26km/h | 19408m | 5.2m/s | -55.1°C | 1.1% | 0hPa | 2.5V | 00:00:00 | 00:00:00 | 00:00:00 | |
| LOEBOVI | 2026-08-31 12:07:17 | 47.15259 | 8.18609 | 35° | 15km/h | 19394m | 4.3m/s | -55.1°C | 1.0% | 0hPa | 2.5V | 00:00:00 | 00:00:00 | 00:00:00 | |
| DO3MHA-11 | 2026-08-31 12:07:16 | 47.15253 | 8.18602 | 54° | 22km/h | 19385m | 4.6m/s | -54.9°C | 3.7% | 0hPa | 2.5V | 00:00:00 | 01:41:11 | 08:30:00 | |
| DF7PN | 2026-08-31 12:07:15 | 47.15249 | 8.18589 | 66° | 22km/h | 19375m | 4.8m/s | -54.9°C | 0.8% | -1.0hPa | 2.6V | 00:00:00 | 00:00:00 | 00:00:00 | |
| DO3MHA-11 | 2026-08-31 12:07:05 | 47.15229 | 8.18514 | 73° | 22km/h | 19336m | 4.8m/s | -55.2°C | 3.8% | 0hPa | 2.6V | 00:00:00 | 01:41:00 | 00:00:00 | |
| DL1ZP-14 | 2026-08-31 12:07:03 | 47.15223 | 8.18492 | 66° | 18km/h | 19323m | 4.5m/s | -55.4°C | 0.9% | -1.0hPa | 2.6V | 00:00:00 | 00:00:00 | 00:00:00 | |
| HASLITAL | 2026-08-31 12:07:00 | 47.15221 | 8.18486 | 63° | 20km/h | 19318m | 4.9m/s | -55.6°C | 1.1% | 0hPa | 2.6V | 00:00:00 | 00:00:00 | 00:00:00 | |
| DO3MHA-11 | 2026-08-31 12:06:55 | 47.15209 | 8.18440 | 79° | 24km/h | 19290m | 4.2m/s | -55.5°C | 3.9% | 0hPa | 2.6V | 00:00:00 | 01:40:50 | 00:00:00 | |
| DO3MHA-11 | 2026-08-31 12:06:45 | 47.15212 | 8.18358 | 89° | 26km/h | 19247m | 4.1m/s | -55.6°C | 4.0% | 0hPa | 2.6V | 00:00:00 | 01:40:40 | 00:00:00 | |
| DF7PN | 2026-08-31 12:06:44 | 47.15212 | 8.18339 | 93° | 26km/h | 19239m | 3.9m/s | -55.6°C | 0.9% | -1.0hPa | 2.5V | 00:00:00 | 00:00:00 | 00:00:00 | |
| HASLITAL | 2026-08-31 12:06:39 | 47.15216 | 8.18306 | 103° | 29km/h | 19225m | 3.9m/s | -55.6°C | 1.1% | 0hPa | 2.5V | 00:00:00 | 00:00:00 | 00:00:00 | |
| DH7VM-15 | 2026-08-31 12:06:38 | 47.15218 | 8.18296 | 107° | 29km/h | 19221m | 4.6m/s | -55.6°C | 1.1% | 0hPa | 2.5V | 00:00:00 | 00:00:00 | 00:00:00 | |
| DO3MHA-11 | 2026-08-31 12:06:35 | 47.15221 | 8.18260 | 89° | 18km/h | 19202m | 3.6m/s | -55.5°C | 3.9% | 0hPa | 2.5V | 00:00:00 | 01:40:30 | 00:00:00 | |
| DL1ZP-14 | 2026-08-31 12:06:31 | 47.15224 | 8.18239 | 113° | 13km/h | 19185m | 4.1m/s | -55.5°C | 0.9% | -1.0hPa | 2.5V | 00:00:00 | 00:00:00 | 00:00:00 | |
| DO3MHA-11 | 2026-08-31 12:06:24 | 47.15228 | 8.18170 | 94° | 22km/h | 19154m | 5.1m/s | -55.2°C | 3.9% | 0hPa | 2.6V | 00:00:00 | 01:40:19 | 00:00:00 | |
| HASLITAL | 2026-08-31 12:06:18 | 47.15233 | 8.18130 | 87° | 16km/h | 19132m | 4.7m/s | -55.2°C | 1.1% | 0hPa | 2.6V | 00:00:00 | 00:00:00 | 00:00:00 | |
| DO3MHA-11 | 2026-08-31 12:06:14 | 47.15232 | 8.18088 | 98° | 27km/h | 19112m | 4.3m/s | -55.1°C | 3.9% | 0hPa | 2.6V | 00:00:00 | 01:40:09 | 00:00:00 | |
| DF7PN | 2026-08-31 12:06:13 | 47.15236 | 8.18069 | 112° | 26km/h | 19102m | 4.3m/s | -55.1°C | 0.9% | -1.0hPa | 2.6V | 00:00:00 | 00:00:00 | 00:00:00 | |
| DO3MHA-11 | 2026-08-31 12:06:04 | 47.15243 | 8.17995 | 75° | 16km/h | 19069m | 5.0m/s | -55.0°C | 3.8% | 0hPa | 2.6V | 00:00:00 | 01:39:59 | 00:00:00 | |
| DO3MHA-12 | 2026-08-31 12:06:00 | 47.15245 | 8.17977 | 126° | 16km/h | 19051m | 4.1m/s | -55.0°C | 3.8% | 0hPa | 2.6V | 00:00:00 | 01:39:55 | 00:00:00 | |
| HASLITAL | 2026-08-31 12:05:58 | 47.15247 | 8.17972 | 117° | 16km/h | 19046m | 5.2m/s | -55.0°C | 1.1% | 0hPa | 2.5V | 00:00:00 | 00:00:00 | 00:00:00 | |
| LOEBOVI | 2026-08-31 12:05:56 | 47.15251 | 8.17959 | 105° | 22km/h | 19037m | 4.2m/s | -54.9°C | 1.1% | 0hPa | 2.5V | 00:00:00 | 00:00:00 | 00:00:00 | |
| DO3MHA-11 | 2026-08-31 12:05:54 | 47.15254 | 8.17935 | 95° | 18km/h | 19024m | 3.9m/s | -54.9°C | 3.8% | 0hPa | 2.5V | 00:00:00 | 01:39:49 | 00:00:00 | |
| DO3MHA-12 | 2026-08-31 12:05:47 | 47.15246 | 8.17888 | 86° | 16km/h | 18997m | 3.9m/s | -54.8°C | 3.8% | 0hPa | 2.5V | 00:00:00 | 01:39:42 | 00:00:00 | |
| DK5PH-5 | 2026-08-31 12:05:45 | 47.15249 | 8.17877 | 132° | 24km/h | 18988m | 4.8m/s | -54.7°C | 3.9% | 0hPa | 2.5V | 00:00:00 | 01:39:40 | 00:00:00 | |
| DO3MHA-11 | 2026-08-31 12:05:44 | 47.15252 | 8.17872 | 142° | 16km/h | 18983m | 4.0m/s | -54.7°C | 3.9% | 0hPa | 2.5V | 00:00:00 | 01:39:39 | 08:30:00 | |
| DF7PN | 2026-08-31 12:05:42 | 47.15260 | 8.17861 | 108° | 11km/h | 18971m | 4.8m/s | -54.5°C | 0.9% | -1.0hPa | 2.6V | 00:00:00 | 00:00:00 | 00:00:00 | |
| HASLITAL | 2026-08-31 12:05:38 | 47.15258 | 8.17851 | 59° | 20km/h | 18963m | 3.9m/s | -54.6°C | 1.1% | 0hPa | 2.6V | 00:00:00 | 00:00:00 | 00:00:00 | |
| DO3MHA-12 | 2026-08-31 12:05:36 | 47.15248 | 8.17832 | 64° | 18km/h | 18952m | 3.8m/s | -54.4°C | 3.7% | 0hPa | 2.6V | 00:00:00 | 01:39:31 | 00:00:00 | |
| DO3MHA-11 | 2026-08-31 12:05:34 | 47.15247 | 8.17821 | 111° | 20km/h | 18942m | 5.1m/s | -54.3°C | 3.7% | 0hPa | 2.6V | 00:00:00 | 01:39:29 | 00:00:00 | |
| DL1ZP-14 | 2026-08-31 12:05:29 | 47.15269 | 8.17793 | 126° | 16km/h | 18920m | 4.8m/s | -54.2°C | 0.9% | -1.0hPa | 2.6V | 00:00:00 | 00:00:00 | 00:00:00 | |
| DO3MHA-12 | 2026-08-31 12:05:25 | 47.15260 | 8.17772 | 36° | 26km/h | 18901m | 4.5m/s | -54.0°C | 3.8% | 0hPa | 2.6V | 00:00:00 | 01:39:20 | 00:00:00 | |
| DO3MHA-11 | 2026-08-31 12:05:24 | 47.15255 | 8.17766 | 38° | 18km/h | 18896m | 4.0m/s | -54.1°C | 3.8% | 0hPa | 2.5V | 00:00:00 | 01:39:19 | 00:00:00 | |
| HASLITAL | 2026-08-31 12:05:18 | 47.15250 | 8.17746 | 162° | 15km/h | 18870m | 7.4m/s | -54.0°C | 1.0% | 0hPa | 2.5V | 00:00:00 | 00:00:00 | 00:00:00 | |
| DO3MHA-11 | 2026-08-31 12:05:14 | 47.15267 | 8.17725 | 90° | 31km/h | 18844m | 5.1m/s | -53.6°C | 3.7% | 0hPa | 2.5V | 00:00:00 | 01:39:09 | 00:00:00 | |
| DF7PN | 2026-08-31 12:05:10 | 47.15259 | 8.17676 | 71° | 37km/h | 18819m | 6.0m/s | -53.3°C | 0.8% | -1.0hPa | 2.6V | 00:00:00 | 00:00:00 | 00:00:00 | |
| OE9MKV-15 | 2026-08-31 12:05:09 | 47.15256 | 8.17663 | 74° | 27km/h | 18813m | 5.4m/s | -53.2°C | 3.5% | 0hPa | 2.6V | 00:00:00 | 01:39:04 | 00:00:00 | |
| DK5PH-5 | 2026-08-31 12:05:07 | 47.15253 | 8.17641 | 91° | 27km/h | 18803m | 5.7m/s | -53.1°C | 3.5% | 0hPa | 2.6V | 00:00:00 | 01:39:02 | 00:00:00 | |
| DO3MHA-11 | 2026-08-31 12:05:04 | 47.15255 | 8.17614 | 94° | 22km/h | 18786m | 6.5m/s | -53.1°C | 3.5% | 0hPa | 2.5V | 00:00:00 | 01:38:59 | 00:00:00 | |
| DL1ZP-14 | 2026-08-31 12:04:58 | 47.15245 | 8.17575 | 72° | 24km/h | 18755m | 5.3m/s | -53.2°C | 0.8% | -1.0hPa | 2.5V | 00:00:00 | 00:00:00 | 00:00:00 | |
| DO3MHA-12 | 2026-08-31 12:04:57 | 47.15243 | 8.17566 | 82° | 26km/h | 18750m | 5.9m/s | -53.1°C | 3.5% | 0hPa | 2.5V | 00:00:00 | 01:38:52 | 00:00:00 | |
| DO3MHA-11 | 2026-08-31 12:04:54 | 47.15244 | 8.17532 | 96° | 29km/h | 18734m | 4.8m/s | -53.1°C | 3.4% | 0hPa | 2.5V | 00:00:00 | 01:38:49 | 00:00:00 | |
| DO3MHA-12 | 2026-08-31 12:04:47 | 47.15234 | 8.17465 | 72° | 37km/h | 18693m | 6.1m/s | -53.2°C | 3.5% | 0hPa | 2.5V | 00:00:00 | 01:38:42 | 08:30:00 | |
| DO3MHA-11 | 2026-08-31 12:04:44 | 47.15230 | 8.17427 | 82° | 38km/h | 18678m | 4.8m/s | -53.1°C | 3.5% | 0hPa | 2.6V | 00:00:00 | 01:38:39 | 00:00:00 | |
| DF7PN | 2026-08-31 12:04:39 | 47.15215 | 8.17360 | 56° | 38km/h | 18651m | 5.4m/s | -53.2°C | 0.8% | -1.0hPa | 2.5V | 00:00:00 | 00:00:00 | 00:00:00 | |
| DO3MHA-12 | 2026-08-31 12:04:37 | 47.15205 | 8.17336 | 59° | 37km/h | 18641m | 4.6m/s | -53.2°C | 3.4% | 0hPa | 2.5V | 00:00:00 | 01:38:32 | 00:00:00 | |
| HASLITAL | 2026-08-31 12:04:36 | 47.15205 | 8.17336 | 59° | 37km/h | 18641m | 4.7m/s | -53.2°C | 1.0% | 0hPa | 2.5V | 00:00:00 | 00:00:00 | 00:00:00 | |
| LOEBOVI | 2026-08-31 12:04:35 | 47.15201 | 8.17324 | 69° | 37km/h | 18636m | 5.7m/s | -53.4°C | 1.0% | 0hPa | 2.5V | 00:00:00 | 00:00:00 | 00:00:00 | |
| DO3MHA-11 | 2026-08-31 12:04:34 | 47.15197 | 8.17299 | 82° | 37km/h | 18624m | 5.3m/s | -53.3°C | 3.4% | 0hPa | 2.5V | 00:00:00 | 01:38:29 | 00:00:00 | |
| DO3MHA-12 | 2026-08-31 12:04:27 | 47.15182 | 8.17208 | 62° | 31km/h | 18590m | 4.6m/s | -53.8°C | 3.5% | 0hPa | 2.5V | 00:00:00 | 01:38:22 | 00:00:00 | |
| DO3MHA-11 | 2026-08-31 12:04:24 | 47.15172 | 8.17173 | 75° | 31km/h | 18575m | 4.9m/s | -54.0°C | 3.6% | 0hPa | 2.5V | 00:00:00 | 01:38:19 | 00:00:00 | |
| DO3MHA-12 | 2026-08-31 12:04:17 | 47.15150 | 8.17100 | 47° | 29km/h | 18543m | 3.7m/s | -54.2°C | 3.7% | 0hPa | 2.5V | 00:00:00 | 01:38:12 | 00:00:00 | |
| HASLITAL | 2026-08-31 12:04:15 | 47.15144 | 8.17091 | 49° | 35km/h | 18539m | 4.1m/s | -54.2°C | 1.0% | 0hPa | 2.5V | 00:00:00 | 00:00:00 | 00:00:00 | |
| DO3MHA-11 | 2026-08-31 12:04:14 | 47.15134 | 8.17072 | 60° | 29km/h | 18530m | 4.7m/s | -54.2°C | 3.6% | 0hPa | 2.5V | 00:00:00 | 01:38:09 | 08:30:00 | |
| DF7PN | 2026-08-31 12:04:08 | 47.15118 | 8.17014 | 68° | 27km/h | 18504m | 3.9m/s | -54.4°C | 0.9% | -1.0hPa | 2.5V | 00:00:00 | 00:00:00 | 00:00:00 | |
| DO3MHA-12 | 2026-08-31 12:04:07 | 47.15116 | 8.17003 | 70° | 38km/h | 18500m | 4.0m/s | -54.4°C | 3.6% | 0hPa | 2.5V | 00:00:00 | 01:38:02 | 00:00:00 | |
| DK5PH-5 | 2026-08-31 12:04:06 | 47.15113 | 8.16992 | 74° | 46km/h | 18496m | 4.1m/s | -54.4°C | 3.6% | 0hPa | 2.5V | 00:00:00 | 01:38:01 | 00:00:00 | |
| DO3MHA-11 | 2026-08-31 12:04:04 | 47.15108 | 8.16967 | 76° | 40km/h | 18487m | 4.4m/s | -54.4°C | 3.7% | 0hPa | 2.5V | 00:00:00 | 01:37:59 | 00:00:00 | |
| DL1ZP-14 | 2026-08-31 12:03:56 | 47.15067 | 8.16863 | 62° | 38km/h | 18454m | 4.9m/s | -55.0°C | 0.9% | -1.0hPa | 2.5V | 00:00:00 | 00:00:00 | 00:00:00 | |
| HASLITAL | 2026-08-31 12:03:55 | 47.15067 | 8.16863 | 63° | 38km/h | 18454m | 4.9m/s | -55.0°C | 1.1% | 0hPa | 2.6V | 00:00:00 | 00:00:00 | 00:00:00 | |
| DO3MHA-11 | 2026-08-31 12:03:54 | 47.15059 | 8.16836 | 75° | 47km/h | 18445m | 3.6m/s | -55.1°C | 3.8% | 0hPa | 2.6V | 00:00:00 | 01:37:49 | 00:00:00 | |
| DO3MHA-12 | 2026-08-31 12:03:47 | 47.15025 | 8.16732 | 56° | 46km/h | 18417m | 5.1m/s | -55.3°C | 3.9% | 0hPa | 2.6V | 00:00:00 | 01:37:42 | 00:00:00 | |
| DO3MHA-11 | 2026-08-31 12:03:44 | 47.15004 | 8.16681 | 63° | 47km/h | 18403m | 4.1m/s | -55.2°C | 3.9% | 0hPa | 2.6V | 00:00:00 | 01:37:39 | 00:00:00 | |
| OE5DXL-15 | 2026-08-31 12:03:41 | 47.14982 | 8.16629 | 51° | 49km/h | 18386m | 3.4m/s | 0°C | 0% | 0hPa | 2.5V | 00:00:00 | 00:00:00 | 00:00:00 | |
| DO3MHA-12 | 2026-08-31 12:03:37 | 47.14959 | 8.16589 | 51° | 51km/h | 18374m | 4.1m/s | -55.3°C | 4.0% | 0hPa | 2.5V | 00:00:00 | 01:37:32 | 00:00:00 | |
| OE9MKV-15 | 2026-08-31 12:03:36 | 47.14950 | 8.16573 | 51° | 49km/h | 18370m | 3.6m/s | -55.2°C | 3.9% | 0hPa | 2.5V | 00:00:00 | 01:37:31 | 00:00:00 | |
| HASLITAL | 2026-08-31 12:03:34 | 47.14940 | 8.16555 | 51° | 62km/h | 18367m | 3.0m/s | -55.4°C | 1.2% | 0hPa | 2.5V | 00:00:00 | 00:00:00 | 00:00:00 | |
| DO3MHA-12 | 2026-08-31 12:03:27 | 47.14884 | 8.16438 | 64° | 46km/h | 18336m | 3.3m/s | -55.0°C | 3.9% | 0hPa | 2.5V | 00:00:00 | 01:37:22 | 00:00:00 | |
| DL1ZP-14 | 2026-08-31 12:03:25 | 47.14874 | 8.16413 | 61° | 38km/h | 18330m | 3.1m/s | -55.0°C | 0.9% | -1.0hPa | 2.5V | 00:00:00 | 00:00:00 | 00:00:00 | |
| DO3MHA-11 | 2026-08-31 12:03:24 | 47.14869 | 8.16400 | 58° | 51km/h | 18327m | 3.9m/s | -54.9°C | 3.9% | 0hPa | 2.5V | 00:00:00 | 01:37:19 | 00:00:00 | |
| DO3MHA-12 | 2026-08-31 12:03:17 | 47.14807 | 8.16313 | 45° | 49km/h | 18300m | 4.1m/s | -54.7°C | 3.8% | 0hPa | 2.5V | 00:00:00 | 01:37:12 | 08:30:00 | |
| DO3MHA-11 | 2026-08-31 12:03:14 | 47.14779 | 8.16266 | 54° | 47km/h | 18287m | 3.7m/s | -54.7°C | 3.8% | 0hPa | 2.6V | 00:00:00 | 01:37:09 | 00:00:00 | |
| OE5DXL-15 | 2026-08-31 12:03:11 | 47.14742 | 8.16201 | 38° | 51km/h | 18268m | 3.9m/s | 0°C | 0% | 0hPa | 2.5V | 00:00:00 | 00:00:00 | 00:00:00 | |
| DO3MHA-12 | 2026-08-31 12:03:07 | 47.14723 | 8.16180 | 36° | 49km/h | 18261m | 3.7m/s | -54.4°C | 3.6% | 0hPa | 2.5V | 00:00:00 | 01:37:02 | 00:00:00 | |
| DK5PH-5 | 2026-08-31 12:03:06 | 47.14713 | 8.16169 | 36° | 47km/h | 18257m | 3.9m/s | -54.5°C | 3.6% | 0hPa | 2.5V | 00:00:00 | 01:37:01 | 00:00:00 | |
| DO3MHA-11 | 2026-08-31 12:03:04 | 47.14692 | 8.16145 | 41° | 47km/h | 18249m | 3.7m/s | -54.5°C | 3.6% | 0hPa | 2.5V | 00:00:00 | 01:36:59 | 00:00:00 | |
| DO3MHA-12 | 2026-08-31 12:02:57 | 47.14632 | 8.16058 | 43° | 55km/h | 18222m | 3.5m/s | -54.9°C | 3.8% | 0hPa | 2.5V | 00:00:00 | 01:36:52 | 00:00:00 | |
| DH7VM-15 | 2026-08-31 12:02:55 | 47.14624 | 8.16046 | 50° | 47km/h | 18219m | 3.9m/s | -55.1°C | 0% | 0hPa | 2.5V | 00:00:00 | 00:00:00 | 00:00:00 | |
| DO3MHA-11 | 2026-08-31 12:02:54 | 47.14609 | 8.16018 | 55° | 55km/h | 18211m | 3.5m/s | -55.2°C | 3.9% | 0hPa | 2.5V | 00:00:00 | 01:36:49 | 00:00:00 | |
| HASLITAL | 2026-08-31 12:02:53 | 47.14609 | 8.16018 | 55° | 53km/h | 18211m | 3.6m/s | -55.3°C | 1.2% | 0hPa | 2.5V | 00:00:00 | 00:00:00 | 00:00:00 | |
| DO3MHA-12 | 2026-08-31 12:02:47 | 47.14539 | 8.15907 | 41° | 44km/h | 18184m | 4.0m/s | -55.3°C | 4.0% | 0hPa | 2.5V | 00:00:00 | 01:36:42 | 00:00:00 | |
| DO3MHA-11 | 2026-08-31 12:02:44 | 47.14513 | 8.15874 | 47° | 46km/h | 18171m | 3.4m/s | -55.2°C | 3.9% | 0hPa | 2.6V | 00:00:00 | 01:36:39 | 08:30:00 | |
| DO3MHA-12 | 2026-08-31 12:02:37 | 47.14464 | 8.15791 | 47° | 51km/h | 18144m | 4.5m/s | -55.3°C | 3.9% | 0hPa | 2.5V | 00:00:00 | 01:36:32 | 00:00:00 | |
| DK5PH-5 | 2026-08-31 12:02:36 | 47.14455 | 8.15777 | 42° | 47km/h | 18140m | 5.1m/s | -55.3°C | 3.9% | 0hPa | 2.5V | 00:00:00 | 01:36:31 | 00:00:00 | |
| DF7PN | 2026-08-31 12:02:35 | 47.14444 | 8.15764 | 40° | 55km/h | 18135m | 4.4m/s | -55.4°C | 1.0% | -1.0hPa | 2.5V | 00:00:00 | 00:00:00 | 00:00:00 | |
| DO3MHA-11 | 2026-08-31 12:02:34 | 47.14433 | 8.15751 | 35° | 47km/h | 18130m | 3.9m/s | -55.3°C | 3.9% | 0hPa | 2.5V | 00:00:00 | 01:36:29 | 00:00:00 | |
| HASLITAL | 2026-08-31 12:02:32 | 47.14422 | 8.15740 | 36° | 55km/h | 18127m | 3.3m/s | -55.4°C | 1.2% | 0hPa | 2.5V | 00:00:00 | 00:00:00 | 00:00:00 | |
| DO3MHA-12 | 2026-08-31 12:02:27 | 47.14365 | 8.15669 | 49° | 49km/h | 18102m | 3.6m/s | -55.2°C | 4.0% | 0hPa | 2.5V | 00:00:00 | 01:36:22 | 00:00:00 | |
| DO3MHA-11 | 2026-08-31 12:02:24 | 47.14342 | 8.15637 | 36° | 51km/h | 18091m | 4.1m/s | -55.2°C | 4.0% | 0hPa | 2.5V | 00:00:00 | 01:36:19 | 00:00:00 | |
| DL1ZP-14 | 2026-08-31 12:02:23 | 47.14333 | 8.15628 | 30° | 42km/h | 18087m | 3.7m/s | -55.2°C | 1.0% | -1.0hPa | 2.5V | 00:00:00 | 00:00:00 | 00:00:00 | |
| DO3MHA-12 | 2026-08-31 12:02:17 | 47.14265 | 8.15563 | 42° | 42km/h | 18062m | 3.9m/s | -55.1°C | 3.9% | 0hPa | 2.6V | 00:00:00 | 01:36:12 | 00:00:00 | |
| DO3MHA-11 | 2026-08-31 12:02:14 | 47.14239 | 8.15526 | 50° | 40km/h | 18050m | 4.0m/s | -55.0°C | 3.9% | 0hPa | 2.5V | 00:00:00 | 01:36:09 | 00:00:00 | |
| HASLITAL | 2026-08-31 12:02:12 | 47.14232 | 8.15515 | 48° | 37km/h | 18046m | 3.8m/s | -55.0°C | 1.1% | 0hPa | 2.6V | 00:00:00 | 00:00:00 | 00:00:00 | |
| DO3MHA-12 | 2026-08-31 12:02:07 | 47.14189 | 8.15460 | 28° | 46km/h | 18023m | 4.0m/s | -55.1°C | 3.8% | 0hPa | 2.6V | 00:00:00 | 01:36:02 | 00:00:00 | |
| OE9MKV-15 | 2026-08-31 12:02:06 | 47.14179 | 8.15454 | 22° | 40km/h | 18018m | 4.4m/s | -55.1°C | 3.9% | 0hPa | 2.6V | 00:00:00 | 01:36:01 | 00:00:00 | |
| DO3MHA-11 | 2026-08-31 12:02:04 | 47.14158 | 8.15442 | 23° | 46km/h | 18009m | 4.0m/s | -55.1°C | 3.9% | 0hPa | 2.6V | 00:00:00 | 01:35:59 | 00:00:00 | |
| DL1ZP-14 | 2026-08-31 12:01:52 | 47.14047 | 8.15332 | 32° | 24km/h | 17959m | 4.0m/s | -55.0°C | 1.0% | -1.0hPa | 2.6V | 00:00:00 | 00:00:00 | 00:00:00 | |
| HASLITAL | 2026-08-31 12:01:51 | 47.14053 | 8.15337 | 29° | 27km/h | 17963m | 4.6m/s | -55.1°C | 1.2% | 0hPa | 2.6V | 00:00:00 | 00:00:00 | 00:00:00 | |
| DO3MHA-12 | 2026-08-31 12:01:47 | 47.14017 | 8.15310 | 25° | 44km/h | 17941m | 4.4m/s | -55.0°C | 3.9% | 0hPa | 2.6V | 00:00:00 | 01:35:42 | 08:30:00 | |
| DO3MHA-11 | 2026-08-31 12:01:45 | 47.13980 | 8.15285 | 28° | 37km/h | 17930m | 3.0m/s | -54.8°C | 3.8% | 0hPa | 2.5V | 00:00:00 | 01:35:39 | 00:00:00 | |
| DO3MHA-12 | 2026-08-31 12:01:37 | 47.13926 | 8.15229 | 15° | 38km/h | 17903m | 4.2m/s | -54.7°C | 3.9% | 0hPa | 2.6V | 00:00:00 | 01:35:32 | 00:00:00 | |
| DK5PH-5 | 2026-08-31 12:01:36 | 47.13919 | 8.15227 | 8° | 33km/h | 17898m | 4.2m/s | -54.8°C | 3.9% | 0hPa | 2.6V | 00:00:00 | 01:35:31 | 00:00:00 | |
| DO3MHA-11 | 2026-08-31 12:01:34 | 47.13901 | 8.15225 | 5° | 42km/h | 17891m | 3.3m/s | -54.8°C | 3.9% | 0hPa | 2.6V | 00:00:00 | 01:35:29 | 00:00:00 | |
| DF7PN | 2026-08-31 12:01:33 | 47.13891 | 8.15223 | 10° | 44km/h | 17888m | 3.2m/s | -54.8°C | 1.0% | -1.0hPa | 2.6V | 00:00:00 | 00:00:00 | 00:00:00 | |
| HASLITAL | 2026-08-31 12:01:30 | 47.13869 | 8.15214 | 24° | 46km/h | 17880m | 4.6m/s | -54.9°C | 1.2% | 0hPa | 2.6V | 00:00:00 | 00:00:00 | 00:00:00 | |
| DO3MHA-12 | 2026-08-31 12:01:27 | 47.13833 | 8.15179 | 43° | 35km/h | 17862m | 4.1m/s | -54.8°C | 3.8% | 0hPa | 2.6V | 00:00:00 | 01:35:22 | 00:00:00 | |
| DO3MHA-11 | 2026-08-31 12:01:24 | 47.13812 | 8.15154 | 32° | 35km/h | 17850m | 3.9m/s | -54.7°C | 3.8% | 0hPa | 2.6V | 00:00:00 | 01:35:19 | 00:00:00 | |
| DL1ZP-14 | 2026-08-31 12:01:21 | 47.13781 | 8.15145 | 3° | 38km/h | 17834m | 4.6m/s | -54.7°C | 1.0% | -1.0hPa | 2.6V | 00:00:00 | 00:00:00 | 00:00:00 | |
| DO3MHA-12 | 2026-08-31 12:01:17 | 47.13751 | 8.15139 | 15° | 27km/h | 17822m | 3.0m/s | -54.6°C | 3.8% | 0hPa | 2.6V | 00:00:00 | 01:35:12 | 00:00:00 | |
| DO3MHA-11 | 2026-08-31 12:01:14 | 47.13729 | 8.15129 | 21° | 27km/h | 17813m | 4.3m/s | -54.4°C | 3.8% | 0hPa | 2.5V | 00:00:00 | 01:35:09 | 08:30:00 | |
| HASLITAL | 2026-08-31 12:01:10 | 47.13714 | 8.15123 | 7° | 20km/h | 17799m | 4.8m/s | -54.4°C | 1.1% | 0hPa | 2.5V | 00:00:00 | 00:00:00 | 00:00:00 | |
| DO3MHA-12 | 2026-08-31 12:01:07 | 47.13686 | 8.15116 | 11° | 27km/h | 17782m | 3.5m/s | -54.1°C | 3.8% | 0hPa | 2.5V | 00:00:00 | 01:35:02 | 00:00:00 | |
| DK5PH-5 | 2026-08-31 12:01:06 | 47.13677 | 8.15113 | 16° | 29km/h | 17779m | 3.7m/s | -54.3°C | 3.8% | 0hPa | 2.5V | 00:00:00 | 01:35:01 | 00:00:00 | |
| DO3MHA-11 | 2026-08-31 12:01:04 | 47.13661 | 8.15106 | 18° | 27km/h | 17770m | 4.6m/s | -54.1°C | 3.8% | 0hPa | 2.5V | 00:00:00 | 01:34:59 | 00:00:00 | |
| DF7PN | 2026-08-31 12:01:02 | 47.13649 | 8.15100 | 12° | 22km/h | 17762m | 3.6m/s | -54.1°C | 0.9% | -1.0hPa | 2.5V | 00:00:00 | 00:00:00 | 00:00:00 | |
| DL1ZP-14 | 2026-08-31 12:00:50 | 47.13563 | 8.15060 | 1° | 27km/h | 17708m | 5.1m/s | -53.6°C | 0.9% | -1.0hPa | 2.5V | 00:00:00 | 00:00:00 | 00:00:00 | |
| HASLITAL | 2026-08-31 12:00:49 | 47.13570 | 8.15062 | 20° | 29km/h | 17713m | 4.8m/s | -53.8°C | 1.1% | 0hPa | 2.5V | 00:00:00 | 00:00:00 | 00:00:00 | |
| DO3MHA-12 | 2026-08-31 12:00:47 | 47.13549 | 8.15063 | 341° | 27km/h | 17699m | 3.9m/s | -53.5°C | 3.6% | 0hPa | 2.5V | 00:00:00 | 01:34:42 | 00:00:00 | |
| DO3MHA-11 | 2026-08-31 12:00:44 | 47.13532 | 8.15071 | 353° | 27km/h | 17688m | 3.1m/s | -53.5°C | 3.7% | 0hPa | 2.6V | 00:00:00 | 01:34:39 | 00:00:00 | |
| DO3MHA-12 | 2026-08-31 12:00:37 | 47.13486 | 8.15040 | 17° | 24km/h | 17658m | 3.3m/s | -53.4°C | 3.6% | 0hPa | 2.5V | 00:00:00 | 01:34:32 | 00:00:00 | |
| OE9MKV-15 | 2026-08-31 12:00:36 | 47.13478 | 8.15037 | 5° | 24km/h | 17654m | 4.5m/s | -53.3°C | 3.5% | 0hPa | 2.5V | 00:00:00 | 01:34:31 | 00:00:00 | |
| DO3MHA-11 | 2026-08-31 12:00:34 | 47.13466 | 8.15041 | 329° | 27km/h | 17645m | 4.3m/s | -53.3°C | 3.6% | 0hPa | 2.5V | 00:00:00 | 01:34:29 | 00:00:00 | |
| DF7PN | 2026-08-31 12:00:31 | 47.13451 | 8.15057 | 357° | 18km/h | 17629m | 4.3m/s | -53.4°C | 0.9% | -1.0hPa | 2.5V | 00:00:00 | 00:00:00 | 00:00:00 | |
| HASLITAL | 2026-08-31 12:00:28 | 47.13445 | 8.15056 | 13° | 24km/h | 17624m | 4.9m/s | -53.3°C | 1.1% | 0hPa | 2.5V | 00:00:00 | 00:00:00 | 00:00:00 | |
| DO3MHA-12 | 2026-08-31 12:00:27 | 47.13431 | 8.15047 | 30° | 24km/h | 17615m | 4.4m/s | -53.2°C | 3.5% | 0hPa | 2.5V | 00:00:00 | 01:34:22 | 00:00:00 | |
| DO3MHA-11 | 2026-08-31 12:00:24 | 47.13405 | 8.15026 | 24° | 15km/h | 17603m | 4.0m/s | -53.4°C | 3.6% | 0hPa | 2.5V | 00:00:00 | 01:34:19 | 00:00:00 | |
| DL1ZP-14 | 2026-08-31 12:00:19 | 47.13383 | 8.15019 | 273° | 2km/h | 17574m | 5.5m/s | -53.4°C | 0.9% | -1.0hPa | 2.5V | 00:00:00 | 00:00:00 | 00:00:00 | |
| DO3MHA-12 | 2026-08-31 12:00:18 | 47.13383 | 8.15019 | 16° | 24km/h | 17569m | 4.6m/s | -53.4°C | 3.7% | 0hPa | 2.5V | 00:00:00 | 01:34:12 | 08:30:00 | |
| DO3MHA-11 | 2026-08-31 12:00:14 | 47.13373 | 8.15010 | 38° | 24km/h | 17555m | 4.5m/s | -53.2°C | 3.7% | 0hPa | 2.6V | 00:00:00 | 01:34:09 | 00:00:00 | |
| HASLITAL | 2026-08-31 12:00:09 | 47.13339 | 8.14975 | 35° | 27km/h | 17530m | 5.2m/s | -53.0°C | 1.0% | 0hPa | 2.5V | 00:00:00 | 00:00:00 | 00:00:00 | |
| DO3MHA-12 | 2026-08-31 12:00:07 | 47.13331 | 8.14967 | 49° | 15km/h | 17519m | 6.0m/s | -52.9°C | 3.5% | 0hPa | 2.5V | 00:00:00 | 01:34:02 | 00:00:00 | |
| DK5PH-5 | 2026-08-31 12:00:06 | 47.13330 | 8.14964 | 80° | 22km/h | 17513m | 5.8m/s | -52.8°C | 3.5% | 0hPa | 2.5V | 00:00:00 | 01:34:01 | 00:00:00 | |
| DO3MHA-11 | 2026-08-31 12:00:04 | 47.13332 | 8.14960 | 167° | 22km/h | 17503m | 4.5m/s | -52.7°C | 3.5% | 0hPa | 2.5V | 00:00:00 | 01:33:59 | 00:00:00 | |
| DF7PN | 2026-08-31 12:00:00 | 47.13330 | 8.14947 | 41° | 26km/h | 17477m | 5.4m/s | -52.6°C | 0.9% | -1.0hPa | 2.5V | 00:00:00 | 00:00:00 | 00:00:00 | |
| DL1ZP-14 | 2026-08-31 11:59:48 | 47.13296 | 8.14892 | 23° | 15km/h | 17407m | 6.9m/s | -52.8°C | 0.9% | -1.0hPa | 2.5V | 00:00:00 | 00:00:00 | 00:00:00 | |
| DO3MHA-12 | 2026-08-31 11:59:47 | 47.13295 | 8.14892 | 24° | 33km/h | 17407m | 6.8m/s | -52.7°C | 3.5% | 0hPa | 2.5V | 00:00:00 | 01:33:42 | 00:00:00 | |
| DO3MHA-11 | 2026-08-31 11:59:44 | 47.13285 | 8.14871 | 71° | 35km/h | 17389m | 5.1m/s | -52.6°C | 3.5% | 0hPa | 2.6V | 00:00:00 | 01:33:39 | 08:30:00 | |
| OE9MKV-15 | 2026-08-31 11:59:37 | 47.13311 | 8.14772 | 123° | 38km/h | 17354m | 4.9m/s | -52.6°C | 3.4% | 0hPa | 2.5V | 00:00:00 | 01:33:31 | 00:00:00 | |
| DK5PH-5 | 2026-08-31 11:59:36 | 47.13311 | 8.14772 | 123° | 38km/h | 17354m | 4.9m/s | -52.6°C | 3.4% | 0hPa | 2.5V | 00:00:00 | 01:33:31 | 00:00:00 | |
| DO3MHA-11 | 2026-08-31 11:59:34 | 47.13313 | 8.14757 | 84° | 35km/h | 17345m | 4.4m/s | -52.5°C | 3.3% | 0hPa | 2.5V | 00:00:00 | 01:33:29 | 00:00:00 | |
| DF7PN | 2026-08-31 11:59:29 | 47.13305 | 8.14697 | 98° | 42km/h | 17321m | 4.6m/s | -53.0°C | 0.9% | -1.0hPa | 2.5V | 00:00:00 | 00:00:00 | 00:00:00 | |
| DO3MHA-12 | 2026-08-31 11:59:27 | 47.13307 | 8.14681 | 107° | 44km/h | 17316m | 4.4m/s | -52.8°C | 3.7% | 0hPa | 2.5V | 00:00:00 | 01:33:22 | 00:00:00 | |
| DH7VM-15 | 2026-08-31 11:59:26 | 47.13307 | 8.14681 | 108° | 47km/h | 17316m | 4.4m/s | -52.9°C | 0% | 0hPa | 2.5V | 00:00:00 | 00:00:00 | 00:00:00 | |
| DO3MHA-11 | 2026-08-31 11:59:24 | 47.13317 | 8.14627 | 101° | 40km/h | 17305m | 3.8m/s | -52.8°C | 3.6% | 0hPa | 2.5V | 00:00:00 | 01:33:19 | 00:00:00 | |
| DL1ZP-14 | 2026-08-31 11:59:17 | 47.13298 | 8.14515 | 73° | 31km/h | 17256m | 4.9m/s | -52.8°C | 0.9% | -1.0hPa | 2.5V | 00:00:00 | 00:00:00 | 00:00:00 | |
| DO3MHA-11 | 2026-08-31 11:59:14 | 47.13296 | 8.14491 | 90° | 42km/h | 17246m | 5.4m/s | -52.8°C | 3.4% | 0hPa | 2.6V | 00:00:00 | 01:33:09 | 00:00:00 | |
| LOEBOVI | 2026-08-31 11:59:09 | 47.13303 | 8.14432 | 101° | 46km/h | 17225m | 4.0m/s | -52.8°C | 0% | 0hPa | 2.5V | 00:00:00 | 00:00:00 | 00:00:00 | |
| DO3MHA-12 | 2026-08-31 11:59:07 | 47.13307 | 8.14383 | 93° | 46km/h | 17214m | 3.9m/s | -52.7°C | 3.5% | 0hPa | 2.5V | 00:00:00 | 01:33:02 | 00:00:00 | |
| DK5PH-5 | 2026-08-31 11:59:06 | 47.13307 | 8.14368 | 88° | 47km/h | 17210m | 3.8m/s | -52.6°C | 3.5% | 0hPa | 2.5V | 00:00:00 | 01:33:01 | 08:30:00 | |
| DO3MHA-11 | 2026-08-31 11:59:05 | 47.13304 | 8.14338 | 82° | 46km/h | 17203m | 3.5m/s | -52.7°C | 3.5% | 0hPa | 2.5V | 00:00:00 | 01:32:59 | 00:00:00 | |
| DF7PN | 2026-08-31 11:58:58 | 47.13310 | 8.14218 | 112° | 46km/h | 17177m | 4.5m/s | -53.2°C | 0.9% | -1.0hPa | 2.5V | 00:00:00 | 00:00:00 | 00:00:00 | |
| DL1ZP-14 | 2026-08-31 11:58:46 | 47.13315 | 8.14018 | 91° | 46km/h | 17133m | 3.6m/s | -53.7°C | 0.9% | -1.0hPa | 2.5V | 00:00:00 | 00:00:00 | 00:00:00 | |
| HASLITAL | 2026-08-31 11:58:45 | 47.13315 | 8.14035 | 86° | 47km/h | 17136m | 3.8m/s | -53.6°C | 1.1% | 0hPa | 2.5V | 00:00:00 | 00:00:00 | 00:00:00 | |
| DO3MHA-11 | 2026-08-31 11:58:44 | 47.13316 | 8.14001 | 102° | 53km/h | 17129m | 3.8m/s | -53.6°C | 3.5% | 0hPa | 2.5V | 00:00:00 | 01:32:39 | 00:00:00 | |
| DO3MHA-12 | 2026-08-31 11:58:37 | 47.13330 | 8.13867 | 83° | 47km/h | 17101m | 3.8m/s | -54.3°C | 3.8% | 0hPa | 2.7V | 00:00:00 | 01:32:32 | 00:00:00 | |
| OE9MKV-15 | 2026-08-31 11:58:36 | 47.13328 | 8.13847 | 77° | 55km/h | 17097m | 4.3m/s | -54.5°C | 3.8% | 0hPa | 2.7V | 00:00:00 | 01:32:31 | 08:30:00 | |
| DO3MHA-11 | 2026-08-31 11:58:34 | 47.13320 | 8.13810 | 71° | 47km/h | 17088m | 4.7m/s | -54.7°C | 3.9% | 0hPa | 2.6V | 00:00:00 | 01:32:29 | 00:00:00 | |
| DF7PN | 2026-08-31 11:58:27 | 47.13305 | 8.13677 | 95° | 46km/h | 17057m | 3.6m/s | -55.3°C | 1.1% | -1.0hPa | 2.6V | 00:00:00 | 00:00:00 | 00:00:00 | |
| DO3MHA-11 | 2026-08-31 11:58:24 | 47.13307 | 8.13640 | 97° | 58km/h | 17050m | 3.5m/s | -55.2°C | 3.9% | 0hPa | 2.6V | 00:00:00 | 01:32:19 | 00:00:00 | |
| HASLITAL | 2026-08-31 11:58:23 | 47.13307 | 8.13640 | 97° | 53km/h | 17050m | 3.6m/s | -55.3°C | 1.3% | 0hPa | 2.6V | 00:00:00 | 00:00:00 | 00:00:00 | |
| DO3MHA-12 | 2026-08-31 11:58:17 | 47.13286 | 8.13495 | 69° | 100km/h | 17020m | 4.5m/s | -55.8°C | 4.2% | 0hPa | 2.6V | 00:00:00 | 01:32:12 | 00:00:00 | |
| DO3MHA-11 | 2026-08-31 11:58:14 | 47.13273 | 8.13434 | 80° | 64km/h | 17008m | 3.7m/s | -55.8°C | 4.1% | 0hPa | 2.5V | 00:00:00 | 01:32:09 | 08:30:00 | |
| OE9MKV-15 | 2026-08-31 11:58:06 | 47.13254 | 8.13245 | 79° | 64km/h | 16975m | 4.6m/s | -55.7°C | 4.1% | 0hPa | 2.5V | 00:00:00 | 01:32:01 | 00:00:00 | |
| DO3MHA-11 | 2026-08-31 11:58:04 | 47.13246 | 8.13203 | 72° | 66km/h | 16966m | 4.1m/s | -55.6°C | 4.1% | 0hPa | 2.5V | 00:00:00 | 01:31:59 | 00:00:00 | |
| HASLITAL | 2026-08-31 11:58:02 | 47.13241 | 8.13183 | 67° | 58km/h | 16962m | 4.2m/s | -55.8°C | 1.3% | 0hPa | 2.5V | 00:00:00 | 00:00:00 | 00:00:00 | |
| DF7PN | 2026-08-31 11:57:56 | 47.13188 | 8.12997 | 77° | 62km/h | 16929m | 4.3m/s | -55.7°C | 1.2% | -1.0hPa | 2.5V | 00:00:00 | 00:00:00 | 00:00:00 | |
| DO3MHA-11 | 2026-08-31 11:57:54 | 47.13186 | 8.12974 | 83° | 66km/h | 16925m | 3.6m/s | -55.6°C | 4.2% | 0hPa | 2.5V | 00:00:00 | 01:31:49 | 00:00:00 | |
| LOEBOVI | 2026-08-31 11:57:48 | 47.13175 | 8.12866 | 76° | 68km/h | 16905m | 4.1m/s | -55.5°C | 0% | 0hPa | 2.5V | 00:00:00 | 00:00:00 | 00:00:00 | |
| DO3MHA-11 | 2026-08-31 11:57:44 | 47.13136 | 8.12740 | 63° | 62km/h | 16884m | 3.9m/s | -55.4°C | 3.9% | 0hPa | 2.5V | 00:00:00 | 01:31:39 | 00:00:00 | |
| DL1ZP-14 | 2026-08-31 11:57:43 | 47.13128 | 8.12716 | 64° | 69km/h | 16880m | 4.2m/s | -55.3°C | 1.1% | -1.0hPa | 2.5V | 00:00:00 | 00:00:00 | 00:00:00 | |
| HASLITAL | 2026-08-31 11:57:41 | 47.13121 | 8.12693 | 66° | 66km/h | 16876m | 4.1m/s | -55.3°C | 1.3% | 0hPa | 2.7V | 00:00:00 | 00:00:00 | 00:00:00 | |
| OE9MKV-15 | 2026-08-31 11:57:36 | 47.13089 | 8.12573 | 68° | 62km/h | 16851m | 3.7m/s | -55.4°C | 4.0% | 0hPa | 2.7V | 00:00:00 | 01:31:31 | 00:00:00 | |
| DO3MHA-11 | 2026-08-31 11:57:34 | 47.13077 | 8.12530 | 65° | 66km/h | 16842m | 4.5m/s | -55.5°C | 4.2% | 0hPa | 2.7V | 00:00:00 | 01:31:29 | 00:00:00 | |
| DK5PH-5 | 2026-08-31 11:57:32 | 47.13055 | 8.12465 | 63° | 62km/h | 16831m | 3.4m/s | -55.6°C | 4.2% | 0hPa | 2.7V | 00:00:00 | 01:31:26 | 00:00:00 | |
| DO3MHA-11 | 2026-08-31 11:57:24 | 47.13010 | 8.12309 | 67° | 58km/h | 16802m | 4.0m/s | -55.4°C | 4.1% | 0hPa | 2.7V | 00:00:00 | 01:31:19 | 00:00:00 | |
| HASLITAL | 2026-08-31 11:57:20 | 47.12988 | 8.12247 | 61° | 60km/h | 16790m | 3.9m/s | -55.4°C | 1.3% | 0hPa | 2.7V | 00:00:00 | 00:00:00 | 00:00:00 | |
| DL1ZP-14 | 2026-08-31 11:57:13 | 47.12920 | 8.12080 | 60° | 64km/h | 16752m | 3.8m/s | -55.2°C | 1.2% | -1.0hPa | 2.7V | 00:00:00 | 00:00:00 | 00:00:00 | |
| OE9MKV-15 | 2026-08-31 11:57:06 | 47.12878 | 8.11960 | 60° | 68km/h | 16728m | 4.3m/s | -55.2°C | 4.1% | 0hPa | 2.7V | 00:00:00 | 01:31:01 | 00:00:00 | |
| DO3MHA-11 | 2026-08-31 11:57:04 | 47.12861 | 8.11921 | 57° | 68km/h | 16719m | 4.7m/s | -55.2°C | 4.0% | 0hPa | 2.5V | 00:00:00 | 01:30:59 | 00:00:00 | |
| DF7PN | 2026-08-31 11:56:54 | 47.12780 | 8.11682 | 69° | 58km/h | 16675m | 3.3m/s | -54.9°C | 1.2% | -1.0hPa | 2.5V | 00:00:00 | 00:00:00 | 00:00:00 | |
| DO3MHA-11 | 2026-08-31 11:56:44 | 47.12721 | 8.11447 | 66° | 66km/h | 16638m | 3.7m/s | -55.3°C | 4.1% | 0hPa | 2.5V | 00:00:00 | 01:30:39 | 08:30:00 | |
| DL1ZP-14 | 2026-08-31 11:56:41 | 47.12701 | 8.11376 | 71° | 60km/h | 16624m | 4.9m/s | -55.4°C | 1.3% | -1.0hPa | 2.7V | 00:00:00 | 00:00:00 | 00:00:00 | |
| HASLITAL | 2026-08-31 11:56:39 | 47.12696 | 8.11354 | 74° | 60km/h | 16620m | 4.2m/s | -55.5°C | 1.5% | 0hPa | 2.5V | 00:00:00 | 00:00:00 | 00:00:00 | |
| OE9MKV-15 | 2026-08-31 11:56:37 | 47.12680 | 8.11265 | 74° | 73km/h | 16602m | 4.5m/s | 0°C | 0% | 0hPa | 2.5V | 00:00:00 | 01:30:31 | 00:00:00 | |
| DH7VM-15 | 2026-08-31 11:56:35 | 47.12680 | 8.11265 | 74° | 68km/h | 16602m | 4.6m/s | -55.6°C | 0% | 0hPa | 2.5V | 00:00:00 | 00:00:00 | 00:00:00 | |
| DO3MHA-11 | 2026-08-31 11:56:34 | 47.12668 | 8.11215 | 70° | 69km/h | 16594m | 3.5m/s | -55.6°C | 4.3% | 0hPa | 2.5V | 00:00:00 | 01:30:29 | 00:00:00 | |
| DO3MHA-11 | 2026-08-31 11:56:24 | 47.12609 | 8.10972 | 77° | 77km/h | 16552m | 3.9m/s | -55.4°C | 4.1% | 0hPa | 2.5V | 00:00:00 | 01:30:19 | 00:00:00 | |
| DF7PN | 2026-08-31 11:56:22 | 47.12598 | 8.10916 | 71° | 77km/h | 16543m | 5.5m/s | -55.5°C | 1.3% | -1.0hPa | 2.5V | 00:00:00 | 00:00:00 | 00:00:00 | |
| DK5PH-5 | 2026-08-31 11:56:21 | 47.12591 | 8.10890 | 66° | 77km/h | 16538m | 5.0m/s | -55.6°C | 4.2% | 0hPa | 2.5V | 00:00:00 | 01:30:16 | 00:00:00 | |
| HASLITAL | 2026-08-31 11:56:19 | 47.12583 | 8.10864 | 62° | 77km/h | 16533m | 4.3m/s | -55.7°C | 1.5% | 0hPa | 2.5V | 00:00:00 | 00:00:00 | 00:00:00 | |
| DO3MHA-11 | 2026-08-31 11:56:14 | 47.12527 | 8.10719 | 69° | 71km/h | 16508m | 3.3m/s | -55.9°C | 4.3% | 0hPa | 2.5V | 00:00:00 | 01:30:09 | 00:00:00 | |
| DL1ZP-14 | 2026-08-31 11:56:10 | 47.12502 | 8.10618 | 71° | 69km/h | 16492m | 3.5m/s | -56.1°C | 1.4% | -1.0hPa | 2.5V | 00:00:00 | 00:00:00 | 00:00:00 | |
| OE9MKV-15 | 2026-08-31 11:56:06 | 47.12475 | 8.10525 | 63° | 78km/h | 16476m | 4.0m/s | 0°C | 0% | 0hPa | 2.5V | 00:00:00 | 01:30:01 | 00:00:00 | |
| DO3MHA-11 | 2026-08-31 11:56:04 | 47.12457 | 8.10476 | 61° | 89km/h | 16467m | 4.4m/s | -56.4°C | 4.6% | 0hPa | 2.5V | 00:00:00 | 01:29:59 | 00:00:00 | |
| HASLITAL | 2026-08-31 11:55:58 | 47.12399 | 8.10322 | 62° | 99km/h | 16445m | 4.1m/s | -56.6°C | 1.7% | 0hPa | 2.5V | 00:00:00 | 00:00:00 | 00:00:00 | |
| DO3MHA-11 | 2026-08-31 11:55:53 | 47.12341 | 8.10164 | 62° | 71km/h | 16415m | 5.2m/s | -56.6°C | 4.7% | 0hPa | 2.5V | 00:00:00 | 01:29:48 | 00:00:00 | |
| DK5PH-5 | 2026-08-31 11:55:51 | 47.12324 | 8.10123 | 55° | 71km/h | 16404m | 5.8m/s | -56.5°C | 4.6% | 0hPa | 2.5V | 00:00:00 | 01:29:46 | 00:00:00 | |
| DL1ZP-14 | 2026-08-31 11:55:39 | 47.12200 | 8.09817 | 47° | 68km/h | 16349m | 4.8m/s | -56.2°C | 1.5% | -1.0hPa | 2.5V | 00:00:00 | 00:00:00 | 00:00:00 | |
| HASLITAL | 2026-08-31 11:55:38 | 47.12200 | 8.09817 | 48° | 69km/h | 16349m | 4.8m/s | -56.2°C | 1.7% | 0hPa | 2.7V | 00:00:00 | 00:00:00 | 00:00:00 | |
| DO3MHA-11 | 2026-08-31 11:55:37 | 47.12187 | 8.09798 | 42° | 69km/h | 16345m | 3.8m/s | -56.1°C | 4.6% | 0hPa | 2.7V | 00:00:00 | 01:29:32 | 00:00:00 | |
| OE9MKV-15 | 2026-08-31 11:55:36 | 47.12173 | 8.09780 | 41° | 71km/h | 16341m | 3.4m/s | 0°C | 0% | 0hPa | 2.7V | 00:00:00 | 01:29:31 | 00:00:00 | |
| DO3MHA-11 | 2026-08-31 11:55:25 | 47.12077 | 8.09535 | 50° | 73km/h | 16295m | 4.8m/s | -55.6°C | 4.4% | 0hPa | 2.7V | 00:00:00 | 01:29:20 | 00:00:00 | |
| DK5PH-5 | 2026-08-31 11:55:21 | 47.12026 | 8.09472 | 41° | 69km/h | 16278m | 2.9m/s | -55.6°C | 4.3% | 0hPa | 2.7V | 00:00:00 | 01:29:16 | 00:00:00 | |
| DF7PN | 2026-08-31 11:55:20 | 47.12014 | 8.09455 | 46° | 66km/h | 16274m | 4.5m/s | -55.5°C | 1.4% | -1.0hPa | 2.7V | 00:00:00 | 00:00:00 | 00:00:00 | |
| DH7VM-15 | 2026-08-31 11:55:18 | 47.11994 | 8.09415 | 65° | 68km/h | 16264m | 5.5m/s | -55.5°C | 0% | 0hPa | 2.7V | 00:00:00 | 00:00:00 | 00:00:00 | |
| HASLITAL | 2026-08-31 11:55:16 | 47.11987 | 8.09392 | 70° | 68km/h | 16259m | 5.3m/s | -55.4°C | 1.6% | 0hPa | 2.7V | 00:00:00 | 00:00:00 | 00:00:00 | |
| DL1ZP-14 | 2026-08-31 11:55:08 | 47.11888 | 8.09170 | 43° | 73km/h | 16212m | 4.7m/s | -55.1°C | 1.3% | -1.0hPa | 2.7V | 00:00:00 | 00:00:00 | 00:00:00 | |
| OE9MKV-15 | 2026-08-31 11:55:04 | 47.11853 | 8.09106 | 61° | 69km/h | 16197m | 4.7m/s | 0°C | 0% | 0hPa | 2.7V | 00:00:00 | 01:28:59 | 00:00:00 | |
| DF7PN | 2026-08-31 11:54:50 | 47.11717 | 8.08795 | 55° | 60km/h | 16131m | 5.0m/s | -54.5°C | 1.3% | -1.0hPa | 2.7V | 00:00:00 | 00:00:00 | 00:00:00 | |
| DL1ZP-14 | 2026-08-31 11:54:37 | 47.11603 | 8.08530 | 53° | 66km/h | 16075m | 4.3m/s | -53.9°C | 1.2% | -1.0hPa | 2.7V | 00:00:00 | 00:00:00 | 00:00:00 | |
| HASLITAL | 2026-08-31 11:54:34 | 47.11593 | 8.08511 | 57° | 60km/h | 16070m | 4.9m/s | -53.9°C | 1.4% | 0hPa | 2.5V | 00:00:00 | 00:00:00 | 00:00:00 | |
| OE9MKV-15 | 2026-08-31 11:54:32 | 47.11573 | 8.08457 | 64° | 64km/h | 16055m | 4.3m/s | 0°C | 0% | 0hPa | 2.5V | 00:00:00 | 01:28:27 | 00:00:00 | |
| DK5PH-5 | 2026-08-31 11:54:20 | 47.11469 | 8.08230 | 74° | 60km/h | 15990m | 5.0m/s | -53.6°C | 3.9% | 0hPa | 2.5V | 00:00:00 | 01:28:15 | 08:30:00 | |
| DF7PN | 2026-08-31 11:54:18 | 47.11460 | 8.08190 | 68° | 58km/h | 15980m | 5.2m/s | -53.7°C | 1.2% | -1.0hPa | 2.7V | 00:00:00 | 00:00:00 | 00:00:00 | |
| HASLITAL | 2026-08-31 11:54:13 | 47.11427 | 8.08108 | 57° | 71km/h | 15962m | 3.8m/s | -53.6°C | 1.4% | 0hPa | 2.7V | 00:00:00 | 00:00:00 | 00:00:00 | |
| DL1ZP-14 | 2026-08-31 11:54:06 | 47.11378 | 8.07913 | 70° | 57km/h | 15922m | 4.6m/s | -53.4°C | 1.2% | -1.0hPa | 2.7V | 00:00:00 | 00:00:00 | 00:00:00 | |
| DF7PN | 2026-08-31 11:53:47 | 47.11271 | 8.07559 | 67° | 53km/h | 15851m | 4.0m/s | -53.8°C | 1.2% | -1.0hPa | 2.5V | 00:00:00 | 00:00:00 | 00:00:00 | |
| LOEBOVI | 2026-08-31 11:53:41 | 47.11262 | 8.07429 | 85° | 68km/h | 15822m | 4.7m/s | 0°C | 0% | 0hPa | 2.5V | 00:00:00 | 00:00:00 | 00:00:00 | |
| DH7VM-15 | 2026-08-31 11:53:37 | 47.11247 | 8.07353 | 68° | 71km/h | 15809m | 4.3m/s | -54.8°C | 0% | 0hPa | 2.5V | 00:00:00 | 00:00:00 | 00:00:00 | |
| OE9MKV-15 | 2026-08-31 11:53:35 | 47.11226 | 8.07284 | 66° | 69km/h | 15797m | 3.5m/s | 0°C | 0% | 0hPa | 2.5V | 00:00:00 | 01:27:30 | 00:00:00 | |
| HASLITAL | 2026-08-31 11:53:34 | 47.11220 | 8.07264 | 70° | 60km/h | 15794m | 3.4m/s | -55.1°C | 1.6% | 0hPa | 2.5V | 00:00:00 | 00:00:00 | 00:00:00 | |
| DK5PH-5 | 2026-08-31 11:53:20 | 47.11162 | 8.06927 | 70° | 73km/h | 15740m | 3.8m/s | -55.3°C | 4.2% | 0hPa | 2.5V | 00:00:00 | 01:27:15 | 00:00:00 | |
| DF7PN | 2026-08-31 11:53:16 | 47.11150 | 8.06833 | 86° | 68km/h | 15723m | 3.9m/s | -55.9°C | 1.5% | -1.0hPa | 2.5V | 00:00:00 | 00:00:00 | 00:00:00 | |
| HASLITAL | 2026-08-31 11:53:12 | 47.11143 | 8.06753 | 78° | 75km/h | 15712m | 3.1m/s | -55.9°C | 1.7% | 0hPa | 2.5V | 00:00:00 | 00:00:00 | 00:00:00 | |
| DL1ZP-14 | 2026-08-31 11:53:04 | 47.11083 | 8.06505 | 74° | 71km/h | 15675m | 3.9m/s | -56.4°C | 1.5% | -1.0hPa | 2.5V | 00:00:00 | 00:00:00 | 00:00:00 | |
| DF7PN | 2026-08-31 11:52:45 | 47.10993 | 8.06040 | 71° | 64km/h | 15608m | 4.0m/s | -56.4°C | 1.8% | -1.0hPa | 2.5V | 00:00:00 | 00:00:00 | 00:00:00 | |
| DL1ZP-14 | 2026-08-31 11:52:33 | 47.10926 | 8.05654 | 82° | 80km/h | 15540m | 5.8m/s | -56.9°C | 1.7% | -1.0hPa | 2.5V | 00:00:00 | 00:00:00 | 00:00:00 | |
| HASLITAL | 2026-08-31 11:52:30 | 47.10923 | 8.05625 | 80° | 82km/h | 15534m | 5.4m/s | -57.0°C | 1.9% | 0hPa | 2.7V | 00:00:00 | 00:00:00 | 00:00:00 | |
| DK5PH-5 | 2026-08-31 11:52:20 | 47.10856 | 8.05301 | 76° | 78km/h | 15489m | 3.8m/s | -57.1°C | 5.0% | 0hPa | 2.7V | 00:00:00 | 01:26:15 | 00:00:00 | |
| LOEBOVI | 2026-08-31 11:52:18 | 47.10852 | 8.05275 | 77° | 73km/h | 15486m | 3.9m/s | 0°C | 0% | 0hPa | 2.7V | 00:00:00 | 00:00:00 | 00:00:00 | |
| DH7VM-15 | 2026-08-31 11:52:16 | 47.10842 | 8.05222 | 76° | 75km/h | 15477m | 5.1m/s | -57.1°C | 0% | 0hPa | 2.7V | 00:00:00 | 00:00:00 | 00:00:00 | |
| DF7PN | 2026-08-31 11:52:14 | 47.10819 | 8.05104 | 74° | 88km/h | 15458m | 3.4m/s | -57.1°C | 1.8% | -1.0hPa | 2.7V | 00:00:00 | 00:00:00 | 00:00:00 | |
| HASLITAL | 2026-08-31 11:52:10 | 47.10807 | 8.05042 | 75° | 86km/h | 15451m | 3.6m/s | -57.2°C | 2.1% | 0hPa | 2.7V | 00:00:00 | 00:00:00 | 00:00:00 | |
| DL1ZP-14 | 2026-08-31 11:52:02 | 47.10749 | 8.04771 | 75° | 89km/h | 15414m | 4.0m/s | -57.6°C | 2.0% | -1.0hPa | 2.7V | 00:00:00 | 00:00:00 | 00:00:00 | |
| DK5PH-5 | 2026-08-31 11:51:50 | 47.10692 | 8.04462 | 68° | 88km/h | 15372m | 3.5m/s | -57.3°C | 5.3% | 0hPa | 2.7V | 00:00:00 | 01:25:45 | 00:00:00 | |
| HASLITAL | 2026-08-31 11:51:49 | 47.10692 | 8.04462 | 69° | 82km/h | 15372m | 3.5m/s | -57.3°C | 2.3% | 0hPa | 2.7V | 00:00:00 | 00:00:00 | 00:00:00 | |
| DF7PN | 2026-08-31 11:51:43 | 47.10650 | 8.04230 | 77° | 77km/h | 15338m | 3.4m/s | -57.3°C | 2.2% | -1.0hPa | 2.7V | 00:00:00 | 00:00:00 | 00:00:00 | |
| HASLITAL | 2026-08-31 11:51:29 | 47.10570 | 8.03855 | 82° | 86km/h | 15288m | 4.6m/s | -57.3°C | 2.3% | 0hPa | 2.7V | 00:00:00 | 00:00:00 | 00:00:00 | |
| DK5PH-5 | 2026-08-31 11:51:18 | 47.10497 | 8.03473 | 74° | 93km/h | 15241m | 3.4m/s | -57.1°C | 5.1% | 0hPa | 2.7V | 00:00:00 | 01:25:13 | 00:00:00 | |
| DF7PN | 2026-08-31 11:51:12 | 47.10465 | 8.03246 | 77° | 84km/h | 15210m | 4.4m/s | -57.0°C | 2.0% | -1.0hPa | 2.7V | 00:00:00 | 00:00:00 | 00:00:00 | |
| HASLITAL | 2026-08-31 11:51:08 | 47.10453 | 8.03183 | 72° | 91km/h | 15202m | 4.2m/s | -56.9°C | 2.3% | 0hPa | 2.7V | 00:00:00 | 00:00:00 | 00:00:00 | |
| DH7VM-15 | 2026-08-31 11:51:05 | 47.10417 | 8.03046 | 70° | 102km/h | 15184m | 4.6m/s | 0°C | 0% | 0hPa | 2.7V | 00:00:00 | 00:00:00 | 00:00:00 | |
| DO3MHA-11 | 2026-08-31 11:50:55 | 47.10356 | 8.02708 | 77° | 86km/h | 15142m | 4.0m/s | -57.0°C | 4.8% | 0hPa | 2.7V | 00:00:00 | 01:24:50 | 00:00:00 | |
| DK5PH-5 | 2026-08-31 11:50:48 | 47.10311 | 8.02481 | 72° | 89km/h | 15107m | 4.9m/s | -57.2°C | 5.3% | 0hPa | 2.7V | 00:00:00 | 01:24:43 | 00:00:00 | |
| HASLITAL | 2026-08-31 11:50:47 | 47.10312 | 8.02481 | 73° | 95km/h | 15107m | 4.9m/s | -57.3°C | 2.3% | 0hPa | 2.7V | 00:00:00 | 00:00:00 | 00:00:00 | |
| HASLITAL | 2026-08-31 11:50:27 | 47.10121 | 8.01886 | 55° | 93km/h | 15015m | 3.3m/s | -57.0°C | 2.2% | 0hPa | 2.7V | 00:00:00 | 00:00:00 | 00:00:00 | |
| DK5PH-5 | 2026-08-31 11:50:18 | 47.10013 | 8.01614 | 70° | 86km/h | 14974m | 4.1m/s | -57.1°C | 5.4% | 0hPa | 2.7V | 00:00:00 | 01:24:13 | 00:00:00 | |
| IW2NTF | 2026-08-31 11:50:17 | 47.09939 | 8.01445 | 44° | 78km/h | 14947m | 5.6m/s | -57°C | 5.3% | 0hPa | 2.7V | 08:30:00 | 01:24:07 | 00:00:00 | i |
| DF7PN | 2026-08-31 11:50:10 | 47.09901 | 8.01392 | 46° | 60km/h | 14934m | 3.2m/s | -56.9°C | 2.0% | -1.0hPa | 2.7V | 00:00:00 | 00:00:00 | 00:00:00 | |
| HASLITAL | 2026-08-31 11:50:06 | 47.09882 | 8.01356 | 56° | 64km/h | 14925m | 6.8m/s | -56.8°C | 2.1% | 0hPa | 2.7V | 00:00:00 | 00:00:00 | 00:00:00 | |
| DL1ZP-14 | 2026-08-31 11:49:57 | 47.09727 | 8.00993 | 68° | 71km/h | 14819m | 5.1m/s | -56.6°C | 2.0% | -1.0hPa | 2.7V | 00:00:00 | 00:00:00 | 00:00:00 | |
| DO3MHA-11 | 2026-08-31 11:49:49 | 47.09698 | 8.00880 | 68° | 84km/h | 14801m | 4.2m/s | -56.5°C | 5.5% | 0hPa | 2.7V | 00:00:00 | 01:23:44 | 08:30:00 | |
| DK5PH-5 | 2026-08-31 11:49:46 | 47.09667 | 8.00786 | 61° | 91km/h | 14787m | 4.5m/s | -56.4°C | 5.3% | 0hPa | 2.5V | 00:00:00 | 01:23:41 | 08:30:00 | |
| HASLITAL | 2026-08-31 11:49:45 | 47.09667 | 8.00786 | 62° | 95km/h | 14787m | 4.6m/s | -56.4°C | 2.3% | 0hPa | 2.5V | 00:00:00 | 00:00:00 | 00:00:00 | |
| DH7VM-15 | 2026-08-31 11:49:43 | 47.09644 | 8.00726 | 62° | 89km/h | 14779m | 4.2m/s | 0°C | 0% | 0hPa | 2.5V | 00:00:00 | 00:00:00 | 00:00:00 | |
| DO3MHA-11 | 2026-08-31 11:49:38 | 47.09601 | 8.00557 | 74° | 95km/h | 14751m | 4.8m/s | -56.4°C | 5.1% | 0hPa | 2.5V | 00:00:00 | 01:23:33 | 00:00:00 | |
| DO3MHA-11 | 2026-08-31 11:49:28 | 47.09500 | 8.00239 | 71° | 93km/h | 14700m | 6.1m/s | -56.4°C | 5.1% | 0hPa | 2.5V | 00:00:00 | 01:23:23 | 00:00:00 | |
| DL1ZP-14 | 2026-08-31 11:49:26 | 47.09486 | 8.00175 | 71° | 89km/h | 14689m | 5.7m/s | -56.4°C | 2.1% | -1.0hPa | 2.5V | 00:00:00 | 00:00:00 | 00:00:00 | |
| HASLITAL | 2026-08-31 11:49:25 | 47.09486 | 8.00175 | 72° | 89km/h | 14689m | 5.7m/s | -56.4°C | 2.3% | 0hPa | 2.5V | 00:00:00 | 00:00:00 | 00:00:00 | |
| DO3MHA-11 | 2026-08-31 11:49:18 | 47.09398 | 7.99928 | 63° | 97km/h | 14648m | 4.2m/s | -56.0°C | 5.0% | 0hPa | 2.5V | 00:00:00 | 01:23:13 | 00:00:00 | |
| DK5PH-5 | 2026-08-31 11:49:16 | 47.09377 | 7.99866 | 66° | 106km/h | 14640m | 4.7m/s | -56.2°C | 5.2% | 0hPa | 2.7V | 00:00:00 | 01:23:11 | 00:00:00 | |
| DO3MHA-11 | 2026-08-31 11:49:08 | 47.09284 | 7.99612 | 60° | 104km/h | 14601m | 3.8m/s | -55.9°C | 4.8% | 0hPa | 2.7V | 00:00:00 | 01:23:03 | 00:00:00 | |
| DF7PN | 2026-08-31 11:49:07 | 47.09273 | 7.99582 | 61° | 91km/h | 14597m | 4.7m/s | -56.1°C | 2.0% | -1.0hPa | 2.7V | 00:00:00 | 00:00:00 | 00:00:00 | |
| HASLITAL | 2026-08-31 11:49:05 | 47.09262 | 7.99551 | 67° | 93km/h | 14592m | 5.2m/s | -56.2°C | 2.3% | 0hPa | 2.7V | 00:00:00 | 00:00:00 | 00:00:00 | |
| DO3MHA-11 | 2026-08-31 11:48:58 | 47.09186 | 7.99256 | 64° | 100km/h | 14553m | 4.3m/s | -55.6°C | 5.1% | 0hPa | 2.7V | 00:00:00 | 01:22:53 | 00:00:00 | |
| DO3MHA-11 | 2026-08-31 11:48:48 | 47.09090 | 7.98918 | 70° | 99km/h | 14503m | 5.4m/s | -55.6°C | 5.3% | 0hPa | 2.7V | 00:00:00 | 01:22:43 | 00:00:00 | |
| HASLITAL | 2026-08-31 11:48:45 | 47.09068 | 7.98842 | 66° | 113km/h | 14493m | 4.3m/s | -55.4°C | 2.3% | 0hPa | 2.7V | 00:00:00 | 00:00:00 | 00:00:00 | |
| DK5PH-5 | 2026-08-31 11:48:43 | 47.09030 | 7.98733 | 63° | 100km/h | 14479m | 3.9m/s | -55.5°C | 4.9% | 0hPa | 2.7V | 00:00:00 | 01:22:38 | 00:00:00 | |
| DO3MHA-11 | 2026-08-31 11:48:37 | 47.08978 | 7.98533 | 75° | 108km/h | 14451m | 4.2m/s | -55.4°C | 5.3% | 0hPa | 2.7V | 00:00:00 | 01:22:32 | 00:00:00 | |
| DF7PN | 2026-08-31 11:48:36 | 47.08971 | 7.98496 | 73° | 104km/h | 14446m | 5.0m/s | -55.4°C | 2.2% | -1.0hPa | 2.7V | 00:00:00 | 00:00:00 | 00:00:00 | |
| DO3MHA-11 | 2026-08-31 11:48:27 | 47.08863 | 7.98175 | 64° | 99km/h | 14399m | 7.1m/s | -55.4°C | 5.1% | 0hPa | 2.7V | 00:00:00 | 01:22:22 | 00:00:00 | |
| HASLITAL | 2026-08-31 11:48:24 | 47.08842 | 7.98108 | 69° | 99km/h | 14386m | 6.5m/s | -55.3°C | 2.4% | 0hPa | 2.7V | 00:00:00 | 00:00:00 | 00:00:00 | |
| DO3MHA-11 | 2026-08-31 11:48:17 | 47.08767 | 7.97843 | 67° | 102km/h | 14342m | 5.7m/s | -55.5°C | 5.2% | 0hPa | 2.7V | 00:00:00 | 01:22:12 | 08:30:00 | |
| DH7VM-15 | 2026-08-31 11:48:16 | 47.08757 | 7.97810 | 68° | 93km/h | 14336m | 4.7m/s | 0°C | 0% | 0hPa | 2.7V | 00:00:00 | 00:00:00 | 00:00:00 | |
| DK5PH-5 | 2026-08-31 11:48:13 | 47.08730 | 7.97710 | 70° | 110km/h | 14323m | 5.5m/s | -55.7°C | 5.3% | 0hPa | 2.7V | 00:00:00 | 01:22:08 | 00:00:00 | |
| DF7PN | 2026-08-31 11:48:05 | 47.08651 | 7.97419 | 62° | 93km/h | 14285m | 3.5m/s | -55.8°C | 2.3% | -1.0hPa | 2.5V | 00:00:00 | 00:00:00 | 00:00:00 | |
| HASLITAL | 2026-08-31 11:48:04 | 47.08651 | 7.97419 | 63° | 95km/h | 14285m | 3.5m/s | -55.8°C | 2.5% | 0hPa | 2.5V | 00:00:00 | 00:00:00 | 00:00:00 | |
| HASLITAL | 2026-08-31 11:47:44 | 47.08477 | 7.96683 | 76° | 120km/h | 14197m | 5.3m/s | -56.2°C | 2.7% | 0hPa | 2.5V | 00:00:00 | 00:00:00 | 00:00:00 | |
| DK5PH-5 | 2026-08-31 11:47:43 | 47.08458 | 7.96595 | 71° | 119km/h | 14187m | 4.6m/s | -56.1°C | 5.8% | 0hPa | 2.5V | 00:00:00 | 01:21:38 | 00:00:00 | |
| DO3MHA-11 | 2026-08-31 11:47:34 | 47.08376 | 7.96241 | 80° | 119km/h | 14143m | 4.6m/s | -55.8°C | 5.4% | 0hPa | 2.5V | 00:00:00 | 01:21:29 | 00:00:00 | |
| IW2NTF | 2026-08-31 11:47:32 | 47.08294 | 7.95859 | 66° | 106km/h | 14102m | 3.8m/s | -55.6°C | 5.3% | 0hPa | 2.5V | 08:30:00 | 01:21:20 | 00:00:00 | |
| HASLITAL | 2026-08-31 11:47:25 | 47.08294 | 7.95858 | 67° | 106km/h | 14102m | 3.8m/s | -55.6°C | 2.5% | 0hPa | 2.5V | 00:00:00 | 00:00:00 | 00:00:00 | |
| DB0UT-7 | 2026-08-31 11:47:24 | 47.08283 | 7.95823 | 68° | 115km/h | 14099m | 3.5m/s | -55.5°C | 5.2% | 0hPa | 2.5V | 00:00:00 | 00:00:00 | 00:00:00 | |
| DO3MHA-11 | 2026-08-31 11:47:23 | 47.08273 | 7.95786 | 69° | 122km/h | 14095m | 4.5m/s | -55.5°C | 5.2% | 0hPa | 2.5V | 00:00:00 | 01:21:18 | 00:00:00 | |
| DL1ZP-14 | 2026-08-31 11:47:22 | 47.08214 | 7.95490 | 72° | 126km/h | 14062m | 3.8m/s | -55.0°C | 2.3% | -1.0hPa | 2.5V | 00:00:00 | 00:00:00 | 00:00:00 | |
| DO3MHA-11 | 2026-08-31 11:47:12 | 47.08173 | 7.95322 | 71° | 115km/h | 14047m | 4.2m/s | -55.1°C | 4.9% | 0hPa | 2.7V | 00:00:00 | 01:21:07 | 00:00:00 | |
| DK5PH-5 | 2026-08-31 11:47:07 | 47.08130 | 7.95126 | 74° | 115km/h | 14025m | 4.1m/s | -55.1°C | 5.2% | 0hPa | 2.7V | 00:00:00 | 01:21:02 | 00:00:00 | |
| HASLITAL | 2026-08-31 11:47:04 | 47.08112 | 7.95042 | 72° | 120km/h | 14017m | 4.3m/s | -55.0°C | 2.6% | 0hPa | 2.7V | 00:00:00 | 00:00:00 | 00:00:00 | |
| DF7PN | 2026-08-31 11:47:03 | 47.08090 | 7.94958 | 67° | 120km/h | 14008m | 3.9m/s | -54.9°C | 2.4% | -1.0hPa | 2.7V | 00:00:00 | 00:00:00 | 00:00:00 | |
| DO3MHA-11 | 2026-08-31 11:46:51 | 47.07971 | 7.94466 | 71° | 117km/h | 13963m | 3.5m/s | -54.8°C | 5.1% | 0hPa | 2.7V | 00:00:00 | 01:20:46 | 00:00:00 | |
| HASLITAL | 2026-08-31 11:46:44 | 47.07909 | 7.94199 | 77° | 117km/h | 13939m | 3.9m/s | -55.0°C | 2.6% | 0hPa | 2.7V | 00:00:00 | 00:00:00 | 00:00:00 | |
| DO3MHA-11 | 2026-08-31 11:46:40 | 47.07879 | 7.94025 | 72° | 117km/h | 13924m | 3.7m/s | -55.1°C | 5.5% | 0hPa | 2.7V | 00:00:00 | 01:20:35 | 00:00:00 | |
| DF7PN | 2026-08-31 11:46:32 | 47.07779 | 7.93711 | 70° | 111km/h | 13894m | 4.5m/s | -55.8°C | 2.4% | -1.0hPa | 2.7V | 00:00:00 | 00:00:00 | 00:00:00 | |
| DO3MHA-11 | 2026-08-31 11:46:27 | 47.07740 | 7.93503 | 76° | 122km/h | 13868m | 4.0m/s | -55.5°C | 5.8% | 0hPa | 2.7V | 00:00:00 | 01:20:22 | 00:00:00 | |
| HASLITAL | 2026-08-31 11:46:22 | 47.07701 | 7.93330 | 70° | 120km/h | 13853m | 4.4m/s | -55.3°C | 2.6% | 0hPa | 2.7V | 00:00:00 | 00:00:00 | 00:00:00 | |
| DO3MHA-11 | 2026-08-31 11:46:17 | 47.07651 | 7.93069 | 82° | 130km/h | 13826m | 3.4m/s | -55.7°C | 5.7% | 0hPa | 2.7V | 00:00:00 | 01:20:12 | 00:00:00 | |
| IW2NTF | 2026-08-31 11:46:11 | 47.07597 | 7.92773 | 67° | 130km/h | 13807m | 3.8m/s | -55.6°C | 5.5% | 0hPa | 2.7V | 08:30:00 | 01:20:06 | 00:00:00 | i |
| DO3MHA-11 | 2026-08-31 11:46:07 | 47.07551 | 7.92607 | 72° | 137km/h | 13793m | 3.7m/s | -55.8°C | 5.7% | 0hPa | 2.7V | 00:00:00 | 01:20:02 | 00:00:00 | |
| HASLITAL | 2026-08-31 11:46:03 | 47.07519 | 7.92424 | 79° | 137km/h | 13777m | 3.9m/s | -56.1°C | 3.2% | 0hPa | 2.7V | 00:00:00 | 00:00:00 | 00:00:00 | |
| IW2NTF | 2026-08-31 11:46:01 | 47.07439 | 7.92035 | 72° | 126km/h | 13743m | 4.8m/s | -56°C | 5.7% | 0hPa | 2.7V | 08:30:00 | 01:19:50 | 00:00:00 | i |
| DO3MHA-11 | 2026-08-31 11:45:57 | 47.07459 | 7.92126 | 71° | 130km/h | 13753m | 5.2m/s | -56.0°C | 5.6% | 0hPa | 2.6V | 00:00:00 | 01:19:52 | 08:30:00 | |
| IW2NTF | 2026-08-31 11:45:50 | 47.07351 | 7.91568 | 70° | 133km/h | 13703m | 4.2m/s | -55.7°C | 6.1% | 0hPa | 2.7V | 08:30:00 | 01:19:40 | 00:00:00 | i |
| DO3MHA-11 | 2026-08-31 11:45:47 | 47.07372 | 7.91663 | 73° | 130km/h | 13711m | 3.9m/s | -55.7°C | 6.1% | 0hPa | 2.7V | 00:00:00 | 01:19:42 | 00:00:00 | |
| HASLITAL | 2026-08-31 11:45:42 | 47.07328 | 7.91475 | 72° | 130km/h | 13693m | 4.6m/s | -55.6°C | 3.1% | 0hPa | 2.7V | 00:00:00 | 00:00:00 | 00:00:00 | |
| IW2NTF | 2026-08-31 11:45:39 | 47.07240 | 7.91068 | 70° | 135km/h | 13635m | 6.8m/s | -56.1°C | 6.3% | 0hPa | 2.7V | 08:30:00 | 01:19:29 | 00:00:00 | |
| DO3MHA-11 | 2026-08-31 11:45:36 | 47.07261 | 7.91159 | 73° | 135km/h | 13650m | 7.9m/s | -56.0°C | 6.3% | 0hPa | 2.7V | 00:00:00 | 01:19:31 | 00:00:00 | |
| DF7PN | 2026-08-31 11:45:30 | 47.07193 | 7.90872 | 71° | 141km/h | 13605m | 7.1m/s | -56.1°C | 3.2% | -1.0hPa | 2.7V | 00:00:00 | 00:00:00 | 00:00:00 | |
| IW2NTF | 2026-08-31 11:45:28 | 47.07119 | 7.90540 | 74° | 135km/h | 13559m | 5.8m/s | -56.1°C | 6.3% | 0hPa | 2.7V | 08:30:00 | 01:19:18 | 00:00:00 | i |
| DO3MHA-11 | 2026-08-31 11:45:26 | 47.07149 | 7.90681 | 72° | 137km/h | 13577m | 6.8m/s | -56.2°C | 6.4% | 0hPa | 2.5V | 00:00:00 | 01:19:21 | 00:00:00 | |
| DH7VM-15 | 2026-08-31 11:45:25 | 47.07139 | 7.90635 | 73° | 131km/h | 13571m | 5.2m/s | 0°C | 0% | 0hPa | 2.6V | 00:00:00 | 00:00:00 | 00:00:00 | |
| HASLITAL | 2026-08-31 11:45:21 | 47.07110 | 7.90492 | 76° | 137km/h | 13553m | 5.3m/s | -56.0°C | 3.4% | 0hPa | 2.6V | 00:00:00 | 00:00:00 | 00:00:00 | |
| IW2NTF | 2026-08-31 11:45:19 | 47.07013 | 7.90054 | 72° | 139km/h | 13506m | 4.8m/s | -55.8°C | 6.4% | 0hPa | 2.6V | 08:30:00 | 01:19:08 | 00:00:00 | |
| DL1ZP-14 | 2026-08-31 11:45:18 | 47.07059 | 7.90247 | 69° | 137km/h | 13526m | 4.9m/s | -56.0°C | 3.0% | -1.0hPa | 2.6V | 00:00:00 | 00:00:00 | 00:00:00 | |
| DO3MHA-11 | 2026-08-31 11:45:16 | 47.07047 | 7.90199 | 70° | 142km/h | 13522m | 3.8m/s | -55.9°C | 6.2% | 0hPa | 2.6V | 00:00:00 | 01:19:11 | 00:00:00 | |
| IW2NTF | 2026-08-31 11:45:08 | 47.06901 | 7.89550 | 71° | 131km/h | 13460m | 4.7m/s | -55.5°C | 6.2% | 0hPa | 2.6V | 08:30:00 | 01:18:58 | 00:00:00 | |
| DO3MHA-11 | 2026-08-31 11:45:06 | 47.06936 | 7.89694 | 71° | 137km/h | 13477m | 5.8m/s | -55.8°C | 6.1% | 0hPa | 2.7V | 00:00:00 | 01:19:01 | 00:00:00 | |
| HASLITAL | 2026-08-31 11:45:01 | 47.06881 | 7.89456 | 76° | 133km/h | 13451m | 4.2m/s | -55.5°C | 3.4% | 0hPa | 2.7V | 00:00:00 | 00:00:00 | 00:00:00 | |
| IW2NTF | 2026-08-31 11:44:59 | 47.06798 | 7.89058 | 68° | 141km/h | 13422m | 4.6m/s | -55.4°C | 6.3% | 0hPa | 2.7V | 08:30:00 | 01:18:48 | 00:00:00 | i |
| DO3MHA-11 | 2026-08-31 11:44:56 | 47.06835 | 7.89208 | 72° | 139km/h | 13433m | 3.3m/s | -55.3°C | 6.3% | 0hPa | 2.7V | 00:00:00 | 01:18:51 | 00:00:00 | |
| DK5PH-5 | 2026-08-31 11:44:55 | 47.06823 | 7.89157 | 71° | 141km/h | 13430m | 3.2m/s | -55.4°C | 6.2% | 0hPa | 2.6V | 00:00:00 | 01:18:50 | 08:30:00 | |
| IW2NTF | 2026-08-31 11:44:49 | 47.06694 | 7.88573 | 70° | 141km/h | 13383m | 3.2m/s | -55.5°C | 6.5% | 0hPa | 2.7V | 08:30:00 | 01:18:38 | 00:00:00 | i |
| DO3MHA-11 | 2026-08-31 11:44:46 | 47.06725 | 7.88722 | 76° | 137km/h | 13395m | 4.0m/s | -55.4°C | 6.6% | 0hPa | 2.6V | 00:00:00 | 01:18:41 | 00:00:00 | |
| HASLITAL | 2026-08-31 11:44:40 | 47.06669 | 7.88476 | 69° | 137km/h | 13376m | 4.9m/s | -55.3°C | 3.5% | 0hPa | 2.6V | 00:00:00 | 00:00:00 | 00:00:00 | |
| IW2NTF | 2026-08-31 11:44:38 | 47.06579 | 7.88090 | 74° | 146km/h | 13341m | 4.5m/s | -55.5°C | 6.6% | 0hPa | 2.6V | 08:30:00 | 01:18:28 | 00:00:00 | i |
| DO3MHA-11 | 2026-08-31 11:44:36 | 47.06609 | 7.88243 | 73° | 144km/h | 13353m | 4.5m/s | -55.3°C | 6.4% | 0hPa | 2.6V | 00:00:00 | 01:18:31 | 00:00:00 | |
| IW2NTF | 2026-08-31 11:44:28 | 47.06457 | 7.87589 | 69° | 146km/h | 13302m | 4.7m/s | -55.5°C | 6.6% | 0hPa | 2.6V | 08:30:00 | 01:18:18 | 00:00:00 | i |
| DF7PN | 2026-08-31 11:44:28 | 47.06508 | 7.87787 | 69° | 141km/h | 13318m | 4.1m/s | -55.3°C | -1.0% | -1.0hPa | 2.7V | 00:00:00 | 00:00:00 | 00:00:00 | i |
| DO3MHA-11 | 2026-08-31 11:44:26 | 47.06495 | 7.87738 | 70° | 142km/h | 13315m | 3.5m/s | -55.3°C | 6.8% | 0hPa | 2.7V | 00:00:00 | 01:18:21 | 08:30:00 | |
| DK5PH-5 | 2026-08-31 11:44:25 | 47.06483 | 7.87689 | 69° | 141km/h | 13311m | 3.8m/s | -55.4°C | 6.7% | 0hPa | 2.7V | 00:00:00 | 01:18:20 | 00:00:00 | |
| HASLITAL | 2026-08-31 11:44:19 | 47.06420 | 7.87435 | 73° | 146km/h | 13292m | 2.8m/s | -55.4°C | 3.7% | 0hPa | 2.7V | 00:00:00 | 00:00:00 | 00:00:00 | |
| IW2NTF | 2026-08-31 11:44:18 | 47.06331 | 7.87054 | 67° | 150km/h | 13259m | 3.2m/s | -55.2°C | 7% | 0hPa | 2.7V | 08:30:00 | 01:18:07 | 00:00:00 | i |
| DO3MHA-11 | 2026-08-31 11:44:16 | 47.06380 | 7.87241 | 73° | 144km/h | 13275m | 3.8m/s | -55.1°C | 6.6% | 0hPa | 2.6V | 00:00:00 | 01:18:11 | 00:00:00 | |
| DO3MHA-11 | 2026-08-31 11:44:06 | 47.06250 | 7.86731 | 74° | 133km/h | 13237m | 3.5m/s | -55.5°C | 7.2% | 0hPa | 2.6V | 00:00:00 | 01:18:01 | 00:00:00 | |
| DH7VM-15 | 2026-08-31 11:44:05 | 47.06240 | 7.86680 | 76° | 142km/h | 13233m | 4.4m/s | 0°C | 0% | 0hPa | 2.6V | 00:00:00 | 00:00:00 | 00:00:00 | |
| IW2NTF | 2026-08-31 11:43:59 | 47.06166 | 7.86363 | 66° | 133km/h | 13193m | 7.6m/s | -55.9°C | 7.7% | 0hPa | 2.6V | 08:30:00 | 01:17:53 | 00:00:00 | i |
| DF7PN | 2026-08-31 11:43:57 | 47.06053 | 7.85933 | 74° | 157km/h | 13124m | 7.5m/s | -56.3°C | -1.0% | -1.0hPa | 2.7V | 00:00:00 | 00:00:00 | 00:00:00 | |
| DO3MHA-11 | 2026-08-31 11:43:56 | 47.06137 | 7.86267 | 67° | 155km/h | 13176m | 9.5m/s | -56.0°C | 7.7% | 0hPa | 2.7V | 00:00:00 | 01:17:51 | 00:00:00 | |
| DK5PH-5 | 2026-08-31 11:43:55 | 47.06121 | 7.86215 | 68° | 157km/h | 13166m | 9.8m/s | -56.1°C | 7.7% | 0hPa | 2.7V | 00:00:00 | 01:17:50 | 00:00:00 | |
| IW2NTF | 2026-08-31 11:43:49 | 47.06034 | 7.85823 | 77° | 148km/h | 13109m | 7.8m/s | -56.2°C | 7.8% | 0hPa | 2.7V | 08:30:00 | 01:17:43 | 00:00:00 | i |
| DO3MHA-11 | 2026-08-31 11:43:46 | 47.06018 | 7.85720 | 76° | 146km/h | 13095m | 5.7m/s | -56.0°C | 7.9% | 0hPa | 2.6V | 00:00:00 | 01:17:41 | 00:00:00 | |
| IW2NTF | 2026-08-31 11:43:39 | 47.05904 | 7.85332 | 61° | 159km/h | 13047m | 6.1m/s | -55.8°C | 8.3% | 0hPa | 2.6V | 08:30:00 | 01:17:33 | 00:00:00 | |
| HASLITAL | 2026-08-31 11:43:38 | 47.05922 | 7.85383 | 63° | 155km/h | 13054m | 6.4m/s | -55.8°C | 5.1% | 0hPa | 2.7V | 00:00:00 | 00:00:00 | 00:00:00 | |
| DO3MHA-11 | 2026-08-31 11:43:36 | 47.05866 | 7.85223 | 65° | 162km/h | 13036m | 5.6m/s | -55.5°C | 8.0% | 0hPa | 2.7V | 00:00:00 | 01:17:31 | 00:00:00 | |
| IW2NTF | 2026-08-31 11:43:30 | 47.05766 | 7.84758 | 75° | 146km/h | 12980m | 6.5m/s | -55.1°C | 8.4% | 0hPa | 2.7V | 08:30:00 | 01:17:23 | 00:00:00 | i |
| DO3MHA-11 | 2026-08-31 11:43:26 | 47.05745 | 7.84656 | 73° | 148km/h | 12966m | 7.1m/s | -55.0°C | 8.6% | 0hPa | 2.7V | 00:00:00 | 01:17:21 | 00:00:00 | |
| DK5PH-5 | 2026-08-31 11:43:25 | 47.05734 | 7.84605 | 71° | 157km/h | 12959m | 6.7m/s | 0°C | 0% | 0hPa | 2.6V | 00:00:00 | 01:17:20 | 00:00:00 | |
| IW2NTF | 2026-08-31 11:43:19 | 47.05654 | 7.84241 | 75° | 150km/h | 12909m | 8.1m/s | -55.4°C | 8.7% | 0hPa | 2.6V | 08:30:00 | 01:17:13 | 00:00:00 | i |
| HASLITAL | 2026-08-31 11:43:17 | 47.05654 | 7.84241 | 77° | 150km/h | 12909m | 8.1m/s | -55.4°C | 5.6% | 0hPa | 2.7V | 00:00:00 | 00:00:00 | 00:00:00 | |
| DO3MHA-11 | 2026-08-31 11:43:16 | 47.05635 | 7.84130 | 76° | 159km/h | 12893m | 8.1m/s | -55.3°C | 8.7% | 0hPa | 2.7V | 00:00:00 | 01:17:11 | 00:00:00 | |
| DO3MHA-12 | 2026-08-31 11:43:12 | 47.05592 | 7.83895 | 76° | 157km/h | 12865m | 4.6m/s | -55.3°C | 9.0% | 0hPa | 2.7V | 00:00:00 | 01:17:07 | 00:00:00 | |
| IW2NTF | 2026-08-31 11:43:09 | 47.05552 | 7.83670 | 75° | 150km/h | 12839m | 6.1m/s | -55.3°C | 9.6% | 0hPa | 2.7V | 08:30:00 | 01:17:03 | 00:00:00 | i |
| DO3MHA-11 | 2026-08-31 11:43:06 | 47.05534 | 7.83561 | 78° | 162km/h | 12828m | 6.1m/s | -55.1°C | 10.1% | 0hPa | 2.6V | 00:00:00 | 01:17:01 | 00:00:00 | |
| DO3MHA-12 | 2026-08-31 11:43:02 | 47.05495 | 7.83327 | 75° | 162km/h | 12807m | 6.0m/s | -55.0°C | 10.7% | 0hPa | 2.6V | 00:00:00 | 01:16:57 | 00:00:00 | |
| IW2NTF | 2026-08-31 11:43:00 | 47.05444 | 7.83094 | 71° | 159km/h | 12785m | 5.5m/s | -55°C | 10.2% | 0hPa | 2.6V | 08:30:00 | 01:16:53 | 00:00:00 | i |
| DF7PN | 2026-08-31 11:42:55 | 47.05404 | 7.82868 | 78° | 161km/h | 12764m | 5.9m/s | 0°C | -1.0% | -1.0hPa | 2.6V | 00:00:00 | 00:00:00 | 00:00:00 | |
| DO3MHA-12 | 2026-08-31 11:42:52 | 47.05387 | 7.82747 | 79° | 170km/h | 12752m | 5.6m/s | -55.0°C | 10.8% | 0hPa | 2.6V | 00:00:00 | 01:16:47 | 00:00:00 | |
| IW2NTF | 2026-08-31 11:42:49 | 47.05343 | 7.82492 | 73° | 175km/h | 12730m | 4.8m/s | -54.9°C | 11.6% | 0hPa | 2.7V | 08:30:00 | 01:16:43 | 00:00:00 | i |
| DO3MHA-11 | 2026-08-31 11:42:46 | 47.05317 | 7.82372 | 73° | 168km/h | 12720m | 5.1m/s | -55.0°C | 11.7% | 0hPa | 2.6V | 00:00:00 | 01:16:41 | 00:00:00 | |
| DO3MHA-12 | 2026-08-31 11:42:42 | 47.05272 | 7.82141 | 76° | 175km/h | 12700m | 3.7m/s | -55.0°C | 12.4% | 0hPa | 2.6V | 00:00:00 | 01:16:37 | 00:00:00 | |
| IW2NTF | 2026-08-31 11:42:39 | 47.05229 | 7.81899 | 74° | 177km/h | 12682m | 4.9m/s | -54.9°C | 12.5% | 0hPa | 2.6V | 08:30:00 | 01:16:33 | 00:00:00 | i |
| DO3MHA-11 | 2026-08-31 11:42:36 | 47.05203 | 7.81772 | 73° | 173km/h | 12670m | 6.2m/s | -55.0°C | 12.3% | 0hPa | 2.6V | 00:00:00 | 01:16:31 | 00:00:00 | |
| DO3MHA-12 | 2026-08-31 11:42:32 | 47.05150 | 7.81518 | 76° | 170km/h | 12646m | 6.1m/s | -55.1°C | 12.4% | 0hPa | 2.6V | 00:00:00 | 01:16:27 | 00:00:00 | |
| IW2NTF | 2026-08-31 11:42:29 | 47.05111 | 7.81273 | 75° | 166km/h | 12625m | 5.1m/s | -55.1°C | 13.2% | 0hPa | 2.6V | 08:30:00 | 01:16:23 | 00:00:00 | i |
| DK5PH-5 | 2026-08-31 11:42:23 | 47.05042 | 7.80977 | 69° | 183km/h | 12598m | 4.4m/s | 0°C | 0% | 0hPa | 2.6V | 00:00:00 | 01:16:18 | 00:00:00 | |
| DO3MHA-12 | 2026-08-31 11:42:22 | 47.05025 | 7.80915 | 70° | 181km/h | 12593m | 5.9m/s | -55.0°C | 14.0% | 0hPa | 2.6V | 00:00:00 | 01:16:17 | 08:30:00 | |
| IW2NTF | 2026-08-31 11:42:19 | 47.04965 | 7.80656 | 72° | 184km/h | 12567m | 7.6m/s | -54.9°C | 13.3% | 0hPa | 2.7V | 08:30:00 | 01:16:13 | 00:00:00 | i |
| DO3MHA-11 | 2026-08-31 11:42:16 | 47.04938 | 7.80527 | 74° | 173km/h | 12552m | 7.4m/s | -54.9°C | 13.0% | 0hPa | 2.7V | 00:00:00 | 01:16:11 | 00:00:00 | |
| HASLITAL | 2026-08-31 11:42:15 | 47.04938 | 7.80527 | 75° | 181km/h | 12552m | 7.4m/s | -55.0°C | 9.5% | 0hPa | 2.7V | 00:00:00 | 00:00:00 | 00:00:00 | |
| DO3MHA-12 | 2026-08-31 11:42:12 | 47.04889 | 7.80276 | 73° | 175km/h | 12522m | 6.8m/s | -54.8°C | 13.2% | 0hPa | 2.7V | 00:00:00 | 01:16:07 | 00:00:00 | |
| IW2NTF | 2026-08-31 11:42:09 | 47.04830 | 7.80039 | 67° | 173km/h | 12496m | 5.4m/s | -54.9°C | 13.1% | 0hPa | 2.7V | 08:30:00 | 01:16:03 | 00:00:00 | i |
| DO3MHA-11 | 2026-08-31 11:42:06 | 47.04794 | 7.79919 | 67° | 173km/h | 12486m | 4.9m/s | -54.6°C | 13.1% | 0hPa | 2.7V | 00:00:00 | 01:16:01 | 00:00:00 | |
| DO3MHA-12 | 2026-08-31 11:42:02 | 47.04727 | 7.79672 | 70° | 168km/h | 12467m | 5.7m/s | -54.6°C | 13.0% | 0hPa | 2.7V | 00:00:00 | 01:15:57 | 00:00:00 | |
| IW2NTF | 2026-08-31 11:41:59 | 47.04666 | 7.79433 | 69° | 164km/h | 12445m | 5m/s | -54.6°C | 14% | 0hPa | 2.7V | 08:30:00 | 01:15:53 | 00:00:00 | i |
| DO3MHA-11 | 2026-08-31 11:41:56 | 47.04637 | 7.79322 | 69° | 179km/h | 12436m | 4.3m/s | -54.5°C | 14.3% | 0hPa | 2.6V | 00:00:00 | 01:15:51 | 00:00:00 | |
| HASLITAL | 2026-08-31 11:41:55 | 47.04637 | 7.79322 | 70° | 159km/h | 12436m | 4.4m/s | -54.6°C | 10.6% | 0hPa | 2.6V | 00:00:00 | 00:00:00 | 00:00:00 | |
| DO3MHA-12 | 2026-08-31 11:41:52 | 47.04571 | 7.79092 | 68° | 181km/h | 12416m | 5.5m/s | -54.3°C | 14.8% | 0hPa | 2.6V | 00:00:00 | 01:15:47 | 00:00:00 | |
| IW2NTF | 2026-08-31 11:41:50 | 47.04497 | 7.78834 | 67° | 188km/h | 12395m | 4m/s | -54.3°C | 15.4% | 0hPa | 2.7V | 08:30:00 | 01:15:43 | 00:00:00 | i |
| DO3MHA-11 | 2026-08-31 11:41:46 | 47.04464 | 7.78708 | 71° | 168km/h | 12386m | 5.2m/s | -54.1°C | 15.5% | 0hPa | 2.7V | 00:00:00 | 01:15:41 | 00:00:00 | |
| DO3MHA-12 | 2026-08-31 11:41:42 | 47.04411 | 7.78473 | 72° | 172km/h | 12360m | 6.9m/s | -54.1°C | 16.7% | 0hPa | 2.7V | 00:00:00 | 01:15:37 | 00:00:00 | |
| IW2NTF | 2026-08-31 11:41:39 | 47.04353 | 7.78241 | 68° | 172km/h | 12333m | 7.5m/s | -53.9°C | 17.3% | 0hPa | 2.7V | 08:30:00 | 01:15:33 | 00:00:00 | i |
| DO3MHA-12 | 2026-08-31 11:41:32 | 47.04249 | 7.77882 | 69° | 179km/h | 12297m | 4.3m/s | -54.2°C | 19.7% | 0hPa | 2.7V | 00:00:00 | 01:15:27 | 00:00:00 | |
| IW2NTF | 2026-08-31 11:41:29 | 47.04193 | 7.77636 | 73° | 181km/h | 12276m | 4.8m/s | -54.2°C | 21.3% | 0hPa | 2.7V | 08:30:00 | 01:15:23 | 00:00:00 | i |
| DO3MHA-11 | 2026-08-31 11:41:26 | 47.04166 | 7.77507 | 72° | 184km/h | 12268m | 3.6m/s | -54.0°C | 21.9% | 0hPa | 2.6V | 00:00:00 | 01:15:21 | 08:30:00 | |
| DO3MHA-12 | 2026-08-31 11:41:22 | 47.04089 | 7.77261 | 61° | 183km/h | 12242m | 7.8m/s | -54.0°C | 20.6% | 0hPa | 2.6V | 00:00:00 | 01:15:17 | 00:00:00 | |
| IW2NTF | 2026-08-31 11:41:19 | 47.04000 | 7.77019 | 66° | 186km/h | 12212m | 8m/s | -53.9°C | 20.4% | 0hPa | 2.7V | 08:30:00 | 01:15:13 | 00:00:00 | i |
| DO3MHA-11 | 2026-08-31 11:41:16 | 47.03968 | 7.76890 | 73° | 177km/h | 12194m | 8.9m/s | -53.7°C | 20.0% | 0hPa | 2.7V | 00:00:00 | 01:15:11 | 00:00:00 | |
| HASLITAL | 2026-08-31 11:41:13 | 47.03930 | 7.76698 | 74° | 175km/h | 12168m | 7.3m/s | -53.6°C | 15.9% | 0hPa | 2.7V | 00:00:00 | 00:00:00 | 00:00:00 | |
| DO3MHA-12 | 2026-08-31 11:41:12 | 47.03916 | 7.76636 | 72° | 181km/h | 12161m | 7.5m/s | -53.5°C | 20.1% | 0hPa | 2.7V | 00:00:00 | 01:15:07 | 00:00:00 | |
| IW2NTF | 2026-08-31 11:41:09 | 47.03845 | 7.76404 | 61° | 175km/h | 12127m | 7.8m/s | -53.3°C | 18.6% | 0hPa | 2.7V | 08:30:00 | 01:15:03 | 00:00:00 | i |
| DL1ZP-14 | 2026-08-31 11:41:09 | 47.03845 | 7.76404 | 61° | 173km/h | 12127m | 7.8m/s | -53.3°C | -1.0% | -1.0hPa | 2.7V | 00:00:00 | 00:00:00 | 00:00:00 | i |
| DO3MHA-11 | 2026-08-31 11:41:06 | 47.03801 | 7.76288 | 62° | 188km/h | 12111m | 8.1m/s | -53.3°C | 17.9% | 0hPa | 2.8V | 00:00:00 | 01:15:01 | 00:00:00 | |
| DO3MHA-12 | 2026-08-31 11:41:02 | 47.03716 | 7.76036 | 68° | 184km/h | 12077m | 7.7m/s | -53.2°C | 17.5% | 0hPa | 2.8V | 00:00:00 | 01:14:57 | 00:00:00 | |
| IW2NTF | 2026-08-31 11:40:59 | 47.03647 | 7.75776 | 68° | 183km/h | 12055m | 4.4m/s | -53°C | 18.7% | 0hPa | 2.8V | 08:30:00 | 01:14:53 | 00:00:00 | i |
| DO3MHA-11 | 2026-08-31 11:40:56 | 47.03611 | 7.75653 | 66° | 186km/h | 12047m | 3.7m/s | -52.7°C | 18.9% | 0hPa | 2.6V | 00:00:00 | 01:14:51 | 00:00:00 | |
| DO3MHA-12 | 2026-08-31 11:40:52 | 47.03530 | 7.75412 | 64° | 188km/h | 12029m | 4.3m/s | -52.7°C | 19.6% | 0hPa | 2.7V | 00:00:00 | 01:14:47 | 08:30:00 | |
| HASLITAL | 2026-08-31 11:40:51 | 47.03529 | 7.75412 | 64° | 186km/h | 12029m | 4.3m/s | -52.8°C | 15.5% | 0hPa | 2.6V | 00:00:00 | 00:00:00 | 00:00:00 | |
| IW2NTF | 2026-08-31 11:40:49 | 47.03446 | 7.75159 | 65° | 190km/h | 12010m | 5.8m/s | -52.8°C | 18.8% | 0hPa | 2.6V | 08:30:00 | 01:14:43 | 00:00:00 | i |
| DO3MHA-11 | 2026-08-31 11:40:46 | 47.03408 | 7.75031 | 69° | 183km/h | 11999m | 4.4m/s | -52.7°C | 18.5% | 0hPa | 2.6V | 00:00:00 | 01:14:41 | 00:00:00 | |
| DO3MHA-12 | 2026-08-31 11:40:42 | 47.03340 | 7.74776 | 67° | 186km/h | 11981m | 4.6m/s | -52.5°C | 18.9% | 0hPa | 2.6V | 00:00:00 | 01:14:37 | 00:00:00 | |
| IW2NTF | 2026-08-31 11:40:40 | 47.03262 | 7.74531 | 63° | 179km/h | 11962m | 4.5m/s | -52.4°C | 19.5% | 0hPa | 2.6V | 08:30:00 | 01:14:33 | 00:00:00 | i |
| DL1ZP-14 | 2026-08-31 11:40:38 | 47.03241 | 7.74472 | 63° | 179km/h | 11958m | 4.3m/s | 0°C | -1.0% | -1.0hPa | 2.8V | 00:00:00 | 00:00:00 | 00:00:00 | |
| DO3MHA-11 | 2026-08-31 11:40:36 | 47.03221 | 7.74412 | 64° | 188km/h | 11954m | 4.0m/s | -52.3°C | 19.1% | 0hPa | 2.8V | 00:00:00 | 01:14:31 | 00:00:00 | |
| DO3MHA-12 | 2026-08-31 11:40:32 | 47.03141 | 7.74156 | 68° | 181km/h | 11934m | 4.4m/s | -52.2°C | 17.5% | 0hPa | 2.8V | 00:00:00 | 01:14:27 | 00:00:00 | |
| HASLITAL | 2026-08-31 11:40:30 | 47.03121 | 7.74089 | 69° | 199km/h | 11929m | 4.1m/s | -52.4°C | 13.8% | 0hPa | 2.8V | 00:00:00 | 00:00:00 | 00:00:00 | |
| IW2NTF | 2026-08-31 11:40:29 | 47.03066 | 7.73893 | 66° | 179km/h | 11914m | 4.6m/s | -51.9°C | 18.2% | 0hPa | 2.8V | 08:30:00 | 01:14:23 | 00:00:00 | i |
| DK5PH-5 | 2026-08-31 11:40:29 | 47.03084 | 7.73956 | 68° | 177km/h | 11919m | 5.1m/s | 0°C | 0% | 0hPa | 2.6V | 00:00:00 | 01:14:24 | 00:00:00 | i |
| DO3MHA-11 | 2026-08-31 11:40:26 | 47.03030 | 7.73776 | 65° | 183km/h | 11905m | 4.8m/s | -51.7°C | 18.5% | 0hPa | 2.6V | 00:00:00 | 01:14:21 | 00:00:00 | |
| DO3MHA-12 | 2026-08-31 11:40:21 | 47.02926 | 7.73489 | 61° | 183km/h | 11884m | 5.8m/s | -51.6°C | 19.4% | 0hPa | 2.6V | 00:00:00 | 01:14:16 | 00:00:00 | |
| IW2NTF | 2026-08-31 11:40:19 | 47.02858 | 7.73299 | 65° | 195km/h | 11868m | 5.8m/s | -51.7°C | 18.8% | 0hPa | 2.7V | 08:30:00 | 01:14:13 | 00:00:00 | i |
| DO3MHA-11 | 2026-08-31 11:40:16 | 47.02821 | 7.73167 | 70° | 179km/h | 11857m | 5.6m/s | -51.7°C | 18.9% | 0hPa | 2.6V | 00:00:00 | 01:14:11 | 00:00:00 | |
| HASLITAL | 2026-08-31 11:40:11 | 47.02746 | 7.72848 | 71° | 175km/h | 11824m | 6.6m/s | -51.6°C | 15.2% | 0hPa | 2.6V | 00:00:00 | 00:00:00 | 00:00:00 | |
| IW2NTF | 2026-08-31 11:40:10 | 47.02695 | 7.72671 | 64° | 175km/h | 11801m | 8.3m/s | -51.5°C | 19.9% | 0hPa | 2.6V | 08:30:00 | 01:14:03 | 00:00:00 | i |
| DO3MHA-12 | 2026-08-31 11:40:09 | 47.02695 | 7.72671 | 65° | 181km/h | 11801m | 8.3m/s | -51.5°C | 19.9% | 0hPa | 2.6V | 00:00:00 | 01:14:03 | 00:00:00 | |
| DO3MHA-11 | 2026-08-31 11:40:06 | 47.02653 | 7.72554 | 61° | 183km/h | 11785m | 7.6m/s | -51.4°C | 19.9% | 0hPa | 2.6V | 00:00:00 | 01:14:01 | 00:00:00 | |
| IW2NTF | 2026-08-31 11:39:59 | 47.02486 | 7.72072 | 65° | 181km/h | 11734m | 5.3m/s | -51.4°C | 19.4% | 0hPa | 2.6V | 08:30:00 | 01:13:53 | 00:00:00 | i |
| DK5PH-5 | 2026-08-31 11:39:59 | 47.02505 | 7.72133 | 66° | 179km/h | 11739m | 5.2m/s | 0°C | 0% | 0hPa | 2.7V | 00:00:00 | 01:13:54 | 00:00:00 | i |
| DO3MHA-12 | 2026-08-31 11:39:58 | 47.02486 | 7.72072 | 66° | 181km/h | 11734m | 5.2m/s | -51.3°C | 19.4% | 0hPa | 2.7V | 00:00:00 | 01:13:53 | 00:00:00 | |
| DO3MHA-11 | 2026-08-31 11:39:56 | 47.02447 | 7.71950 | 65° | 184km/h | 11725m | 3.9m/s | -51.3°C | 19.0% | 0hPa | 2.7V | 00:00:00 | 01:13:51 | 08:30:00 | |
| IW2NTF | 2026-08-31 11:39:50 | 47.02280 | 7.71467 | 62° | 190km/h | 11684m | 4.1m/s | -51°C | 19.6% | 0hPa | 2.8V | 08:30:00 | 01:13:43 | 00:00:00 | i |
| HASLITAL | 2026-08-31 11:39:50 | 47.02323 | 7.71590 | 64° | 183km/h | 11694m | 5.7m/s | -51.1°C | 15.5% | 0hPa | 2.7V | 00:00:00 | 00:00:00 | 00:00:00 | i |
| DO3MHA-12 | 2026-08-31 11:39:48 | 47.02280 | 7.71467 | 63° | 184km/h | 11684m | 4.1m/s | -50.9°C | 19.6% | 0hPa | 2.7V | 00:00:00 | 01:13:43 | 00:00:00 | |
| DO3MHA-11 | 2026-08-31 11:39:46 | 47.02236 | 7.71342 | 63° | 183km/h | 11677m | 3.4m/s | -50.9°C | 19.0% | 0hPa | 2.8V | 00:00:00 | 01:13:41 | 00:00:00 | |
| IW2NTF | 2026-08-31 11:39:39 | 47.02077 | 7.70862 | 62° | 184km/h | 11643m | 4.8m/s | -50.9°C | 20.2% | 0hPa | 2.8V | 08:30:00 | 01:13:33 | 00:00:00 | i |
| DO3MHA-11 | 2026-08-31 11:39:36 | 47.02031 | 7.70741 | 60° | 186km/h | 11633m | 5.0m/s | -50.7°C | 19.8% | 0hPa | 2.8V | 00:00:00 | 01:13:31 | 00:00:00 | |
| IW2NTF | 2026-08-31 11:39:29 | 47.01852 | 7.70253 | 64° | 181km/h | 11592m | 5.3m/s | -50.5°C | 19% | 0hPa | 2.8V | 08:30:00 | 01:13:23 | 00:00:00 | i |
| HASLITAL | 2026-08-31 11:39:29 | 47.01871 | 7.70314 | 66° | 181km/h | 11598m | 5.2m/s | -50.6°C | 15.2% | 0hPa | 2.6V | 00:00:00 | 00:00:00 | 00:00:00 | i |
| DK5PH-5 | 2026-08-31 11:39:28 | 47.01852 | 7.70253 | 65° | 183km/h | 11592m | 5.3m/s | 0°C | 0% | 0hPa | 2.6V | 00:00:00 | 01:13:23 | 00:00:00 | |
| DO3MHA-11 | 2026-08-31 11:39:26 | 47.01812 | 7.70135 | 64° | 186km/h | 11582m | 6.0m/s | -50.3°C | 19.4% | 0hPa | 2.6V | 00:00:00 | 01:13:21 | 00:00:00 | |
| IW2NTF | 2026-08-31 11:39:19 | 47.01638 | 7.69649 | 64° | 193km/h | 11536m | 6.3m/s | -50.3°C | 18.6% | 0hPa | 2.8V | 08:30:00 | 01:13:13 | 00:00:00 | i |
| DO3MHA-11 | 2026-08-31 11:39:16 | 47.01597 | 7.69521 | 65° | 179km/h | 11524m | 5.4m/s | -50.2°C | 19.5% | 0hPa | 2.6V | 00:00:00 | 01:13:11 | 00:00:00 | |
| DO3MHA-12 | 2026-08-31 11:39:13 | 47.01533 | 7.69340 | 61° | 175km/h | 11507m | 6.1m/s | -50.1°C | 20.7% | 0hPa | 2.6V | 00:00:00 | 01:13:08 | 00:00:00 | |
| IW2NTF | 2026-08-31 11:39:09 | 47.01417 | 7.69063 | 59° | 172km/h | 11479m | 6.3m/s | -50.1°C | 21.2% | 0hPa | 2.6V | 08:30:00 | 01:13:03 | 00:00:00 | i |
| HASLITAL | 2026-08-31 11:39:07 | 47.01417 | 7.69062 | 60° | 172km/h | 11479m | 6.3m/s | -50.1°C | 17.4% | 0hPa | 2.6V | 00:00:00 | 00:00:00 | 00:00:00 | |
| DO3MHA-11 | 2026-08-31 11:39:06 | 47.01373 | 7.68950 | 63° | 186km/h | 11467m | 6.0m/s | -50.1°C | 22.4% | 0hPa | 2.6V | 00:00:00 | 01:13:01 | 00:00:00 | |
| DO3MHA-12 | 2026-08-31 11:39:03 | 47.01314 | 7.68762 | 68° | 184km/h | 11451m | 4.4m/s | -50.2°C | 22.6% | 0hPa | 2.6V | 00:00:00 | 01:12:58 | 00:00:00 | |
| IW2NTF | 2026-08-31 11:38:59 | 47.01216 | 7.68440 | 62° | 181km/h | 11425m | 5.3m/s | -50.2°C | 21.8% | 0hPa | 2.6V | 08:30:00 | 01:12:53 | 00:00:00 | i |
| DO3MHA-11 | 2026-08-31 11:38:56 | 47.01172 | 7.68325 | 60° | 188km/h | 11413m | 6.3m/s | -50.0°C | 22.2% | 0hPa | 2.7V | 00:00:00 | 01:12:51 | 00:00:00 | |
| IW2NTF | 2026-08-31 11:38:49 | 47.00994 | 7.67835 | 65° | 199km/h | 11369m | 6.5m/s | -49.9°C | 23% | 0hPa | 2.8V | 08:30:00 | 01:12:43 | 00:00:00 | i |
| DO3MHA-11 | 2026-08-31 11:38:46 | 47.00954 | 7.67703 | 66° | 181km/h | 11357m | 5.3m/s | -49.9°C | 23.3% | 0hPa | 2.8V | 00:00:00 | 01:12:41 | 00:00:00 | |
| DO3MHA-12 | 2026-08-31 11:38:43 | 47.00898 | 7.67519 | 66° | 183km/h | 11341m | 6.0m/s | -49.7°C | 23.7% | 0hPa | 2.8V | 00:00:00 | 01:12:38 | 00:00:00 | |
| IW2NTF | 2026-08-31 11:38:40 | 47.00796 | 7.67226 | 60° | 183km/h | 11314m | 5.4m/s | -49.7°C | 22.5% | 0hPa | 2.8V | 08:30:00 | 01:12:33 | 00:00:00 | i |
| DO3MHA-11 | 2026-08-31 11:38:36 | 47.00751 | 7.67106 | 62° | 186km/h | 11303m | 6.1m/s | -49.5°C | 22.2% | 0hPa | 2.8V | 00:00:00 | 01:12:31 | 00:00:00 | |
| DO3MHA-12 | 2026-08-31 11:38:34 | 47.00686 | 7.66920 | 64° | 184km/h | 11282m | 7.5m/s | -49.3°C | 21.8% | 0hPa | 2.8V | 00:00:00 | 01:12:28 | 00:00:00 | |
| IW2NTF | 2026-08-31 11:38:29 | 47.00578 | 7.66618 | 61° | 184km/h | 11248m | 5.5m/s | -48.9°C | 20.3% | 0hPa | 2.8V | 08:30:00 | 01:12:23 | 00:00:00 | i |
| DO3MHA-11 | 2026-08-31 11:38:26 | 47.00532 | 7.66498 | 62° | 183km/h | 11239m | 4.4m/s | -48.9°C | 19.5% | 0hPa | 2.7V | 00:00:00 | 01:12:21 | 08:30:00 | |
| DO3MHA-12 | 2026-08-31 11:38:23 | 47.00469 | 7.66320 | 65° | 184km/h | 11223m | 6.1m/s | -48.9°C | 18.8% | 0hPa | 2.7V | 00:00:00 | 01:12:18 | 00:00:00 | |
| IW2NTF | 2026-08-31 11:38:19 | 47.00370 | 7.66013 | 62° | 188km/h | 11199m | 3.4m/s | -48.8°C | 20% | 0hPa | 2.8V | 08:30:00 | 01:12:13 | 00:00:00 | i |
| DO3MHA-11 | 2026-08-31 11:38:16 | 47.00325 | 7.65891 | 61° | 184km/h | 11193m | 4.0m/s | -48.7°C | 20.2% | 0hPa | 2.6V | 00:00:00 | 01:12:11 | 00:00:00 | |
| DO3MHA-12 | 2026-08-31 11:38:13 | 47.00257 | 7.65713 | 62° | 183km/h | 11179m | 4.2m/s | -48.5°C | 20.3% | 0hPa | 2.6V | 00:00:00 | 01:12:08 | 00:00:00 | |
| IW2NTF | 2026-08-31 11:38:09 | 47.00152 | 7.65413 | 63° | 188km/h | 11157m | 5m/s | -48.6°C | 21.1% | 0hPa | 2.6V | 08:30:00 | 01:12:03 | 00:00:00 | |
| DO3MHA-11 | 2026-08-31 11:38:06 | 47.00109 | 7.65288 | 63° | 177km/h | 11149m | 3.5m/s | -48.6°C | 20.1% | 0hPa | 2.8V | 00:00:00 | 01:12:01 | 00:00:00 | |
| HASLITAL | 2026-08-31 11:38:05 | 47.00109 | 7.65288 | 63° | 188km/h | 11149m | 3.6m/s | -48.6°C | 16.7% | 0hPa | 2.8V | 00:00:00 | 00:00:00 | 00:00:00 | |
| DO3MHA-12 | 2026-08-31 11:38:03 | 47.00044 | 7.65110 | 62° | 179km/h | 11135m | 5.1m/s | -48.7°C | 19.6% | 0hPa | 2.8V | 00:00:00 | 01:11:58 | 00:00:00 | |
| IW2NTF | 2026-08-31 11:37:59 | 46.99943 | 7.64831 | 63° | 181km/h | 11112m | 4.9m/s | -48.5°C | 19.7% | 0hPa | 2.8V | 08:30:00 | 01:11:53 | 00:00:00 | i |
| DO3MHA-11 | 2026-08-31 11:37:56 | 46.99901 | 7.64706 | 66° | 190km/h | 11102m | 4.9m/s | -48.5°C | 20.6% | 0hPa | 2.6V | 00:00:00 | 01:11:51 | 00:00:00 | |
| IW2NTF | 2026-08-31 11:37:49 | 46.99714 | 7.64137 | 59° | 170km/h | 11059m | 5.8m/s | -48.1°C | 20.5% | 0hPa | 2.8V | 08:30:00 | 01:11:42 | 00:00:00 | i |
| DO3MHA-11 | 2026-08-31 11:37:46 | 46.99693 | 7.64083 | 61° | 179km/h | 11053m | 5.6m/s | -48.1°C | 20.4% | 0hPa | 2.8V | 00:00:00 | 01:11:41 | 00:00:00 | |
| HASLITAL | 2026-08-31 11:37:45 | 46.99693 | 7.64083 | 62° | 168km/h | 11053m | 5.6m/s | -48.1°C | 16.9% | 0hPa | 2.8V | 00:00:00 | 00:00:00 | 00:00:00 | |
| IW2NTF | 2026-08-31 11:37:38 | 46.99537 | 7.63534 | 67° | 192km/h | 10992m | 5.8m/s | -47.8°C | 19.1% | 0hPa | 2.8V | 08:30:00 | 01:11:32 | 00:00:00 | i |
| DO3MHA-11 | 2026-08-31 11:37:36 | 46.99519 | 7.63469 | 68° | 183km/h | 10987m | 5.8m/s | -47.8°C | 18.8% | 0hPa | 2.6V | 00:00:00 | 01:11:31 | 00:00:00 | |
| IW2NTF | 2026-08-31 11:37:27 | 46.99344 | 7.62918 | 62° | 192km/h | 10930m | 5.2m/s | -47.4°C | 17.5% | 0hPa | 2.6V | 08:30:00 | 01:11:22 | 00:00:00 | i |
| DO3MHA-11 | 2026-08-31 11:37:26 | 46.99322 | 7.62855 | 64° | 175km/h | 10925m | 5.0m/s | -47.4°C | 17.2% | 0hPa | 2.7V | 00:00:00 | 01:11:21 | 00:00:00 | |
| HASLITAL | 2026-08-31 11:37:24 | 46.99301 | 7.62792 | 66° | 186km/h | 10919m | 5.6m/s | -47.4°C | 14.1% | 0hPa | 2.8V | 00:00:00 | 00:00:00 | 00:00:00 | |
| IW2NTF | 2026-08-31 11:37:17 | 46.99172 | 7.62320 | 70° | 177km/h | 10859m | 6.9m/s | -47.5°C | 18.1% | 0hPa | 2.8V | 08:30:00 | 01:11:12 | 00:00:00 | i |
| DO3MHA-11 | 2026-08-31 11:37:16 | 46.99156 | 7.62258 | 69° | 184km/h | 10852m | 6.8m/s | -47.3°C | 18.4% | 0hPa | 2.8V | 00:00:00 | 01:11:11 | 00:00:00 | |
| IW2NTF | 2026-08-31 11:37:07 | 46.98985 | 7.61697 | 67° | 181km/h | 10791m | 7.2m/s | -47°C | 19% | 0hPa | 2.8V | 08:30:00 | 01:11:02 | 00:00:00 | i |
| DO3MHA-11 | 2026-08-31 11:37:06 | 46.98968 | 7.61636 | 68° | 177km/h | 10784m | 6.7m/s | -46.8°C | 19.3% | 0hPa | 2.6V | 00:00:00 | 01:11:01 | 00:00:00 | |
| HASLITAL | 2026-08-31 11:37:00 | 46.98883 | 7.61347 | 67° | 173km/h | 10756m | 6.0m/s | -46.9°C | 17.4% | 0hPa | 2.6V | 00:00:00 | 00:00:00 | 00:00:00 | |
| IW2NTF | 2026-08-31 11:36:57 | 46.98811 | 7.61095 | 67° | 193km/h | 10736m | 4.8m/s | -46.6°C | 21.9% | 0hPa | 2.6V | 08:30:00 | 01:10:52 | 00:00:00 | |
| DO3MHA-11 | 2026-08-31 11:36:56 | 46.98793 | 7.61029 | 69° | 175km/h | 10732m | 3.9m/s | -46.6°C | 22.1% | 0hPa | 2.7V | 00:00:00 | 01:10:51 | 08:30:00 | |
| DO3MHA-12 | 2026-08-31 11:36:51 | 46.98712 | 7.60717 | 71° | 168km/h | 10704m | 6.5m/s | -46.7°C | 22.3% | 0hPa | 2.6V | 00:00:00 | 01:10:46 | 00:00:00 | |
| IW2NTF | 2026-08-31 11:36:49 | 46.98657 | 7.60484 | 70° | 168km/h | 10679m | 6.1m/s | -46.7°C | 24.9% | 0hPa | 2.8V | 08:30:00 | 01:10:42 | 00:00:00 | |
| DO3MHA-11 | 2026-08-31 11:36:46 | 46.98643 | 7.60425 | 71° | 172km/h | 10673m | 5.7m/s | -46.7°C | 26.2% | 0hPa | 2.8V | 00:00:00 | 01:10:41 | 00:00:00 | |
| DO3MHA-12 | 2026-08-31 11:36:41 | 46.98559 | 7.60140 | 65° | 173km/h | 10644m | 5.8m/s | -46.8°C | 26.3% | 0hPa | 2.8V | 00:00:00 | 01:10:36 | 00:00:00 | |
| IW2NTF | 2026-08-31 11:36:39 | 46.98490 | 7.59903 | 69° | 179km/h | 10622m | 4.8m/s | -46.6°C | 25.9% | 0hPa | 2.8V | 08:30:00 | 01:10:32 | 00:00:00 | i |
| DO3MHA-11 | 2026-08-31 11:36:36 | 46.98474 | 7.59842 | 71° | 175km/h | 10618m | 4.6m/s | -46.5°C | 25.1% | 0hPa | 2.6V | 00:00:00 | 01:10:31 | 00:00:00 | |
| DB0UT-7 | 2026-08-31 11:36:33 | 46.98428 | 7.59660 | 69° | 173km/h | 10600m | 6.0m/s | -46.5°C | 23.7% | 0hPa | 2.6V | 00:00:00 | 01:10:28 | 00:00:00 | |
| IW2NTF | 2026-08-31 11:36:32 | 46.98328 | 7.59299 | 70° | 181km/h | 10562m | 7.1m/s | -46.5°C | 19.6% | 0hPa | 2.6V | 08:30:00 | 01:10:22 | 00:00:00 | i |
| DO3MHA-12 | 2026-08-31 11:36:31 | 46.98395 | 7.59543 | 67° | 175km/h | 10589m | 5.5m/s | -46.3°C | 22.6% | 0hPa | 2.7V | 00:00:00 | 01:10:26 | 00:00:00 | |
| DO3MHA-11 | 2026-08-31 11:36:26 | 46.98314 | 7.59236 | 73° | 175km/h | 10555m | 6.8m/s | -46.3°C | 19.3% | 0hPa | 2.7V | 00:00:00 | 01:10:21 | 00:00:00 | |
| IW2NTF | 2026-08-31 11:36:21 | 46.98189 | 7.58685 | 70° | 170km/h | 10500m | 5.1m/s | -46°C | 19.4% | 0hPa | 2.8V | 08:30:00 | 01:10:12 | 00:00:00 | i |
| DO3MHA-12 | 2026-08-31 11:36:21 | 46.98249 | 7.58926 | 72° | 172km/h | 10524m | 7.6m/s | -46.2°C | 18.9% | 0hPa | 2.6V | 00:00:00 | 01:10:16 | 08:30:00 | i |
| DO3MHA-11 | 2026-08-31 11:36:16 | 46.98175 | 7.58626 | 72° | 172km/h | 10495m | 4.6m/s | -46.0°C | 19.7% | 0hPa | 2.8V | 00:00:00 | 01:10:11 | 00:00:00 | |
| HASLITAL | 2026-08-31 11:36:15 | 46.98175 | 7.58626 | 72° | 168km/h | 10495m | 4.6m/s | -46.1°C | 16.6% | 0hPa | 2.8V | 00:00:00 | 00:00:00 | 00:00:00 | |
| IW2NTF | 2026-08-31 11:36:11 | 46.98055 | 7.58084 | 70° | 172km/h | 10461m | 4.3m/s | -45.9°C | 17.5% | 0hPa | 2.8V | 08:30:00 | 01:10:02 | 00:00:00 | i |
| DO3MHA-12 | 2026-08-31 11:36:11 | 46.98112 | 7.58327 | 73° | 172km/h | 10476m | 4.4m/s | -45.8°C | 19.2% | 0hPa | 2.6V | 00:00:00 | 01:10:06 | 00:00:00 | i |
| DO3MHA-11 | 2026-08-31 11:36:06 | 46.98041 | 7.58025 | 72° | 172km/h | 10457m | 4.6m/s | -45.8°C | 17.1% | 0hPa | 2.6V | 00:00:00 | 01:10:01 | 00:00:00 | |
| DB0UT-7 | 2026-08-31 11:36:03 | 46.98005 | 7.57845 | 75° | 170km/h | 10444m | 3.7m/s | -45.8°C | 16.9% | 0hPa | 2.6V | 00:00:00 | 00:00:00 | 00:00:00 | |
| IW2NTF | 2026-08-31 11:36:01 | 46.97919 | 7.57483 | 66° | 173km/h | 10416m | 4.1m/s | -45.7°C | 16.4% | 0hPa | 2.6V | 08:30:00 | 01:09:52 | 00:00:00 | i |
| DO3MHA-12 | 2026-08-31 11:36:01 | 46.97981 | 7.57724 | 73° | 170km/h | 10435m | 5.1m/s | -45.9°C | 16.9% | 0hPa | 2.7V | 00:00:00 | 01:09:56 | 00:00:00 | i |
| DO3MHA-11 | 2026-08-31 11:35:56 | 46.97901 | 7.57424 | 67° | 166km/h | 10413m | 3.4m/s | -45.8°C | 16.6% | 0hPa | 2.7V | 00:00:00 | 01:09:51 | 00:00:00 | |
| IW2NTF | 2026-08-31 11:35:51 | 46.97783 | 7.56898 | 73° | 170km/h | 10375m | 3.8m/s | -45.5°C | 17% | 0hPa | 2.8V | 08:30:00 | 01:09:42 | 00:00:00 | i |
| DO3MHA-12 | 2026-08-31 11:35:51 | 46.97828 | 7.57137 | 74° | 170km/h | 10391m | 5.0m/s | -45.6°C | 16.7% | 0hPa | 2.6V | 00:00:00 | 01:09:46 | 00:00:00 | i |
| HASLITAL | 2026-08-31 11:35:48 | 46.97805 | 7.57019 | 76° | 168km/h | 10382m | 3.8m/s | -45.5°C | 14.0% | 0hPa | 2.8V | 00:00:00 | 00:00:00 | 00:00:00 | |
| IW2NTF | 2026-08-31 11:35:41 | 46.97642 | 7.56307 | 68° | 161km/h | 10320m | 5.9m/s | -45°C | 16.5% | 0hPa | 2.8V | 08:30:00 | 01:09:32 | 00:00:00 | i |
| DO3MHA-12 | 2026-08-31 11:35:41 | 46.97699 | 7.56536 | 71° | 166km/h | 10343m | 6.3m/s | -45.2°C | 16.4% | 0hPa | 2.7V | 00:00:00 | 01:09:36 | 00:00:00 | i |
| DO3MHA-11 | 2026-08-31 11:35:36 | 46.97626 | 7.56251 | 67° | 168km/h | 10314m | 5.5m/s | -45.0°C | 16.4% | 0hPa | 2.7V | 00:00:00 | 01:09:31 | 00:00:00 | |
| DB0UT-7 | 2026-08-31 11:35:33 | 46.97577 | 7.56080 | 69° | 164km/h | 10299m | 3.8m/s | -45.1°C | 15.4% | 0hPa | 2.7V | 00:00:00 | 01:09:28 | 00:00:00 | |
| DO3MHA-12 | 2026-08-31 11:35:31 | 46.97547 | 7.55961 | 73° | 168km/h | 10290m | 4.5m/s | -45.1°C | 14.7% | 0hPa | 2.8V | 00:00:00 | 01:09:26 | 00:00:00 | |
| IW2NTF | 2026-08-31 11:35:28 | 46.97499 | 7.55724 | 73° | 162km/h | 10270m | 3.8m/s | -44.9°C | 14.7% | 0hPa | 2.8V | 08:30:00 | 01:09:22 | 00:00:00 | i |
| DO3MHA-11 | 2026-08-31 11:35:26 | 46.97487 | 7.55666 | 73° | 166km/h | 10266m | 4.6m/s | -44.8°C | 14.7% | 0hPa | 2.6V | 00:00:00 | 01:09:21 | 08:30:00 | |
| IW2NTF | 2026-08-31 11:35:22 | 46.97342 | 7.55154 | 69° | 157km/h | 10229m | 4.8m/s | -44.7°C | 14.3% | 0hPa | 2.8V | 08:30:00 | 01:09:12 | 00:00:00 | i |
| DO3MHA-12 | 2026-08-31 11:35:21 | 46.97408 | 7.55377 | 66° | 159km/h | 10242m | 3.5m/s | -44.7°C | 15.1% | 0hPa | 2.7V | 00:00:00 | 01:09:16 | 00:00:00 | |
| DO3MHA-11 | 2026-08-31 11:35:16 | 46.97328 | 7.55100 | 71° | 159km/h | 10225m | 4.7m/s | -44.6°C | 14.3% | 0hPa | 2.8V | 00:00:00 | 01:09:11 | 00:00:00 | |
| DO3MHA-12 | 2026-08-31 11:35:11 | 46.97271 | 7.54828 | 73° | 161km/h | 10203m | 4.8m/s | -44.6°C | 14.7% | 0hPa | 2.8V | 00:00:00 | 01:09:06 | 00:00:00 | |
| IW2NTF | 2026-08-31 11:35:08 | 46.97217 | 7.54594 | 70° | 164km/h | 10180m | 5.7m/s | -44.5°C | 14.7% | 0hPa | 2.8V | 08:30:00 | 01:09:02 | 00:00:00 | i |
| DO3MHA-11 | 2026-08-31 11:35:06 | 46.97203 | 7.54537 | 70° | 159km/h | 10174m | 6.2m/s | -44.4°C | 14.5% | 0hPa | 2.8V | 00:00:00 | 01:09:01 | 00:00:00 | |
| IW2NTF | 2026-08-31 11:35:02 | 46.97077 | 7.54045 | 73° | 164km/h | 10126m | 5.3m/s | -44.2°C | 13.5% | 0hPa | 2.8V | 08:30:00 | 01:08:52 | 00:00:00 | i |
| DO3MHA-12 | 2026-08-31 11:35:01 | 46.97131 | 7.54271 | 69° | 161km/h | 10146m | 5.1m/s | -44.3°C | 14.4% | 0hPa | 2.7V | 00:00:00 | 01:08:56 | 00:00:00 | |
| DO3MHA-11 | 2026-08-31 11:34:56 | 46.97066 | 7.53987 | 75° | 161km/h | 10121m | 5.2m/s | -44.1°C | 13.4% | 0hPa | 2.7V | 00:00:00 | 01:08:51 | 00:00:00 | |
| DO3MHA-12 | 2026-08-31 11:34:51 | 46.97006 | 7.53703 | 70° | 164km/h | 10095m | 5.3m/s | -43.7°C | 12.7% | 0hPa | 2.7V | 00:00:00 | 01:08:46 | 08:30:00 | |
| IW2NTF | 2026-08-31 11:34:48 | 46.96945 | 7.53482 | 68° | 162km/h | 10073m | 5.1m/s | -43.7°C | 12.6% | 0hPa | 2.6V | 08:30:00 | 01:08:42 | 00:00:00 | i |
| DO3MHA-11 | 2026-08-31 11:34:46 | 46.96930 | 7.53425 | 69° | 164km/h | 10068m | 4.6m/s | -43.6°C | 12.5% | 0hPa | 2.8V | 00:00:00 | 01:08:41 | 00:00:00 | |
| IW2NTF | 2026-08-31 11:34:42 | 46.96797 | 7.52912 | 69° | 155km/h | 10026m | 5m/s | -43.6°C | 12.8% | 0hPa | 2.8V | 08:30:00 | 01:08:32 | 00:00:00 | i |
| DO3MHA-12 | 2026-08-31 11:34:41 | 46.96855 | 7.53134 | 70° | 157km/h | 10045m | 3.1m/s | -43.5°C | 13.2% | 0hPa | 2.6V | 00:00:00 | 01:08:36 | 00:00:00 | |
| DH7VM-15 | 2026-08-31 11:34:40 | 46.96855 | 7.53134 | 71° | 166km/h | 10045m | 3.1m/s | 0°C | 0% | 0hPa | 2.6V | 00:00:00 | 00:00:00 | 00:00:00 | |
| DO3MHA-11 | 2026-08-31 11:34:36 | 46.96784 | 7.52858 | 71° | 161km/h | 10022m | 4.2m/s | -43.4°C | 12.9% | 0hPa | 2.6V | 00:00:00 | 01:08:31 | 00:00:00 | |
| HASLITAL | 2026-08-31 11:34:35 | 46.96784 | 7.52858 | 72° | 153km/h | 10022m | 4.2m/s | -43.5°C | 10.6% | 0hPa | 2.6V | 00:00:00 | 00:00:00 | 00:00:00 | |
| DB0UT-7 | 2026-08-31 11:34:33 | 46.96752 | 7.52696 | 78° | 164km/h | 10007m | 4.5m/s | -43.3°C | 13.5% | 0hPa | 2.6V | 00:00:00 | 01:08:28 | 00:00:00 | |
| DO3MHA-12 | 2026-08-31 11:34:31 | 46.96736 | 7.52583 | 79° | 168km/h | 10000m | 3.0m/s | -43.3°C | 14.0% | 0hPa | 2.6V | 00:00:00 | 01:08:26 | 00:00:00 | |
| IW2NTF | 2026-08-31 11:34:28 | 46.96690 | 7.52342 | 70° | 173km/h | 9982m | 6.1m/s | -43.1°C | 14.8% | 0hPa | 2.6V | 08:30:00 | 01:08:22 | 00:00:00 | i |
| DO3MHA-11 | 2026-08-31 11:34:26 | 46.96675 | 7.52282 | 69° | 164km/h | 9976m | 5.7m/s | -43.0°C | 15.1% | 0hPa | 2.6V | 00:00:00 | 01:08:21 | 00:00:00 | |
| IW2NTF | 2026-08-31 11:34:22 | 46.96544 | 7.51773 | 72° | 162km/h | 9915m | 6.8m/s | -42.8°C | 15% | 0hPa | 2.8V | 08:30:00 | 01:08:12 | 00:00:00 | |
| DO3MHA-12 | 2026-08-31 11:34:21 | 46.96596 | 7.51999 | 70° | 161km/h | 9944m | 6.9m/s | -42.9°C | 15.1% | 0hPa | 2.7V | 00:00:00 | 01:08:16 | 00:00:00 | |
| DO3MHA-11 | 2026-08-31 11:34:16 | 46.96532 | 7.51716 | 73° | 161km/h | 9908m | 5.9m/s | -42.7°C | 14.8% | 0hPa | 2.8V | 00:00:00 | 01:08:11 | 00:00:00 | |
| HASLITAL | 2026-08-31 11:34:15 | 46.96532 | 7.51716 | 74° | 161km/h | 9908m | 6.0m/s | -42.7°C | 12.4% | 0hPa | 2.8V | 00:00:00 | 00:00:00 | 00:00:00 | |
| DO3MHA-12 | 2026-08-31 11:34:11 | 46.96472 | 7.51433 | 73° | 164km/h | 9884m | 4.1m/s | -42.5°C | 14.4% | 0hPa | 2.8V | 00:00:00 | 01:08:06 | 00:00:00 | |
| IW2NTF | 2026-08-31 11:34:08 | 46.96417 | 7.51211 | 67° | 166km/h | 9866m | 4.6m/s | -42.4°C | 14.5% | 0hPa | 2.8V | 08:30:00 | 01:08:02 | 00:00:00 | i |
| DO3MHA-11 | 2026-08-31 11:34:06 | 46.96401 | 7.51153 | 67° | 164km/h | 9862m | 3.8m/s | -42.2°C | 14.3% | 0hPa | 2.7V | 00:00:00 | 01:08:01 | 00:00:00 | |
| DB0UT-7 | 2026-08-31 11:34:03 | 46.96354 | 7.50977 | 72° | 157km/h | 9849m | 4.0m/s | -42.3°C | 13.4% | 0hPa | 2.7V | 00:00:00 | 00:00:00 | 00:00:00 | |
| IW2NTF | 2026-08-31 11:34:02 | 46.96286 | 7.50636 | 72° | 155km/h | 9824m | 4.2m/s | -42.2°C | 13.5% | 0hPa | 2.8V | 08:30:00 | 01:07:52 | 00:00:00 | i |
| DO3MHA-12 | 2026-08-31 11:34:01 | 46.96329 | 7.50859 | 75° | 161km/h | 9841m | 4.2m/s | 0°C | 0% | 0hPa | 2.7V | 00:00:00 | 01:07:56 | 00:00:00 | |
| DO3MHA-11 | 2026-08-31 11:33:56 | 46.96273 | 7.50581 | 70° | 162km/h | 9820m | 4.0m/s | -42.0°C | 13.5% | 0hPa | 2.7V | 00:00:00 | 01:07:51 | 08:30:00 | |
| HASLITAL | 2026-08-31 11:33:54 | 46.96259 | 7.50527 | 69° | 161km/h | 9815m | 5.1m/s | -42.0°C | 11.2% | 0hPa | 2.8V | 00:00:00 | 00:00:00 | 00:00:00 | |
| DO3MHA-12 | 2026-08-31 11:33:51 | 46.96188 | 7.50301 | 64° | 151km/h | 9799m | 4.1m/s | 0°C | 0% | 0hPa | 2.8V | 00:00:00 | 01:07:46 | 00:00:00 | |
| IW2NTF | 2026-08-31 11:33:49 | 46.96123 | 7.50085 | 70° | 150km/h | 9779m | 6.4m/s | -41.8°C | 12.7% | 0hPa | 2.8V | 08:30:00 | 01:07:42 | 00:00:00 | i |
| DO3MHA-11 | 2026-08-31 11:33:46 | 46.96111 | 7.50033 | 73° | 148km/h | 9773m | 6.5m/s | -41.7°C | 12.6% | 0hPa | 2.6V | 00:00:00 | 01:07:41 | 00:00:00 | |
| DO3MHA-12 | 2026-08-31 11:33:41 | 46.96065 | 7.49775 | 75° | 155km/h | 9751m | 4.3m/s | 0°C | 0% | 0hPa | 2.6V | 00:00:00 | 01:07:36 | 00:00:00 | |
| IW2NTF | 2026-08-31 11:33:38 | 46.96012 | 7.49567 | 66° | 159km/h | 9727m | 6.9m/s | -41.5°C | 13.4% | 0hPa | 2.6V | 08:30:00 | 01:07:32 | 00:00:00 | i |
| DO3MHA-11 | 2026-08-31 11:33:36 | 46.95995 | 7.49513 | 65° | 151km/h | 9721m | 6.7m/s | 0°C | 0% | 0hPa | 2.8V | 00:00:00 | 01:07:31 | 00:00:00 | |
| HASLITAL | 2026-08-31 11:33:34 | 46.95977 | 7.49459 | 64° | 162km/h | 9714m | 5.7m/s | -41.3°C | 11.1% | 0hPa | 2.8V | 00:00:00 | 00:00:00 | 00:00:00 | |
| DB0UT-7 | 2026-08-31 11:33:33 | 46.95939 | 7.49355 | 62° | 151km/h | 9705m | 4.1m/s | -41.3°C | 13.4% | 0hPa | 2.8V | 00:00:00 | 01:07:28 | 00:00:00 | |
| DO3MHA-12 | 2026-08-31 11:33:31 | 46.95903 | 7.49256 | 64° | 155km/h | 9696m | 5.0m/s | 0°C | 0% | 0hPa | 2.8V | 00:00:00 | 01:07:26 | 00:00:00 | |
| IW2NTF | 2026-08-31 11:33:28 | 46.95855 | 7.49055 | 76° | 151km/h | 9674m | 6.9m/s | -41.2°C | 12.9% | 0hPa | 2.8V | 08:30:00 | 01:07:22 | 00:00:00 | i |
| DO3MHA-11 | 2026-08-31 11:33:26 | 46.95846 | 7.48999 | 78° | 155km/h | 9667m | 7.2m/s | 0°C | 0% | 0hPa | 2.6V | 00:00:00 | 01:07:21 | 00:00:00 | |
| DO3MHA-12 | 2026-08-31 11:33:21 | 46.95786 | 7.48711 | 68° | 148km/h | 9635m | 5.9m/s | 0°C | 0% | 0hPa | 2.6V | 00:00:00 | 01:07:16 | 00:00:00 | |
| IW2NTF | 2026-08-31 11:33:19 | 46.95727 | 7.48514 | 67° | 142km/h | 9612m | 5.9m/s | -40.9°C | 14% | 0hPa | 2.6V | 08:30:00 | 01:07:12 | 00:00:00 | i |
| DO3MHA-11 | 2026-08-31 11:33:16 | 46.95714 | 7.48464 | 70° | 151km/h | 9605m | 7.0m/s | 0°C | 0% | 0hPa | 2.8V | 00:00:00 | 01:07:11 | 00:00:00 | |
| HASLITAL | 2026-08-31 11:33:13 | 46.95689 | 7.48359 | 74° | 155km/h | 9590m | 7.8m/s | -40.9°C | 11.1% | 0hPa | 2.8V | 00:00:00 | 00:00:00 | 00:00:00 | |
| IW2NTF | 2026-08-31 11:33:08 | 46.95617 | 7.47975 | 71° | 142km/h | 9546m | 4.8m/s | -40.5°C | 15.1% | 0hPa | 2.8V | 08:30:00 | 01:07:02 | 00:00:00 | i |
| DO3MHA-11 | 2026-08-31 11:33:06 | 46.95605 | 7.47926 | 70° | 142km/h | 9541m | 5.6m/s | 0°C | 0% | 0hPa | 2.8V | 00:00:00 | 01:07:01 | 00:00:00 | |
| DB0UT-7 | 2026-08-31 11:33:03 | 46.95563 | 7.47780 | 67° | 144km/h | 9527m | 3.5m/s | -40.6°C | 15.0% | 0hPa | 2.8V | 00:00:00 | 00:00:00 | 00:00:00 | |
| IW2NTF | 2026-08-31 11:32:58 | 46.95498 | 7.47479 | 80° | 139km/h | 9501m | 4.2m/s | -40.4°C | 14.3% | 0hPa | 2.8V | 08:30:00 | 01:06:52 | 00:00:00 | i |
| DO3MHA-11 | 2026-08-31 11:32:56 | 46.95492 | 7.47429 | 81° | 157km/h | 9497m | 3.9m/s | 0°C | 0% | 0hPa | 2.7V | 00:00:00 | 01:06:51 | 00:00:00 | |
| HASLITAL | 2026-08-31 11:32:53 | 46.95479 | 7.47327 | 78° | 142km/h | 9491m | 2.8m/s | -40.4°C | 12.4% | 0hPa | 2.7V | 00:00:00 | 00:00:00 | 00:00:00 | |
| IW2NTF | 2026-08-31 11:32:48 | 46.95389 | 7.46945 | 70° | 164km/h | 9450m | 5.1m/s | -40°C | 13.7% | 0hPa | 2.7V | 08:30:00 | 01:06:42 | 00:00:00 | i |
| DO3MHA-11 | 2026-08-31 11:32:46 | 46.95376 | 7.46889 | 73° | 141km/h | 9445m | 4.4m/s | 0°C | 0% | 0hPa | 2.8V | 00:00:00 | 01:06:41 | 00:00:00 | |
| IW2NTF | 2026-08-31 11:32:39 | 46.95292 | 7.46442 | 73° | 133km/h | 9388m | 6.8m/s | -39.7°C | 12.5% | 0hPa | 2.8V | 08:30:00 | 01:06:32 | 00:00:00 | |
| DO3MHA-11 | 2026-08-31 11:32:36 | 46.95281 | 7.46395 | 72° | 148km/h | 9381m | 7.1m/s | 0°C | 0% | 0hPa | 2.6V | 00:00:00 | 01:06:31 | 00:00:00 | |
| DB0UT-7 | 2026-08-31 11:32:33 | 46.95241 | 7.46246 | 67° | 144km/h | 9363m | 4.5m/s | -39.4°C | 13.1% | 0hPa | 2.6V | 00:00:00 | 01:06:28 | 08:30:00 | |
| HASLITAL | 2026-08-31 11:32:32 | 46.95241 | 7.46246 | 67° | 151km/h | 9363m | 4.6m/s | -39.5°C | 11.0% | 0hPa | 2.8V | 00:00:00 | 00:00:00 | 00:00:00 | |
| IW2NTF | 2026-08-31 11:32:28 | 46.95148 | 7.45939 | 68° | 146km/h | 9331m | 7.2m/s | -39.4°C | 10.9% | 0hPa | 2.8V | 08:30:00 | 01:06:22 | 00:00:00 | i |
| DO3MHA-11 | 2026-08-31 11:32:26 | 46.95136 | 7.45889 | 71° | 142km/h | 9324m | 7.6m/s | 0°C | 0% | 0hPa | 2.7V | 00:00:00 | 01:06:21 | 00:00:00 | |
| IW2NTF | 2026-08-31 11:32:18 | 46.95049 | 7.45436 | 73° | 137km/h | 9261m | 5.6m/s | -38.8°C | 9.3% | 0hPa | 2.7V | 08:30:00 | 01:06:12 | 00:00:00 | i |
| HASLITAL | 2026-08-31 11:32:13 | 46.95008 | 7.45241 | 74° | 142km/h | 9240m | 4.2m/s | -38.8°C | 7.5% | 0hPa | 2.8V | 00:00:00 | 00:00:00 | 00:00:00 | |
| IW2NTF | 2026-08-31 11:32:08 | 46.94942 | 7.44939 | 73° | 142km/h | 9215m | 4.7m/s | -38.5°C | 8.6% | 0hPa | 2.8V | 08:30:00 | 01:06:02 | 00:00:00 | i |
| DB0UT-7 | 2026-08-31 11:32:03 | 46.94902 | 7.44732 | 75° | 137km/h | 9196m | 3.8m/s | -38.3°C | 8.4% | 0hPa | 2.7V | 00:00:00 | 00:00:00 | 00:00:00 | |
| IW2NTF | 2026-08-31 11:31:58 | 46.94842 | 7.44446 | 72° | 130km/h | 9171m | 4.2m/s | -38.2°C | 8.4% | 0hPa | 2.7V | 08:30:00 | 01:05:52 | 00:00:00 | i |
| HASLITAL | 2026-08-31 11:31:52 | 46.94801 | 7.44252 | 74° | 146km/h | 9153m | 4.1m/s | -38.0°C | 7.1% | 0hPa | 2.8V | 00:00:00 | 00:00:00 | 00:00:00 | |
| IW2NTF | 2026-08-31 11:31:48 | 46.94740 | 7.43948 | 74° | 133km/h | 9129m | 5.1m/s | -38°C | 8.3% | 0hPa | 2.8V | 08:30:00 | 01:05:42 | 00:00:00 | |
| IW2NTF | 2026-08-31 11:31:38 | 46.94641 | 7.43480 | 75° | 135km/h | 9084m | 3.7m/s | -37.6°C | 8.1% | 0hPa | 2.8V | 08:30:00 | 01:05:32 | 00:00:00 | |
| DB0UT-7 | 2026-08-31 11:31:33 | 46.94609 | 7.43288 | 75° | 135km/h | 9069m | 4.0m/s | -37.3°C | 8.1% | 0hPa | 2.7V | 00:00:00 | 01:05:28 | 00:00:00 | |
| HASLITAL | 2026-08-31 11:31:31 | 46.94600 | 7.43241 | 74° | 131km/h | 9065m | 4.0m/s | -37.4°C | 6.6% | 0hPa | 2.7V | 00:00:00 | 00:00:00 | 00:00:00 | |
| IW2NTF | 2026-08-31 11:31:28 | 46.94548 | 7.43011 | 70° | 135km/h | 9045m | 4.3m/s | -37.1°C | 8.2% | 0hPa | 2.7V | 08:30:00 | 01:05:22 | 00:00:00 | i |
| IW2NTF | 2026-08-31 11:31:18 | 46.94447 | 7.42527 | 73° | 130km/h | 9002m | 4.7m/s | -37°C | 8.2% | 0hPa | 2.8V | 08:30:00 | 01:05:12 | 00:00:00 | i |
| IW2NTF | 2026-08-31 11:31:09 | 46.94337 | 7.42065 | 69° | 139km/h | 8957m | 4.4m/s | -36.7°C | 8.5% | 0hPa | 2.8V | 08:30:00 | 01:05:02 | 00:00:00 | i |
| DB0UT-7 | 2026-08-31 11:31:03 | 46.94295 | 7.41873 | 76° | 130km/h | 8941m | 4.4m/s | -36.6°C | 8.6% | 0hPa | 2.7V | 00:00:00 | 00:00:00 | 00:00:00 | |
| HASLITAL | 2026-08-31 11:31:01 | 46.94288 | 7.41827 | 79° | 126km/h | 8937m | 4.2m/s | -36.6°C | 7.2% | 0hPa | 2.8V | 00:00:00 | 00:00:00 | 00:00:00 | |
| IW2NTF | 2026-08-31 11:30:58 | 46.94255 | 7.41599 | 76° | 128km/h | 8918m | 3.4m/s | -36.5°C | 8.7% | 0hPa | 2.8V | 08:30:00 | 01:04:52 | 00:00:00 | i |
| IW2NTF | 2026-08-31 11:30:48 | 46.94166 | 7.41148 | 74° | 131km/h | 8868m | 4.4m/s | -36.3°C | 9.7% | 0hPa | 2.8V | 08:30:00 | 01:04:42 | 00:00:00 | i |
| IW2NTF | 2026-08-31 11:30:39 | 46.94074 | 7.40676 | 70° | 128km/h | 8826m | 3.8m/s | -36°C | 9.9% | 0hPa | 2.7V | 08:30:00 | 01:04:32 | 00:00:00 | i |
| DB0UT-7 | 2026-08-31 11:30:33 | 46.94031 | 7.40498 | 73° | 126km/h | 8811m | 4.0m/s | -35.9°C | 10.0% | 0hPa | 2.8V | 00:00:00 | 01:04:28 | 00:00:00 | |
| IW2NTF | 2026-08-31 11:30:28 | 46.93982 | 7.40218 | 73° | 133km/h | 8787m | 4.5m/s | -35.8°C | 10.5% | 0hPa | 2.8V | 08:30:00 | 01:04:22 | 00:00:00 | i |
| IW2NTF | 2026-08-31 11:30:18 | 46.93884 | 7.39776 | 73° | 128km/h | 8745m | 4.1m/s | -35.6°C | 10.3% | 0hPa | 2.8V | 08:30:00 | 01:04:12 | 00:00:00 | |
| IW2NTF | 2026-08-31 11:30:08 | 46.93785 | 7.39326 | 69° | 122km/h | 8702m | 4.1m/s | -35.1°C | 10.2% | 0hPa | 2.7V | 08:30:00 | 01:04:02 | 00:00:00 | i |
| IW2NTF | 2026-08-31 11:29:58 | 46.93702 | 7.38885 | 73° | 126km/h | 8662m | 4.7m/s | -35°C | 10.2% | 0hPa | 2.8V | 08:30:00 | 01:03:52 | 00:00:00 | i |
| IW2NTF | 2026-08-31 11:29:49 | 46.93597 | 7.38449 | 71° | 126km/h | 8619m | 4.4m/s | -34.7°C | 10.1% | 0hPa | 2.8V | 08:30:00 | 01:03:42 | 00:00:00 | i |
| IW2NTF | 2026-08-31 11:29:38 | 46.93509 | 7.38003 | 71° | 126km/h | 8578m | 4.7m/s | -34.3°C | 9.9% | 0hPa | 2.7V | 08:30:00 | 01:03:32 | 00:00:00 | |
| DB0UT-7 | 2026-08-31 11:29:33 | 46.93467 | 7.37836 | 72° | 122km/h | 8563m | 4.5m/s | -34.4°C | 11.0% | 0hPa | 2.7V | 00:00:00 | 01:03:28 | 00:00:00 | |
| HASLITAL | 2026-08-31 11:29:31 | 46.93458 | 7.37794 | 75° | 119km/h | 8558m | 4.7m/s | -34.4°C | 9.7% | 0hPa | 2.7V | 00:00:00 | 00:00:00 | 00:00:00 | |
| IW2NTF | 2026-08-31 11:29:28 | 46.93419 | 7.37572 | 73° | 126km/h | 8537m | 4.9m/s | -34.2°C | 12.3% | 0hPa | 2.7V | 08:30:00 | 01:03:22 | 00:00:00 | i |
| IW2NTF | 2026-08-31 11:29:18 | 46.93329 | 7.37147 | 74° | 124km/h | 8496m | 3.7m/s | -34.1°C | 13.9% | 0hPa | 2.8V | 08:30:00 | 01:03:12 | 00:00:00 | i |
| IW2NTF | 2026-08-31 11:29:08 | 46.93251 | 7.36713 | 74° | 128km/h | 8454m | 4.3m/s | -33.8°C | 15.5% | 0hPa | 2.8V | 08:30:00 | 01:03:02 | 00:00:00 | i |
| DB0UT-7 | 2026-08-31 11:29:03 | 46.93211 | 7.36539 | 70° | 117km/h | 8439m | 4.7m/s | -33.7°C | 15.3% | 0hPa | 2.8V | 00:00:00 | 00:00:00 | 00:00:00 | |
| HASLITAL | 2026-08-31 11:28:58 | 46.93175 | 7.36379 | 75° | 115km/h | 8423m | 4.4m/s | -33.4°C | 14.0% | 0hPa | 2.8V | 00:00:00 | 00:00:00 | 00:00:00 | i |
| IW2NTF | 2026-08-31 11:28:58 | 46.93159 | 7.36296 | 75° | 119km/h | 8414m | 3.8m/s | -33.3°C | 15.8% | 0hPa | 2.8V | 08:30:00 | 01:02:52 | 00:00:00 | i |
| IW2NTF | 2026-08-31 11:28:37 | 46.92955 | 7.35256 | 70° | 113km/h | 8304m | 4.3m/s | -32.8°C | 21.4% | 0hPa | 2.8V | 08:30:00 | 01:02:27 | 00:00:00 | i |
| HASLITAL | 2026-08-31 11:28:36 | 46.92994 | 7.35450 | 79° | 111km/h | 8325m | 4.2m/s | -33.0°C | 17.5% | 0hPa | 2.8V | 00:00:00 | 00:00:00 | 00:00:00 | |
| DB0UT-7 | 2026-08-31 11:28:33 | 46.92964 | 7.35295 | 72° | 111km/h | 8309m | 4.5m/s | -32.8°C | 21.0% | 0hPa | 2.8V | 00:00:00 | 01:02:28 | 00:00:00 | |
| IW2NTF | 2026-08-31 11:28:27 | 46.92881 | 7.34847 | 73° | 106km/h | 8264m | 4.1m/s | -32.6°C | 22.5% | 0hPa | 2.8V | 08:30:00 | 01:02:17 | 00:00:00 | i |
| IW2NTF | 2026-08-31 11:28:17 | 46.92818 | 7.34454 | 78° | 110km/h | 8223m | 4.2m/s | -32.2°C | 21.4% | 0hPa | 2.8V | 08:30:00 | 01:02:07 | 00:00:00 | i |
| HASLITAL | 2026-08-31 11:28:15 | 46.92838 | 7.34610 | 79° | 108km/h | 8239m | 4.7m/s | -32.4°C | 19.3% | 0hPa | 2.8V | 00:00:00 | 00:00:00 | 00:00:00 | |
| DB0ND-19 | 2026-08-31 11:28:13 | 46.92823 | 7.34493 | 79° | 108km/h | 8227m | 3.9m/s | -32.3°C | 19.2% | -1.0hPa | 2.8V | 00:00:00 | 00:00:00 | 00:00:00 | |
| IW2NTF | 2026-08-31 11:28:07 | 46.92749 | 7.34068 | 83° | 110km/h | 8185m | 3.9m/s | -31.9°C | 21% | 0hPa | 2.8V | 08:30:00 | 01:01:57 | 00:00:00 | i |
| DB0UT-7 | 2026-08-31 11:28:03 | 46.92753 | 7.34108 | 81° | 106km/h | 8189m | 4.2m/s | -31.9°C | 21.1% | 0hPa | 2.7V | 00:00:00 | 00:00:00 | 08:30:00 | |
| IW2NTF | 2026-08-31 11:27:57 | 46.92697 | 7.33673 | 71° | 110km/h | 8140m | 5.3m/s | -31.3°C | 19.9% | 0hPa | 2.8V | 08:30:00 | 01:01:47 | 00:00:00 | i |
| HASLITAL | 2026-08-31 11:27:55 | 46.92730 | 7.33827 | 78° | 108km/h | 8161m | 5.4m/s | -31.6°C | 18.9% | 0hPa | 2.8V | 00:00:00 | 00:00:00 | 00:00:00 | |
| IW2NTF | 2026-08-31 11:27:47 | 46.92629 | 7.33325 | 74° | 106km/h | 8091m | 4.5m/s | -30.9°C | 20% | 0hPa | 2.8V | 08:30:00 | 01:01:37 | 00:00:00 | i |
| DB0ND-19 | 2026-08-31 11:27:42 | 46.92614 | 7.33246 | 75° | 115km/h | 8080m | 5.5m/s | -30.8°C | 18.0% | -1.0hPa | 2.7V | 00:00:00 | 00:00:00 | 00:00:00 | |
| IW2NTF | 2026-08-31 11:27:38 | 46.92574 | 7.32926 | 86° | 99km/h | 8044m | 4.4m/s | -30.6°C | 19.5% | 0hPa | 2.7V | 08:30:00 | 01:01:27 | 00:00:00 | i |
| DB0UT-7 | 2026-08-31 11:27:33 | 46.92575 | 7.32962 | 85° | 111km/h | 8049m | 4.7m/s | -30.5°C | 19.5% | 0hPa | 2.8V | 00:00:00 | 01:01:28 | 00:00:00 | |
| HASLITAL | 2026-08-31 11:27:30 | 46.92573 | 7.32889 | 89° | 102km/h | 8040m | 4.1m/s | -30.5°C | 17.8% | 0hPa | 2.8V | 00:00:00 | 00:00:00 | 00:00:00 | |
| IW2NTF | 2026-08-31 11:27:28 | 46.92516 | 7.32514 | 67° | 111km/h | 7993m | 5.6m/s | -30°C | 20.1% | 0hPa | 2.8V | 08:30:00 | 01:01:17 | 00:00:00 | i |
| IW2NTF | 2026-08-31 11:27:17 | 46.92441 | 7.32143 | 71° | 113km/h | 7948m | 4.1m/s | -29.5°C | 19.4% | 0hPa | 2.8V | 08:30:00 | 01:01:07 | 00:00:00 | i |
| HASLITAL | 2026-08-31 11:27:09 | 46.92422 | 7.32063 | 72° | 115km/h | 7941m | 2.9m/s | -29.6°C | 17.7% | 0hPa | 2.8V | 00:00:00 | 00:00:00 | 00:00:00 | |
| IW2NTF | 2026-08-31 11:27:07 | 46.92369 | 7.31745 | 74° | 104km/h | 7909m | 4.2m/s | -29.2°C | 18.5% | 0hPa | 2.8V | 08:30:00 | 01:00:57 | 00:00:00 | i |
| DB0UT-7 | 2026-08-31 11:27:03 | 46.92376 | 7.31782 | 79° | 108km/h | 7914m | 4.1m/s | -29.3°C | 18.4% | 0hPa | 2.8V | 00:00:00 | 00:00:00 | 00:00:00 | |
| IW2NTF | 2026-08-31 11:26:58 | 46.92287 | 7.31361 | 82° | 111km/h | 7871m | 2.9m/s | -29.1°C | 17.6% | 0hPa | 2.8V | 08:30:00 | 01:00:47 | 00:00:00 | i |
| HASLITAL | 2026-08-31 11:26:48 | 46.92279 | 7.31245 | 87° | 100km/h | 7864m | 3.7m/s | -28.9°C | 15.7% | 0hPa | 2.8V | 00:00:00 | 00:00:00 | 00:00:00 | |
| IW2NTF | 2026-08-31 11:26:45 | 46.92214 | 7.30915 | 65° | 122km/h | 7819m | 5m/s | -28.5°C | 14.1% | 0hPa | 2.8V | 08:30:00 | 01:00:35 | 00:00:00 | i |
| DB0ND-19 | 2026-08-31 11:26:40 | 46.92214 | 7.30915 | 65° | 120km/h | 7819m | 5.0m/s | -28.5°C | 12.6% | -1.0hPa | 2.7V | 00:00:00 | 00:00:00 | 00:00:00 | |
| IW2NTF | 2026-08-31 11:26:35 | 46.92134 | 7.30534 | 75° | 106km/h | 7770m | 5.1m/s | -28°C | 0% | 0hPa | 2.7V | 08:30:00 | 01:00:25 | 00:00:00 | i |
| DB0UT-7 | 2026-08-31 11:26:33 | 46.92150 | 7.30644 | 80° | 111km/h | 7787m | 5.5m/s | -28.1°C | 12.8% | 0hPa | 2.7V | 00:00:00 | 01:00:28 | 00:00:00 | |
| HASLITAL | 2026-08-31 11:26:28 | 46.92126 | 7.30495 | 74° | 108km/h | 7765m | 4.7m/s | 0°C | 0% | 0hPa | 2.8V | 00:00:00 | 00:00:00 | 00:00:00 | |
| IW2NTF | 2026-08-31 11:26:26 | 46.92062 | 7.30147 | 76° | 102km/h | 7726m | 3.9m/s | -27.7°C | 0% | 0hPa | 2.8V | 08:30:00 | 01:00:15 | 00:00:00 | i |
| IW2NTF | 2026-08-31 11:26:15 | 46.91985 | 7.29750 | 77° | 124km/h | 7693m | 2.8m/s | -27.5°C | 0% | 0hPa | 2.8V | 08:30:00 | 01:00:05 | 00:00:00 | i |
| DB0ND-19 | 2026-08-31 11:26:09 | 46.91979 | 7.29706 | 77° | 122km/h | 7691m | 2.4m/s | -27.5°C | 8.1% | -1.0hPa | 2.8V | 00:00:00 | 00:00:00 | 00:00:00 | |
| HASLITAL | 2026-08-31 11:26:07 | 46.91971 | 7.29661 | 78° | 122km/h | 7689m | 2.8m/s | 0°C | 0% | 0hPa | 2.8V | 00:00:00 | 00:00:00 | 00:00:00 | |
| IW2NTF | 2026-08-31 11:26:06 | 46.91914 | 7.29331 | 74° | 115km/h | 7651m | 4.3m/s | -27.3°C | 0% | 0hPa | 2.8V | 08:30:00 | 00:59:55 | 00:00:00 | i |
| DB0UT-7 | 2026-08-31 11:26:03 | 46.91936 | 7.29452 | 76° | 110km/h | 7666m | 5.8m/s | -27.5°C | 9.0% | 0hPa | 2.8V | 00:00:00 | 00:00:00 | 00:00:00 | |
| IW2NTF | 2026-08-31 11:25:55 | 46.91839 | 7.28946 | 72° | 113km/h | 7615m | 3.1m/s | -27.1°C | 0% | 0hPa | 2.8V | 08:30:00 | 00:59:45 | 00:00:00 | i |
| HASLITAL | 2026-08-31 11:25:46 | 46.91812 | 7.28827 | 73° | 111km/h | 7606m | 3.4m/s | 0°C | 0% | 0hPa | 2.8V | 00:00:00 | 00:00:00 | 00:00:00 | |
| IW2NTF | 2026-08-31 11:25:45 | 46.91763 | 7.28558 | 75° | 106km/h | 7582m | 4m/s | 0°C | 0% | 0hPa | 2.8V | 08:30:00 | 00:59:35 | 00:00:00 | |
| DB0UT-7 | 2026-08-31 11:25:33 | 46.91708 | 7.28290 | 76° | 110km/h | 7561m | 2.6m/s | -26.7°C | 16.5% | 0hPa | 2.7V | 00:00:00 | 00:59:28 | 00:00:00 | |
| HASLITAL | 2026-08-31 11:25:26 | 46.91665 | 7.28060 | 75° | 106km/h | 7543m | 3.2m/s | 0°C | 0% | 0hPa | 2.7V | 00:00:00 | 00:00:00 | 00:00:00 | |
| HASLITAL | 2026-08-31 11:25:06 | 46.91498 | 7.27291 | 76° | 113km/h | 7480m | 3.0m/s | 0°C | 0% | 0hPa | 2.7V | 00:00:00 | 00:00:00 | 00:00:00 | |
| DB0UT-7 | 2026-08-31 11:25:03 | 46.91466 | 7.27132 | 73° | 111km/h | 7468m | 3.1m/s | -25.9°C | 15.1% | 0hPa | 2.7V | 00:00:00 | 00:00:00 | 00:00:00 | |
| HASLITAL | 2026-08-31 11:24:45 | 46.91327 | 7.26469 | 79° | 102km/h | 7412m | 3.2m/s | 0°C | 0% | 0hPa | 2.9V | 00:00:00 | 00:00:00 | 00:00:00 | |
| DB0UT-7 | 2026-08-31 11:24:33 | 46.91210 | 7.25963 | 73° | 110km/h | 7370m | 3.6m/s | -25.1°C | 12.1% | 0hPa | 2.9V | 00:00:00 | 00:58:28 | 00:00:00 | |
| HASLITAL | 2026-08-31 11:24:24 | 46.91138 | 7.25645 | 72° | 115km/h | 7339m | 4.2m/s | 0°C | 0% | 0hPa | 2.9V | 00:00:00 | 00:00:00 | 00:00:00 | |
| DB0ND-19 | 2026-08-31 11:24:05 | 46.90983 | 7.24832 | 70° | 108km/h | 7266m | 3.3m/s | -24.7°C | 14.7% | -1.0hPa | 2.9V | 00:00:00 | 00:00:00 | 00:00:00 | |
| DB0UT-7 | 2026-08-31 11:24:03 | 46.90974 | 7.24793 | 70° | 104km/h | 7263m | 2.8m/s | -24.6°C | 16.0% | 0hPa | 2.9V | 00:00:00 | 00:00:00 | 00:00:00 | |
| IW2NTF | 2026-08-31 11:23:56 | 46.90881 | 7.24349 | 73° | 108km/h | 7223m | 3.6m/s | 0°C | 0% | 0hPa | 2.9V | 00:00:00 | 00:57:46 | 00:00:00 | i |
| DB0ND-19 | 2026-08-31 11:23:35 | 46.90748 | 7.23722 | 74° | 95km/h | 7162m | 3.7m/s | -24.3°C | 14.7% | -1.0hPa | 2.9V | 00:00:00 | 00:00:00 | 00:00:00 | |
| DB0ND-19 | 2026-08-31 11:23:03 | 46.90509 | 7.22621 | 85° | 100km/h | 7031m | 4.7m/s | -23.9°C | 20.1% | -1.0hPa | 2.9V | 00:00:00 | 00:00:00 | 00:00:00 | |
| DB0UT-7 | 2026-08-31 11:22:33 | 46.90280 | 7.21573 | 77° | 100km/h | 6852m | 5.1m/s | -22.3°C | 23.8% | 0hPa | 2.9V | 00:00:00 | 00:56:28 | 00:00:00 | |
| DB0ND-19 | 2026-08-31 11:22:32 | 46.90252 | 7.21441 | 68° | 99km/h | 6833m | 4.9m/s | -22.2°C | 22.9% | -1.0hPa | 2.9V | 00:00:00 | 00:00:00 | 00:00:00 | |
| DB0UT-7 | 2026-08-31 11:22:03 | 46.90030 | 7.20511 | 69° | 104km/h | 6722m | 3.9m/s | -21.4°C | 25.7% | 0hPa | 2.9V | 00:00:00 | 00:00:00 | 00:00:00 | |
| DB0ND-19 | 2026-08-31 11:22:01 | 46.89973 | 7.20255 | 77° | 91km/h | 6692m | 4.5m/s | -21.2°C | 24.3% | -1.0hPa | 2.9V | 00:00:00 | 00:00:00 | 00:00:00 | |
| DB0UT-7 | 2026-08-31 11:21:33 | 46.89772 | 7.19434 | 77° | 97km/h | 6573m | 6.1m/s | -20.2°C | 25.5% | 0hPa | 2.9V | 00:00:00 | 00:55:28 | 00:00:00 | |
| DB0ND-19 | 2026-08-31 11:21:30 | 46.89756 | 7.19332 | 74° | 91km/h | 6554m | 6.1m/s | -20.0°C | 24.1% | -1.0hPa | 2.9V | 00:00:00 | 00:00:00 | 00:00:00 | |
| DB0UT-7 | 2026-08-31 11:21:03 | 46.89539 | 7.18424 | 65° | 97km/h | 6410m | 7.1m/s | -18.7°C | 25.6% | 0hPa | 2.9V | 00:00:00 | 00:00:00 | 00:00:00 | |
| DB0ND-19 | 2026-08-31 11:20:59 | 46.89474 | 7.18230 | 69° | 97km/h | 6378m | 5.2m/s | -18.7°C | 24.0% | -1.0hPa | 2.9V | 00:00:00 | 00:00:00 | 00:00:00 | |
| DB0UT-7 | 2026-08-31 11:20:33 | 46.89285 | 7.17423 | 73° | 95km/h | 6249m | 6.0m/s | -17.3°C | 24.3% | 0hPa | 2.9V | 00:00:00 | 00:54:28 | 00:00:00 | |
| DB0ND-19 | 2026-08-31 11:20:28 | 46.89227 | 7.17233 | 64° | 108km/h | 6220m | 4.4m/s | -17.1°C | 23.2% | -1.0hPa | 2.9V | 00:00:00 | 00:00:00 | 00:00:00 | |
| DB0UT-7 | 2026-08-31 11:20:03 | 46.89034 | 7.16440 | 78° | 93km/h | 6102m | 5.0m/s | -16.1°C | 24.9% | 0hPa | 2.9V | 00:00:00 | 00:00:00 | 00:00:00 | |
| DB0ND-19 | 2026-08-31 11:19:57 | 46.88985 | 7.16202 | 71° | 93km/h | 6068m | 5.2m/s | -16.1°C | 24.8% | -1.0hPa | 2.9V | 00:00:00 | 00:00:00 | 00:00:00 | |
| DB0UT-7 | 2026-08-31 11:19:33 | 46.88808 | 7.15469 | 68° | 93km/h | 5977m | 3.4m/s | -15.2°C | 26.8% | 0hPa | 2.9V | 00:00:00 | 00:53:28 | 00:00:00 | |
| DB0ND-19 | 2026-08-31 11:19:26 | 46.88744 | 7.15209 | 75° | 80km/h | 5948m | 3.3m/s | -14.9°C | 25.2% | -1.0hPa | 2.9V | 00:00:00 | 00:00:00 | 00:00:00 | |
| DB0UT-7 | 2026-08-31 11:19:03 | 46.88584 | 7.14503 | 71° | 89km/h | 5857m | 3.9m/s | -14.1°C | 26.0% | 0hPa | 2.9V | 00:00:00 | 00:00:00 | 08:30:00 | |
| DB0ND-19 | 2026-08-31 11:18:55 | 46.88520 | 7.14173 | 66° | 97km/h | 5819m | 4.9m/s | -13.7°C | 24.2% | -1.0hPa | 2.9V | 00:00:00 | 00:00:00 | 00:00:00 | |
| DB0UT-7 | 2026-08-31 11:18:33 | 46.88356 | 7.13569 | 74° | 89km/h | 5690m | 7.0m/s | -12.7°C | 26.4% | 0hPa | 2.9V | 00:00:00 | 00:52:28 | 00:00:00 | |
| DB0ND-19 | 2026-08-31 11:18:24 | 46.88273 | 7.13234 | 72° | 86km/h | 5628m | 6.3m/s | -12.2°C | 25.0% | -1.0hPa | 2.9V | 00:00:00 | 00:00:00 | 00:00:00 | |
| DB0UT-7 | 2026-08-31 11:18:03 | 46.88120 | 7.12644 | 76° | 88km/h | 5544m | 4.7m/s | -11.5°C | 25.2% | 0hPa | 2.9V | 00:00:00 | 00:00:00 | 00:00:00 | |
| DB0ND-19 | 2026-08-31 11:17:53 | 46.88035 | 7.12315 | 65° | 86km/h | 5501m | 3.9m/s | -11.1°C | 23.5% | -1.0hPa | 2.9V | 00:00:00 | 00:00:00 | 00:00:00 | |
| DB0UT-7 | 2026-08-31 11:17:33 | 46.87898 | 7.11724 | 62° | 88km/h | 5416m | 5.3m/s | -10.3°C | 24.0% | 0hPa | 2.9V | 00:00:00 | 00:51:28 | 00:00:00 | |
| DB0ND-19 | 2026-08-31 11:17:22 | 46.87791 | 7.11329 | 76° | 88km/h | 5362m | 4.5m/s | -10.0°C | -1.0% | -1.0hPa | 2.9V | 00:00:00 | 00:00:00 | 00:00:00 | |
| DB0UT-7 | 2026-08-31 11:17:03 | 46.87644 | 7.10823 | 70° | 88km/h | 5269m | 4.5m/s | -9.0°C | 21.4% | 0hPa | 2.9V | 00:00:00 | 00:00:00 | 00:00:00 | |
| DB0ND-19 | 2026-08-31 11:16:51 | 46.87570 | 7.10412 | 68° | 91km/h | 5206m | 5.3m/s | 0°C | -1.0% | -1.0hPa | 2.9V | 00:00:00 | 00:00:00 | 00:00:00 | |
| DB0UT-7 | 2026-08-31 11:16:33 | 46.87415 | 7.09906 | 76° | 80km/h | 5132m | 5.4m/s | -8.1°C | 17.9% | 0hPa | 2.9V | 00:00:00 | 00:50:28 | 00:00:00 | |
| DB0UT-7 | 2026-08-31 11:16:03 | 46.87215 | 7.09074 | 75° | 84km/h | 4959m | 3.5m/s | -6.8°C | 20.4% | 0hPa | 2.9V | 00:00:00 | 00:00:00 | 00:00:00 | |
| DB0UT-7 | 2026-08-31 11:15:33 | 46.86973 | 7.08215 | 68° | 82km/h | 4819m | 4.0m/s | -5.8°C | 0% | 0hPa | 0V | 00:00:00 | 00:49:28 | 00:00:00 | |
| DB0UT-7 | 2026-08-31 11:14:33 | 46.86550 | 7.06550 | 75° | 88km/h | 4599m | 4.0m/s | 0°C | 0% | 0hPa | 0V | 00:00:00 | 00:48:28 | 08:30:00 |